<?xml version='1.0' encoding='UTF-8'?><gpx version="1.1" creator="JPX - https://github.com/jenetics/jpx" xmlns="http://www.topografix.com/GPX/1/1"><trk><trkseg><trkpt lat="40.9793167" lon="16.2783317"><ele>616.0</ele><time>2026-04-18T07:43:26.634Z</time></trkpt><trkpt lat="40.9793467" lon="16.2782083"><ele>616.0</ele><time>2026-04-18T07:43:28.633Z</time></trkpt><trkpt lat="40.9793833" lon="16.2780617"><ele>616.0</ele><time>2026-04-18T07:43:30.634Z</time></trkpt><trkpt lat="40.979435" lon="16.2779117"><ele>616.0</ele><time>2026-04-18T07:43:32.634Z</time></trkpt><trkpt lat="40.979465" lon="16.2778183"><ele>616.0</ele><time>2026-04-18T07:43:33.633Z</time></trkpt><trkpt lat="40.9794933" lon="16.2777183"><ele>615.6666666666667</ele><time>2026-04-18T07:43:34.633Z</time></trkpt><trkpt lat="40.97952" lon="16.27761"><ele>615.3333333333334</ele><time>2026-04-18T07:43:35.634Z</time></trkpt><trkpt lat="40.9795483" lon="16.2775167"><ele>615.0</ele><time>2026-04-18T07:43:36.633Z</time></trkpt><trkpt lat="40.9795767" lon="16.2774283"><ele>614.6666666666666</ele><time>2026-04-18T07:43:37.634Z</time></trkpt><trkpt lat="40.9796033" lon="16.277335"><ele>614.3333333333333</ele><time>2026-04-18T07:43:38.634Z</time></trkpt><trkpt lat="40.979635" lon="16.2772367"><ele>614.0</ele><time>2026-04-18T07:43:39.633Z</time></trkpt><trkpt lat="40.9796667" lon="16.2771333"><ele>613.9999999999999</ele><time>2026-04-18T07:43:40.633Z</time></trkpt><trkpt lat="40.979695" lon="16.2770367"><ele>614.0</ele><time>2026-04-18T07:43:41.634Z</time></trkpt><trkpt lat="40.9797167" lon="16.276945"><ele>614.0</ele><time>2026-04-18T07:43:42.634Z</time></trkpt><trkpt lat="40.9797317" lon="16.2768517"><ele>614.0</ele><time>2026-04-18T07:43:43.634Z</time></trkpt><trkpt lat="40.97974" lon="16.27676"><ele>614.0</ele><time>2026-04-18T07:43:44.634Z</time></trkpt><trkpt lat="40.979745" lon="16.2766717"><ele>613.9999999999999</ele><time>2026-04-18T07:43:45.634Z</time></trkpt><trkpt lat="40.97975" lon="16.276585"><ele>614.0</ele><time>2026-04-18T07:43:46.634Z</time></trkpt><trkpt lat="40.9797517" lon="16.2764933"><ele>614.6666666666666</ele><time>2026-04-18T07:43:47.635Z</time></trkpt><trkpt lat="40.9797517" lon="16.276395"><ele>615.3333333333333</ele><time>2026-04-18T07:43:48.633Z</time></trkpt><trkpt lat="40.9797533" lon="16.27629"><ele>616.0</ele><time>2026-04-18T07:43:49.634Z</time></trkpt><trkpt lat="40.9797567" lon="16.2761817"><ele>616.6666666666666</ele><time>2026-04-18T07:43:50.634Z</time></trkpt><trkpt lat="40.9797633" lon="16.27607"><ele>617.3333333333334</ele><time>2026-04-18T07:43:51.633Z</time></trkpt><trkpt lat="40.97977" lon="16.2759567"><ele>618.0</ele><time>2026-04-18T07:43:52.634Z</time></trkpt><trkpt lat="40.9797733" lon="16.27584"><ele>618.0</ele><time>2026-04-18T07:43:53.634Z</time></trkpt><trkpt lat="40.9797717" lon="16.2757233"><ele>618.0</ele><time>2026-04-18T07:43:54.634Z</time></trkpt><trkpt lat="40.9797617" lon="16.275605"><ele>618.0</ele><time>2026-04-18T07:43:55.635Z</time></trkpt><trkpt lat="40.9797383" lon="16.2754867"><ele>618.0</ele><time>2026-04-18T07:43:56.638Z</time></trkpt><trkpt lat="40.9797067" lon="16.275365"><ele>618.0</ele><time>2026-04-18T07:43:57.633Z</time></trkpt><trkpt lat="40.979675" lon="16.27525"><ele>618.3333333333334</ele><time>2026-04-18T07:43:58.634Z</time></trkpt><trkpt lat="40.9796483" lon="16.27514"><ele>618.6666666666666</ele><time>2026-04-18T07:43:59.634Z</time></trkpt><trkpt lat="40.9796267" lon="16.2750367"><ele>619.0</ele><time>2026-04-18T07:44:00.633Z</time></trkpt><trkpt lat="40.9796117" lon="16.2749467"><ele>619.3333333333333</ele><time>2026-04-18T07:44:01.633Z</time></trkpt><trkpt lat="40.979605" lon="16.27486"><ele>619.6666666666666</ele><time>2026-04-18T07:44:02.634Z</time></trkpt><trkpt lat="40.9796083" lon="16.2747667"><ele>620.0</ele><time>2026-04-18T07:44:03.633Z</time></trkpt><trkpt lat="40.9796217" lon="16.2746633"><ele>620.1666666666666</ele><time>2026-04-18T07:44:04.633Z</time></trkpt><trkpt lat="40.9796483" lon="16.2745567"><ele>620.3333333333333</ele><time>2026-04-18T07:44:05.634Z</time></trkpt><trkpt lat="40.9796783" lon="16.27446"><ele>620.5</ele><time>2026-04-18T07:44:06.634Z</time></trkpt><trkpt lat="40.97971" lon="16.2743683"><ele>620.6666666666666</ele><time>2026-04-18T07:44:07.633Z</time></trkpt><trkpt lat="40.9797383" lon="16.2742717"><ele>620.8333333333334</ele><time>2026-04-18T07:44:08.633Z</time></trkpt><trkpt lat="40.9797617" lon="16.274175"><ele>621.0</ele><time>2026-04-18T07:44:09.633Z</time></trkpt><trkpt lat="40.9797767" lon="16.2740817"><ele>621.0</ele><time>2026-04-18T07:44:10.633Z</time></trkpt><trkpt lat="40.97979" lon="16.2739833"><ele>621.0</ele><time>2026-04-18T07:44:11.633Z</time></trkpt><trkpt lat="40.979805" lon="16.2738817"><ele>621.0</ele><time>2026-04-18T07:44:12.633Z</time></trkpt><trkpt lat="40.979825" lon="16.2737833"><ele>621.0</ele><time>2026-04-18T07:44:13.633Z</time></trkpt><trkpt lat="40.9798533" lon="16.2736883"><ele>621.0</ele><time>2026-04-18T07:44:14.633Z</time></trkpt><trkpt lat="40.9798917" lon="16.273585"><ele>621.0</ele><time>2026-04-18T07:44:15.633Z</time></trkpt><trkpt lat="40.9799317" lon="16.2734833"><ele>621.0</ele><time>2026-04-18T07:44:16.634Z</time></trkpt><trkpt lat="40.97997" lon="16.2733817"><ele>621.0</ele><time>2026-04-18T07:44:17.633Z</time></trkpt><trkpt lat="40.9800117" lon="16.2732783"><ele>621.0</ele><time>2026-04-18T07:44:18.633Z</time></trkpt><trkpt lat="40.9800367" lon="16.2731683"><ele>621.0</ele><time>2026-04-18T07:44:19.633Z</time></trkpt><trkpt lat="40.9800483" lon="16.2730517"><ele>621.0</ele><time>2026-04-18T07:44:20.634Z</time></trkpt><trkpt lat="40.9800417" lon="16.2729317"><ele>621.0</ele><time>2026-04-18T07:44:21.637Z</time></trkpt><trkpt lat="40.9800233" lon="16.27281"><ele>621.0</ele><time>2026-04-18T07:44:22.634Z</time></trkpt><trkpt lat="40.980005" lon="16.2726867"><ele>621.0</ele><time>2026-04-18T07:44:23.635Z</time></trkpt><trkpt lat="40.979995" lon="16.27257"><ele>621.0</ele><time>2026-04-18T07:44:24.634Z</time></trkpt><trkpt lat="40.97999" lon="16.2724567"><ele>621.0</ele><time>2026-04-18T07:44:25.633Z</time></trkpt><trkpt lat="40.97998" lon="16.2723567"><ele>621.0</ele><time>2026-04-18T07:44:26.633Z</time></trkpt><trkpt lat="40.97998" lon="16.2722567"><ele>621.0</ele><time>2026-04-18T07:44:27.633Z</time></trkpt><trkpt lat="40.9799883" lon="16.2721633"><ele>621.0</ele><time>2026-04-18T07:44:28.633Z</time></trkpt><trkpt lat="40.98001" lon="16.27208"><ele>621.0</ele><time>2026-04-18T07:44:29.634Z</time></trkpt><trkpt lat="40.9800383" lon="16.2719917"><ele>621.0</ele><time>2026-04-18T07:44:30.633Z</time></trkpt><trkpt lat="40.980075" lon="16.2718983"><ele>621.0</ele><time>2026-04-18T07:44:31.633Z</time></trkpt><trkpt lat="40.980115" lon="16.2718017"><ele>621.0</ele><time>2026-04-18T07:44:32.634Z</time></trkpt><trkpt lat="40.9801483" lon="16.2716933"><ele>621.0</ele><time>2026-04-18T07:44:33.633Z</time></trkpt><trkpt lat="40.98017" lon="16.271575"><ele>621.0</ele><time>2026-04-18T07:44:34.634Z</time></trkpt><trkpt lat="40.9801867" lon="16.2714633"><ele>621.0</ele><time>2026-04-18T07:44:35.634Z</time></trkpt><trkpt lat="40.980205" lon="16.27136"><ele>621.0</ele><time>2026-04-18T07:44:36.633Z</time></trkpt><trkpt lat="40.9802283" lon="16.271265"><ele>621.0</ele><time>2026-04-18T07:44:37.633Z</time></trkpt><trkpt lat="40.980265" lon="16.271175"><ele>621.0</ele><time>2026-04-18T07:44:38.633Z</time></trkpt><trkpt lat="40.9803167" lon="16.27108"><ele>621.0</ele><time>2026-04-18T07:44:39.634Z</time></trkpt><trkpt lat="40.9803683" lon="16.270985"><ele>621.1666666666666</ele><time>2026-04-18T07:44:40.634Z</time></trkpt><trkpt lat="40.9804133" lon="16.270895"><ele>621.3333333333334</ele><time>2026-04-18T07:44:41.636Z</time></trkpt><trkpt lat="40.9804567" lon="16.2708"><ele>621.5</ele><time>2026-04-18T07:44:42.634Z</time></trkpt><trkpt lat="40.9804933" lon="16.2706983"><ele>621.6666666666667</ele><time>2026-04-18T07:44:43.633Z</time></trkpt><trkpt lat="40.9805267" lon="16.2705983"><ele>621.8333333333334</ele><time>2026-04-18T07:44:44.634Z</time></trkpt><trkpt lat="40.9805583" lon="16.2705"><ele>622.0</ele><time>2026-04-18T07:44:45.634Z</time></trkpt><trkpt lat="40.9805883" lon="16.2704083"><ele>622.0</ele><time>2026-04-18T07:44:46.634Z</time></trkpt><trkpt lat="40.980615" lon="16.2703217"><ele>622.0</ele><time>2026-04-18T07:44:47.633Z</time></trkpt><trkpt lat="40.9806483" lon="16.27024"><ele>622.0</ele><time>2026-04-18T07:44:48.633Z</time></trkpt><trkpt lat="40.98069" lon="16.2701567"><ele>622.0</ele><time>2026-04-18T07:44:49.634Z</time></trkpt><trkpt lat="40.9807467" lon="16.270075"><ele>622.0</ele><time>2026-04-18T07:44:50.633Z</time></trkpt><trkpt lat="40.980815" lon="16.2699983"><ele>622.0</ele><time>2026-04-18T07:44:51.634Z</time></trkpt><trkpt lat="40.980885" lon="16.2699217"><ele>622.0</ele><time>2026-04-18T07:44:52.634Z</time></trkpt><trkpt lat="40.9809533" lon="16.2698433"><ele>622.0</ele><time>2026-04-18T07:44:53.633Z</time></trkpt><trkpt lat="40.981015" lon="16.2697667"><ele>622.0</ele><time>2026-04-18T07:44:54.634Z</time></trkpt><trkpt lat="40.98107" lon="16.2696883"><ele>622.0</ele><time>2026-04-18T07:44:55.633Z</time></trkpt><trkpt lat="40.9811267" lon="16.26961"><ele>622.0</ele><time>2026-04-18T07:44:56.635Z</time></trkpt><trkpt lat="40.98119" lon="16.2695383"><ele>622.0</ele><time>2026-04-18T07:44:57.634Z</time></trkpt><trkpt lat="40.981255" lon="16.26948"><ele>622.0</ele><time>2026-04-18T07:44:58.634Z</time></trkpt><trkpt lat="40.98132" lon="16.2694367"><ele>622.0</ele><time>2026-04-18T07:44:59.633Z</time></trkpt><trkpt lat="40.9813883" lon="16.269395"><ele>622.0</ele><time>2026-04-18T07:45:00.633Z</time></trkpt><trkpt lat="40.98146" lon="16.2693583"><ele>622.0</ele><time>2026-04-18T07:45:01.634Z</time></trkpt><trkpt lat="40.981525" lon="16.2693367"><ele>622.0</ele><time>2026-04-18T07:45:02.634Z</time></trkpt><trkpt lat="40.9815883" lon="16.2693183"><ele>622.0</ele><time>2026-04-18T07:45:03.634Z</time></trkpt><trkpt lat="40.98166" lon="16.26929"><ele>622.0</ele><time>2026-04-18T07:45:04.634Z</time></trkpt><trkpt lat="40.981735" lon="16.2692417"><ele>622.0</ele><time>2026-04-18T07:45:05.633Z</time></trkpt><trkpt lat="40.9818083" lon="16.2691867"><ele>622.0</ele><time>2026-04-18T07:45:06.633Z</time></trkpt><trkpt lat="40.9818733" lon="16.269125"><ele>622.0</ele><time>2026-04-18T07:45:07.633Z</time></trkpt><trkpt lat="40.98192" lon="16.2690617"><ele>622.0</ele><time>2026-04-18T07:45:08.634Z</time></trkpt><trkpt lat="40.98198" lon="16.26892"><ele>622.0</ele><time>2026-04-18T07:45:10.634Z</time></trkpt><trkpt lat="40.982" lon="16.26883"><ele>622.0</ele><time>2026-04-18T07:45:11.634Z</time></trkpt><trkpt lat="40.9820183" lon="16.268735"><ele>622.1428571428571</ele><time>2026-04-18T07:45:12.634Z</time></trkpt><trkpt lat="40.9820317" lon="16.26864"><ele>622.2857142857143</ele><time>2026-04-18T07:45:13.633Z</time></trkpt><trkpt lat="40.9820433" lon="16.2685433"><ele>622.4285714285714</ele><time>2026-04-18T07:45:14.635Z</time></trkpt><trkpt lat="40.9820517" lon="16.268445"><ele>622.5714285714286</ele><time>2026-04-18T07:45:15.633Z</time></trkpt><trkpt lat="40.98206" lon="16.2683533"><ele>622.7142857142858</ele><time>2026-04-18T07:45:16.634Z</time></trkpt><trkpt lat="40.9820767" lon="16.2682633"><ele>622.8571428571429</ele><time>2026-04-18T07:45:17.633Z</time></trkpt><trkpt lat="40.9821083" lon="16.2681667"><ele>623.0</ele><time>2026-04-18T07:45:18.634Z</time></trkpt><trkpt lat="40.9821433" lon="16.268065"><ele>623.6</ele><time>2026-04-18T07:45:19.633Z</time></trkpt><trkpt lat="40.9821783" lon="16.2679567"><ele>624.1999999999999</ele><time>2026-04-18T07:45:20.634Z</time></trkpt><trkpt lat="40.9822133" lon="16.26784"><ele>624.8</ele><time>2026-04-18T07:45:21.634Z</time></trkpt><trkpt lat="40.982245" lon="16.2677167"><ele>625.4</ele><time>2026-04-18T07:45:22.634Z</time></trkpt><trkpt lat="40.9822683" lon="16.2675967"><ele>626.0</ele><time>2026-04-18T07:45:23.634Z</time></trkpt><trkpt lat="40.98229" lon="16.267495"><ele>626.0</ele><time>2026-04-18T07:45:24.633Z</time></trkpt><trkpt lat="40.9823167" lon="16.2674067"><ele>626.0</ele><time>2026-04-18T07:45:25.633Z</time></trkpt><trkpt lat="40.9823433" lon="16.2673083"><ele>626.0</ele><time>2026-04-18T07:45:26.633Z</time></trkpt><trkpt lat="40.98237" lon="16.2671967"><ele>626.0</ele><time>2026-04-18T07:45:27.633Z</time></trkpt><trkpt lat="40.9823967" lon="16.2670833"><ele>626.0</ele><time>2026-04-18T07:45:28.633Z</time></trkpt><trkpt lat="40.9824183" lon="16.2669683"><ele>626.0</ele><time>2026-04-18T07:45:29.634Z</time></trkpt><trkpt lat="40.9824383" lon="16.26685"><ele>626.0</ele><time>2026-04-18T07:45:30.635Z</time></trkpt><trkpt lat="40.9824583" lon="16.2667367"><ele>626.0</ele><time>2026-04-18T07:45:31.633Z</time></trkpt><trkpt lat="40.9824733" lon="16.2666233"><ele>626.0</ele><time>2026-04-18T07:45:32.634Z</time></trkpt><trkpt lat="40.9824833" lon="16.2665033"><ele>626.0</ele><time>2026-04-18T07:45:33.633Z</time></trkpt><trkpt lat="40.982495" lon="16.2663783"><ele>626.0</ele><time>2026-04-18T07:45:34.634Z</time></trkpt><trkpt lat="40.9825083" lon="16.2662533"><ele>625.6</ele><time>2026-04-18T07:45:35.633Z</time></trkpt><trkpt lat="40.982525" lon="16.2661217"><ele>625.2</ele><time>2026-04-18T07:45:36.633Z</time></trkpt><trkpt lat="40.9825517" lon="16.26599"><ele>624.8</ele><time>2026-04-18T07:45:37.633Z</time></trkpt><trkpt lat="40.9825833" lon="16.2658717"><ele>624.4</ele><time>2026-04-18T07:45:38.635Z</time></trkpt><trkpt lat="40.9826133" lon="16.265755"><ele>624.0</ele><time>2026-04-18T07:45:39.634Z</time></trkpt><trkpt lat="40.9826367" lon="16.2656283"><ele>624.8</ele><time>2026-04-18T07:45:40.633Z</time></trkpt><trkpt lat="40.9826583" lon="16.265505"><ele>625.5999999999999</ele><time>2026-04-18T07:45:41.634Z</time></trkpt><trkpt lat="40.982685" lon="16.2653867"><ele>626.4</ele><time>2026-04-18T07:45:42.633Z</time></trkpt><trkpt lat="40.9827183" lon="16.2652733"><ele>627.1999999999999</ele><time>2026-04-18T07:45:43.633Z</time></trkpt><trkpt lat="40.98276" lon="16.2651667"><ele>628.0</ele><time>2026-04-18T07:45:44.634Z</time></trkpt><trkpt lat="40.9828067" lon="16.2650683"><ele>628.0</ele><time>2026-04-18T07:45:45.634Z</time></trkpt><trkpt lat="40.9828583" lon="16.264975"><ele>628.0</ele><time>2026-04-18T07:45:46.633Z</time></trkpt><trkpt lat="40.9829183" lon="16.2648833"><ele>628.0</ele><time>2026-04-18T07:45:47.634Z</time></trkpt><trkpt lat="40.98298" lon="16.2647883"><ele>628.0</ele><time>2026-04-18T07:45:48.633Z</time></trkpt><trkpt lat="40.983035" lon="16.2646867"><ele>628.0</ele><time>2026-04-18T07:45:49.634Z</time></trkpt><trkpt lat="40.9830833" lon="16.2645733"><ele>628.0</ele><time>2026-04-18T07:45:50.634Z</time></trkpt><trkpt lat="40.9831267" lon="16.2644633"><ele>628.0</ele><time>2026-04-18T07:45:51.633Z</time></trkpt><trkpt lat="40.9831617" lon="16.264355"><ele>628.0</ele><time>2026-04-18T07:45:52.634Z</time></trkpt><trkpt lat="40.983195" lon="16.2642567"><ele>628.0</ele><time>2026-04-18T07:45:53.634Z</time></trkpt><trkpt lat="40.98323" lon="16.2641633"><ele>628.0</ele><time>2026-04-18T07:45:54.633Z</time></trkpt><trkpt lat="40.98327" lon="16.2640783"><ele>628.0</ele><time>2026-04-18T07:45:55.634Z</time></trkpt><trkpt lat="40.983305" lon="16.264005"><ele>627.8</ele><time>2026-04-18T07:45:56.634Z</time></trkpt><trkpt lat="40.9833383" lon="16.263925"><ele>627.5999999999999</ele><time>2026-04-18T07:45:57.634Z</time></trkpt><trkpt lat="40.9833717" lon="16.2638417"><ele>627.4000000000001</ele><time>2026-04-18T07:45:58.633Z</time></trkpt><trkpt lat="40.9834083" lon="16.26377"><ele>627.2</ele><time>2026-04-18T07:45:59.633Z</time></trkpt><trkpt lat="40.9834933" lon="16.263645"><ele>627.0</ele><time>2026-04-18T07:46:01.633Z</time></trkpt><trkpt lat="40.9835833" lon="16.2635283"><ele>626.8333333333334</ele><time>2026-04-18T07:46:03.633Z</time></trkpt><trkpt lat="40.9836317" lon="16.263465"><ele>626.6666666666666</ele><time>2026-04-18T07:46:04.635Z</time></trkpt><trkpt lat="40.9836767" lon="16.2633917"><ele>626.5</ele><time>2026-04-18T07:46:05.634Z</time></trkpt><trkpt lat="40.9837217" lon="16.2633067"><ele>626.3333333333333</ele><time>2026-04-18T07:46:06.633Z</time></trkpt><trkpt lat="40.983765" lon="16.2632167"><ele>626.1666666666666</ele><time>2026-04-18T07:46:07.636Z</time></trkpt><trkpt lat="40.983805" lon="16.2631233"><ele>626.0</ele><time>2026-04-18T07:46:08.634Z</time></trkpt><trkpt lat="40.9838417" lon="16.2630333"><ele>626.0</ele><time>2026-04-18T07:46:09.633Z</time></trkpt><trkpt lat="40.9838733" lon="16.262935"><ele>626.0</ele><time>2026-04-18T07:46:10.633Z</time></trkpt><trkpt lat="40.9839" lon="16.2628283"><ele>626.0</ele><time>2026-04-18T07:46:11.634Z</time></trkpt><trkpt lat="40.9839183" lon="16.262715"><ele>626.0</ele><time>2026-04-18T07:46:12.633Z</time></trkpt><trkpt lat="40.983935" lon="16.2626017"><ele>626.0</ele><time>2026-04-18T07:46:13.638Z</time></trkpt><trkpt lat="40.9839517" lon="16.2624917"><ele>626.0</ele><time>2026-04-18T07:46:14.634Z</time></trkpt><trkpt lat="40.98397" lon="16.2623883"><ele>626.0</ele><time>2026-04-18T07:46:15.633Z</time></trkpt><trkpt lat="40.983995" lon="16.26229"><ele>626.0</ele><time>2026-04-18T07:46:16.634Z</time></trkpt><trkpt lat="40.9840233" lon="16.26219"><ele>626.0</ele><time>2026-04-18T07:46:17.634Z</time></trkpt><trkpt lat="40.9840533" lon="16.2620933"><ele>626.0</ele><time>2026-04-18T07:46:18.633Z</time></trkpt><trkpt lat="40.984085" lon="16.262"><ele>626.0</ele><time>2026-04-18T07:46:19.633Z</time></trkpt><trkpt lat="40.9841183" lon="16.26191"><ele>626.0</ele><time>2026-04-18T07:46:20.634Z</time></trkpt><trkpt lat="40.9841533" lon="16.2618233"><ele>626.1666666666666</ele><time>2026-04-18T07:46:21.633Z</time></trkpt><trkpt lat="40.9841867" lon="16.261735"><ele>626.3333333333333</ele><time>2026-04-18T07:46:22.633Z</time></trkpt><trkpt lat="40.98422" lon="16.261645"><ele>626.5</ele><time>2026-04-18T07:46:23.634Z</time></trkpt><trkpt lat="40.9842467" lon="16.2615483"><ele>626.6666666666666</ele><time>2026-04-18T07:46:24.634Z</time></trkpt><trkpt lat="40.98427" lon="16.2614433"><ele>626.8333333333334</ele><time>2026-04-18T07:46:25.636Z</time></trkpt><trkpt lat="40.984295" lon="16.2613267"><ele>627.0</ele><time>2026-04-18T07:46:26.636Z</time></trkpt><trkpt lat="40.9843217" lon="16.261215"><ele>627.3333333333334</ele><time>2026-04-18T07:46:27.633Z</time></trkpt><trkpt lat="40.9843517" lon="16.2611067"><ele>627.6666666666666</ele><time>2026-04-18T07:46:28.633Z</time></trkpt><trkpt lat="40.9843833" lon="16.2610017"><ele>628.0</ele><time>2026-04-18T07:46:29.635Z</time></trkpt><trkpt lat="40.9844267" lon="16.260905"><ele>628.3333333333333</ele><time>2026-04-18T07:46:30.634Z</time></trkpt><trkpt lat="40.984475" lon="16.260805"><ele>628.6666666666666</ele><time>2026-04-18T07:46:31.634Z</time></trkpt><trkpt lat="40.984525" lon="16.2607067"><ele>629.0</ele><time>2026-04-18T07:46:32.634Z</time></trkpt><trkpt lat="40.9845767" lon="16.2606183"><ele>629.0</ele><time>2026-04-18T07:46:33.633Z</time></trkpt><trkpt lat="40.9846317" lon="16.2605333"><ele>629.0</ele><time>2026-04-18T07:46:34.633Z</time></trkpt><trkpt lat="40.9846867" lon="16.2604483"><ele>629.0</ele><time>2026-04-18T07:46:35.633Z</time></trkpt><trkpt lat="40.9847433" lon="16.2603733"><ele>629.0</ele><time>2026-04-18T07:46:36.633Z</time></trkpt><trkpt lat="40.9848017" lon="16.2603067"><ele>629.0</ele><time>2026-04-18T07:46:37.634Z</time></trkpt><trkpt lat="40.9848633" lon="16.260225"><ele>629.0</ele><time>2026-04-18T07:46:38.634Z</time></trkpt><trkpt lat="40.98492" lon="16.2601367"><ele>629.0</ele><time>2026-04-18T07:46:39.633Z</time></trkpt><trkpt lat="40.9849733" lon="16.2600483"><ele>629.0</ele><time>2026-04-18T07:46:40.633Z</time></trkpt><trkpt lat="40.98502" lon="16.25997"><ele>629.0</ele><time>2026-04-18T07:46:41.633Z</time></trkpt><trkpt lat="40.9850633" lon="16.2598967"><ele>629.0</ele><time>2026-04-18T07:46:42.633Z</time></trkpt><trkpt lat="40.985105" lon="16.2598183"><ele>629.0</ele><time>2026-04-18T07:46:43.633Z</time></trkpt><trkpt lat="40.9851567" lon="16.2597367"><ele>629.0</ele><time>2026-04-18T07:46:44.633Z</time></trkpt><trkpt lat="40.985215" lon="16.2596567"><ele>628.8</ele><time>2026-04-18T07:46:45.634Z</time></trkpt><trkpt lat="40.9852717" lon="16.259585"><ele>628.5999999999999</ele><time>2026-04-18T07:46:46.633Z</time></trkpt><trkpt lat="40.985325" lon="16.2595133"><ele>628.4</ele><time>2026-04-18T07:46:47.635Z</time></trkpt><trkpt lat="40.9853667" lon="16.2594483"><ele>628.1999999999999</ele><time>2026-04-18T07:46:48.635Z</time></trkpt><trkpt lat="40.985425" lon="16.2593183"><ele>628.0</ele><time>2026-04-18T07:46:50.635Z</time></trkpt><trkpt lat="40.98545" lon="16.2591533"><ele>628.0</ele><time>2026-04-18T07:46:52.635Z</time></trkpt><trkpt lat="40.9854583" lon="16.25905"><ele>628.0</ele><time>2026-04-18T07:46:53.635Z</time></trkpt><trkpt lat="40.985465" lon="16.2589333"><ele>628.0</ele><time>2026-04-18T07:46:54.633Z</time></trkpt><trkpt lat="40.9854717" lon="16.2588067"><ele>628.0</ele><time>2026-04-18T07:46:55.633Z</time></trkpt><trkpt lat="40.9854767" lon="16.2586733"><ele>628.0</ele><time>2026-04-18T07:46:56.633Z</time></trkpt><trkpt lat="40.9854833" lon="16.2585333"><ele>627.6</ele><time>2026-04-18T07:46:57.635Z</time></trkpt><trkpt lat="40.98549" lon="16.2583917"><ele>627.1999999999999</ele><time>2026-04-18T07:46:58.633Z</time></trkpt><trkpt lat="40.985495" lon="16.258245"><ele>626.8</ele><time>2026-04-18T07:46:59.634Z</time></trkpt><trkpt lat="40.9855033" lon="16.2580983"><ele>626.4</ele><time>2026-04-18T07:47:00.634Z</time></trkpt><trkpt lat="40.9855133" lon="16.25795"><ele>626.0</ele><time>2026-04-18T07:47:01.635Z</time></trkpt><trkpt lat="40.98553" lon="16.2578067"><ele>626.0</ele><time>2026-04-18T07:47:02.633Z</time></trkpt><trkpt lat="40.98555" lon="16.257675"><ele>626.0</ele><time>2026-04-18T07:47:03.633Z</time></trkpt><trkpt lat="40.9855667" lon="16.2575467"><ele>626.0</ele><time>2026-04-18T07:47:04.635Z</time></trkpt><trkpt lat="40.98558" lon="16.2574167"><ele>626.0</ele><time>2026-04-18T07:47:05.633Z</time></trkpt><trkpt lat="40.985595" lon="16.2572883"><ele>626.0</ele><time>2026-04-18T07:47:06.633Z</time></trkpt><trkpt lat="40.9856083" lon="16.257165"><ele>626.0</ele><time>2026-04-18T07:47:07.633Z</time></trkpt><trkpt lat="40.9856133" lon="16.25704"><ele>626.0</ele><time>2026-04-18T07:47:08.637Z</time></trkpt><trkpt lat="40.9856183" lon="16.25692"><ele>626.0</ele><time>2026-04-18T07:47:09.633Z</time></trkpt><trkpt lat="40.9856267" lon="16.256805"><ele>626.0</ele><time>2026-04-18T07:47:10.633Z</time></trkpt><trkpt lat="40.985635" lon="16.25669"><ele>626.0</ele><time>2026-04-18T07:47:11.633Z</time></trkpt><trkpt lat="40.9856467" lon="16.2565783"><ele>626.0</ele><time>2026-04-18T07:47:12.633Z</time></trkpt><trkpt lat="40.9856617" lon="16.2564617"><ele>626.2</ele><time>2026-04-18T07:47:13.634Z</time></trkpt><trkpt lat="40.985675" lon="16.2563333"><ele>626.4000000000001</ele><time>2026-04-18T07:47:14.635Z</time></trkpt><trkpt lat="40.9856967" lon="16.2561967"><ele>626.6</ele><time>2026-04-18T07:47:15.635Z</time></trkpt><trkpt lat="40.98572" lon="16.256055"><ele>626.8000000000001</ele><time>2026-04-18T07:47:16.633Z</time></trkpt><trkpt lat="40.9857483" lon="16.2559067"><ele>627.0</ele><time>2026-04-18T07:47:17.633Z</time></trkpt><trkpt lat="40.9857783" lon="16.255755"><ele>626.75</ele><time>2026-04-18T07:47:18.633Z</time></trkpt><trkpt lat="40.98581" lon="16.25561"><ele>626.5</ele><time>2026-04-18T07:47:19.633Z</time></trkpt><trkpt lat="40.985835" lon="16.2554633"><ele>626.25</ele><time>2026-04-18T07:47:20.635Z</time></trkpt><trkpt lat="40.9858533" lon="16.2553133"><ele>626.0</ele><time>2026-04-18T07:47:21.633Z</time></trkpt><trkpt lat="40.985865" lon="16.2551583"><ele>626.0</ele><time>2026-04-18T07:47:22.633Z</time></trkpt><trkpt lat="40.9858767" lon="16.2549983"><ele>626.0</ele><time>2026-04-18T07:47:23.634Z</time></trkpt><trkpt lat="40.98589" lon="16.2548367"><ele>626.0</ele><time>2026-04-18T07:47:24.639Z</time></trkpt><trkpt lat="40.98591" lon="16.2546867"><ele>626.0</ele><time>2026-04-18T07:47:25.636Z</time></trkpt><trkpt lat="40.9859317" lon="16.2545433"><ele>625.75</ele><time>2026-04-18T07:47:26.633Z</time></trkpt><trkpt lat="40.9859567" lon="16.2543933"><ele>625.5</ele><time>2026-04-18T07:47:27.633Z</time></trkpt><trkpt lat="40.9859833" lon="16.2542367"><ele>625.25</ele><time>2026-04-18T07:47:28.633Z</time></trkpt><trkpt lat="40.9860133" lon="16.25408"><ele>625.0</ele><time>2026-04-18T07:47:29.634Z</time></trkpt><trkpt lat="40.986045" lon="16.2539317"><ele>625.0</ele><time>2026-04-18T07:47:30.633Z</time></trkpt><trkpt lat="40.9860717" lon="16.2537967"><ele>625.0</ele><time>2026-04-18T07:47:31.743Z</time></trkpt><trkpt lat="40.9860817" lon="16.25356"><ele>625.0</ele><time>2026-04-18T07:47:33.634Z</time></trkpt><trkpt lat="40.9860683" lon="16.2534533"><ele>625.0</ele><time>2026-04-18T07:47:34.635Z</time></trkpt><trkpt lat="40.98605" lon="16.253345"><ele>625.0000000000001</ele><time>2026-04-18T07:47:35.633Z</time></trkpt><trkpt lat="40.9860267" lon="16.2532383"><ele>625.0</ele><time>2026-04-18T07:47:36.633Z</time></trkpt><trkpt lat="40.9859967" lon="16.25314"><ele>625.0</ele><time>2026-04-18T07:47:37.634Z</time></trkpt><trkpt lat="40.985965" lon="16.2530483"><ele>625.0</ele><time>2026-04-18T07:47:38.634Z</time></trkpt><trkpt lat="40.9859333" lon="16.25296"><ele>625.0</ele><time>2026-04-18T07:47:39.633Z</time></trkpt><trkpt lat="40.9859017" lon="16.25288"><ele>625.0000000000001</ele><time>2026-04-18T07:47:40.634Z</time></trkpt><trkpt lat="40.9858683" lon="16.2528083"><ele>625.0</ele><time>2026-04-18T07:47:41.633Z</time></trkpt><trkpt lat="40.9857867" lon="16.2526883"><ele>626.0</ele><time>2026-04-18T07:47:43.633Z</time></trkpt><trkpt lat="40.985725" lon="16.2525867"><ele>627.0</ele><time>2026-04-18T07:47:45.634Z</time></trkpt><trkpt lat="40.985665" lon="16.2524983"><ele>628.0</ele><time>2026-04-18T07:47:47.633Z</time></trkpt><trkpt lat="40.9855683" lon="16.2523983"><ele>629.0</ele><time>2026-04-18T07:47:49.634Z</time></trkpt><trkpt lat="40.985475" lon="16.2522967"><ele>630.0</ele><time>2026-04-18T07:47:51.633Z</time></trkpt><trkpt lat="40.985385" lon="16.2521917"><ele>630.0</ele><time>2026-04-18T07:47:53.634Z</time></trkpt><trkpt lat="40.985295" lon="16.2520783"><ele>630.0</ele><time>2026-04-18T07:47:55.633Z</time></trkpt><trkpt lat="40.9852033" lon="16.2519767"><ele>630.0</ele><time>2026-04-18T07:47:57.633Z</time></trkpt><trkpt lat="40.9851483" lon="16.2519233"><ele>630.0</ele><time>2026-04-18T07:47:58.635Z</time></trkpt><trkpt lat="40.9850867" lon="16.2518567"><ele>630.0</ele><time>2026-04-18T07:47:59.634Z</time></trkpt><trkpt lat="40.9850267" lon="16.251785"><ele>629.5714285714286</ele><time>2026-04-18T07:48:00.634Z</time></trkpt><trkpt lat="40.98497" lon="16.251715"><ele>629.1428571428571</ele><time>2026-04-18T07:48:01.634Z</time></trkpt><trkpt lat="40.9849167" lon="16.2516417"><ele>628.7142857142858</ele><time>2026-04-18T07:48:02.635Z</time></trkpt><trkpt lat="40.984865" lon="16.25157"><ele>628.2857142857142</ele><time>2026-04-18T07:48:03.634Z</time></trkpt><trkpt lat="40.9848167" lon="16.2515017"><ele>627.8571428571429</ele><time>2026-04-18T07:48:04.634Z</time></trkpt><trkpt lat="40.9847733" lon="16.2514317"><ele>627.4285714285714</ele><time>2026-04-18T07:48:05.635Z</time></trkpt><trkpt lat="40.9847383" lon="16.25136"><ele>627.0</ele><time>2026-04-18T07:48:06.634Z</time></trkpt><trkpt lat="40.9847083" lon="16.251285"><ele>626.8333333333334</ele><time>2026-04-18T07:48:07.634Z</time></trkpt><trkpt lat="40.9846733" lon="16.2512067"><ele>626.6666666666666</ele><time>2026-04-18T07:48:08.634Z</time></trkpt><trkpt lat="40.9846367" lon="16.2511317"><ele>626.5</ele><time>2026-04-18T07:48:09.635Z</time></trkpt><trkpt lat="40.9846017" lon="16.2510583"><ele>626.3333333333333</ele><time>2026-04-18T07:48:10.635Z</time></trkpt><trkpt lat="40.98455" lon="16.25092"><ele>626.1666666666666</ele><time>2026-04-18T07:48:12.634Z</time></trkpt><trkpt lat="40.9845233" lon="16.2508417"><ele>626.0</ele><time>2026-04-18T07:48:13.635Z</time></trkpt><trkpt lat="40.9844983" lon="16.2507533"><ele>626.0</ele><time>2026-04-18T07:48:14.635Z</time></trkpt><trkpt lat="40.9844783" lon="16.2506583"><ele>626.0</ele><time>2026-04-18T07:48:15.634Z</time></trkpt><trkpt lat="40.98446" lon="16.2505567"><ele>626.0</ele><time>2026-04-18T07:48:16.635Z</time></trkpt><trkpt lat="40.98445" lon="16.2504533"><ele>626.0</ele><time>2026-04-18T07:48:17.636Z</time></trkpt><trkpt lat="40.9844533" lon="16.2503417"><ele>626.0</ele><time>2026-04-18T07:48:18.634Z</time></trkpt><trkpt lat="40.9844667" lon="16.2502267"><ele>626.0</ele><time>2026-04-18T07:48:19.634Z</time></trkpt><trkpt lat="40.9844883" lon="16.2501117"><ele>626.0</ele><time>2026-04-18T07:48:20.637Z</time></trkpt><trkpt lat="40.9845117" lon="16.2500017"><ele>626.0</ele><time>2026-04-18T07:48:21.634Z</time></trkpt><trkpt lat="40.9845267" lon="16.2498967"><ele>626.0</ele><time>2026-04-18T07:48:22.635Z</time></trkpt><trkpt lat="40.984525" lon="16.24979"><ele>626.0</ele><time>2026-04-18T07:48:23.637Z</time></trkpt><trkpt lat="40.9845083" lon="16.2496833"><ele>626.0</ele><time>2026-04-18T07:48:24.634Z</time></trkpt><trkpt lat="40.98448" lon="16.249585"><ele>626.0</ele><time>2026-04-18T07:48:25.634Z</time></trkpt><trkpt lat="40.9844417" lon="16.2495017"><ele>626.0</ele><time>2026-04-18T07:48:26.634Z</time></trkpt><trkpt lat="40.984405" lon="16.249425"><ele>626.0</ele><time>2026-04-18T07:48:27.634Z</time></trkpt><trkpt lat="40.9843783" lon="16.2493467"><ele>626.0</ele><time>2026-04-18T07:48:28.639Z</time></trkpt><trkpt lat="40.98436" lon="16.2492617"><ele>626.0</ele><time>2026-04-18T07:48:29.634Z</time></trkpt><trkpt lat="40.98435" lon="16.2491783"><ele>626.0</ele><time>2026-04-18T07:48:30.634Z</time></trkpt><trkpt lat="40.9843467" lon="16.249095"><ele>626.0</ele><time>2026-04-18T07:48:31.634Z</time></trkpt><trkpt lat="40.9843533" lon="16.2490117"><ele>626.0</ele><time>2026-04-18T07:48:32.637Z</time></trkpt><trkpt lat="40.9843633" lon="16.2488833"><ele>626.0</ele><time>2026-04-18T07:48:34.634Z</time></trkpt><trkpt lat="40.9843333" lon="16.248995"><ele>626.0</ele><time>2026-04-18T07:49:04.636Z</time></trkpt><trkpt lat="40.9843333" lon="16.24915"><ele>626.0</ele><time>2026-04-18T07:49:06.635Z</time></trkpt><trkpt lat="40.9843383" lon="16.24924"><ele>626.0</ele><time>2026-04-18T07:49:07.635Z</time></trkpt><trkpt lat="40.9843567" lon="16.2493367"><ele>626.0</ele><time>2026-04-18T07:49:08.635Z</time></trkpt><trkpt lat="40.9843917" lon="16.2494333"><ele>626.0</ele><time>2026-04-18T07:49:09.634Z</time></trkpt><trkpt lat="40.98443" lon="16.2495267"><ele>626.0</ele><time>2026-04-18T07:49:10.634Z</time></trkpt><trkpt lat="40.9844667" lon="16.2496133"><ele>626.0</ele><time>2026-04-18T07:49:11.634Z</time></trkpt><trkpt lat="40.9844967" lon="16.2497017"><ele>626.0</ele><time>2026-04-18T07:49:12.634Z</time></trkpt><trkpt lat="40.9845117" lon="16.249795"><ele>626.0</ele><time>2026-04-18T07:49:13.634Z</time></trkpt><trkpt lat="40.9845117" lon="16.249895"><ele>626.0</ele><time>2026-04-18T07:49:14.635Z</time></trkpt><trkpt lat="40.9844983" lon="16.2499967"><ele>626.0</ele><time>2026-04-18T07:49:15.634Z</time></trkpt><trkpt lat="40.9844783" lon="16.2500917"><ele>626.0</ele><time>2026-04-18T07:49:16.634Z</time></trkpt><trkpt lat="40.9844567" lon="16.250185"><ele>626.0</ele><time>2026-04-18T07:49:17.635Z</time></trkpt><trkpt lat="40.98444" lon="16.2502783"><ele>626.0</ele><time>2026-04-18T07:49:18.635Z</time></trkpt><trkpt lat="40.984435" lon="16.2503733"><ele>626.0</ele><time>2026-04-18T07:49:19.635Z</time></trkpt><trkpt lat="40.98444" lon="16.2504683"><ele>626.0</ele><time>2026-04-18T07:49:20.635Z</time></trkpt><trkpt lat="40.9844517" lon="16.2505667"><ele>626.0</ele><time>2026-04-18T07:49:21.635Z</time></trkpt><trkpt lat="40.98447" lon="16.250675"><ele>626.0</ele><time>2026-04-18T07:49:22.635Z</time></trkpt><trkpt lat="40.9845" lon="16.250795"><ele>626.0</ele><time>2026-04-18T07:49:23.635Z</time></trkpt><trkpt lat="40.9845367" lon="16.2509233"><ele>626.0</ele><time>2026-04-18T07:49:24.635Z</time></trkpt><trkpt lat="40.9845833" lon="16.2510533"><ele>626.0</ele><time>2026-04-18T07:49:25.635Z</time></trkpt><trkpt lat="40.9846367" lon="16.25118"><ele>626.0</ele><time>2026-04-18T07:49:26.636Z</time></trkpt><trkpt lat="40.984695" lon="16.2513017"><ele>626.0</ele><time>2026-04-18T07:49:27.634Z</time></trkpt><trkpt lat="40.9847583" lon="16.2514167"><ele>626.2</ele><time>2026-04-18T07:49:28.634Z</time></trkpt><trkpt lat="40.9848233" lon="16.251525"><ele>626.4000000000001</ele><time>2026-04-18T07:49:29.634Z</time></trkpt><trkpt lat="40.98489" lon="16.25163"><ele>626.6</ele><time>2026-04-18T07:49:30.634Z</time></trkpt><trkpt lat="40.984965" lon="16.2517267"><ele>626.8000000000001</ele><time>2026-04-18T07:49:31.635Z</time></trkpt><trkpt lat="40.9850417" lon="16.2518133"><ele>627.0</ele><time>2026-04-18T07:49:32.635Z</time></trkpt><trkpt lat="40.9851133" lon="16.2518933"><ele>627.6</ele><time>2026-04-18T07:49:33.634Z</time></trkpt><trkpt lat="40.9851833" lon="16.251975"><ele>628.2</ele><time>2026-04-18T07:49:34.634Z</time></trkpt><trkpt lat="40.985255" lon="16.2520633"><ele>628.8</ele><time>2026-04-18T07:49:35.64Z</time></trkpt><trkpt lat="40.9853267" lon="16.25215"><ele>629.4</ele><time>2026-04-18T07:49:36.634Z</time></trkpt><trkpt lat="40.985395" lon="16.2522233"><ele>630.0</ele><time>2026-04-18T07:49:37.634Z</time></trkpt><trkpt lat="40.9854583" lon="16.2522883"><ele>630.0</ele><time>2026-04-18T07:49:38.635Z</time></trkpt><trkpt lat="40.9855183" lon="16.2523583"><ele>630.0</ele><time>2026-04-18T07:49:39.634Z</time></trkpt><trkpt lat="40.9855817" lon="16.252435"><ele>630.0</ele><time>2026-04-18T07:49:40.634Z</time></trkpt><trkpt lat="40.985645" lon="16.2525183"><ele>630.0</ele><time>2026-04-18T07:49:41.634Z</time></trkpt><trkpt lat="40.9857033" lon="16.252605"><ele>630.0</ele><time>2026-04-18T07:49:42.634Z</time></trkpt><trkpt lat="40.98576" lon="16.252695"><ele>630.0</ele><time>2026-04-18T07:49:43.634Z</time></trkpt><trkpt lat="40.9858133" lon="16.2527767"><ele>629.5714285714286</ele><time>2026-04-18T07:49:44.634Z</time></trkpt><trkpt lat="40.9858567" lon="16.252855"><ele>629.1428571428571</ele><time>2026-04-18T07:49:45.634Z</time></trkpt><trkpt lat="40.9858917" lon="16.25293"><ele>628.7142857142858</ele><time>2026-04-18T07:49:46.634Z</time></trkpt><trkpt lat="40.9859217" lon="16.25301"><ele>628.2857142857142</ele><time>2026-04-18T07:49:47.634Z</time></trkpt><trkpt lat="40.985955" lon="16.2531"><ele>627.8571428571429</ele><time>2026-04-18T07:49:48.634Z</time></trkpt><trkpt lat="40.9859883" lon="16.253195"><ele>627.4285714285714</ele><time>2026-04-18T07:49:49.635Z</time></trkpt><trkpt lat="40.9860133" lon="16.2532883"><ele>627.0</ele><time>2026-04-18T07:49:50.636Z</time></trkpt><trkpt lat="40.9860317" lon="16.25338"><ele>626.7142857142858</ele><time>2026-04-18T07:49:51.634Z</time></trkpt><trkpt lat="40.9860467" lon="16.2534717"><ele>626.4285714285714</ele><time>2026-04-18T07:49:52.634Z</time></trkpt><trkpt lat="40.98605" lon="16.2535617"><ele>626.1428571428571</ele><time>2026-04-18T07:49:53.634Z</time></trkpt><trkpt lat="40.9860483" lon="16.25365"><ele>625.8571428571429</ele><time>2026-04-18T07:49:54.635Z</time></trkpt><trkpt lat="40.986045" lon="16.25374"><ele>625.5714285714286</ele><time>2026-04-18T07:49:55.634Z</time></trkpt><trkpt lat="40.9860317" lon="16.2538433"><ele>625.2857142857143</ele><time>2026-04-18T07:49:56.635Z</time></trkpt><trkpt lat="40.9860133" lon="16.2539483"><ele>625.0</ele><time>2026-04-18T07:49:57.634Z</time></trkpt><trkpt lat="40.985995" lon="16.25405"><ele>625.0</ele><time>2026-04-18T07:49:58.634Z</time></trkpt><trkpt lat="40.9859783" lon="16.25416"><ele>625.0</ele><time>2026-04-18T07:49:59.634Z</time></trkpt><trkpt lat="40.98596" lon="16.2542767"><ele>625.0</ele><time>2026-04-18T07:50:00.634Z</time></trkpt><trkpt lat="40.98594" lon="16.2543917"><ele>625.0</ele><time>2026-04-18T07:50:01.634Z</time></trkpt><trkpt lat="40.9859183" lon="16.2545117"><ele>625.0</ele><time>2026-04-18T07:50:02.634Z</time></trkpt><trkpt lat="40.985895" lon="16.2546383"><ele>625.0</ele><time>2026-04-18T07:50:03.634Z</time></trkpt><trkpt lat="40.9858767" lon="16.2547817"><ele>625.0</ele><time>2026-04-18T07:50:04.633Z</time></trkpt><trkpt lat="40.9858567" lon="16.2549333"><ele>625.0</ele><time>2026-04-18T07:50:05.634Z</time></trkpt><trkpt lat="40.98584" lon="16.25509"><ele>625.0</ele><time>2026-04-18T07:50:06.634Z</time></trkpt><trkpt lat="40.9858283" lon="16.25524"><ele>625.3333333333334</ele><time>2026-04-18T07:50:07.633Z</time></trkpt><trkpt lat="40.985815" lon="16.2553783"><ele>625.6666666666667</ele><time>2026-04-18T07:50:08.634Z</time></trkpt><trkpt lat="40.9858033" lon="16.2555"><ele>626.0</ele><time>2026-04-18T07:50:09.634Z</time></trkpt><trkpt lat="40.9857867" lon="16.2556117"><ele>626.3333333333334</ele><time>2026-04-18T07:50:10.634Z</time></trkpt><trkpt lat="40.985765" lon="16.2557167"><ele>626.6666666666666</ele><time>2026-04-18T07:50:11.634Z</time></trkpt><trkpt lat="40.9857433" lon="16.255815"><ele>627.0</ele><time>2026-04-18T07:50:12.634Z</time></trkpt><trkpt lat="40.9857217" lon="16.2559067"><ele>627.0</ele><time>2026-04-18T07:50:13.634Z</time></trkpt><trkpt lat="40.9857033" lon="16.2559883"><ele>627.0</ele><time>2026-04-18T07:50:14.634Z</time></trkpt><trkpt lat="40.9856817" lon="16.2560933"><ele>627.0</ele><time>2026-04-18T07:50:16.634Z</time></trkpt><trkpt lat="40.98568" lon="16.25618"><ele>627.0</ele><time>2026-04-18T07:52:02.634Z</time></trkpt><trkpt lat="40.9856583" lon="16.2563383"><ele>627.0</ele><time>2026-04-18T07:52:04.634Z</time></trkpt><trkpt lat="40.98565" lon="16.25644"><ele>627.0</ele><time>2026-04-18T07:52:05.634Z</time></trkpt><trkpt lat="40.9856383" lon="16.2565533"><ele>626.8333333333334</ele><time>2026-04-18T07:52:06.634Z</time></trkpt><trkpt lat="40.985625" lon="16.256665"><ele>626.6666666666666</ele><time>2026-04-18T07:52:07.634Z</time></trkpt><trkpt lat="40.9856133" lon="16.2567617"><ele>626.5</ele><time>2026-04-18T07:52:08.634Z</time></trkpt><trkpt lat="40.985605" lon="16.25686"><ele>626.3333333333333</ele><time>2026-04-18T07:52:09.634Z</time></trkpt><trkpt lat="40.985605" lon="16.256965"><ele>626.1666666666666</ele><time>2026-04-18T07:52:10.634Z</time></trkpt><trkpt lat="40.9855933" lon="16.2570783"><ele>626.0</ele><time>2026-04-18T07:52:11.634Z</time></trkpt><trkpt lat="40.9855767" lon="16.2572017"><ele>625.8</ele><time>2026-04-18T07:52:12.634Z</time></trkpt><trkpt lat="40.9855617" lon="16.2573317"><ele>625.6</ele><time>2026-04-18T07:52:13.638Z</time></trkpt><trkpt lat="40.985555" lon="16.2574517"><ele>625.4</ele><time>2026-04-18T07:52:14.635Z</time></trkpt><trkpt lat="40.98555" lon="16.2575467"><ele>625.2</ele><time>2026-04-18T07:52:15.633Z</time></trkpt><trkpt lat="40.9855467" lon="16.2576883"><ele>625.0</ele><time>2026-04-18T07:52:17.634Z</time></trkpt><trkpt lat="40.98552" lon="16.2578467"><ele>625.0</ele><time>2026-04-18T07:52:19.634Z</time></trkpt><trkpt lat="40.9855083" lon="16.257945"><ele>625.0</ele><time>2026-04-18T07:52:20.636Z</time></trkpt><trkpt lat="40.9855" lon="16.2580567"><ele>625.0</ele><time>2026-04-18T07:52:21.635Z</time></trkpt><trkpt lat="40.9854917" lon="16.258175"><ele>625.0</ele><time>2026-04-18T07:52:22.634Z</time></trkpt><trkpt lat="40.9854867" lon="16.2582917"><ele>625.0</ele><time>2026-04-18T07:52:23.634Z</time></trkpt><trkpt lat="40.985485" lon="16.2584033"><ele>625.0</ele><time>2026-04-18T07:52:24.634Z</time></trkpt><trkpt lat="40.9854817" lon="16.258515"><ele>625.2</ele><time>2026-04-18T07:52:25.635Z</time></trkpt><trkpt lat="40.985475" lon="16.2586383"><ele>625.4</ele><time>2026-04-18T07:52:26.635Z</time></trkpt><trkpt lat="40.9854617" lon="16.2587733"><ele>625.6</ele><time>2026-04-18T07:52:27.635Z</time></trkpt><trkpt lat="40.9854483" lon="16.2589133"><ele>625.8</ele><time>2026-04-18T07:52:28.635Z</time></trkpt><trkpt lat="40.98544" lon="16.2590433"><ele>626.0</ele><time>2026-04-18T07:52:29.634Z</time></trkpt><trkpt lat="40.9854333" lon="16.2591567"><ele>626.3333333333333</ele><time>2026-04-18T07:52:30.634Z</time></trkpt><trkpt lat="40.9854233" lon="16.2592517"><ele>626.6666666666666</ele><time>2026-04-18T07:52:31.634Z</time></trkpt><trkpt lat="40.9853833" lon="16.2594017"><ele>627.0</ele><time>2026-04-18T07:52:33.634Z</time></trkpt><trkpt lat="40.985315" lon="16.2595267"><ele>627.3333333333334</ele><time>2026-04-18T07:52:35.634Z</time></trkpt><trkpt lat="40.98527" lon="16.2595883"><ele>627.6666666666667</ele><time>2026-04-18T07:52:36.634Z</time></trkpt><trkpt lat="40.9852183" lon="16.2596583"><ele>628.0</ele><time>2026-04-18T07:52:37.633Z</time></trkpt><trkpt lat="40.9851767" lon="16.259725"><ele>628.0</ele><time>2026-04-18T07:52:38.634Z</time></trkpt><trkpt lat="40.9851433" lon="16.2598667"><ele>628.0</ele><time>2026-04-18T07:52:40.633Z</time></trkpt><trkpt lat="40.9851533" lon="16.2600183"><ele>628.0</ele><time>2026-04-18T07:52:42.634Z</time></trkpt><trkpt lat="40.985165" lon="16.26016"><ele>628.0</ele><time>2026-04-18T07:52:44.634Z</time></trkpt><trkpt lat="40.9851683" lon="16.2602883"><ele>628.0</ele><time>2026-04-18T07:52:46.634Z</time></trkpt><trkpt lat="40.9851717" lon="16.2604383"><ele>628.0</ele><time>2026-04-18T07:52:48.634Z</time></trkpt><trkpt lat="40.9851633" lon="16.2605983"><ele>628.0</ele><time>2026-04-18T07:52:50.635Z</time></trkpt><trkpt lat="40.985145" lon="16.26075"><ele>628.0</ele><time>2026-04-18T07:52:52.635Z</time></trkpt><trkpt lat="40.9851183" lon="16.2608917"><ele>628.0</ele><time>2026-04-18T07:52:54.634Z</time></trkpt><trkpt lat="40.9850717" lon="16.2610483"><ele>627.8571428571428</ele><time>2026-04-18T07:52:56.635Z</time></trkpt><trkpt lat="40.98504" lon="16.2611317"><ele>627.7142857142857</ele><time>2026-04-18T07:52:57.634Z</time></trkpt><trkpt lat="40.9850083" lon="16.2612183"><ele>627.5714285714286</ele><time>2026-04-18T07:52:58.634Z</time></trkpt><trkpt lat="40.9849733" lon="16.2613033"><ele>627.4285714285713</ele><time>2026-04-18T07:52:59.634Z</time></trkpt><trkpt lat="40.9849367" lon="16.2613817"><ele>627.2857142857142</ele><time>2026-04-18T07:53:00.635Z</time></trkpt><trkpt lat="40.984905" lon="16.2614567"><ele>627.1428571428571</ele><time>2026-04-18T07:53:01.634Z</time></trkpt><trkpt lat="40.9848683" lon="16.2615333"><ele>627.0</ele><time>2026-04-18T07:53:02.634Z</time></trkpt><trkpt lat="40.9848317" lon="16.261605"><ele>627.0</ele><time>2026-04-18T07:53:03.633Z</time></trkpt><trkpt lat="40.9847717" lon="16.2617333"><ele>627.0</ele><time>2026-04-18T07:53:05.634Z</time></trkpt><trkpt lat="40.984735" lon="16.2618067"><ele>627.0</ele><time>2026-04-18T07:53:06.634Z</time></trkpt><trkpt lat="40.9847" lon="16.2618833"><ele>627.0</ele><time>2026-04-18T07:53:07.634Z</time></trkpt><trkpt lat="40.9846683" lon="16.2619583"><ele>627.0</ele><time>2026-04-18T07:53:08.634Z</time></trkpt><trkpt lat="40.9846117" lon="16.262105"><ele>627.0</ele><time>2026-04-18T07:53:10.634Z</time></trkpt><trkpt lat="40.9845833" lon="16.262185"><ele>626.6666666666666</ele><time>2026-04-18T07:53:11.633Z</time></trkpt><trkpt lat="40.9845317" lon="16.2623267"><ele>626.3333333333334</ele><time>2026-04-18T07:53:13.635Z</time></trkpt><trkpt lat="40.9844717" lon="16.262465"><ele>626.0</ele><time>2026-04-18T07:53:15.633Z</time></trkpt><trkpt lat="40.98443" lon="16.262535"><ele>625.6666666666667</ele><time>2026-04-18T07:53:16.633Z</time></trkpt><trkpt lat="40.984385" lon="16.2626067"><ele>625.3333333333334</ele><time>2026-04-18T07:53:17.635Z</time></trkpt><trkpt lat="40.9843417" lon="16.262675"><ele>625.0</ele><time>2026-04-18T07:53:18.634Z</time></trkpt><trkpt lat="40.9843" lon="16.2627483"><ele>625.0000000000001</ele><time>2026-04-18T07:53:19.634Z</time></trkpt><trkpt lat="40.9842583" lon="16.2628233"><ele>625.0</ele><time>2026-04-18T07:53:20.635Z</time></trkpt><trkpt lat="40.9842167" lon="16.2629033"><ele>625.0</ele><time>2026-04-18T07:53:21.634Z</time></trkpt><trkpt lat="40.9841817" lon="16.2629817"><ele>625.0</ele><time>2026-04-18T07:53:22.635Z</time></trkpt><trkpt lat="40.9841517" lon="16.2630567"><ele>625.0</ele><time>2026-04-18T07:53:23.635Z</time></trkpt><trkpt lat="40.9841267" lon="16.2631367"><ele>625.0000000000001</ele><time>2026-04-18T07:53:24.634Z</time></trkpt><trkpt lat="40.984105" lon="16.263215"><ele>625.0</ele><time>2026-04-18T07:53:25.634Z</time></trkpt><trkpt lat="40.9840833" lon="16.2633"><ele>625.0000000000001</ele><time>2026-04-18T07:53:26.634Z</time></trkpt><trkpt lat="40.9840633" lon="16.2633867"><ele>625.0</ele><time>2026-04-18T07:53:27.634Z</time></trkpt><trkpt lat="40.98405" lon="16.26347"><ele>625.0</ele><time>2026-04-18T07:53:28.633Z</time></trkpt><trkpt lat="40.984035" lon="16.2635533"><ele>625.0</ele><time>2026-04-18T07:53:29.634Z</time></trkpt><trkpt lat="40.9840183" lon="16.2636433"><ele>625.0</ele><time>2026-04-18T07:53:30.634Z</time></trkpt><trkpt lat="40.9840033" lon="16.2637333"><ele>625.0000000000001</ele><time>2026-04-18T07:53:31.635Z</time></trkpt><trkpt lat="40.98399" lon="16.2638183"><ele>625.0</ele><time>2026-04-18T07:53:32.637Z</time></trkpt><trkpt lat="40.9839783" lon="16.2639033"><ele>625.0000000000001</ele><time>2026-04-18T07:53:33.634Z</time></trkpt><trkpt lat="40.983965" lon="16.2639883"><ele>625.0</ele><time>2026-04-18T07:53:34.634Z</time></trkpt><trkpt lat="40.9839483" lon="16.2640733"><ele>625.0</ele><time>2026-04-18T07:53:35.635Z</time></trkpt><trkpt lat="40.9839283" lon="16.26416"><ele>625.0</ele><time>2026-04-18T07:53:36.635Z</time></trkpt><trkpt lat="40.983905" lon="16.2642467"><ele>625.0</ele><time>2026-04-18T07:53:37.636Z</time></trkpt><trkpt lat="40.9838817" lon="16.2643267"><ele>625.0000000000001</ele><time>2026-04-18T07:53:38.634Z</time></trkpt><trkpt lat="40.9838533" lon="16.2644067"><ele>625.0</ele><time>2026-04-18T07:53:39.634Z</time></trkpt><trkpt lat="40.9838233" lon="16.2644817"><ele>625.0</ele><time>2026-04-18T07:53:40.633Z</time></trkpt><trkpt lat="40.9837517" lon="16.264615"><ele>625.0</ele><time>2026-04-18T07:53:42.634Z</time></trkpt><trkpt lat="40.98371" lon="16.2646817"><ele>625.0</ele><time>2026-04-18T07:53:43.634Z</time></trkpt><trkpt lat="40.983665" lon="16.264745"><ele>625.0</ele><time>2026-04-18T07:53:44.637Z</time></trkpt><trkpt lat="40.983615" lon="16.2648033"><ele>625.0</ele><time>2026-04-18T07:53:45.634Z</time></trkpt><trkpt lat="40.9835117" lon="16.2649017"><ele>625.0</ele><time>2026-04-18T07:53:47.634Z</time></trkpt><trkpt lat="40.9834567" lon="16.2649567"><ele>624.7142857142858</ele><time>2026-04-18T07:53:48.634Z</time></trkpt><trkpt lat="40.983405" lon="16.2650183"><ele>624.4285714285714</ele><time>2026-04-18T07:53:49.634Z</time></trkpt><trkpt lat="40.98336" lon="16.26508"><ele>624.1428571428571</ele><time>2026-04-18T07:53:50.635Z</time></trkpt><trkpt lat="40.9833217" lon="16.2651467"><ele>623.8571428571429</ele><time>2026-04-18T07:53:51.634Z</time></trkpt><trkpt lat="40.983285" lon="16.2652217"><ele>623.5714285714286</ele><time>2026-04-18T07:53:52.634Z</time></trkpt><trkpt lat="40.9832483" lon="16.2652967"><ele>623.2857142857143</ele><time>2026-04-18T07:53:53.634Z</time></trkpt><trkpt lat="40.9831916" lon="16.2654117"><ele>623.0</ele><time>2026-04-18T07:53:55.636Z</time></trkpt><trkpt lat="40.9831598" lon="16.2654953"><ele>623.1666666666666</ele><time>2026-04-18T07:53:57.635Z</time></trkpt><trkpt lat="40.9831028" lon="16.2656039"><ele>623.3333333333333</ele><time>2026-04-18T07:53:59.634Z</time></trkpt><trkpt lat="40.9830599" lon="16.2656739"><ele>623.5</ele><time>2026-04-18T07:54:00.634Z</time></trkpt><trkpt lat="40.9830103" lon="16.2657528"><ele>623.6666666666666</ele><time>2026-04-18T07:54:01.634Z</time></trkpt><trkpt lat="40.9829582" lon="16.2658389"><ele>623.8333333333334</ele><time>2026-04-18T07:54:02.634Z</time></trkpt><trkpt lat="40.9829125" lon="16.2659272"><ele>624.0</ele><time>2026-04-18T07:54:03.634Z</time></trkpt><trkpt lat="40.9828762" lon="16.2660109"><ele>624.0</ele><time>2026-04-18T07:54:04.634Z</time></trkpt><trkpt lat="40.9828432" lon="16.266098"><ele>624.0</ele><time>2026-04-18T07:54:05.636Z</time></trkpt><trkpt lat="40.9828099" lon="16.2661955"><ele>624.0</ele><time>2026-04-18T07:54:06.634Z</time></trkpt><trkpt lat="40.9827791" lon="16.2662981"><ele>624.0</ele><time>2026-04-18T07:54:07.634Z</time></trkpt><trkpt lat="40.9827531" lon="16.2664008"><ele>624.0</ele><time>2026-04-18T07:54:08.634Z</time></trkpt><trkpt lat="40.9827267" lon="16.2665083"><ele>624.0</ele><time>2026-04-18T07:54:09.633Z</time></trkpt><trkpt lat="40.9827047" lon="16.2666177"><ele>623.5</ele><time>2026-04-18T07:54:10.634Z</time></trkpt><trkpt lat="40.9826889" lon="16.2667188"><ele>623.0</ele><time>2026-04-18T07:54:11.633Z</time></trkpt><trkpt lat="40.982678" lon="16.266821"><ele>622.5</ele><time>2026-04-18T07:54:12.633Z</time></trkpt><trkpt lat="40.9826678" lon="16.2669233"><ele>622.0</ele><time>2026-04-18T07:54:13.633Z</time></trkpt><trkpt lat="40.9826587" lon="16.2670201"><ele>621.5</ele><time>2026-04-18T07:54:14.634Z</time></trkpt><trkpt lat="40.9826481" lon="16.2671222"><ele>621.0</ele><time>2026-04-18T07:54:15.633Z</time></trkpt><trkpt lat="40.9826335" lon="16.2672262"><ele>621.1428571428571</ele><time>2026-04-18T07:54:16.634Z</time></trkpt><trkpt lat="40.9826184" lon="16.2673224"><ele>621.2857142857142</ele><time>2026-04-18T07:54:17.634Z</time></trkpt><trkpt lat="40.982602" lon="16.2674064"><ele>621.4285714285713</ele><time>2026-04-18T07:54:18.634Z</time></trkpt><trkpt lat="40.9825801" lon="16.2674889"><ele>621.5714285714286</ele><time>2026-04-18T07:54:19.633Z</time></trkpt><trkpt lat="40.982554" lon="16.2675776"><ele>621.7142857142858</ele><time>2026-04-18T07:54:20.634Z</time></trkpt><trkpt lat="40.9825275" lon="16.2676717"><ele>621.8571428571428</ele><time>2026-04-18T07:54:21.634Z</time></trkpt><trkpt lat="40.9824956" lon="16.2677608"><ele>622.0</ele><time>2026-04-18T07:54:22.634Z</time></trkpt><trkpt lat="40.982454" lon="16.2678405"><ele>622.1666666666667</ele><time>2026-04-18T07:54:23.633Z</time></trkpt><trkpt lat="40.9824114" lon="16.267918"><ele>622.3333333333334</ele><time>2026-04-18T07:54:24.633Z</time></trkpt><trkpt lat="40.9823666" lon="16.2680073"><ele>622.5</ele><time>2026-04-18T07:54:25.635Z</time></trkpt><trkpt lat="40.9823219" lon="16.2681016"><ele>622.6666666666666</ele><time>2026-04-18T07:54:26.635Z</time></trkpt><trkpt lat="40.9822845" lon="16.2681941"><ele>622.8333333333333</ele><time>2026-04-18T07:54:27.633Z</time></trkpt><trkpt lat="40.9822584" lon="16.2682826"><ele>623.0</ele><time>2026-04-18T07:54:28.633Z</time></trkpt><trkpt lat="40.9822405" lon="16.2683721"><ele>623.0</ele><time>2026-04-18T07:54:29.634Z</time></trkpt><trkpt lat="40.9822258" lon="16.2684691"><ele>623.0</ele><time>2026-04-18T07:54:30.637Z</time></trkpt><trkpt lat="40.9822101" lon="16.2685667"><ele>623.0</ele><time>2026-04-18T07:54:31.633Z</time></trkpt><trkpt lat="40.9821909" lon="16.2686694"><ele>623.0</ele><time>2026-04-18T07:54:32.635Z</time></trkpt><trkpt lat="40.9821702" lon="16.2687714"><ele>623.0</ele><time>2026-04-18T07:54:33.633Z</time></trkpt><trkpt lat="40.9821513" lon="16.2688689"><ele>623.0</ele><time>2026-04-18T07:54:34.634Z</time></trkpt><trkpt lat="40.982131" lon="16.2689631"><ele>622.8333333333333</ele><time>2026-04-18T07:54:35.633Z</time></trkpt><trkpt lat="40.9821034" lon="16.2690432"><ele>622.6666666666666</ele><time>2026-04-18T07:54:36.633Z</time></trkpt><trkpt lat="40.9820298" lon="16.2691757"><ele>622.5</ele><time>2026-04-18T07:54:38.635Z</time></trkpt><trkpt lat="40.9819792" lon="16.2692423"><ele>622.3333333333334</ele><time>2026-04-18T07:54:39.633Z</time></trkpt><trkpt lat="40.981922" lon="16.269297"><ele>622.1666666666667</ele><time>2026-04-18T07:54:40.633Z</time></trkpt><trkpt lat="40.981863" lon="16.2693349"><ele>622.0</ele><time>2026-04-18T07:54:41.634Z</time></trkpt><trkpt lat="40.981744" lon="16.2693569"><ele>622.0</ele><time>2026-04-18T07:54:43.633Z</time></trkpt><trkpt lat="40.9816102" lon="16.2693542"><ele>622.0</ele><time>2026-04-18T07:54:45.633Z</time></trkpt><trkpt lat="40.9815281" lon="16.2693608"><ele>622.0</ele><time>2026-04-18T07:54:46.634Z</time></trkpt><trkpt lat="40.9814364" lon="16.2693817"><ele>622.0</ele><time>2026-04-18T07:54:47.633Z</time></trkpt><trkpt lat="40.9813391" lon="16.2694275"><ele>622.0</ele><time>2026-04-18T07:54:48.633Z</time></trkpt><trkpt lat="40.9812429" lon="16.2694984"><ele>622.0</ele><time>2026-04-18T07:54:49.633Z</time></trkpt><trkpt lat="40.9811477" lon="16.2695884"><ele>622.0</ele><time>2026-04-18T07:54:50.635Z</time></trkpt><trkpt lat="40.9810585" lon="16.2696911"><ele>622.0</ele><time>2026-04-18T07:54:51.633Z</time></trkpt><trkpt lat="40.9809774" lon="16.269802"><ele>622.0</ele><time>2026-04-18T07:54:52.633Z</time></trkpt><trkpt lat="40.9809034" lon="16.2699059"><ele>622.0</ele><time>2026-04-18T07:54:53.633Z</time></trkpt><trkpt lat="40.9808292" lon="16.2700026"><ele>622.0</ele><time>2026-04-18T07:54:54.634Z</time></trkpt><trkpt lat="40.9807504" lon="16.2701004"><ele>622.0</ele><time>2026-04-18T07:54:55.633Z</time></trkpt><trkpt lat="40.9806732" lon="16.2702046"><ele>622.0</ele><time>2026-04-18T07:54:56.634Z</time></trkpt><trkpt lat="40.9806023" lon="16.2703134"><ele>622.0</ele><time>2026-04-18T07:54:57.634Z</time></trkpt><trkpt lat="40.9805473" lon="16.2704273"><ele>622.0</ele><time>2026-04-18T07:54:58.633Z</time></trkpt><trkpt lat="40.9805041" lon="16.2705398"><ele>622.0</ele><time>2026-04-18T07:54:59.633Z</time></trkpt><trkpt lat="40.9804696" lon="16.2706471"><ele>622.0</ele><time>2026-04-18T07:55:00.633Z</time></trkpt><trkpt lat="40.9804433" lon="16.2707517"><ele>622.0</ele><time>2026-04-18T07:55:01.634Z</time></trkpt><trkpt lat="40.980415" lon="16.27085"><ele>622.0</ele><time>2026-04-18T07:55:02.634Z</time></trkpt><trkpt lat="40.9803767" lon="16.270945"><ele>622.0</ele><time>2026-04-18T07:55:03.633Z</time></trkpt><trkpt lat="40.9803317" lon="16.2710367"><ele>622.0</ele><time>2026-04-18T07:55:04.636Z</time></trkpt><trkpt lat="40.9802867" lon="16.27113"><ele>622.0</ele><time>2026-04-18T07:55:05.634Z</time></trkpt><trkpt lat="40.9802467" lon="16.271225"><ele>622.0</ele><time>2026-04-18T07:55:06.634Z</time></trkpt><trkpt lat="40.9802133" lon="16.271325"><ele>622.0</ele><time>2026-04-18T07:55:07.633Z</time></trkpt><trkpt lat="40.9801933" lon="16.271425"><ele>622.0</ele><time>2026-04-18T07:55:08.634Z</time></trkpt><trkpt lat="40.9801733" lon="16.2715267"><ele>622.0</ele><time>2026-04-18T07:55:09.635Z</time></trkpt><trkpt lat="40.9801533" lon="16.27163"><ele>622.0</ele><time>2026-04-18T07:55:10.634Z</time></trkpt><trkpt lat="40.9801267" lon="16.271735"><ele>622.0</ele><time>2026-04-18T07:55:11.634Z</time></trkpt><trkpt lat="40.9801" lon="16.271845"><ele>622.0</ele><time>2026-04-18T07:55:12.634Z</time></trkpt><trkpt lat="40.9800667" lon="16.2719533"><ele>622.0</ele><time>2026-04-18T07:55:13.634Z</time></trkpt><trkpt lat="40.98003" lon="16.27206"><ele>622.0</ele><time>2026-04-18T07:55:14.634Z</time></trkpt><trkpt lat="40.9799933" lon="16.272155"><ele>622.0</ele><time>2026-04-18T07:55:15.633Z</time></trkpt><trkpt lat="40.979965" lon="16.2722533"><ele>621.8333333333334</ele><time>2026-04-18T07:55:16.634Z</time></trkpt><trkpt lat="40.9799517" lon="16.27236"><ele>621.6666666666667</ele><time>2026-04-18T07:55:17.633Z</time></trkpt><trkpt lat="40.9799617" lon="16.2724667"><ele>621.5</ele><time>2026-04-18T07:55:18.633Z</time></trkpt><trkpt lat="40.9799783" lon="16.2725633"><ele>621.3333333333334</ele><time>2026-04-18T07:55:19.633Z</time></trkpt><trkpt lat="40.9799933" lon="16.2726567"><ele>621.1666666666666</ele><time>2026-04-18T07:55:20.634Z</time></trkpt><trkpt lat="40.9800067" lon="16.2727567"><ele>621.0</ele><time>2026-04-18T07:55:21.633Z</time></trkpt><trkpt lat="40.9800217" lon="16.272865"><ele>621.0</ele><time>2026-04-18T07:55:22.634Z</time></trkpt><trkpt lat="40.9800333" lon="16.2729783"><ele>621.0</ele><time>2026-04-18T07:55:23.635Z</time></trkpt><trkpt lat="40.9800317" lon="16.2730983"><ele>621.0</ele><time>2026-04-18T07:55:24.633Z</time></trkpt><trkpt lat="40.9800183" lon="16.273215"><ele>621.0</ele><time>2026-04-18T07:55:25.634Z</time></trkpt><trkpt lat="40.9799967" lon="16.27332"><ele>621.0</ele><time>2026-04-18T07:55:26.634Z</time></trkpt><trkpt lat="40.9799633" lon="16.273415"><ele>621.0</ele><time>2026-04-18T07:55:27.633Z</time></trkpt><trkpt lat="40.9799217" lon="16.27351"><ele>621.0</ele><time>2026-04-18T07:55:28.633Z</time></trkpt><trkpt lat="40.97988" lon="16.273605"><ele>621.0</ele><time>2026-04-18T07:55:29.634Z</time></trkpt><trkpt lat="40.9798433" lon="16.2736933"><ele>621.0</ele><time>2026-04-18T07:55:30.633Z</time></trkpt><trkpt lat="40.9798167" lon="16.273775"><ele>621.0</ele><time>2026-04-18T07:55:31.633Z</time></trkpt><trkpt lat="40.97978" lon="16.27393"><ele>621.0</ele><time>2026-04-18T07:55:33.633Z</time></trkpt><trkpt lat="40.9797633" lon="16.274055"><ele>621.0</ele><time>2026-04-18T07:55:35.634Z</time></trkpt><trkpt lat="40.97974" lon="16.27415"><ele>621.0</ele><time>2026-04-18T07:55:37.633Z</time></trkpt><trkpt lat="40.9797217" lon="16.274245"><ele>621.0</ele><time>2026-04-18T07:55:39.633Z</time></trkpt><trkpt lat="40.979695" lon="16.2743517"><ele>621.0</ele><time>2026-04-18T07:55:41.635Z</time></trkpt><trkpt lat="40.97965" lon="16.274495"><ele>621.0</ele><time>2026-04-18T07:55:43.633Z</time></trkpt><trkpt lat="40.9796183" lon="16.2746483"><ele>621.0</ele><time>2026-04-18T07:55:45.633Z</time></trkpt><trkpt lat="40.9796067" lon="16.27481"><ele>620.8333333333334</ele><time>2026-04-18T07:55:47.633Z</time></trkpt><trkpt lat="40.9796067" lon="16.2749033"><ele>620.6666666666666</ele><time>2026-04-18T07:55:48.633Z</time></trkpt><trkpt lat="40.9796083" lon="16.275"><ele>620.5</ele><time>2026-04-18T07:55:49.73Z</time></trkpt><trkpt lat="40.9796183" lon="16.2750983"><ele>620.3333333333333</ele><time>2026-04-18T07:55:50.634Z</time></trkpt><trkpt lat="40.97964" lon="16.2751983"><ele>620.1666666666666</ele><time>2026-04-18T07:55:51.634Z</time></trkpt><trkpt lat="40.97967" lon="16.2752967"><ele>620.0</ele><time>2026-04-18T07:55:52.634Z</time></trkpt><trkpt lat="40.9797" lon="16.2753883"><ele>620.0</ele><time>2026-04-18T07:55:53.633Z</time></trkpt><trkpt lat="40.9797267" lon="16.2754767"><ele>620.0</ele><time>2026-04-18T07:55:54.633Z</time></trkpt><trkpt lat="40.9797467" lon="16.2755667"><ele>620.0</ele><time>2026-04-18T07:55:55.633Z</time></trkpt><trkpt lat="40.9797633" lon="16.2756633"><ele>620.0</ele><time>2026-04-18T07:55:56.634Z</time></trkpt><trkpt lat="40.9797733" lon="16.275755"><ele>620.0</ele><time>2026-04-18T07:55:57.634Z</time></trkpt><trkpt lat="40.979775" lon="16.2758517"><ele>620.0</ele><time>2026-04-18T07:55:58.633Z</time></trkpt><trkpt lat="40.9797683" lon="16.275955"><ele>620.0</ele><time>2026-04-18T07:55:59.633Z</time></trkpt><trkpt lat="40.9797633" lon="16.2760533"><ele>619.6666666666666</ele><time>2026-04-18T07:56:00.633Z</time></trkpt><trkpt lat="40.9797567" lon="16.2761467"><ele>619.3333333333333</ele><time>2026-04-18T07:56:01.633Z</time></trkpt><trkpt lat="40.9797517" lon="16.2762367"><ele>619.0</ele><time>2026-04-18T07:56:02.634Z</time></trkpt><trkpt lat="40.979745" lon="16.2763333"><ele>618.6666666666666</ele><time>2026-04-18T07:56:03.634Z</time></trkpt><trkpt lat="40.97974" lon="16.27644"><ele>618.3333333333334</ele><time>2026-04-18T07:56:04.634Z</time></trkpt><trkpt lat="40.9797333" lon="16.27655"><ele>618.0</ele><time>2026-04-18T07:56:05.634Z</time></trkpt><trkpt lat="40.9797283" lon="16.2766533"><ele>617.4285714285714</ele><time>2026-04-18T07:56:06.635Z</time></trkpt><trkpt lat="40.9797217" lon="16.2767517"><ele>616.8571428571429</ele><time>2026-04-18T07:56:07.635Z</time></trkpt><trkpt lat="40.9797117" lon="16.2768467"><ele>616.2857142857142</ele><time>2026-04-18T07:56:08.634Z</time></trkpt><trkpt lat="40.9796983" lon="16.2769417"><ele>615.7142857142858</ele><time>2026-04-18T07:56:09.634Z</time></trkpt><trkpt lat="40.97968" lon="16.2770317"><ele>615.1428571428571</ele><time>2026-04-18T07:56:10.633Z</time></trkpt><trkpt lat="40.979655" lon="16.277125"><ele>614.5714285714286</ele><time>2026-04-18T07:56:11.634Z</time></trkpt><trkpt lat="40.979625" lon="16.27722"><ele>614.0</ele><time>2026-04-18T07:56:12.634Z</time></trkpt><trkpt lat="40.9795967" lon="16.2773167"><ele>613.8333333333333</ele><time>2026-04-18T07:56:13.633Z</time></trkpt><trkpt lat="40.9795683" lon="16.277405"><ele>613.6666666666666</ele><time>2026-04-18T07:56:14.634Z</time></trkpt><trkpt lat="40.9795417" lon="16.27749"><ele>613.5</ele><time>2026-04-18T07:56:15.633Z</time></trkpt><trkpt lat="40.9795117" lon="16.277585"><ele>613.3333333333334</ele><time>2026-04-18T07:56:16.633Z</time></trkpt><trkpt lat="40.979485" lon="16.277685"><ele>613.1666666666667</ele><time>2026-04-18T07:56:17.634Z</time></trkpt><trkpt lat="40.9794567" lon="16.2777917"><ele>613.0</ele><time>2026-04-18T07:56:18.633Z</time></trkpt><trkpt lat="40.9794267" lon="16.2778983"><ele>613.0</ele><time>2026-04-18T07:56:19.635Z</time></trkpt><trkpt lat="40.979395" lon="16.2780067"><ele>613.0</ele><time>2026-04-18T07:56:20.634Z</time></trkpt><trkpt lat="40.97936" lon="16.2781167"><ele>613.0</ele><time>2026-04-18T07:56:21.633Z</time></trkpt><trkpt lat="40.9793267" lon="16.2782317"><ele>613.0</ele><time>2026-04-18T07:56:22.634Z</time></trkpt><trkpt lat="40.97929" lon="16.2783517"><ele>613.0</ele><time>2026-04-18T07:56:23.633Z</time></trkpt><trkpt lat="40.979255" lon="16.278475"><ele>613.6</ele><time>2026-04-18T07:56:24.633Z</time></trkpt><trkpt lat="40.97922" lon="16.2786017"><ele>614.1999999999999</ele><time>2026-04-18T07:56:25.634Z</time></trkpt><trkpt lat="40.9791867" lon="16.27873"><ele>614.8</ele><time>2026-04-18T07:56:26.634Z</time></trkpt><trkpt lat="40.97915" lon="16.2788583"><ele>615.4</ele><time>2026-04-18T07:56:27.634Z</time></trkpt><trkpt lat="40.979115" lon="16.27898"><ele>616.0</ele><time>2026-04-18T07:56:28.634Z</time></trkpt><trkpt lat="40.9790817" lon="16.2790933"><ele>616.3333333333334</ele><time>2026-04-18T07:56:29.634Z</time></trkpt><trkpt lat="40.97905" lon="16.2792"><ele>616.6666666666667</ele><time>2026-04-18T07:56:30.634Z</time></trkpt><trkpt lat="40.9790217" lon="16.2792967"><ele>617.0</ele><time>2026-04-18T07:56:31.634Z</time></trkpt><trkpt lat="40.97899" lon="16.2793983"><ele>617.3333333333334</ele><time>2026-04-18T07:56:32.634Z</time></trkpt><trkpt lat="40.9789567" lon="16.2795067"><ele>617.6666666666666</ele><time>2026-04-18T07:56:33.633Z</time></trkpt><trkpt lat="40.97892" lon="16.2796167"><ele>618.0</ele><time>2026-04-18T07:56:34.634Z</time></trkpt><trkpt lat="40.9788817" lon="16.27973"><ele>618.6</ele><time>2026-04-18T07:56:35.633Z</time></trkpt><trkpt lat="40.9788417" lon="16.2798467"><ele>619.1999999999999</ele><time>2026-04-18T07:56:36.633Z</time></trkpt><trkpt lat="40.9788" lon="16.2799717"><ele>619.8</ele><time>2026-04-18T07:56:37.633Z</time></trkpt><trkpt lat="40.97876" lon="16.2801017"><ele>620.4</ele><time>2026-04-18T07:56:38.634Z</time></trkpt><trkpt lat="40.978725" lon="16.28024"><ele>621.0</ele><time>2026-04-18T07:56:39.633Z</time></trkpt><trkpt lat="40.9786917" lon="16.28038"><ele>621.0</ele><time>2026-04-18T07:56:40.633Z</time></trkpt><trkpt lat="40.9786583" lon="16.28052"><ele>621.0</ele><time>2026-04-18T07:56:41.634Z</time></trkpt><trkpt lat="40.9786233" lon="16.280655"><ele>621.0</ele><time>2026-04-18T07:56:42.634Z</time></trkpt><trkpt lat="40.9785917" lon="16.2807817"><ele>621.0</ele><time>2026-04-18T07:56:43.634Z</time></trkpt><trkpt lat="40.97856" lon="16.2808983"><ele>621.0</ele><time>2026-04-18T07:56:44.634Z</time></trkpt><trkpt lat="40.9785267" lon="16.2810067"><ele>621.2</ele><time>2026-04-18T07:56:45.633Z</time></trkpt><trkpt lat="40.978485" lon="16.2811167"><ele>621.4000000000001</ele><time>2026-04-18T07:56:46.634Z</time></trkpt><trkpt lat="40.9784417" lon="16.2812317"><ele>621.6</ele><time>2026-04-18T07:56:47.634Z</time></trkpt><trkpt lat="40.9783917" lon="16.2813517"><ele>621.8000000000001</ele><time>2026-04-18T07:56:48.633Z</time></trkpt><trkpt lat="40.9783417" lon="16.2814783"><ele>622.0</ele><time>2026-04-18T07:56:49.633Z</time></trkpt><trkpt lat="40.9782883" lon="16.28161"><ele>622.25</ele><time>2026-04-18T07:56:50.635Z</time></trkpt><trkpt lat="40.97823" lon="16.2817467"><ele>622.5</ele><time>2026-04-18T07:56:51.635Z</time></trkpt><trkpt lat="40.9781617" lon="16.2818817"><ele>622.75</ele><time>2026-04-18T07:56:52.634Z</time></trkpt><trkpt lat="40.9780917" lon="16.282015"><ele>623.0</ele><time>2026-04-18T07:56:53.634Z</time></trkpt><trkpt lat="40.9780183" lon="16.2821467"><ele>623.4</ele><time>2026-04-18T07:56:54.635Z</time></trkpt><trkpt lat="40.977945" lon="16.28227"><ele>623.8</ele><time>2026-04-18T07:56:55.633Z</time></trkpt><trkpt lat="40.9778717" lon="16.2823867"><ele>624.2</ele><time>2026-04-18T07:56:56.633Z</time></trkpt><trkpt lat="40.9778033" lon="16.2824967"><ele>624.6</ele><time>2026-04-18T07:56:57.633Z</time></trkpt><trkpt lat="40.9777383" lon="16.282605"><ele>625.0</ele><time>2026-04-18T07:56:58.633Z</time></trkpt><trkpt lat="40.9776833" lon="16.2827017"><ele>625.0</ele><time>2026-04-18T07:56:59.633Z</time></trkpt><trkpt lat="40.9776333" lon="16.2827883"><ele>625.0</ele><time>2026-04-18T07:57:00.634Z</time></trkpt><trkpt lat="40.9775933" lon="16.2828733"><ele>625.0</ele><time>2026-04-18T07:57:01.634Z</time></trkpt><trkpt lat="40.977555" lon="16.2829667"><ele>625.0</ele><time>2026-04-18T07:57:02.635Z</time></trkpt><trkpt lat="40.9775183" lon="16.2830683"><ele>625.0</ele><time>2026-04-18T07:57:03.633Z</time></trkpt><trkpt lat="40.9774783" lon="16.2831817"><ele>625.0</ele><time>2026-04-18T07:57:04.633Z</time></trkpt><trkpt lat="40.9774367" lon="16.2833033"><ele>624.25</ele><time>2026-04-18T07:57:05.633Z</time></trkpt><trkpt lat="40.9773933" lon="16.28343"><ele>623.5</ele><time>2026-04-18T07:57:06.633Z</time></trkpt><trkpt lat="40.977345" lon="16.2835667"><ele>622.75</ele><time>2026-04-18T07:57:07.633Z</time></trkpt><trkpt lat="40.977295" lon="16.2837117"><ele>622.0</ele><time>2026-04-18T07:57:08.634Z</time></trkpt><trkpt lat="40.9772433" lon="16.2838667"><ele>622.0</ele><time>2026-04-18T07:57:09.633Z</time></trkpt><trkpt lat="40.977195" lon="16.28403"><ele>622.0</ele><time>2026-04-18T07:57:10.634Z</time></trkpt><trkpt lat="40.9771483" lon="16.2842"><ele>622.0</ele><time>2026-04-18T07:57:11.633Z</time></trkpt><trkpt lat="40.9771117" lon="16.2843783"><ele>622.0</ele><time>2026-04-18T07:57:12.634Z</time></trkpt><trkpt lat="40.9770783" lon="16.28456"><ele>622.0</ele><time>2026-04-18T07:57:13.634Z</time></trkpt><trkpt lat="40.9770483" lon="16.284745"><ele>622.0</ele><time>2026-04-18T07:57:14.634Z</time></trkpt><trkpt lat="40.9770167" lon="16.2849283"><ele>622.0</ele><time>2026-04-18T07:57:15.634Z</time></trkpt><trkpt lat="40.9769867" lon="16.28511"><ele>622.0</ele><time>2026-04-18T07:57:16.633Z</time></trkpt><trkpt lat="40.9769533" lon="16.285285"><ele>621.75</ele><time>2026-04-18T07:57:17.633Z</time></trkpt><trkpt lat="40.9769233" lon="16.2854617"><ele>621.5</ele><time>2026-04-18T07:57:18.635Z</time></trkpt><trkpt lat="40.9768933" lon="16.2856417"><ele>621.25</ele><time>2026-04-18T07:57:19.634Z</time></trkpt><trkpt lat="40.9768633" lon="16.2858167"><ele>621.0</ele><time>2026-04-18T07:57:20.635Z</time></trkpt><trkpt lat="40.9768317" lon="16.2859833"><ele>620.6</ele><time>2026-04-18T07:57:21.633Z</time></trkpt><trkpt lat="40.9767967" lon="16.2861367"><ele>620.2</ele><time>2026-04-18T07:57:22.633Z</time></trkpt><trkpt lat="40.9767567" lon="16.2862767"><ele>619.8</ele><time>2026-04-18T07:57:23.634Z</time></trkpt><trkpt lat="40.9767133" lon="16.2864"><ele>619.4</ele><time>2026-04-18T07:57:24.633Z</time></trkpt><trkpt lat="40.976665" lon="16.2865117"><ele>619.0</ele><time>2026-04-18T07:57:25.634Z</time></trkpt><trkpt lat="40.9766183" lon="16.286615"><ele>619.6666666666667</ele><time>2026-04-18T07:57:26.633Z</time></trkpt><trkpt lat="40.976575" lon="16.2867117"><ele>620.3333333333334</ele><time>2026-04-18T07:57:27.633Z</time></trkpt><trkpt lat="40.9765283" lon="16.2868"><ele>621.0</ele><time>2026-04-18T07:57:28.633Z</time></trkpt><trkpt lat="40.9764783" lon="16.2868783"><ele>621.6666666666666</ele><time>2026-04-18T07:57:29.633Z</time></trkpt><trkpt lat="40.9764283" lon="16.28694"><ele>622.3333333333333</ele><time>2026-04-18T07:57:30.635Z</time></trkpt><trkpt lat="40.9763117" lon="16.2870017"><ele>623.0</ele><time>2026-04-18T07:57:32.634Z</time></trkpt><trkpt lat="40.9762433" lon="16.2870033"><ele>623.0</ele><time>2026-04-18T07:57:33.634Z</time></trkpt><trkpt lat="40.97617" lon="16.286995"><ele>623.0</ele><time>2026-04-18T07:57:34.634Z</time></trkpt><trkpt lat="40.976085" lon="16.2869783"><ele>623.0</ele><time>2026-04-18T07:57:35.634Z</time></trkpt><trkpt lat="40.9760033" lon="16.2869567"><ele>623.0</ele><time>2026-04-18T07:57:36.634Z</time></trkpt><trkpt lat="40.975925" lon="16.2869433"><ele>623.0</ele><time>2026-04-18T07:57:37.634Z</time></trkpt><trkpt lat="40.975855" lon="16.2869433"><ele>623.0</ele><time>2026-04-18T07:57:38.634Z</time></trkpt><trkpt lat="40.97576" lon="16.2869983"><ele>623.1666666666666</ele><time>2026-04-18T07:57:40.633Z</time></trkpt><trkpt lat="40.975745" lon="16.2871"><ele>623.3333333333333</ele><time>2026-04-18T07:57:42.633Z</time></trkpt><trkpt lat="40.9757767" lon="16.2872333"><ele>623.5</ele><time>2026-04-18T07:57:44.634Z</time></trkpt><trkpt lat="40.9758083" lon="16.2873183"><ele>623.6666666666666</ele><time>2026-04-18T07:57:45.633Z</time></trkpt><trkpt lat="40.9758433" lon="16.2874083"><ele>623.8333333333334</ele><time>2026-04-18T07:57:46.634Z</time></trkpt><trkpt lat="40.9758817" lon="16.2874983"><ele>624.0</ele><time>2026-04-18T07:57:47.634Z</time></trkpt><trkpt lat="40.9759217" lon="16.2875867"><ele>623.5</ele><time>2026-04-18T07:57:48.633Z</time></trkpt><trkpt lat="40.9759667" lon="16.2876783"><ele>623.0</ele><time>2026-04-18T07:57:49.633Z</time></trkpt><trkpt lat="40.9760133" lon="16.2877717"><ele>622.5</ele><time>2026-04-18T07:57:50.633Z</time></trkpt><trkpt lat="40.9760533" lon="16.28786"><ele>622.0</ele><time>2026-04-18T07:57:51.633Z</time></trkpt><trkpt lat="40.97609" lon="16.2879433"><ele>621.5</ele><time>2026-04-18T07:57:52.634Z</time></trkpt><trkpt lat="40.976125" lon="16.288035"><ele>621.0</ele><time>2026-04-18T07:57:53.633Z</time></trkpt><trkpt lat="40.97616" lon="16.2881383"><ele>620.6666666666666</ele><time>2026-04-18T07:57:54.633Z</time></trkpt><trkpt lat="40.976195" lon="16.2882483"><ele>620.3333333333334</ele><time>2026-04-18T07:57:55.634Z</time></trkpt><trkpt lat="40.9762267" lon="16.288355"><ele>620.0</ele><time>2026-04-18T07:57:56.634Z</time></trkpt><trkpt lat="40.9762567" lon="16.2884617"><ele>619.6666666666667</ele><time>2026-04-18T07:57:57.633Z</time></trkpt><trkpt lat="40.9762883" lon="16.2885667"><ele>619.3333333333334</ele><time>2026-04-18T07:57:58.633Z</time></trkpt><trkpt lat="40.9763183" lon="16.2886717"><ele>619.0</ele><time>2026-04-18T07:57:59.633Z</time></trkpt><trkpt lat="40.97635" lon="16.2887817"><ele>619.0</ele><time>2026-04-18T07:58:00.636Z</time></trkpt><trkpt lat="40.9763833" lon="16.2889"><ele>619.0</ele><time>2026-04-18T07:58:01.634Z</time></trkpt><trkpt lat="40.976415" lon="16.2890167"><ele>619.0</ele><time>2026-04-18T07:58:02.633Z</time></trkpt><trkpt lat="40.976445" lon="16.2891317"><ele>619.0</ele><time>2026-04-18T07:58:03.633Z</time></trkpt><trkpt lat="40.97648" lon="16.2892567"><ele>619.0</ele><time>2026-04-18T07:58:04.64Z</time></trkpt><trkpt lat="40.9765167" lon="16.2893933"><ele>619.0</ele><time>2026-04-18T07:58:05.634Z</time></trkpt><trkpt lat="40.97655" lon="16.2895433"><ele>619.0</ele><time>2026-04-18T07:58:06.633Z</time></trkpt><trkpt lat="40.97659" lon="16.289695"><ele>619.0</ele><time>2026-04-18T07:58:07.634Z</time></trkpt><trkpt lat="40.9766267" lon="16.2898417"><ele>619.0</ele><time>2026-04-18T07:58:08.634Z</time></trkpt><trkpt lat="40.9766633" lon="16.28999"><ele>618.8</ele><time>2026-04-18T07:58:09.633Z</time></trkpt><trkpt lat="40.9766967" lon="16.2901417"><ele>618.5999999999999</ele><time>2026-04-18T07:58:10.633Z</time></trkpt><trkpt lat="40.976725" lon="16.290285"><ele>618.4</ele><time>2026-04-18T07:58:11.634Z</time></trkpt><trkpt lat="40.9767517" lon="16.2904217"><ele>618.1999999999999</ele><time>2026-04-18T07:58:12.633Z</time></trkpt><trkpt lat="40.9767733" lon="16.2905617"><ele>618.0</ele><time>2026-04-18T07:58:13.633Z</time></trkpt><trkpt lat="40.9767867" lon="16.2906983"><ele>617.1999999999999</ele><time>2026-04-18T07:58:14.634Z</time></trkpt><trkpt lat="40.9767967" lon="16.2908333"><ele>616.4</ele><time>2026-04-18T07:58:15.633Z</time></trkpt><trkpt lat="40.9767983" lon="16.2909517"><ele>615.5999999999999</ele><time>2026-04-18T07:58:16.634Z</time></trkpt><trkpt lat="40.97679" lon="16.291065"><ele>614.8</ele><time>2026-04-18T07:58:17.636Z</time></trkpt><trkpt lat="40.976775" lon="16.2911833"><ele>614.0</ele><time>2026-04-18T07:58:18.633Z</time></trkpt><trkpt lat="40.9767467" lon="16.29131"><ele>614.2</ele><time>2026-04-18T07:58:19.634Z</time></trkpt><trkpt lat="40.9767083" lon="16.29144"><ele>614.4</ele><time>2026-04-18T07:58:20.633Z</time></trkpt><trkpt lat="40.9766667" lon="16.2915667"><ele>614.6</ele><time>2026-04-18T07:58:21.633Z</time></trkpt><trkpt lat="40.976615" lon="16.29169"><ele>614.8</ele><time>2026-04-18T07:58:22.633Z</time></trkpt><trkpt lat="40.976555" lon="16.291815"><ele>615.0</ele><time>2026-04-18T07:58:23.634Z</time></trkpt><trkpt lat="40.9764867" lon="16.2919433"><ele>615.0</ele><time>2026-04-18T07:58:24.635Z</time></trkpt><trkpt lat="40.9764233" lon="16.2920683"><ele>615.0</ele><time>2026-04-18T07:58:25.633Z</time></trkpt><trkpt lat="40.976355" lon="16.2922"><ele>615.0</ele><time>2026-04-18T07:58:26.634Z</time></trkpt><trkpt lat="40.9762767" lon="16.29233"><ele>615.0</ele><time>2026-04-18T07:58:27.633Z</time></trkpt><trkpt lat="40.97621" lon="16.2924517"><ele>614.6</ele><time>2026-04-18T07:58:28.634Z</time></trkpt><trkpt lat="40.9761533" lon="16.29256"><ele>614.2</ele><time>2026-04-18T07:58:29.634Z</time></trkpt><trkpt lat="40.9761167" lon="16.2926517"><ele>613.8</ele><time>2026-04-18T07:58:30.633Z</time></trkpt><trkpt lat="40.9760967" lon="16.29275"><ele>613.4</ele><time>2026-04-18T07:58:31.633Z</time></trkpt><trkpt lat="40.976085" lon="16.2928733"><ele>613.0</ele><time>2026-04-18T07:58:32.634Z</time></trkpt><trkpt lat="40.9760783" lon="16.2930217"><ele>612.4</ele><time>2026-04-18T07:58:33.633Z</time></trkpt><trkpt lat="40.9760683" lon="16.2931683"><ele>611.8</ele><time>2026-04-18T07:58:34.633Z</time></trkpt><trkpt lat="40.9760583" lon="16.2933017"><ele>611.2</ele><time>2026-04-18T07:58:35.633Z</time></trkpt><trkpt lat="40.976045" lon="16.293425"><ele>610.6</ele><time>2026-04-18T07:58:36.633Z</time></trkpt><trkpt lat="40.9760233" lon="16.293545"><ele>610.0</ele><time>2026-04-18T07:58:37.634Z</time></trkpt><trkpt lat="40.9759967" lon="16.2936567"><ele>610.0</ele><time>2026-04-18T07:58:38.634Z</time></trkpt><trkpt lat="40.9759767" lon="16.2937633"><ele>610.0</ele><time>2026-04-18T07:58:39.633Z</time></trkpt><trkpt lat="40.9759683" lon="16.2938683"><ele>610.0</ele><time>2026-04-18T07:58:40.633Z</time></trkpt><trkpt lat="40.9759617" lon="16.2939683"><ele>610.0</ele><time>2026-04-18T07:58:41.634Z</time></trkpt><trkpt lat="40.9759567" lon="16.2940633"><ele>610.0</ele><time>2026-04-18T07:58:42.633Z</time></trkpt><trkpt lat="40.9759533" lon="16.294165"><ele>610.0</ele><time>2026-04-18T07:58:43.633Z</time></trkpt><trkpt lat="40.9759467" lon="16.2942767"><ele>609.6</ele><time>2026-04-18T07:58:44.635Z</time></trkpt><trkpt lat="40.9759317" lon="16.2944"><ele>609.2</ele><time>2026-04-18T07:58:45.634Z</time></trkpt><trkpt lat="40.97592" lon="16.294535"><ele>608.8</ele><time>2026-04-18T07:58:46.634Z</time></trkpt><trkpt lat="40.9759067" lon="16.294675"><ele>608.4</ele><time>2026-04-18T07:58:47.635Z</time></trkpt><trkpt lat="40.9759" lon="16.294825"><ele>608.0</ele><time>2026-04-18T07:58:48.634Z</time></trkpt><trkpt lat="40.97589" lon="16.2949817"><ele>608.1999999999999</ele><time>2026-04-18T07:58:49.635Z</time></trkpt><trkpt lat="40.9758817" lon="16.295135"><ele>608.4</ele><time>2026-04-18T07:58:50.635Z</time></trkpt><trkpt lat="40.97587" lon="16.295285"><ele>608.5999999999999</ele><time>2026-04-18T07:58:51.634Z</time></trkpt><trkpt lat="40.9758583" lon="16.2954283"><ele>608.8</ele><time>2026-04-18T07:58:52.634Z</time></trkpt><trkpt lat="40.9758433" lon="16.2955667"><ele>609.0</ele><time>2026-04-18T07:58:53.635Z</time></trkpt><trkpt lat="40.9758317" lon="16.2957"><ele>608.2</ele><time>2026-04-18T07:58:54.634Z</time></trkpt><trkpt lat="40.9758233" lon="16.2958333"><ele>607.4</ele><time>2026-04-18T07:58:55.633Z</time></trkpt><trkpt lat="40.97582" lon="16.29597"><ele>606.6</ele><time>2026-04-18T07:58:56.634Z</time></trkpt><trkpt lat="40.9758283" lon="16.2961133"><ele>605.8</ele><time>2026-04-18T07:58:57.633Z</time></trkpt><trkpt lat="40.975845" lon="16.2962517"><ele>605.0</ele><time>2026-04-18T07:58:58.634Z</time></trkpt><trkpt lat="40.9758783" lon="16.2963883"><ele>604.6</ele><time>2026-04-18T07:58:59.633Z</time></trkpt><trkpt lat="40.97592" lon="16.2965117"><ele>604.2</ele><time>2026-04-18T07:59:00.633Z</time></trkpt><trkpt lat="40.9759517" lon="16.296625"><ele>603.8</ele><time>2026-04-18T07:59:01.633Z</time></trkpt><trkpt lat="40.9759683" lon="16.2967433"><ele>603.4</ele><time>2026-04-18T07:59:02.633Z</time></trkpt><trkpt lat="40.9759667" lon="16.2968733"><ele>603.0</ele><time>2026-04-18T07:59:03.633Z</time></trkpt><trkpt lat="40.9759567" lon="16.29702"><ele>603.0</ele><time>2026-04-18T07:59:04.633Z</time></trkpt><trkpt lat="40.9759517" lon="16.2971683"><ele>603.0</ele><time>2026-04-18T07:59:05.634Z</time></trkpt><trkpt lat="40.9759517" lon="16.29731"><ele>603.0</ele><time>2026-04-18T07:59:06.634Z</time></trkpt><trkpt lat="40.9759517" lon="16.297445"><ele>603.0</ele><time>2026-04-18T07:59:07.634Z</time></trkpt><trkpt lat="40.9759467" lon="16.297575"><ele>603.0</ele><time>2026-04-18T07:59:08.634Z</time></trkpt><trkpt lat="40.9759433" lon="16.297695"><ele>603.0</ele><time>2026-04-18T07:59:09.633Z</time></trkpt><trkpt lat="40.9759383" lon="16.297795"><ele>603.0</ele><time>2026-04-18T07:59:10.634Z</time></trkpt><trkpt lat="40.9759317" lon="16.2979533"><ele>603.0</ele><time>2026-04-18T07:59:12.633Z</time></trkpt><trkpt lat="40.9759167" lon="16.2981117"><ele>603.0</ele><time>2026-04-18T07:59:14.633Z</time></trkpt><trkpt lat="40.9759083" lon="16.2982"><ele>603.0</ele><time>2026-04-18T07:59:15.634Z</time></trkpt><trkpt lat="40.975905" lon="16.2982967"><ele>603.0</ele><time>2026-04-18T07:59:16.634Z</time></trkpt><trkpt lat="40.975905" lon="16.2984017"><ele>603.0</ele><time>2026-04-18T07:59:17.634Z</time></trkpt><trkpt lat="40.9759083" lon="16.2985183"><ele>603.0</ele><time>2026-04-18T07:59:18.633Z</time></trkpt><trkpt lat="40.9759217" lon="16.298635"><ele>603.0</ele><time>2026-04-18T07:59:19.633Z</time></trkpt><trkpt lat="40.9759383" lon="16.29875"><ele>603.0</ele><time>2026-04-18T07:59:20.635Z</time></trkpt><trkpt lat="40.97595" lon="16.2988617"><ele>603.0</ele><time>2026-04-18T07:59:21.634Z</time></trkpt><trkpt lat="40.9759533" lon="16.2989867"><ele>603.25</ele><time>2026-04-18T07:59:22.634Z</time></trkpt><trkpt lat="40.9759533" lon="16.2991217"><ele>603.5</ele><time>2026-04-18T07:59:23.633Z</time></trkpt><trkpt lat="40.9759517" lon="16.2992667"><ele>603.75</ele><time>2026-04-18T07:59:24.634Z</time></trkpt><trkpt lat="40.975945" lon="16.2994233"><ele>604.0</ele><time>2026-04-18T07:59:25.633Z</time></trkpt><trkpt lat="40.9759383" lon="16.2995883"><ele>603.75</ele><time>2026-04-18T07:59:26.634Z</time></trkpt><trkpt lat="40.9759333" lon="16.2997567"><ele>603.5</ele><time>2026-04-18T07:59:27.634Z</time></trkpt><trkpt lat="40.97593" lon="16.299925"><ele>603.25</ele><time>2026-04-18T07:59:28.633Z</time></trkpt><trkpt lat="40.975925" lon="16.300085"><ele>603.0</ele><time>2026-04-18T07:59:29.634Z</time></trkpt><trkpt lat="40.9759217" lon="16.3002367"><ele>603.0</ele><time>2026-04-18T07:59:30.633Z</time></trkpt><trkpt lat="40.9759117" lon="16.3003833"><ele>603.0</ele><time>2026-04-18T07:59:31.633Z</time></trkpt><trkpt lat="40.9759067" lon="16.3005317"><ele>603.0</ele><time>2026-04-18T07:59:32.634Z</time></trkpt><trkpt lat="40.9759017" lon="16.300685"><ele>603.0</ele><time>2026-04-18T07:59:33.634Z</time></trkpt><trkpt lat="40.9758967" lon="16.3008383"><ele>603.0</ele><time>2026-04-18T07:59:34.634Z</time></trkpt><trkpt lat="40.9758883" lon="16.300985"><ele>603.0</ele><time>2026-04-18T07:59:35.633Z</time></trkpt><trkpt lat="40.975875" lon="16.30112"><ele>603.0</ele><time>2026-04-18T07:59:36.634Z</time></trkpt><trkpt lat="40.9758483" lon="16.3012533"><ele>603.0</ele><time>2026-04-18T07:59:37.633Z</time></trkpt><trkpt lat="40.9758067" lon="16.301395"><ele>603.0</ele><time>2026-04-18T07:59:38.634Z</time></trkpt><trkpt lat="40.975755" lon="16.3015383"><ele>603.75</ele><time>2026-04-18T07:59:39.633Z</time></trkpt><trkpt lat="40.9757" lon="16.3016917"><ele>604.5</ele><time>2026-04-18T07:59:40.633Z</time></trkpt><trkpt lat="40.9756433" lon="16.3018467"><ele>605.25</ele><time>2026-04-18T07:59:41.633Z</time></trkpt><trkpt lat="40.9755917" lon="16.3019967"><ele>606.0</ele><time>2026-04-18T07:59:42.633Z</time></trkpt><trkpt lat="40.9755467" lon="16.302145"><ele>606.0</ele><time>2026-04-18T07:59:43.633Z</time></trkpt><trkpt lat="40.9755067" lon="16.302295"><ele>606.0</ele><time>2026-04-18T07:59:44.634Z</time></trkpt><trkpt lat="40.97547" lon="16.3024383"><ele>606.0</ele><time>2026-04-18T07:59:45.633Z</time></trkpt><trkpt lat="40.9754417" lon="16.3025783"><ele>606.0</ele><time>2026-04-18T07:59:46.633Z</time></trkpt><trkpt lat="40.9754233" lon="16.3027217"><ele>606.0</ele><time>2026-04-18T07:59:47.634Z</time></trkpt><trkpt lat="40.9754067" lon="16.3028717"><ele>606.0</ele><time>2026-04-18T07:59:48.635Z</time></trkpt><trkpt lat="40.9753917" lon="16.3030233"><ele>606.0</ele><time>2026-04-18T07:59:49.634Z</time></trkpt><trkpt lat="40.975375" lon="16.30318"><ele>606.0</ele><time>2026-04-18T07:59:50.635Z</time></trkpt><trkpt lat="40.9753533" lon="16.3033367"><ele>606.25</ele><time>2026-04-18T07:59:51.633Z</time></trkpt><trkpt lat="40.97533" lon="16.303495"><ele>606.5</ele><time>2026-04-18T07:59:52.633Z</time></trkpt><trkpt lat="40.9753033" lon="16.3036567"><ele>606.75</ele><time>2026-04-18T07:59:53.634Z</time></trkpt><trkpt lat="40.975275" lon="16.30382"><ele>607.0</ele><time>2026-04-18T07:59:54.633Z</time></trkpt><trkpt lat="40.975245" lon="16.3039867"><ele>606.5</ele><time>2026-04-18T07:59:55.633Z</time></trkpt><trkpt lat="40.9752117" lon="16.3041483"><ele>606.0</ele><time>2026-04-18T07:59:56.633Z</time></trkpt><trkpt lat="40.97518" lon="16.3043117"><ele>605.5</ele><time>2026-04-18T07:59:57.634Z</time></trkpt><trkpt lat="40.9751483" lon="16.3044717"><ele>605.0</ele><time>2026-04-18T07:59:58.635Z</time></trkpt><trkpt lat="40.975115" lon="16.3046317"><ele>603.6666666666666</ele><time>2026-04-18T07:59:59.738Z</time></trkpt><trkpt lat="40.9750533" lon="16.304935"><ele>602.3333333333334</ele><time>2026-04-18T08:00:01.634Z</time></trkpt><trkpt lat="40.9750317" lon="16.30508"><ele>601.0</ele><time>2026-04-18T08:00:02.634Z</time></trkpt><trkpt lat="40.975015" lon="16.30522"><ele>600.6</ele><time>2026-04-18T08:00:03.633Z</time></trkpt><trkpt lat="40.9749983" lon="16.3053567"><ele>600.2</ele><time>2026-04-18T08:00:04.634Z</time></trkpt><trkpt lat="40.974975" lon="16.3054917"><ele>599.8</ele><time>2026-04-18T08:00:05.633Z</time></trkpt><trkpt lat="40.9749533" lon="16.305625"><ele>599.4</ele><time>2026-04-18T08:00:06.633Z</time></trkpt><trkpt lat="40.97493" lon="16.30575"><ele>599.0</ele><time>2026-04-18T08:00:07.634Z</time></trkpt><trkpt lat="40.974905" lon="16.305875"><ele>598.4</ele><time>2026-04-18T08:00:08.634Z</time></trkpt><trkpt lat="40.9748783" lon="16.305995"><ele>597.8</ele><time>2026-04-18T08:00:09.635Z</time></trkpt><trkpt lat="40.97485" lon="16.3061033"><ele>597.2</ele><time>2026-04-18T08:00:10.633Z</time></trkpt><trkpt lat="40.9748217" lon="16.3061967"><ele>596.6</ele><time>2026-04-18T08:00:11.633Z</time></trkpt><trkpt lat="40.9747983" lon="16.30628"><ele>596.0</ele><time>2026-04-18T08:00:12.633Z</time></trkpt><trkpt lat="40.9747467" lon="16.3064317"><ele>595.2</ele><time>2026-04-18T08:00:14.633Z</time></trkpt><trkpt lat="40.9746683" lon="16.3065367"><ele>594.4000000000001</ele><time>2026-04-18T08:00:16.633Z</time></trkpt><trkpt lat="40.97457" lon="16.3065567"><ele>593.6</ele><time>2026-04-18T08:00:18.633Z</time></trkpt><trkpt lat="40.9745017" lon="16.3065417"><ele>592.8000000000001</ele><time>2026-04-18T08:00:19.634Z</time></trkpt><trkpt lat="40.9744233" lon="16.3065233"><ele>592.0</ele><time>2026-04-18T08:00:20.636Z</time></trkpt><trkpt lat="40.9743267" lon="16.3065067"><ele>592.0</ele><time>2026-04-18T08:00:21.634Z</time></trkpt><trkpt lat="40.9742117" lon="16.3065"><ele>592.0</ele><time>2026-04-18T08:00:22.634Z</time></trkpt><trkpt lat="40.9740833" lon="16.3065033"><ele>592.0</ele><time>2026-04-18T08:00:23.634Z</time></trkpt><trkpt lat="40.9739467" lon="16.306515"><ele>592.0</ele><time>2026-04-18T08:00:24.633Z</time></trkpt><trkpt lat="40.9738033" lon="16.30653"><ele>592.0</ele><time>2026-04-18T08:00:25.633Z</time></trkpt><trkpt lat="40.9736667" lon="16.3065517"><ele>592.0</ele><time>2026-04-18T08:00:26.633Z</time></trkpt><trkpt lat="40.9735483" lon="16.30657"><ele>592.0</ele><time>2026-04-18T08:00:27.633Z</time></trkpt><trkpt lat="40.9734483" lon="16.30658"><ele>592.0</ele><time>2026-04-18T08:00:28.633Z</time></trkpt><trkpt lat="40.973365" lon="16.3065767"><ele>592.0</ele><time>2026-04-18T08:00:29.634Z</time></trkpt><trkpt lat="40.9733017" lon="16.3065617"><ele>592.0</ele><time>2026-04-18T08:00:30.633Z</time></trkpt><trkpt lat="40.9732183" lon="16.30649"><ele>592.0</ele><time>2026-04-18T08:00:32.635Z</time></trkpt><trkpt lat="40.9731483" lon="16.306325"><ele>592.0</ele><time>2026-04-18T08:00:34.635Z</time></trkpt><trkpt lat="40.973105" lon="16.30619"><ele>592.0</ele><time>2026-04-18T08:00:35.634Z</time></trkpt><trkpt lat="40.9730533" lon="16.30603"><ele>591.6666666666667</ele><time>2026-04-18T08:00:36.633Z</time></trkpt><trkpt lat="40.9730017" lon="16.3058567"><ele>591.3333333333334</ele><time>2026-04-18T08:00:37.633Z</time></trkpt><trkpt lat="40.972945" lon="16.305665"><ele>591.0</ele><time>2026-04-18T08:00:38.634Z</time></trkpt><trkpt lat="40.9728833" lon="16.3054583"><ele>591.6666666666666</ele><time>2026-04-18T08:00:39.633Z</time></trkpt><trkpt lat="40.9728167" lon="16.305245"><ele>592.3333333333333</ele><time>2026-04-18T08:00:40.633Z</time></trkpt><trkpt lat="40.9727517" lon="16.30502"><ele>593.0</ele><time>2026-04-18T08:00:41.633Z</time></trkpt><trkpt lat="40.9726867" lon="16.30479"><ele>592.6666666666666</ele><time>2026-04-18T08:00:42.633Z</time></trkpt><trkpt lat="40.972615" lon="16.3045567"><ele>592.3333333333334</ele><time>2026-04-18T08:00:43.633Z</time></trkpt><trkpt lat="40.9725417" lon="16.30432"><ele>592.0</ele><time>2026-04-18T08:00:44.634Z</time></trkpt><trkpt lat="40.972475" lon="16.3040883"><ele>590.6666666666667</ele><time>2026-04-18T08:00:45.633Z</time></trkpt><trkpt lat="40.97242" lon="16.30386"><ele>589.3333333333334</ele><time>2026-04-18T08:00:46.634Z</time></trkpt><trkpt lat="40.972375" lon="16.30363"><ele>588.0</ele><time>2026-04-18T08:00:47.634Z</time></trkpt><trkpt lat="40.9723383" lon="16.3033967"><ele>588.0</ele><time>2026-04-18T08:00:48.633Z</time></trkpt><trkpt lat="40.9723133" lon="16.30317"><ele>588.0</ele><time>2026-04-18T08:00:49.634Z</time></trkpt><trkpt lat="40.9722983" lon="16.30295"><ele>588.0</ele><time>2026-04-18T08:00:50.635Z</time></trkpt><trkpt lat="40.9722867" lon="16.3027367"><ele>588.6666666666666</ele><time>2026-04-18T08:00:51.633Z</time></trkpt><trkpt lat="40.9722783" lon="16.3025217"><ele>589.3333333333333</ele><time>2026-04-18T08:00:52.634Z</time></trkpt><trkpt lat="40.97227" lon="16.3023033"><ele>590.0</ele><time>2026-04-18T08:00:53.634Z</time></trkpt><trkpt lat="40.9722583" lon="16.3020817"><ele>590.3333333333333</ele><time>2026-04-18T08:00:54.633Z</time></trkpt><trkpt lat="40.9722483" lon="16.3018633"><ele>590.6666666666666</ele><time>2026-04-18T08:00:55.633Z</time></trkpt><trkpt lat="40.9722417" lon="16.3016583"><ele>591.0</ele><time>2026-04-18T08:00:56.634Z</time></trkpt><trkpt lat="40.9722383" lon="16.3014583"><ele>590.5</ele><time>2026-04-18T08:00:57.633Z</time></trkpt><trkpt lat="40.972245" lon="16.3012667"><ele>590.0</ele><time>2026-04-18T08:00:58.634Z</time></trkpt><trkpt lat="40.9722617" lon="16.30108"><ele>589.5</ele><time>2026-04-18T08:00:59.634Z</time></trkpt><trkpt lat="40.9722867" lon="16.3008883"><ele>589.0</ele><time>2026-04-18T08:01:00.633Z</time></trkpt><trkpt lat="40.9723217" lon="16.3006917"><ele>588.5</ele><time>2026-04-18T08:01:01.635Z</time></trkpt><trkpt lat="40.972365" lon="16.3005033"><ele>588.0</ele><time>2026-04-18T08:01:02.634Z</time></trkpt><trkpt lat="40.9724117" lon="16.3003217"><ele>587.5</ele><time>2026-04-18T08:01:03.633Z</time></trkpt><trkpt lat="40.97246" lon="16.3001483"><ele>587.0</ele><time>2026-04-18T08:01:04.634Z</time></trkpt><trkpt lat="40.9725033" lon="16.299975"><ele>587.25</ele><time>2026-04-18T08:01:05.633Z</time></trkpt><trkpt lat="40.9725317" lon="16.2998033"><ele>587.5</ele><time>2026-04-18T08:01:06.633Z</time></trkpt><trkpt lat="40.9725417" lon="16.2996333"><ele>587.75</ele><time>2026-04-18T08:01:07.633Z</time></trkpt><trkpt lat="40.9725433" lon="16.29947"><ele>588.0</ele><time>2026-04-18T08:01:08.634Z</time></trkpt><trkpt lat="40.97253" lon="16.29933"><ele>587.1999999999999</ele><time>2026-04-18T08:01:09.635Z</time></trkpt><trkpt lat="40.9725033" lon="16.2992"><ele>586.4</ele><time>2026-04-18T08:01:10.634Z</time></trkpt><trkpt lat="40.9724683" lon="16.2990767"><ele>585.5999999999999</ele><time>2026-04-18T08:01:11.634Z</time></trkpt><trkpt lat="40.9724217" lon="16.2989567"><ele>584.8</ele><time>2026-04-18T08:01:12.633Z</time></trkpt><trkpt lat="40.9723583" lon="16.2988317"><ele>584.0</ele><time>2026-04-18T08:01:13.633Z</time></trkpt><trkpt lat="40.97228" lon="16.2987033"><ele>583.6666666666666</ele><time>2026-04-18T08:01:14.633Z</time></trkpt><trkpt lat="40.972185" lon="16.2985633"><ele>583.3333333333334</ele><time>2026-04-18T08:01:15.633Z</time></trkpt><trkpt lat="40.9720683" lon="16.2983983"><ele>583.0</ele><time>2026-04-18T08:01:16.633Z</time></trkpt><trkpt lat="40.97194" lon="16.298225"><ele>582.0</ele><time>2026-04-18T08:01:17.633Z</time></trkpt><trkpt lat="40.9718017" lon="16.298045"><ele>581.0</ele><time>2026-04-18T08:01:18.634Z</time></trkpt><trkpt lat="40.97166" lon="16.297855"><ele>580.0</ele><time>2026-04-18T08:01:19.635Z</time></trkpt><trkpt lat="40.9715117" lon="16.2976583"><ele>580.0</ele><time>2026-04-18T08:01:20.634Z</time></trkpt><trkpt lat="40.9713633" lon="16.2974583"><ele>580.0</ele><time>2026-04-18T08:01:21.633Z</time></trkpt><trkpt lat="40.97122" lon="16.2972617"><ele>580.0</ele><time>2026-04-18T08:01:22.633Z</time></trkpt><trkpt lat="40.97108" lon="16.297075"><ele>580.0</ele><time>2026-04-18T08:01:23.635Z</time></trkpt><trkpt lat="40.9709467" lon="16.2968967"><ele>580.0</ele><time>2026-04-18T08:01:24.634Z</time></trkpt><trkpt lat="40.9708183" lon="16.2967217"><ele>580.0</ele><time>2026-04-18T08:01:25.634Z</time></trkpt><trkpt lat="40.97069" lon="16.2965517"><ele>582.3333333333334</ele><time>2026-04-18T08:01:26.635Z</time></trkpt><trkpt lat="40.9705617" lon="16.2963767"><ele>584.6666666666666</ele><time>2026-04-18T08:01:27.633Z</time></trkpt><trkpt lat="40.970435" lon="16.2961983"><ele>587.0</ele><time>2026-04-18T08:01:28.633Z</time></trkpt><trkpt lat="40.9703083" lon="16.2960217"><ele>587.0</ele><time>2026-04-18T08:01:29.633Z</time></trkpt><trkpt lat="40.970185" lon="16.2958533"><ele>587.0</ele><time>2026-04-18T08:01:30.633Z</time></trkpt><trkpt lat="40.9700667" lon="16.295695"><ele>587.0</ele><time>2026-04-18T08:01:31.634Z</time></trkpt><trkpt lat="40.969955" lon="16.2955417"><ele>585.0</ele><time>2026-04-18T08:01:32.634Z</time></trkpt><trkpt lat="40.96985" lon="16.29539"><ele>583.0</ele><time>2026-04-18T08:01:33.634Z</time></trkpt><trkpt lat="40.96976" lon="16.2952283"><ele>581.0</ele><time>2026-04-18T08:01:34.634Z</time></trkpt><trkpt lat="40.969685" lon="16.2950617"><ele>581.0</ele><time>2026-04-18T08:01:35.633Z</time></trkpt><trkpt lat="40.969615" lon="16.2948867"><ele>581.0</ele><time>2026-04-18T08:01:36.633Z</time></trkpt><trkpt lat="40.9695467" lon="16.2947017"><ele>581.0</ele><time>2026-04-18T08:01:37.634Z</time></trkpt><trkpt lat="40.9694817" lon="16.29451"><ele>581.6666666666666</ele><time>2026-04-18T08:01:38.634Z</time></trkpt><trkpt lat="40.9694167" lon="16.2943217"><ele>582.3333333333334</ele><time>2026-04-18T08:01:39.634Z</time></trkpt><trkpt lat="40.9693517" lon="16.294135"><ele>583.0</ele><time>2026-04-18T08:01:40.634Z</time></trkpt><trkpt lat="40.9692833" lon="16.2939467"><ele>582.3333333333334</ele><time>2026-04-18T08:01:41.633Z</time></trkpt><trkpt lat="40.9692083" lon="16.2937567"><ele>581.6666666666666</ele><time>2026-04-18T08:01:42.634Z</time></trkpt><trkpt lat="40.9691283" lon="16.2935733"><ele>581.0</ele><time>2026-04-18T08:01:43.634Z</time></trkpt><trkpt lat="40.96904" lon="16.2933983"><ele>580.0</ele><time>2026-04-18T08:01:44.634Z</time></trkpt><trkpt lat="40.9689417" lon="16.29323"><ele>579.0</ele><time>2026-04-18T08:01:45.633Z</time></trkpt><trkpt lat="40.9688333" lon="16.2930617"><ele>578.0</ele><time>2026-04-18T08:01:46.638Z</time></trkpt><trkpt lat="40.96872" lon="16.2928917"><ele>578.0</ele><time>2026-04-18T08:01:47.634Z</time></trkpt><trkpt lat="40.9686017" lon="16.29272"><ele>578.0</ele><time>2026-04-18T08:01:48.633Z</time></trkpt><trkpt lat="40.9684817" lon="16.292545"><ele>578.0</ele><time>2026-04-18T08:01:49.633Z</time></trkpt><trkpt lat="40.9683583" lon="16.2923717"><ele>575.6666666666666</ele><time>2026-04-18T08:01:50.634Z</time></trkpt><trkpt lat="40.96824" lon="16.2922"><ele>573.3333333333334</ele><time>2026-04-18T08:01:51.634Z</time></trkpt><trkpt lat="40.9681267" lon="16.2920367"><ele>571.0</ele><time>2026-04-18T08:01:52.633Z</time></trkpt><trkpt lat="40.96802" lon="16.2918833"><ele>571.0</ele><time>2026-04-18T08:01:53.633Z</time></trkpt><trkpt lat="40.9679317" lon="16.2917617"><ele>571.0</ele><time>2026-04-18T08:01:54.633Z</time></trkpt><trkpt lat="40.9678683" lon="16.2916817"><ele>571.0</ele><time>2026-04-18T08:01:55.633Z</time></trkpt><trkpt lat="40.9677917" lon="16.29159"><ele>571.0</ele><time>2026-04-18T08:01:57.633Z</time></trkpt><trkpt lat="40.9678" lon="16.2915017"><ele>571.0</ele><time>2026-04-18T08:02:00.633Z</time></trkpt><trkpt lat="40.9678967" lon="16.29153"><ele>571.0</ele><time>2026-04-18T08:02:03.633Z</time></trkpt><trkpt lat="40.9679533" lon="16.2915717"><ele>571.0</ele><time>2026-04-18T08:02:04.633Z</time></trkpt><trkpt lat="40.9680183" lon="16.2916033"><ele>571.0</ele><time>2026-04-18T08:02:05.633Z</time></trkpt><trkpt lat="40.9680817" lon="16.291625"><ele>571.0</ele><time>2026-04-18T08:02:06.633Z</time></trkpt><trkpt lat="40.9681483" lon="16.2916367"><ele>571.0</ele><time>2026-04-18T08:02:07.633Z</time></trkpt><trkpt lat="40.9682367" lon="16.2916433"><ele>571.0</ele><time>2026-04-18T08:02:08.635Z</time></trkpt><trkpt lat="40.968315" lon="16.29163"><ele>571.0</ele><time>2026-04-18T08:02:09.632Z</time></trkpt><trkpt lat="40.968385" lon="16.2915917"><ele>572.4</ele><time>2026-04-18T08:02:10.633Z</time></trkpt><trkpt lat="40.96846" lon="16.2915417"><ele>573.8</ele><time>2026-04-18T08:02:11.633Z</time></trkpt><trkpt lat="40.96853" lon="16.2914983"><ele>575.1999999999999</ele><time>2026-04-18T08:02:12.633Z</time></trkpt><trkpt lat="40.9685933" lon="16.291465"><ele>576.6</ele><time>2026-04-18T08:02:13.635Z</time></trkpt><trkpt lat="40.9687133" lon="16.29141"><ele>578.0</ele><time>2026-04-18T08:02:15.633Z</time></trkpt><trkpt lat="40.968825" lon="16.29136"><ele>578.0</ele><time>2026-04-18T08:02:17.633Z</time></trkpt><trkpt lat="40.9689233" lon="16.2913117"><ele>578.0</ele><time>2026-04-18T08:02:19.634Z</time></trkpt><trkpt lat="40.9690283" lon="16.2912383"><ele>578.0</ele><time>2026-04-18T08:02:21.633Z</time></trkpt><trkpt lat="40.9691183" lon="16.2911667"><ele>578.0</ele><time>2026-04-18T08:02:23.633Z</time></trkpt><trkpt lat="40.9691883" lon="16.2911"><ele>578.0</ele><time>2026-04-18T08:02:25.633Z</time></trkpt><trkpt lat="40.9692633" lon="16.2910283"><ele>578.4</ele><time>2026-04-18T08:02:27.633Z</time></trkpt><trkpt lat="40.9693767" lon="16.2909367"><ele>578.8</ele><time>2026-04-18T08:02:29.633Z</time></trkpt><trkpt lat="40.969455" lon="16.2908917"><ele>579.2</ele><time>2026-04-18T08:02:30.633Z</time></trkpt><trkpt lat="40.96954" lon="16.2908417"><ele>579.6</ele><time>2026-04-18T08:02:31.633Z</time></trkpt><trkpt lat="40.9696217" lon="16.2908"><ele>580.0</ele><time>2026-04-18T08:02:32.633Z</time></trkpt><trkpt lat="40.9697067" lon="16.2907617"><ele>580.0</ele><time>2026-04-18T08:02:33.634Z</time></trkpt><trkpt lat="40.969795" lon="16.290735"><ele>580.0</ele><time>2026-04-18T08:02:34.634Z</time></trkpt><trkpt lat="40.9699" lon="16.2907033"><ele>580.0</ele><time>2026-04-18T08:02:35.634Z</time></trkpt><trkpt lat="40.97" lon="16.2906783"><ele>580.0</ele><time>2026-04-18T08:02:36.634Z</time></trkpt><trkpt lat="40.9701067" lon="16.29066"><ele>580.0</ele><time>2026-04-18T08:02:37.634Z</time></trkpt><trkpt lat="40.970205" lon="16.2906567"><ele>581.1666666666667</ele><time>2026-04-18T08:02:38.634Z</time></trkpt><trkpt lat="40.9702933" lon="16.2906567"><ele>582.3333333333334</ele><time>2026-04-18T08:02:39.634Z</time></trkpt><trkpt lat="40.97038" lon="16.2906567"><ele>583.5</ele><time>2026-04-18T08:02:40.634Z</time></trkpt><trkpt lat="40.9704617" lon="16.2906517"><ele>584.6666666666666</ele><time>2026-04-18T08:02:41.634Z</time></trkpt><trkpt lat="40.9705367" lon="16.2906433"><ele>585.8333333333333</ele><time>2026-04-18T08:02:42.633Z</time></trkpt><trkpt lat="40.9706133" lon="16.29065"><ele>587.0</ele><time>2026-04-18T08:02:43.635Z</time></trkpt><trkpt lat="40.9706917" lon="16.2906617"><ele>587.0</ele><time>2026-04-18T08:02:44.633Z</time></trkpt><trkpt lat="40.9707767" lon="16.29068"><ele>587.0</ele><time>2026-04-18T08:02:45.633Z</time></trkpt><trkpt lat="40.9708617" lon="16.2907133"><ele>587.0</ele><time>2026-04-18T08:02:46.632Z</time></trkpt><trkpt lat="40.9709467" lon="16.2907367"><ele>587.0</ele><time>2026-04-18T08:02:47.633Z</time></trkpt><trkpt lat="40.9710317" lon="16.2907483"><ele>587.0</ele><time>2026-04-18T08:02:48.634Z</time></trkpt><trkpt lat="40.9711133" lon="16.29074"><ele>587.0</ele><time>2026-04-18T08:02:49.634Z</time></trkpt><trkpt lat="40.971195" lon="16.2907183"><ele>588.3333333333333</ele><time>2026-04-18T08:02:50.634Z</time></trkpt><trkpt lat="40.9712667" lon="16.2906883"><ele>589.6666666666666</ele><time>2026-04-18T08:02:51.633Z</time></trkpt><trkpt lat="40.9713417" lon="16.2906467"><ele>591.0</ele><time>2026-04-18T08:02:52.633Z</time></trkpt><trkpt lat="40.9714167" lon="16.2906033"><ele>592.3333333333334</ele><time>2026-04-18T08:02:53.633Z</time></trkpt><trkpt lat="40.9714867" lon="16.2905683"><ele>593.6666666666667</ele><time>2026-04-18T08:02:54.634Z</time></trkpt><trkpt lat="40.9715683" lon="16.2905433"><ele>595.0</ele><time>2026-04-18T08:02:55.635Z</time></trkpt><trkpt lat="40.9716517" lon="16.2905167"><ele>596.1666666666667</ele><time>2026-04-18T08:02:56.633Z</time></trkpt><trkpt lat="40.9717333" lon="16.29049"><ele>597.3333333333334</ele><time>2026-04-18T08:02:57.632Z</time></trkpt><trkpt lat="40.97181" lon="16.2904717"><ele>598.5</ele><time>2026-04-18T08:02:58.633Z</time></trkpt><trkpt lat="40.9718883" lon="16.2904417"><ele>599.6666666666666</ele><time>2026-04-18T08:02:59.633Z</time></trkpt><trkpt lat="40.97196" lon="16.2904133"><ele>600.8333333333333</ele><time>2026-04-18T08:03:00.633Z</time></trkpt><trkpt lat="40.9720667" lon="16.2903617"><ele>602.0</ele><time>2026-04-18T08:03:02.634Z</time></trkpt><trkpt lat="40.9720717" lon="16.2902467"><ele>602.0</ele><time>2026-04-18T08:04:27.635Z</time></trkpt><trkpt lat="40.97214" lon="16.2901933"><ele>602.0</ele><time>2026-04-18T08:04:29.634Z</time></trkpt><trkpt lat="40.9722317" lon="16.2901083"><ele>602.0</ele><time>2026-04-18T08:04:31.637Z</time></trkpt><trkpt lat="40.97229" lon="16.2900533"><ele>602.0</ele><time>2026-04-18T08:04:32.634Z</time></trkpt><trkpt lat="40.9723517" lon="16.289995"><ele>602.0</ele><time>2026-04-18T08:04:33.633Z</time></trkpt><trkpt lat="40.9724017" lon="16.2899367"><ele>602.0</ele><time>2026-04-18T08:04:34.634Z</time></trkpt><trkpt lat="40.972495" lon="16.289825"><ele>603.3333333333333</ele><time>2026-04-18T08:04:36.633Z</time></trkpt><trkpt lat="40.9725433" lon="16.2897683"><ele>604.6666666666666</ele><time>2026-04-18T08:04:37.634Z</time></trkpt><trkpt lat="40.9725933" lon="16.2896983"><ele>606.0</ele><time>2026-04-18T08:04:38.634Z</time></trkpt><trkpt lat="40.9726483" lon="16.289625"><ele>607.3333333333334</ele><time>2026-04-18T08:04:39.633Z</time></trkpt><trkpt lat="40.9727017" lon="16.2895467"><ele>608.6666666666667</ele><time>2026-04-18T08:04:40.634Z</time></trkpt><trkpt lat="40.97276" lon="16.28947"><ele>610.0</ele><time>2026-04-18T08:04:41.634Z</time></trkpt><trkpt lat="40.97283" lon="16.2893933"><ele>610.0</ele><time>2026-04-18T08:04:42.634Z</time></trkpt><trkpt lat="40.9729083" lon="16.28933"><ele>610.0</ele><time>2026-04-18T08:04:43.634Z</time></trkpt><trkpt lat="40.9729833" lon="16.2892733"><ele>610.0</ele><time>2026-04-18T08:04:44.634Z</time></trkpt><trkpt lat="40.9730567" lon="16.2892133"><ele>610.0</ele><time>2026-04-18T08:04:45.633Z</time></trkpt><trkpt lat="40.9731267" lon="16.2891567"><ele>610.0</ele><time>2026-04-18T08:04:46.635Z</time></trkpt><trkpt lat="40.9731967" lon="16.2891017"><ele>610.0</ele><time>2026-04-18T08:04:47.634Z</time></trkpt><trkpt lat="40.9732667" lon="16.2890517"><ele>610.0</ele><time>2026-04-18T08:04:48.634Z</time></trkpt><trkpt lat="40.9733367" lon="16.288995"><ele>610.0</ele><time>2026-04-18T08:04:49.634Z</time></trkpt><trkpt lat="40.9734117" lon="16.2889383"><ele>610.0</ele><time>2026-04-18T08:04:50.634Z</time></trkpt><trkpt lat="40.973485" lon="16.2888817"><ele>610.0</ele><time>2026-04-18T08:04:51.634Z</time></trkpt><trkpt lat="40.9735533" lon="16.288835"><ele>610.0</ele><time>2026-04-18T08:04:52.634Z</time></trkpt><trkpt lat="40.9736233" lon="16.2887917"><ele>610.0</ele><time>2026-04-18T08:04:53.634Z</time></trkpt><trkpt lat="40.9736933" lon="16.2887433"><ele>611.0</ele><time>2026-04-18T08:04:54.634Z</time></trkpt><trkpt lat="40.97377" lon="16.288695"><ele>612.0</ele><time>2026-04-18T08:04:55.636Z</time></trkpt><trkpt lat="40.9738533" lon="16.288645"><ele>613.0</ele><time>2026-04-18T08:04:56.639Z</time></trkpt><trkpt lat="40.9739383" lon="16.28858"><ele>614.0</ele><time>2026-04-18T08:04:57.634Z</time></trkpt><trkpt lat="40.9740133" lon="16.2885033"><ele>615.0</ele><time>2026-04-18T08:04:58.634Z</time></trkpt><trkpt lat="40.9740867" lon="16.28843"><ele>615.0</ele><time>2026-04-18T08:04:59.634Z</time></trkpt><trkpt lat="40.9741583" lon="16.2883533"><ele>615.0</ele><time>2026-04-18T08:05:00.634Z</time></trkpt><trkpt lat="40.9742233" lon="16.2882733"><ele>615.0</ele><time>2026-04-18T08:05:01.638Z</time></trkpt><trkpt lat="40.97429" lon="16.288195"><ele>615.0</ele><time>2026-04-18T08:05:02.634Z</time></trkpt><trkpt lat="40.9743583" lon="16.2881183"><ele>615.0</ele><time>2026-04-18T08:05:03.633Z</time></trkpt><trkpt lat="40.9744167" lon="16.28804"><ele>615.0</ele><time>2026-04-18T08:05:04.634Z</time></trkpt><trkpt lat="40.9744717" lon="16.2879617"><ele>616.1666666666666</ele><time>2026-04-18T08:05:05.634Z</time></trkpt><trkpt lat="40.97452" lon="16.287895"><ele>617.3333333333334</ele><time>2026-04-18T08:05:06.634Z</time></trkpt><trkpt lat="40.974575" lon="16.287815"><ele>618.5</ele><time>2026-04-18T08:05:07.634Z</time></trkpt><trkpt lat="40.9746283" lon="16.2877267"><ele>619.6666666666667</ele><time>2026-04-18T08:05:08.634Z</time></trkpt><trkpt lat="40.974675" lon="16.2876433"><ele>620.8333333333334</ele><time>2026-04-18T08:05:09.634Z</time></trkpt><trkpt lat="40.9747183" lon="16.28757"><ele>622.0</ele><time>2026-04-18T08:05:10.635Z</time></trkpt><trkpt lat="40.97477" lon="16.287485"><ele>622.0</ele><time>2026-04-18T08:05:12.634Z</time></trkpt><trkpt lat="40.9747083" lon="16.2875017"><ele>622.0</ele><time>2026-04-18T08:05:31.636Z</time></trkpt><trkpt lat="40.9746583" lon="16.287585"><ele>622.0</ele><time>2026-04-18T08:05:34.634Z</time></trkpt><trkpt lat="40.9745917" lon="16.2876833"><ele>622.0</ele><time>2026-04-18T08:05:36.634Z</time></trkpt><trkpt lat="40.974525" lon="16.2878"><ele>622.0</ele><time>2026-04-18T08:05:38.635Z</time></trkpt><trkpt lat="40.9744433" lon="16.2879267"><ele>622.0</ele><time>2026-04-18T08:05:40.635Z</time></trkpt><trkpt lat="40.9744" lon="16.2879917"><ele>622.0</ele><time>2026-04-18T08:05:41.634Z</time></trkpt><trkpt lat="40.9743533" lon="16.2880567"><ele>622.0</ele><time>2026-04-18T08:05:42.635Z</time></trkpt><trkpt lat="40.9743017" lon="16.2881217"><ele>622.0</ele><time>2026-04-18T08:05:43.636Z</time></trkpt><trkpt lat="40.97423" lon="16.2882"><ele>622.0</ele><time>2026-04-18T08:05:44.634Z</time></trkpt><trkpt lat="40.9741833" lon="16.28828"><ele>622.0</ele><time>2026-04-18T08:05:45.633Z</time></trkpt><trkpt lat="40.97413" lon="16.2883567"><ele>620.8333333333334</ele><time>2026-04-18T08:05:46.634Z</time></trkpt><trkpt lat="40.9740733" lon="16.2884167"><ele>619.6666666666667</ele><time>2026-04-18T08:05:47.634Z</time></trkpt><trkpt lat="40.974015" lon="16.2884733"><ele>618.5</ele><time>2026-04-18T08:05:48.633Z</time></trkpt><trkpt lat="40.97396" lon="16.2885383"><ele>617.3333333333334</ele><time>2026-04-18T08:05:49.634Z</time></trkpt><trkpt lat="40.9738967" lon="16.2885983"><ele>616.1666666666666</ele><time>2026-04-18T08:05:50.634Z</time></trkpt><trkpt lat="40.97383" lon="16.2886617"><ele>615.0</ele><time>2026-04-18T08:05:51.633Z</time></trkpt><trkpt lat="40.973755" lon="16.2887167"><ele>615.0</ele><time>2026-04-18T08:05:52.634Z</time></trkpt><trkpt lat="40.97368" lon="16.28877"><ele>615.0</ele><time>2026-04-18T08:05:53.634Z</time></trkpt><trkpt lat="40.9736017" lon="16.2888167"><ele>615.0</ele><time>2026-04-18T08:05:54.634Z</time></trkpt><trkpt lat="40.97352" lon="16.2888617"><ele>615.0</ele><time>2026-04-18T08:05:55.634Z</time></trkpt><trkpt lat="40.9734417" lon="16.2889117"><ele>615.0</ele><time>2026-04-18T08:05:56.635Z</time></trkpt><trkpt lat="40.9733617" lon="16.2889717"><ele>615.0</ele><time>2026-04-18T08:05:57.634Z</time></trkpt><trkpt lat="40.97328" lon="16.28903"><ele>614.1666666666666</ele><time>2026-04-18T08:05:58.634Z</time></trkpt><trkpt lat="40.9732067" lon="16.2890867"><ele>613.3333333333334</ele><time>2026-04-18T08:05:59.634Z</time></trkpt><trkpt lat="40.9731317" lon="16.2891367"><ele>612.5</ele><time>2026-04-18T08:06:00.634Z</time></trkpt><trkpt lat="40.973065" lon="16.2891883"><ele>611.6666666666667</ele><time>2026-04-18T08:06:01.634Z</time></trkpt><trkpt lat="40.973005" lon="16.2892467"><ele>610.8333333333334</ele><time>2026-04-18T08:06:02.635Z</time></trkpt><trkpt lat="40.9729467" lon="16.2893117"><ele>610.0</ele><time>2026-04-18T08:06:03.635Z</time></trkpt><trkpt lat="40.972895" lon="16.2893717"><ele>610.0</ele><time>2026-04-18T08:06:04.634Z</time></trkpt><trkpt lat="40.9728383" lon="16.2894317"><ele>610.0</ele><time>2026-04-18T08:06:05.635Z</time></trkpt><trkpt lat="40.9727818" lon="16.2895015"><ele>610.0</ele><time>2026-04-18T08:06:06.634Z</time></trkpt><trkpt lat="40.9727219" lon="16.2895772"><ele>610.0</ele><time>2026-04-18T08:06:07.634Z</time></trkpt><trkpt lat="40.9726581" lon="16.2896559"><ele>610.0</ele><time>2026-04-18T08:06:08.634Z</time></trkpt><trkpt lat="40.9725942" lon="16.289735"><ele>610.0</ele><time>2026-04-18T08:06:09.634Z</time></trkpt><trkpt lat="40.9725323" lon="16.2898172"><ele>608.6666666666667</ele><time>2026-04-18T08:06:10.634Z</time></trkpt><trkpt lat="40.9724697" lon="16.2899002"><ele>607.3333333333334</ele><time>2026-04-18T08:06:11.634Z</time></trkpt><trkpt lat="40.9724066" lon="16.289977"><ele>606.0</ele><time>2026-04-18T08:06:12.633Z</time></trkpt><trkpt lat="40.972345" lon="16.2900478"><ele>604.6666666666666</ele><time>2026-04-18T08:06:13.633Z</time></trkpt><trkpt lat="40.9722847" lon="16.2901221"><ele>603.3333333333333</ele><time>2026-04-18T08:06:14.635Z</time></trkpt><trkpt lat="40.9722281" lon="16.2901862"><ele>602.0</ele><time>2026-04-18T08:06:15.634Z</time></trkpt><trkpt lat="40.9721769" lon="16.2902425"><ele>602.0</ele><time>2026-04-18T08:06:16.635Z</time></trkpt><trkpt lat="40.9720742" lon="16.2903291"><ele>602.0</ele><time>2026-04-18T08:06:18.635Z</time></trkpt><trkpt lat="40.9719711" lon="16.2903968"><ele>602.0</ele><time>2026-04-18T08:06:20.635Z</time></trkpt><trkpt lat="40.971857" lon="16.2904469"><ele>602.0</ele><time>2026-04-18T08:06:22.635Z</time></trkpt><trkpt lat="40.9717448" lon="16.2904668"><ele>601.0</ele><time>2026-04-18T08:06:24.634Z</time></trkpt><trkpt lat="40.9716195" lon="16.2904773"><ele>600.0</ele><time>2026-04-18T08:06:26.635Z</time></trkpt><trkpt lat="40.9715542" lon="16.2904941"><ele>599.0</ele><time>2026-04-18T08:06:27.634Z</time></trkpt><trkpt lat="40.9714899" lon="16.2905174"><ele>598.0</ele><time>2026-04-18T08:06:28.634Z</time></trkpt><trkpt lat="40.9714236" lon="16.2905479"><ele>597.0</ele><time>2026-04-18T08:06:29.635Z</time></trkpt><trkpt lat="40.9713579" lon="16.2905874"><ele>596.0</ele><time>2026-04-18T08:06:30.633Z</time></trkpt><trkpt lat="40.9712914" lon="16.2906293"><ele>595.8333333333333</ele><time>2026-04-18T08:06:31.634Z</time></trkpt><trkpt lat="40.9712244" lon="16.2906682"><ele>595.6666666666666</ele><time>2026-04-18T08:06:32.634Z</time></trkpt><trkpt lat="40.9711558" lon="16.2907004"><ele>595.5</ele><time>2026-04-18T08:06:33.633Z</time></trkpt><trkpt lat="40.9710335" lon="16.2907202"><ele>595.3333333333334</ele><time>2026-04-18T08:06:35.634Z</time></trkpt><trkpt lat="40.9709551" lon="16.2907193"><ele>595.1666666666667</ele><time>2026-04-18T08:06:36.633Z</time></trkpt><trkpt lat="40.9708705" lon="16.2907114"><ele>595.0</ele><time>2026-04-18T08:06:37.635Z</time></trkpt><trkpt lat="40.9707894" lon="16.2906891"><ele>593.6666666666667</ele><time>2026-04-18T08:06:38.634Z</time></trkpt><trkpt lat="40.9707091" lon="16.2906663"><ele>592.3333333333334</ele><time>2026-04-18T08:06:39.633Z</time></trkpt><trkpt lat="40.9706363" lon="16.2906403"><ele>591.0</ele><time>2026-04-18T08:06:40.635Z</time></trkpt><trkpt lat="40.9705667" lon="16.2906191"><ele>589.6666666666666</ele><time>2026-04-18T08:06:41.634Z</time></trkpt><trkpt lat="40.9704854" lon="16.2906159"><ele>588.3333333333333</ele><time>2026-04-18T08:06:42.636Z</time></trkpt><trkpt lat="40.9703975" lon="16.2906214"><ele>587.0</ele><time>2026-04-18T08:06:43.634Z</time></trkpt><trkpt lat="40.97031" lon="16.2906224"><ele>587.0</ele><time>2026-04-18T08:06:44.635Z</time></trkpt><trkpt lat="40.9702232" lon="16.2906265"><ele>587.0</ele><time>2026-04-18T08:06:45.634Z</time></trkpt><trkpt lat="40.9701376" lon="16.2906267"><ele>587.0</ele><time>2026-04-18T08:06:46.635Z</time></trkpt><trkpt lat="40.9700511" lon="16.2906348"><ele>587.0</ele><time>2026-04-18T08:06:47.634Z</time></trkpt><trkpt lat="40.9699696" lon="16.2906505"><ele>587.0</ele><time>2026-04-18T08:06:48.634Z</time></trkpt><trkpt lat="40.9698871" lon="16.2906697"><ele>587.0</ele><time>2026-04-18T08:06:49.634Z</time></trkpt><trkpt lat="40.9698053" lon="16.290693"><ele>585.8333333333333</ele><time>2026-04-18T08:06:50.635Z</time></trkpt><trkpt lat="40.9697301" lon="16.2907161"><ele>584.6666666666666</ele><time>2026-04-18T08:06:51.635Z</time></trkpt><trkpt lat="40.9696504" lon="16.290744"><ele>583.5</ele><time>2026-04-18T08:06:52.634Z</time></trkpt><trkpt lat="40.9695704" lon="16.2907796"><ele>582.3333333333334</ele><time>2026-04-18T08:06:53.635Z</time></trkpt><trkpt lat="40.9694905" lon="16.2908258"><ele>581.1666666666667</ele><time>2026-04-18T08:06:54.633Z</time></trkpt><trkpt lat="40.969417" lon="16.2908828"><ele>580.0</ele><time>2026-04-18T08:06:55.634Z</time></trkpt><trkpt lat="40.9693453" lon="16.2909475"><ele>580.0</ele><time>2026-04-18T08:06:56.634Z</time></trkpt><trkpt lat="40.9692726" lon="16.2910145"><ele>580.0</ele><time>2026-04-18T08:06:57.633Z</time></trkpt><trkpt lat="40.9692035" lon="16.2910862"><ele>580.0</ele><time>2026-04-18T08:06:58.634Z</time></trkpt><trkpt lat="40.969129" lon="16.2911551"><ele>580.0</ele><time>2026-04-18T08:06:59.633Z</time></trkpt><trkpt lat="40.969054" lon="16.291221"><ele>580.0</ele><time>2026-04-18T08:07:00.633Z</time></trkpt><trkpt lat="40.9689799" lon="16.2912806"><ele>580.0</ele><time>2026-04-18T08:07:01.634Z</time></trkpt><trkpt lat="40.9689075" lon="16.2913306"><ele>580.0</ele><time>2026-04-18T08:07:02.635Z</time></trkpt><trkpt lat="40.9688317" lon="16.2913702"><ele>580.0</ele><time>2026-04-18T08:07:03.633Z</time></trkpt><trkpt lat="40.9687486" lon="16.2914072"><ele>580.0</ele><time>2026-04-18T08:07:04.633Z</time></trkpt><trkpt lat="40.9686621" lon="16.291443"><ele>580.0</ele><time>2026-04-18T08:07:05.634Z</time></trkpt><trkpt lat="40.9685817" lon="16.2914793"><ele>580.0</ele><time>2026-04-18T08:07:06.634Z</time></trkpt><trkpt lat="40.9685067" lon="16.2915173"><ele>580.0</ele><time>2026-04-18T08:07:07.633Z</time></trkpt><trkpt lat="40.9684321" lon="16.291553"><ele>578.5</ele><time>2026-04-18T08:07:08.634Z</time></trkpt><trkpt lat="40.9683588" lon="16.2915905"><ele>577.0</ele><time>2026-04-18T08:07:09.634Z</time></trkpt><trkpt lat="40.9682792" lon="16.2916214"><ele>575.5</ele><time>2026-04-18T08:07:10.634Z</time></trkpt><trkpt lat="40.9682005" lon="16.2916391"><ele>574.0</ele><time>2026-04-18T08:07:11.634Z</time></trkpt><trkpt lat="40.9681283" lon="16.2916317"><ele>572.5</ele><time>2026-04-18T08:07:12.633Z</time></trkpt><trkpt lat="40.9680467" lon="16.2916233"><ele>571.0</ele><time>2026-04-18T08:07:14.636Z</time></trkpt><trkpt lat="40.9679583" lon="16.291565"><ele>571.0</ele><time>2026-04-18T08:07:17.634Z</time></trkpt><trkpt lat="40.9678633" lon="16.291515"><ele>571.0</ele><time>2026-04-18T08:07:19.633Z</time></trkpt><trkpt lat="40.9677733" lon="16.2914633"><ele>571.0</ele><time>2026-04-18T08:07:21.65Z</time></trkpt><trkpt lat="40.9676933" lon="16.2914017"><ele>571.0</ele><time>2026-04-18T08:07:23.634Z</time></trkpt><trkpt lat="40.9676417" lon="16.2913383"><ele>571.0</ele><time>2026-04-18T08:07:24.635Z</time></trkpt><trkpt lat="40.9675633" lon="16.2912217"><ele>569.0</ele><time>2026-04-18T08:07:25.634Z</time></trkpt><trkpt lat="40.96747" lon="16.29109"><ele>567.0</ele><time>2026-04-18T08:07:26.634Z</time></trkpt><trkpt lat="40.9673633" lon="16.2909367"><ele>565.0</ele><time>2026-04-18T08:07:27.634Z</time></trkpt><trkpt lat="40.9672533" lon="16.2907717"><ele>565.0</ele><time>2026-04-18T08:07:28.634Z</time></trkpt><trkpt lat="40.9671433" lon="16.2906083"><ele>565.0</ele><time>2026-04-18T08:07:29.635Z</time></trkpt><trkpt lat="40.9670383" lon="16.290455"><ele>565.0</ele><time>2026-04-18T08:07:30.634Z</time></trkpt><trkpt lat="40.9669233" lon="16.2903233"><ele>565.0</ele><time>2026-04-18T08:07:31.635Z</time></trkpt><trkpt lat="40.9667883" lon="16.2901967"><ele>565.0</ele><time>2026-04-18T08:07:32.635Z</time></trkpt><trkpt lat="40.96664" lon="16.2900783"><ele>565.0</ele><time>2026-04-18T08:07:33.635Z</time></trkpt><trkpt lat="40.9664833" lon="16.289965"><ele>565.0</ele><time>2026-04-18T08:07:34.634Z</time></trkpt><trkpt lat="40.9663267" lon="16.2898533"><ele>565.0</ele><time>2026-04-18T08:07:35.634Z</time></trkpt><trkpt lat="40.96617" lon="16.2897267"><ele>565.0</ele><time>2026-04-18T08:07:36.634Z</time></trkpt><trkpt lat="40.9660167" lon="16.28958"><ele>564.0</ele><time>2026-04-18T08:07:37.634Z</time></trkpt><trkpt lat="40.965865" lon="16.2894117"><ele>563.0</ele><time>2026-04-18T08:07:38.634Z</time></trkpt><trkpt lat="40.9657217" lon="16.2892283"><ele>562.0</ele><time>2026-04-18T08:07:39.634Z</time></trkpt><trkpt lat="40.9655883" lon="16.28905"><ele>561.6666666666667</ele><time>2026-04-18T08:07:40.635Z</time></trkpt><trkpt lat="40.96546" lon="16.2888833"><ele>561.3333333333334</ele><time>2026-04-18T08:07:41.634Z</time></trkpt><trkpt lat="40.965335" lon="16.2887267"><ele>561.0</ele><time>2026-04-18T08:07:42.634Z</time></trkpt><trkpt lat="40.9652167" lon="16.2885817"><ele>561.0</ele><time>2026-04-18T08:07:43.634Z</time></trkpt><trkpt lat="40.965095" lon="16.2884533"><ele>561.0</ele><time>2026-04-18T08:07:44.634Z</time></trkpt><trkpt lat="40.96497" lon="16.28834"><ele>561.0</ele><time>2026-04-18T08:07:45.635Z</time></trkpt><trkpt lat="40.9648383" lon="16.2882433"><ele>562.5</ele><time>2026-04-18T08:07:46.633Z</time></trkpt><trkpt lat="40.9646883" lon="16.2881583"><ele>564.0</ele><time>2026-04-18T08:07:47.634Z</time></trkpt><trkpt lat="40.96433" lon="16.2880117"><ele>562.0</ele><time>2026-04-18T08:07:49.634Z</time></trkpt><trkpt lat="40.9641317" lon="16.28793"><ele>560.0</ele><time>2026-04-18T08:07:50.634Z</time></trkpt><trkpt lat="40.96392" lon="16.28784"><ele>558.0</ele><time>2026-04-18T08:07:51.634Z</time></trkpt><trkpt lat="40.963705" lon="16.28775"><ele>558.0</ele><time>2026-04-18T08:07:52.636Z</time></trkpt><trkpt lat="40.9634967" lon="16.2876633"><ele>558.0</ele><time>2026-04-18T08:07:53.633Z</time></trkpt><trkpt lat="40.963295" lon="16.2875817"><ele>558.0</ele><time>2026-04-18T08:07:54.634Z</time></trkpt><trkpt lat="40.9630967" lon="16.2874983"><ele>556.6666666666666</ele><time>2026-04-18T08:07:55.634Z</time></trkpt><trkpt lat="40.9629017" lon="16.287415"><ele>555.3333333333333</ele><time>2026-04-18T08:07:56.634Z</time></trkpt><trkpt lat="40.9627183" lon="16.2873383"><ele>554.0</ele><time>2026-04-18T08:07:57.633Z</time></trkpt><trkpt lat="40.96254" lon="16.287265"><ele>553.3333333333333</ele><time>2026-04-18T08:07:58.634Z</time></trkpt><trkpt lat="40.96237" lon="16.2871917"><ele>552.6666666666666</ele><time>2026-04-18T08:07:59.633Z</time></trkpt><trkpt lat="40.9622017" lon="16.2871183"><ele>552.0</ele><time>2026-04-18T08:08:00.633Z</time></trkpt><trkpt lat="40.96203" lon="16.2870533"><ele>552.0</ele><time>2026-04-18T08:08:01.633Z</time></trkpt><trkpt lat="40.96185" lon="16.2870033"><ele>552.0</ele><time>2026-04-18T08:08:02.634Z</time></trkpt><trkpt lat="40.9616617" lon="16.2869683"><ele>552.0</ele><time>2026-04-18T08:08:03.634Z</time></trkpt><trkpt lat="40.961465" lon="16.2869417"><ele>550.6666666666666</ele><time>2026-04-18T08:08:04.634Z</time></trkpt><trkpt lat="40.96126" lon="16.2869217"><ele>549.3333333333333</ele><time>2026-04-18T08:08:05.634Z</time></trkpt><trkpt lat="40.9610533" lon="16.2868967"><ele>548.0</ele><time>2026-04-18T08:08:06.636Z</time></trkpt><trkpt lat="40.9608517" lon="16.2868717"><ele>548.0</ele><time>2026-04-18T08:08:07.633Z</time></trkpt><trkpt lat="40.9606617" lon="16.2868417"><ele>548.0</ele><time>2026-04-18T08:08:08.634Z</time></trkpt><trkpt lat="40.9604833" lon="16.2867933"><ele>548.0</ele><time>2026-04-18T08:08:09.634Z</time></trkpt><trkpt lat="40.96031" lon="16.2867133"><ele>548.0</ele><time>2026-04-18T08:08:10.633Z</time></trkpt><trkpt lat="40.9601383" lon="16.28659"><ele>548.0</ele><time>2026-04-18T08:08:11.633Z</time></trkpt><trkpt lat="40.9599583" lon="16.286445"><ele>548.0</ele><time>2026-04-18T08:08:12.634Z</time></trkpt><trkpt lat="40.9597733" lon="16.286285"><ele>548.5</ele><time>2026-04-18T08:08:13.633Z</time></trkpt><trkpt lat="40.959575" lon="16.2861217"><ele>549.0</ele><time>2026-04-18T08:08:14.634Z</time></trkpt><trkpt lat="40.9593733" lon="16.28596"><ele>549.0</ele><time>2026-04-18T08:08:15.633Z</time></trkpt><trkpt lat="40.9591817" lon="16.2858083"><ele>549.0</ele><time>2026-04-18T08:08:16.634Z</time></trkpt><trkpt lat="40.9589983" lon="16.28566"><ele>549.0</ele><time>2026-04-18T08:08:17.633Z</time></trkpt><trkpt lat="40.9588217" lon="16.2855183"><ele>550.6666666666666</ele><time>2026-04-18T08:08:18.633Z</time></trkpt><trkpt lat="40.958655" lon="16.2853817"><ele>552.3333333333333</ele><time>2026-04-18T08:08:19.634Z</time></trkpt><trkpt lat="40.9584933" lon="16.28525"><ele>554.0</ele><time>2026-04-18T08:08:20.637Z</time></trkpt><trkpt lat="40.9583383" lon="16.2851167"><ele>552.0</ele><time>2026-04-18T08:08:21.633Z</time></trkpt><trkpt lat="40.9581983" lon="16.2849783"><ele>550.0</ele><time>2026-04-18T08:08:22.633Z</time></trkpt><trkpt lat="40.9580767" lon="16.28483"><ele>548.0</ele><time>2026-04-18T08:08:23.633Z</time></trkpt><trkpt lat="40.9579717" lon="16.28466"><ele>548.0</ele><time>2026-04-18T08:08:24.634Z</time></trkpt><trkpt lat="40.957885" lon="16.284465"><ele>548.0</ele><time>2026-04-18T08:08:25.633Z</time></trkpt><trkpt lat="40.9578067" lon="16.2842617"><ele>548.0</ele><time>2026-04-18T08:08:26.634Z</time></trkpt><trkpt lat="40.9577233" lon="16.2840533"><ele>546.0</ele><time>2026-04-18T08:08:27.633Z</time></trkpt><trkpt lat="40.95764" lon="16.2838433"><ele>544.0</ele><time>2026-04-18T08:08:28.633Z</time></trkpt><trkpt lat="40.9575583" lon="16.28364"><ele>542.0</ele><time>2026-04-18T08:08:29.634Z</time></trkpt><trkpt lat="40.9574833" lon="16.28345"><ele>542.0</ele><time>2026-04-18T08:08:30.634Z</time></trkpt><trkpt lat="40.9573983" lon="16.2832817"><ele>542.0</ele><time>2026-04-18T08:08:31.634Z</time></trkpt><trkpt lat="40.9573" lon="16.283135"><ele>542.0</ele><time>2026-04-18T08:08:32.634Z</time></trkpt><trkpt lat="40.9571883" lon="16.2830067"><ele>542.0</ele><time>2026-04-18T08:08:33.634Z</time></trkpt><trkpt lat="40.9570583" lon="16.2829017"><ele>541.0</ele><time>2026-04-18T08:08:34.634Z</time></trkpt><trkpt lat="40.95691" lon="16.2828233"><ele>540.0</ele><time>2026-04-18T08:08:35.633Z</time></trkpt><trkpt lat="40.9567517" lon="16.282755"><ele>539.0</ele><time>2026-04-18T08:08:36.633Z</time></trkpt><trkpt lat="40.9565833" lon="16.2826833"><ele>539.0</ele><time>2026-04-18T08:08:37.635Z</time></trkpt><trkpt lat="40.95641" lon="16.282605"><ele>539.0</ele><time>2026-04-18T08:08:38.635Z</time></trkpt><trkpt lat="40.9562333" lon="16.282525"><ele>539.0</ele><time>2026-04-18T08:08:39.633Z</time></trkpt><trkpt lat="40.95606" lon="16.2824467"><ele>539.0</ele><time>2026-04-18T08:08:40.634Z</time></trkpt><trkpt lat="40.955895" lon="16.28237"><ele>539.0</ele><time>2026-04-18T08:08:41.634Z</time></trkpt><trkpt lat="40.9557367" lon="16.2822933"><ele>539.0</ele><time>2026-04-18T08:08:42.633Z</time></trkpt><trkpt lat="40.955585" lon="16.2822067"><ele>536.3333333333333</ele><time>2026-04-18T08:08:43.635Z</time></trkpt><trkpt lat="40.95544" lon="16.28209"><ele>533.6666666666666</ele><time>2026-04-18T08:08:44.634Z</time></trkpt><trkpt lat="40.9552983" lon="16.2819533"><ele>531.0</ele><time>2026-04-18T08:08:45.634Z</time></trkpt><trkpt lat="40.9551583" lon="16.2817983"><ele>531.3333333333334</ele><time>2026-04-18T08:08:46.633Z</time></trkpt><trkpt lat="40.9550233" lon="16.2816267"><ele>531.6666666666667</ele><time>2026-04-18T08:08:47.633Z</time></trkpt><trkpt lat="40.9548883" lon="16.2814483"><ele>532.0</ele><time>2026-04-18T08:08:48.633Z</time></trkpt><trkpt lat="40.954755" lon="16.281255"><ele>530.6666666666667</ele><time>2026-04-18T08:08:49.634Z</time></trkpt><trkpt lat="40.9546267" lon="16.2810667"><ele>529.3333333333334</ele><time>2026-04-18T08:08:50.635Z</time></trkpt><trkpt lat="40.954505" lon="16.280875"><ele>528.0</ele><time>2026-04-18T08:08:51.633Z</time></trkpt><trkpt lat="40.954395" lon="16.2806733"><ele>527.0</ele><time>2026-04-18T08:08:52.633Z</time></trkpt><trkpt lat="40.9542983" lon="16.28046"><ele>526.0</ele><time>2026-04-18T08:08:53.633Z</time></trkpt><trkpt lat="40.9542067" lon="16.2802383"><ele>525.0</ele><time>2026-04-18T08:08:54.633Z</time></trkpt><trkpt lat="40.9541117" lon="16.280015"><ele>525.0</ele><time>2026-04-18T08:08:55.634Z</time></trkpt><trkpt lat="40.9540133" lon="16.27979"><ele>525.0</ele><time>2026-04-18T08:08:56.634Z</time></trkpt><trkpt lat="40.9539167" lon="16.279565"><ele>525.0</ele><time>2026-04-18T08:08:57.633Z</time></trkpt><trkpt lat="40.95382" lon="16.2793367"><ele>525.0</ele><time>2026-04-18T08:08:58.633Z</time></trkpt><trkpt lat="40.9537217" lon="16.2791083"><ele>525.0</ele><time>2026-04-18T08:08:59.635Z</time></trkpt><trkpt lat="40.9536217" lon="16.2788833"><ele>525.0</ele><time>2026-04-18T08:09:00.633Z</time></trkpt><trkpt lat="40.9535267" lon="16.278665"><ele>524.3333333333334</ele><time>2026-04-18T08:09:01.633Z</time></trkpt><trkpt lat="40.95344" lon="16.2784517"><ele>523.6666666666667</ele><time>2026-04-18T08:09:02.634Z</time></trkpt><trkpt lat="40.9533567" lon="16.2782483"><ele>523.0</ele><time>2026-04-18T08:09:03.634Z</time></trkpt><trkpt lat="40.9532717" lon="16.278045"><ele>522.0</ele><time>2026-04-18T08:09:04.633Z</time></trkpt><trkpt lat="40.9531883" lon="16.2778417"><ele>521.0</ele><time>2026-04-18T08:09:05.633Z</time></trkpt><trkpt lat="40.9531033" lon="16.2776367"><ele>520.0</ele><time>2026-04-18T08:09:06.633Z</time></trkpt><trkpt lat="40.9530217" lon="16.2774383"><ele>520.6666666666667</ele><time>2026-04-18T08:09:07.633Z</time></trkpt><trkpt lat="40.9529417" lon="16.277245"><ele>521.3333333333334</ele><time>2026-04-18T08:09:08.634Z</time></trkpt><trkpt lat="40.95286" lon="16.2770533"><ele>522.0</ele><time>2026-04-18T08:09:09.633Z</time></trkpt><trkpt lat="40.95278" lon="16.2768633"><ele>522.0</ele><time>2026-04-18T08:09:10.633Z</time></trkpt><trkpt lat="40.952705" lon="16.2766817"><ele>522.0</ele><time>2026-04-18T08:09:11.633Z</time></trkpt><trkpt lat="40.9526333" lon="16.2765067"><ele>522.0</ele><time>2026-04-18T08:09:12.634Z</time></trkpt><trkpt lat="40.95256" lon="16.27634"><ele>520.5</ele><time>2026-04-18T08:09:13.633Z</time></trkpt><trkpt lat="40.9524883" lon="16.27618"><ele>519.0</ele><time>2026-04-18T08:09:14.634Z</time></trkpt><trkpt lat="40.9524133" lon="16.27602"><ele>517.5</ele><time>2026-04-18T08:09:15.634Z</time></trkpt><trkpt lat="40.9523233" lon="16.2758683"><ele>516.0</ele><time>2026-04-18T08:09:16.633Z</time></trkpt><trkpt lat="40.9522183" lon="16.2757267"><ele>518.3333333333334</ele><time>2026-04-18T08:09:17.634Z</time></trkpt><trkpt lat="40.9521033" lon="16.2755933"><ele>520.6666666666667</ele><time>2026-04-18T08:09:18.633Z</time></trkpt><trkpt lat="40.9519783" lon="16.2754717"><ele>523.0</ele><time>2026-04-18T08:09:19.635Z</time></trkpt><trkpt lat="40.951845" lon="16.2753717"><ele>520.3333333333334</ele><time>2026-04-18T08:09:20.634Z</time></trkpt><trkpt lat="40.951705" lon="16.2752917"><ele>517.6666666666666</ele><time>2026-04-18T08:09:21.633Z</time></trkpt><trkpt lat="40.9515567" lon="16.2752283"><ele>515.0</ele><time>2026-04-18T08:09:22.634Z</time></trkpt><trkpt lat="40.9513983" lon="16.27518"><ele>515.0</ele><time>2026-04-18T08:09:23.634Z</time></trkpt><trkpt lat="40.9512283" lon="16.2751533"><ele>515.0</ele><time>2026-04-18T08:09:24.635Z</time></trkpt><trkpt lat="40.9510467" lon="16.2751433"><ele>515.0</ele><time>2026-04-18T08:09:25.636Z</time></trkpt><trkpt lat="40.9508567" lon="16.27514"><ele>514.0</ele><time>2026-04-18T08:09:26.636Z</time></trkpt><trkpt lat="40.9506533" lon="16.275135"><ele>513.0</ele><time>2026-04-18T08:09:27.634Z</time></trkpt><trkpt lat="40.9504367" lon="16.275135"><ele>512.0</ele><time>2026-04-18T08:09:28.633Z</time></trkpt><trkpt lat="40.9502183" lon="16.2751333"><ele>511.0</ele><time>2026-04-18T08:09:29.634Z</time></trkpt><trkpt lat="40.9500117" lon="16.27513"><ele>510.0</ele><time>2026-04-18T08:09:30.633Z</time></trkpt><trkpt lat="40.949815" lon="16.2751283"><ele>509.0</ele><time>2026-04-18T08:09:31.633Z</time></trkpt><trkpt lat="40.9496283" lon="16.2751167"><ele>509.0</ele><time>2026-04-18T08:09:32.634Z</time></trkpt><trkpt lat="40.9494467" lon="16.27509"><ele>509.0</ele><time>2026-04-18T08:09:33.634Z</time></trkpt><trkpt lat="40.949265" lon="16.27504"><ele>509.0</ele><time>2026-04-18T08:09:34.634Z</time></trkpt><trkpt lat="40.9490833" lon="16.274975"><ele>508.66666666666663</ele><time>2026-04-18T08:09:35.634Z</time></trkpt><trkpt lat="40.9489" lon="16.2748867"><ele>508.33333333333337</ele><time>2026-04-18T08:09:36.636Z</time></trkpt><trkpt lat="40.9487133" lon="16.274775"><ele>508.0</ele><time>2026-04-18T08:09:37.634Z</time></trkpt><trkpt lat="40.94852" lon="16.2746583"><ele>505.5</ele><time>2026-04-18T08:09:38.634Z</time></trkpt><trkpt lat="40.9483167" lon="16.2745417"><ele>503.0</ele><time>2026-04-18T08:09:39.634Z</time></trkpt><trkpt lat="40.948105" lon="16.2744217"><ele>503.0</ele><time>2026-04-18T08:09:40.634Z</time></trkpt><trkpt lat="40.9478883" lon="16.274295"><ele>503.0</ele><time>2026-04-18T08:09:41.635Z</time></trkpt><trkpt lat="40.94767" lon="16.274175"><ele>503.0</ele><time>2026-04-18T08:09:42.634Z</time></trkpt><trkpt lat="40.9474467" lon="16.2740483"><ele>503.0</ele><time>2026-04-18T08:09:43.634Z</time></trkpt><trkpt lat="40.94722" lon="16.2739183"><ele>502.5</ele><time>2026-04-18T08:09:44.634Z</time></trkpt><trkpt lat="40.946995" lon="16.273785"><ele>502.0</ele><time>2026-04-18T08:09:45.633Z</time></trkpt><trkpt lat="40.9467817" lon="16.2736583"><ele>499.0</ele><time>2026-04-18T08:09:46.633Z</time></trkpt><trkpt lat="40.94657" lon="16.2735367"><ele>496.0</ele><time>2026-04-18T08:09:47.635Z</time></trkpt><trkpt lat="40.9463583" lon="16.2734117"><ele>496.0</ele><time>2026-04-18T08:09:48.633Z</time></trkpt><trkpt lat="40.9461433" lon="16.2732867"><ele>496.0</ele><time>2026-04-18T08:09:49.633Z</time></trkpt><trkpt lat="40.94593" lon="16.2731683"><ele>493.5</ele><time>2026-04-18T08:09:50.634Z</time></trkpt><trkpt lat="40.9457167" lon="16.2730567"><ele>491.0</ele><time>2026-04-18T08:09:51.634Z</time></trkpt><trkpt lat="40.9455033" lon="16.2729467"><ele>491.0</ele><time>2026-04-18T08:09:52.633Z</time></trkpt><trkpt lat="40.945295" lon="16.2728483"><ele>491.0</ele><time>2026-04-18T08:09:53.634Z</time></trkpt><trkpt lat="40.9450867" lon="16.2727567"><ele>491.0</ele><time>2026-04-18T08:09:54.633Z</time></trkpt><trkpt lat="40.9448733" lon="16.27267"><ele>491.3333333333333</ele><time>2026-04-18T08:09:55.636Z</time></trkpt><trkpt lat="40.9446583" lon="16.2725833"><ele>491.66666666666663</ele><time>2026-04-18T08:09:56.633Z</time></trkpt><trkpt lat="40.944445" lon="16.2724967"><ele>492.0</ele><time>2026-04-18T08:09:57.633Z</time></trkpt><trkpt lat="40.9442317" lon="16.2724083"><ele>492.66666666666663</ele><time>2026-04-18T08:09:58.633Z</time></trkpt><trkpt lat="40.9440183" lon="16.27232"><ele>493.3333333333333</ele><time>2026-04-18T08:09:59.634Z</time></trkpt><trkpt lat="40.9438067" lon="16.2722317"><ele>494.0</ele><time>2026-04-18T08:10:00.633Z</time></trkpt><trkpt lat="40.9435983" lon="16.2721433"><ele>491.3333333333333</ele><time>2026-04-18T08:10:01.634Z</time></trkpt><trkpt lat="40.943395" lon="16.2720583"><ele>488.66666666666663</ele><time>2026-04-18T08:10:02.634Z</time></trkpt><trkpt lat="40.94319" lon="16.27197"><ele>486.0</ele><time>2026-04-18T08:10:03.634Z</time></trkpt><trkpt lat="40.942985" lon="16.271885"><ele>485.33333333333337</ele><time>2026-04-18T08:10:04.634Z</time></trkpt><trkpt lat="40.9427767" lon="16.2718"><ele>484.6666666666667</ele><time>2026-04-18T08:10:05.633Z</time></trkpt><trkpt lat="40.9425683" lon="16.2717133"><ele>484.0</ele><time>2026-04-18T08:10:06.634Z</time></trkpt><trkpt lat="40.9423583" lon="16.2716267"><ele>483.0</ele><time>2026-04-18T08:10:07.634Z</time></trkpt><trkpt lat="40.9421483" lon="16.2715367"><ele>482.0</ele><time>2026-04-18T08:10:08.634Z</time></trkpt><trkpt lat="40.941935" lon="16.2714467"><ele>481.0</ele><time>2026-04-18T08:10:09.634Z</time></trkpt><trkpt lat="40.941715" lon="16.271355"><ele>479.5</ele><time>2026-04-18T08:10:10.634Z</time></trkpt><trkpt lat="40.9414867" lon="16.2712617"><ele>478.0</ele><time>2026-04-18T08:10:11.634Z</time></trkpt><trkpt lat="40.94125" lon="16.2711617"><ele>478.0</ele><time>2026-04-18T08:10:12.635Z</time></trkpt><trkpt lat="40.94101" lon="16.27106"><ele>478.0</ele><time>2026-04-18T08:10:13.634Z</time></trkpt><trkpt lat="40.9407667" lon="16.27096"><ele>477.0</ele><time>2026-04-18T08:10:14.635Z</time></trkpt><trkpt lat="40.94052" lon="16.2708617"><ele>476.0</ele><time>2026-04-18T08:10:15.634Z</time></trkpt><trkpt lat="40.94027" lon="16.2707583"><ele>474.5</ele><time>2026-04-18T08:10:16.633Z</time></trkpt><trkpt lat="40.9400167" lon="16.2706517"><ele>473.0</ele><time>2026-04-18T08:10:17.634Z</time></trkpt><trkpt lat="40.9395283" lon="16.2704467"><ele>472.5</ele><time>2026-04-18T08:10:19.634Z</time></trkpt><trkpt lat="40.9393017" lon="16.2703533"><ele>472.0</ele><time>2026-04-18T08:10:20.634Z</time></trkpt><trkpt lat="40.9390817" lon="16.2702583"><ele>470.0</ele><time>2026-04-18T08:10:21.633Z</time></trkpt><trkpt lat="40.9388617" lon="16.2701683"><ele>468.0</ele><time>2026-04-18T08:10:22.634Z</time></trkpt><trkpt lat="40.9386417" lon="16.2700783"><ele>468.0</ele><time>2026-04-18T08:10:23.634Z</time></trkpt><trkpt lat="40.9384217" lon="16.2699867"><ele>468.0</ele><time>2026-04-18T08:10:24.633Z</time></trkpt><trkpt lat="40.9381967" lon="16.26989"><ele>467.5</ele><time>2026-04-18T08:10:25.633Z</time></trkpt><trkpt lat="40.9379667" lon="16.2697917"><ele>467.0</ele><time>2026-04-18T08:10:26.634Z</time></trkpt><trkpt lat="40.9377333" lon="16.2697017"><ele>465.5</ele><time>2026-04-18T08:10:27.634Z</time></trkpt><trkpt lat="40.9375033" lon="16.2696117"><ele>464.0</ele><time>2026-04-18T08:10:28.633Z</time></trkpt><trkpt lat="40.9372833" lon="16.269525"><ele>464.0</ele><time>2026-04-18T08:10:29.633Z</time></trkpt><trkpt lat="40.937075" lon="16.2694383"><ele>464.0</ele><time>2026-04-18T08:10:30.634Z</time></trkpt><trkpt lat="40.9368733" lon="16.2693483"><ele>464.0</ele><time>2026-04-18T08:10:31.634Z</time></trkpt><trkpt lat="40.9366733" lon="16.2692617"><ele>463.3333333333333</ele><time>2026-04-18T08:10:32.636Z</time></trkpt><trkpt lat="40.9364733" lon="16.2691767"><ele>462.66666666666663</ele><time>2026-04-18T08:10:33.633Z</time></trkpt><trkpt lat="40.93628" lon="16.269095"><ele>462.0</ele><time>2026-04-18T08:10:34.633Z</time></trkpt><trkpt lat="40.9361033" lon="16.2690167"><ele>462.0</ele><time>2026-04-18T08:10:35.634Z</time></trkpt><trkpt lat="40.9359383" lon="16.2689483"><ele>462.0</ele><time>2026-04-18T08:10:36.633Z</time></trkpt><trkpt lat="40.935775" lon="16.2688983"><ele>462.0</ele><time>2026-04-18T08:10:37.633Z</time></trkpt><trkpt lat="40.9356117" lon="16.26887"><ele>460.33333333333337</ele><time>2026-04-18T08:10:38.634Z</time></trkpt><trkpt lat="40.93545" lon="16.2688583"><ele>458.6666666666667</ele><time>2026-04-18T08:10:39.634Z</time></trkpt><trkpt lat="40.9352967" lon="16.2688483"><ele>457.0</ele><time>2026-04-18T08:10:40.635Z</time></trkpt><trkpt lat="40.935155" lon="16.2688333"><ele>456.6</ele><time>2026-04-18T08:10:41.635Z</time></trkpt><trkpt lat="40.9350233" lon="16.2688067"><ele>456.20000000000005</ele><time>2026-04-18T08:10:42.633Z</time></trkpt><trkpt lat="40.934915" lon="16.2687683"><ele>455.8</ele><time>2026-04-18T08:10:43.633Z</time></trkpt><trkpt lat="40.9348283" lon="16.26872"><ele>455.4</ele><time>2026-04-18T08:10:44.634Z</time></trkpt><trkpt lat="40.93475" lon="16.26867"><ele>455.0</ele><time>2026-04-18T08:10:45.633Z</time></trkpt><trkpt lat="40.93467" lon="16.268615"><ele>455.0</ele><time>2026-04-18T08:10:46.634Z</time></trkpt><trkpt lat="40.93458" lon="16.268555"><ele>455.0</ele><time>2026-04-18T08:10:47.633Z</time></trkpt><trkpt lat="40.93449" lon="16.2684933"><ele>455.0</ele><time>2026-04-18T08:10:48.634Z</time></trkpt><trkpt lat="40.9344017" lon="16.2684283"><ele>455.0</ele><time>2026-04-18T08:10:49.637Z</time></trkpt><trkpt lat="40.9343067" lon="16.2683533"><ele>455.0</ele><time>2026-04-18T08:10:50.635Z</time></trkpt><trkpt lat="40.9342083" lon="16.2682783"><ele>454.99999999999994</ele><time>2026-04-18T08:10:51.635Z</time></trkpt><trkpt lat="40.9341133" lon="16.2682117"><ele>455.0</ele><time>2026-04-18T08:10:52.634Z</time></trkpt><trkpt lat="40.93403" lon="16.268155"><ele>455.0</ele><time>2026-04-18T08:10:53.635Z</time></trkpt><trkpt lat="40.9339633" lon="16.2681017"><ele>455.0</ele><time>2026-04-18T08:10:54.635Z</time></trkpt><trkpt lat="40.9339167" lon="16.268045"><ele>454.99999999999994</ele><time>2026-04-18T08:10:55.634Z</time></trkpt><trkpt lat="40.9338717" lon="16.2679183"><ele>455.0</ele><time>2026-04-18T08:10:57.633Z</time></trkpt><trkpt lat="40.9338983" lon="16.2677667"><ele>455.0</ele><time>2026-04-18T08:10:59.634Z</time></trkpt><trkpt lat="40.9339367" lon="16.2676617"><ele>455.0</ele><time>2026-04-18T08:11:00.634Z</time></trkpt><trkpt lat="40.933985" lon="16.2675417"><ele>455.0</ele><time>2026-04-18T08:11:01.634Z</time></trkpt><trkpt lat="40.9340417" lon="16.267425"><ele>455.0</ele><time>2026-04-18T08:11:02.635Z</time></trkpt><trkpt lat="40.934095" lon="16.2673283"><ele>455.0</ele><time>2026-04-18T08:11:03.634Z</time></trkpt><trkpt lat="40.9341583" lon="16.2672617"><ele>454.0</ele><time>2026-04-18T08:11:04.633Z</time></trkpt><trkpt lat="40.9342233" lon="16.2672283"><ele>456.0</ele><time>2026-04-18T08:11:05.634Z</time></trkpt><trkpt lat="40.9342883" lon="16.2672083"><ele>456.0</ele><time>2026-04-18T08:11:06.634Z</time></trkpt><trkpt lat="40.934355" lon="16.2671983"><ele>456.0</ele><time>2026-04-18T08:11:07.634Z</time></trkpt><trkpt lat="40.934455" lon="16.2672067"><ele>456.0</ele><time>2026-04-18T08:11:09.633Z</time></trkpt></trkseg><trkseg><trkpt lat="40.93448" lon="16.26708"><ele>456.0</ele><time>2026-04-18T08:24:18.633Z</time></trkpt><trkpt lat="40.9345333" lon="16.266925"><ele>456.0</ele><time>2026-04-18T08:24:20.637Z</time></trkpt><trkpt lat="40.9345667" lon="16.266825"><ele>456.0</ele><time>2026-04-18T08:24:21.634Z</time></trkpt><trkpt lat="40.93459" lon="16.2667417"><ele>456.0</ele><time>2026-04-18T08:24:22.635Z</time></trkpt><trkpt lat="40.9346317" lon="16.2665883"><ele>456.0</ele><time>2026-04-18T08:24:24.635Z</time></trkpt><trkpt lat="40.93465" lon="16.2664967"><ele>456.0</ele><time>2026-04-18T08:24:25.635Z</time></trkpt><trkpt lat="40.9346683" lon="16.2663767"><ele>456.0</ele><time>2026-04-18T08:24:26.634Z</time></trkpt><trkpt lat="40.9346983" lon="16.2662467"><ele>456.0</ele><time>2026-04-18T08:24:27.633Z</time></trkpt><trkpt lat="40.9347383" lon="16.2661133"><ele>456.0</ele><time>2026-04-18T08:24:28.633Z</time></trkpt><trkpt lat="40.9347917" lon="16.265975"><ele>456.0</ele><time>2026-04-18T08:24:29.633Z</time></trkpt><trkpt lat="40.9348517" lon="16.2658433"><ele>456.0</ele><time>2026-04-18T08:24:30.634Z</time></trkpt><trkpt lat="40.93491" lon="16.2657167"><ele>456.0</ele><time>2026-04-18T08:24:31.633Z</time></trkpt><trkpt lat="40.93497" lon="16.2655883"><ele>456.0</ele><time>2026-04-18T08:24:32.636Z</time></trkpt><trkpt lat="40.935035" lon="16.2654483"><ele>456.0</ele><time>2026-04-18T08:24:33.634Z</time></trkpt><trkpt lat="40.935105" lon="16.2653017"><ele>456.0</ele><time>2026-04-18T08:24:34.635Z</time></trkpt><trkpt lat="40.9351833" lon="16.2651417"><ele>456.0</ele><time>2026-04-18T08:24:35.633Z</time></trkpt><trkpt lat="40.935265" lon="16.2649717"><ele>456.0</ele><time>2026-04-18T08:24:36.633Z</time></trkpt><trkpt lat="40.9353483" lon="16.2647917"><ele>456.66666666666663</ele><time>2026-04-18T08:24:37.633Z</time></trkpt><trkpt lat="40.9354367" lon="16.2646033"><ele>457.3333333333333</ele><time>2026-04-18T08:24:38.635Z</time></trkpt><trkpt lat="40.9355283" lon="16.264405"><ele>458.0</ele><time>2026-04-18T08:24:39.634Z</time></trkpt><trkpt lat="40.935625" lon="16.2641983"><ele>458.0</ele><time>2026-04-18T08:24:40.634Z</time></trkpt><trkpt lat="40.93573" lon="16.2639833"><ele>458.0</ele><time>2026-04-18T08:24:41.634Z</time></trkpt><trkpt lat="40.9358433" lon="16.26376"><ele>458.0</ele><time>2026-04-18T08:24:42.633Z</time></trkpt><trkpt lat="40.935955" lon="16.26353"><ele>457.66666666666663</ele><time>2026-04-18T08:24:43.634Z</time></trkpt><trkpt lat="40.936065" lon="16.2632967"><ele>457.33333333333337</ele><time>2026-04-18T08:24:44.634Z</time></trkpt><trkpt lat="40.9361783" lon="16.2630617"><ele>457.0</ele><time>2026-04-18T08:24:45.633Z</time></trkpt><trkpt lat="40.9362933" lon="16.262825"><ele>456.6666666666667</ele><time>2026-04-18T08:24:46.634Z</time></trkpt><trkpt lat="40.93641" lon="16.2625867"><ele>456.33333333333337</ele><time>2026-04-18T08:24:47.634Z</time></trkpt><trkpt lat="40.9365283" lon="16.2623483"><ele>456.0</ele><time>2026-04-18T08:24:48.639Z</time></trkpt><trkpt lat="40.936645" lon="16.2621067"><ele>456.33333333333337</ele><time>2026-04-18T08:24:49.636Z</time></trkpt><trkpt lat="40.9367633" lon="16.2618633"><ele>456.6666666666667</ele><time>2026-04-18T08:24:50.635Z</time></trkpt><trkpt lat="40.9368833" lon="16.26162"><ele>457.0</ele><time>2026-04-18T08:24:51.633Z</time></trkpt><trkpt lat="40.9370017" lon="16.2613767"><ele>457.0</ele><time>2026-04-18T08:24:52.634Z</time></trkpt><trkpt lat="40.93712" lon="16.2611333"><ele>457.0</ele><time>2026-04-18T08:24:53.635Z</time></trkpt><trkpt lat="40.9372383" lon="16.26089"><ele>457.0</ele><time>2026-04-18T08:24:54.633Z</time></trkpt><trkpt lat="40.93736" lon="16.2606483"><ele>457.0</ele><time>2026-04-18T08:24:55.634Z</time></trkpt><trkpt lat="40.9374817" lon="16.2604067"><ele>457.0</ele><time>2026-04-18T08:24:56.634Z</time></trkpt><trkpt lat="40.9376033" lon="16.260165"><ele>457.0</ele><time>2026-04-18T08:24:57.633Z</time></trkpt><trkpt lat="40.9377267" lon="16.25992"><ele>456.6666666666667</ele><time>2026-04-18T08:24:58.633Z</time></trkpt><trkpt lat="40.9378483" lon="16.25967"><ele>456.33333333333337</ele><time>2026-04-18T08:24:59.633Z</time></trkpt><trkpt lat="40.93797" lon="16.25942"><ele>456.0</ele><time>2026-04-18T08:25:00.633Z</time></trkpt><trkpt lat="40.938095" lon="16.2591683"><ele>455.0</ele><time>2026-04-18T08:25:01.634Z</time></trkpt><trkpt lat="40.93822" lon="16.2589167"><ele>454.0</ele><time>2026-04-18T08:25:02.638Z</time></trkpt><trkpt lat="40.9383467" lon="16.2586617"><ele>455.0</ele><time>2026-04-18T08:25:03.633Z</time></trkpt><trkpt lat="40.9384733" lon="16.258405"><ele>456.0</ele><time>2026-04-18T08:25:04.633Z</time></trkpt><trkpt lat="40.9386" lon="16.2581467"><ele>455.5</ele><time>2026-04-18T08:25:05.636Z</time></trkpt><trkpt lat="40.9387267" lon="16.2578867"><ele>455.0</ele><time>2026-04-18T08:25:06.634Z</time></trkpt><trkpt lat="40.938855" lon="16.257625"><ele>455.0</ele><time>2026-04-18T08:25:07.639Z</time></trkpt><trkpt lat="40.9389833" lon="16.2573633"><ele>455.0</ele><time>2026-04-18T08:25:08.633Z</time></trkpt><trkpt lat="40.93911" lon="16.2571017"><ele>454.0</ele><time>2026-04-18T08:25:09.635Z</time></trkpt><trkpt lat="40.9392383" lon="16.2568417"><ele>453.0</ele><time>2026-04-18T08:25:10.633Z</time></trkpt><trkpt lat="40.939365" lon="16.25658"><ele>453.0</ele><time>2026-04-18T08:25:11.634Z</time></trkpt><trkpt lat="40.9394917" lon="16.2563167"><ele>453.0</ele><time>2026-04-18T08:25:12.634Z</time></trkpt><trkpt lat="40.93962" lon="16.256055"><ele>453.0</ele><time>2026-04-18T08:25:13.633Z</time></trkpt><trkpt lat="40.9397483" lon="16.2557917"><ele>453.0</ele><time>2026-04-18T08:25:14.635Z</time></trkpt><trkpt lat="40.9398783" lon="16.2555267"><ele>452.5</ele><time>2026-04-18T08:25:15.634Z</time></trkpt><trkpt lat="40.9400083" lon="16.25526"><ele>452.0</ele><time>2026-04-18T08:25:16.634Z</time></trkpt><trkpt lat="40.9401383" lon="16.2549933"><ele>452.0</ele><time>2026-04-18T08:25:17.635Z</time></trkpt><trkpt lat="40.9402667" lon="16.2547283"><ele>452.0</ele><time>2026-04-18T08:25:18.635Z</time></trkpt><trkpt lat="40.940395" lon="16.2544617"><ele>452.0</ele><time>2026-04-18T08:25:19.635Z</time></trkpt><trkpt lat="40.9405233" lon="16.254195"><ele>452.0</ele><time>2026-04-18T08:25:20.635Z</time></trkpt><trkpt lat="40.9406517" lon="16.2539317"><ele>452.0</ele><time>2026-04-18T08:25:21.635Z</time></trkpt><trkpt lat="40.9407817" lon="16.25367"><ele>452.0</ele><time>2026-04-18T08:25:22.636Z</time></trkpt><trkpt lat="40.9409133" lon="16.25341"><ele>452.0</ele><time>2026-04-18T08:25:23.635Z</time></trkpt><trkpt lat="40.9410433" lon="16.2531467"><ele>452.0</ele><time>2026-04-18T08:25:24.635Z</time></trkpt><trkpt lat="40.9411733" lon="16.2528833"><ele>451.5</ele><time>2026-04-18T08:25:25.636Z</time></trkpt><trkpt lat="40.9413033" lon="16.2526167"><ele>451.0</ele><time>2026-04-18T08:25:26.635Z</time></trkpt><trkpt lat="40.9414333" lon="16.25235"><ele>450.5</ele><time>2026-04-18T08:25:27.634Z</time></trkpt><trkpt lat="40.941565" lon="16.2520833"><ele>450.0</ele><time>2026-04-18T08:25:28.633Z</time></trkpt><trkpt lat="40.9416983" lon="16.2518167"><ele>450.0</ele><time>2026-04-18T08:25:29.634Z</time></trkpt><trkpt lat="40.9418317" lon="16.2515517"><ele>450.0</ele><time>2026-04-18T08:25:30.635Z</time></trkpt><trkpt lat="40.9419633" lon="16.2512867"><ele>449.0</ele><time>2026-04-18T08:25:31.633Z</time></trkpt><trkpt lat="40.942095" lon="16.2510183"><ele>448.0</ele><time>2026-04-18T08:25:32.634Z</time></trkpt><trkpt lat="40.94223" lon="16.2507417"><ele>447.5</ele><time>2026-04-18T08:25:33.633Z</time></trkpt><trkpt lat="40.9423683" lon="16.2504567"><ele>447.0</ele><time>2026-04-18T08:25:34.633Z</time></trkpt><trkpt lat="40.94251" lon="16.2501617"><ele>447.0</ele><time>2026-04-18T08:25:35.633Z</time></trkpt><trkpt lat="40.9426567" lon="16.24986"><ele>447.0</ele><time>2026-04-18T08:25:36.634Z</time></trkpt><trkpt lat="40.942805" lon="16.2495583"><ele>446.5</ele><time>2026-04-18T08:25:37.633Z</time></trkpt><trkpt lat="40.9429517" lon="16.2492567"><ele>446.0</ele><time>2026-04-18T08:25:38.636Z</time></trkpt><trkpt lat="40.9431" lon="16.2489533"><ele>446.0</ele><time>2026-04-18T08:25:39.633Z</time></trkpt><trkpt lat="40.94325" lon="16.2486483"><ele>446.0</ele><time>2026-04-18T08:25:40.634Z</time></trkpt><trkpt lat="40.9434017" lon="16.248345"><ele>446.0</ele><time>2026-04-18T08:25:41.634Z</time></trkpt><trkpt lat="40.9435533" lon="16.2480417"><ele>446.0</ele><time>2026-04-18T08:25:42.633Z</time></trkpt><trkpt lat="40.943705" lon="16.2477367"><ele>446.0</ele><time>2026-04-18T08:25:43.635Z</time></trkpt><trkpt lat="40.9438567" lon="16.247435"><ele>446.0</ele><time>2026-04-18T08:25:44.634Z</time></trkpt><trkpt lat="40.944005" lon="16.2471333"><ele>446.5</ele><time>2026-04-18T08:25:45.633Z</time></trkpt><trkpt lat="40.9441517" lon="16.24683"><ele>447.0</ele><time>2026-04-18T08:25:46.634Z</time></trkpt><trkpt lat="40.9442983" lon="16.24653"><ele>447.5</ele><time>2026-04-18T08:25:47.634Z</time></trkpt><trkpt lat="40.9444433" lon="16.24623"><ele>448.0</ele><time>2026-04-18T08:25:48.633Z</time></trkpt><trkpt lat="40.9445883" lon="16.2459317"><ele>448.0</ele><time>2026-04-18T08:25:49.634Z</time></trkpt><trkpt lat="40.944735" lon="16.2456383"><ele>448.0</ele><time>2026-04-18T08:25:50.634Z</time></trkpt><trkpt lat="40.9448783" lon="16.245345"><ele>447.5</ele><time>2026-04-18T08:25:51.633Z</time></trkpt><trkpt lat="40.94502" lon="16.245055"><ele>447.0</ele><time>2026-04-18T08:25:52.633Z</time></trkpt><trkpt lat="40.9451633" lon="16.244765"><ele>448.0</ele><time>2026-04-18T08:25:53.633Z</time></trkpt><trkpt lat="40.9453033" lon="16.244475"><ele>449.0</ele><time>2026-04-18T08:25:54.634Z</time></trkpt><trkpt lat="40.945445" lon="16.2441817"><ele>448.5</ele><time>2026-04-18T08:25:55.637Z</time></trkpt><trkpt lat="40.9455883" lon="16.24389"><ele>448.0</ele><time>2026-04-18T08:25:56.634Z</time></trkpt><trkpt lat="40.9457317" lon="16.243595"><ele>448.0</ele><time>2026-04-18T08:25:57.634Z</time></trkpt><trkpt lat="40.945875" lon="16.2433033"><ele>448.0</ele><time>2026-04-18T08:25:58.636Z</time></trkpt><trkpt lat="40.9460183" lon="16.2430117"><ele>448.0</ele><time>2026-04-18T08:25:59.634Z</time></trkpt><trkpt lat="40.9461617" lon="16.2427183"><ele>448.0</ele><time>2026-04-18T08:26:00.635Z</time></trkpt><trkpt lat="40.946305" lon="16.2424267"><ele>447.0</ele><time>2026-04-18T08:26:01.633Z</time></trkpt><trkpt lat="40.9464467" lon="16.2421333"><ele>446.0</ele><time>2026-04-18T08:26:02.633Z</time></trkpt><trkpt lat="40.94659" lon="16.2418417"><ele>446.5</ele><time>2026-04-18T08:26:03.633Z</time></trkpt><trkpt lat="40.9467333" lon="16.2415517"><ele>447.0</ele><time>2026-04-18T08:26:04.633Z</time></trkpt><trkpt lat="40.94688" lon="16.24126"><ele>447.0</ele><time>2026-04-18T08:26:05.639Z</time></trkpt><trkpt lat="40.947025" lon="16.2409683"><ele>447.0</ele><time>2026-04-18T08:26:06.636Z</time></trkpt><trkpt lat="40.94717" lon="16.2406767"><ele>447.5</ele><time>2026-04-18T08:26:07.634Z</time></trkpt><trkpt lat="40.9473117" lon="16.240385"><ele>448.0</ele><time>2026-04-18T08:26:08.634Z</time></trkpt><trkpt lat="40.947455" lon="16.2400917"><ele>448.0</ele><time>2026-04-18T08:26:09.633Z</time></trkpt><trkpt lat="40.9475983" lon="16.2397967"><ele>448.0</ele><time>2026-04-18T08:26:10.635Z</time></trkpt><trkpt lat="40.9477417" lon="16.2395017"><ele>448.0</ele><time>2026-04-18T08:26:11.633Z</time></trkpt><trkpt lat="40.9478867" lon="16.2392033"><ele>448.0</ele><time>2026-04-18T08:26:12.634Z</time></trkpt><trkpt lat="40.94803" lon="16.2389067"><ele>447.5</ele><time>2026-04-18T08:26:13.633Z</time></trkpt><trkpt lat="40.9481767" lon="16.2386083"><ele>447.0</ele><time>2026-04-18T08:26:14.634Z</time></trkpt><trkpt lat="40.948325" lon="16.2383083"><ele>448.0</ele><time>2026-04-18T08:26:15.637Z</time></trkpt><trkpt lat="40.9484733" lon="16.2380067"><ele>449.0</ele><time>2026-04-18T08:26:16.634Z</time></trkpt><trkpt lat="40.9486233" lon="16.2377067"><ele>449.0</ele><time>2026-04-18T08:26:17.634Z</time></trkpt><trkpt lat="40.9487733" lon="16.237405"><ele>449.0</ele><time>2026-04-18T08:26:18.633Z</time></trkpt><trkpt lat="40.9489217" lon="16.2371033"><ele>449.0</ele><time>2026-04-18T08:26:19.635Z</time></trkpt><trkpt lat="40.94907" lon="16.2368"><ele>449.0</ele><time>2026-04-18T08:26:20.634Z</time></trkpt><trkpt lat="40.949215" lon="16.2364933"><ele>449.0</ele><time>2026-04-18T08:26:21.637Z</time></trkpt><trkpt lat="40.9493617" lon="16.23619"><ele>449.0</ele><time>2026-04-18T08:26:22.634Z</time></trkpt><trkpt lat="40.9495067" lon="16.235885"><ele>449.5</ele><time>2026-04-18T08:26:23.634Z</time></trkpt><trkpt lat="40.949655" lon="16.2355833"><ele>450.0</ele><time>2026-04-18T08:26:24.633Z</time></trkpt><trkpt lat="40.949805" lon="16.2352817"><ele>450.0</ele><time>2026-04-18T08:26:25.635Z</time></trkpt><trkpt lat="40.9499533" lon="16.23498"><ele>450.0</ele><time>2026-04-18T08:26:26.635Z</time></trkpt><trkpt lat="40.9501" lon="16.23468"><ele>449.5</ele><time>2026-04-18T08:26:27.633Z</time></trkpt><trkpt lat="40.9502467" lon="16.2343783"><ele>449.0</ele><time>2026-04-18T08:26:28.635Z</time></trkpt><trkpt lat="40.9503917" lon="16.2340733"><ele>449.0</ele><time>2026-04-18T08:26:29.634Z</time></trkpt><trkpt lat="40.950535" lon="16.23378"><ele>449.0</ele><time>2026-04-18T08:26:30.637Z</time></trkpt><trkpt lat="40.9506683" lon="16.2335033"><ele>449.0</ele><time>2026-04-18T08:26:31.633Z</time></trkpt><trkpt lat="40.9507967" lon="16.23324"><ele>449.0</ele><time>2026-04-18T08:26:32.634Z</time></trkpt><trkpt lat="40.9509233" lon="16.2329733"><ele>450.0</ele><time>2026-04-18T08:26:33.633Z</time></trkpt><trkpt lat="40.9510533" lon="16.2327067"><ele>451.0</ele><time>2026-04-18T08:26:34.633Z</time></trkpt><trkpt lat="40.9511817" lon="16.23244"><ele>451.0</ele><time>2026-04-18T08:26:35.633Z</time></trkpt><trkpt lat="40.9514417" lon="16.231915"><ele>451.0</ele><time>2026-04-18T08:26:37.633Z</time></trkpt><trkpt lat="40.9515717" lon="16.2316567"><ele>451.0</ele><time>2026-04-18T08:26:38.635Z</time></trkpt><trkpt lat="40.9517" lon="16.2314017"><ele>451.0</ele><time>2026-04-18T08:26:39.634Z</time></trkpt><trkpt lat="40.9518267" lon="16.23115"><ele>451.0</ele><time>2026-04-18T08:26:40.634Z</time></trkpt><trkpt lat="40.9519483" lon="16.2309033"><ele>451.0</ele><time>2026-04-18T08:26:41.634Z</time></trkpt><trkpt lat="40.9520617" lon="16.230665"><ele>451.0</ele><time>2026-04-18T08:26:42.633Z</time></trkpt><trkpt lat="40.9521683" lon="16.2304317"><ele>451.0</ele><time>2026-04-18T08:26:43.634Z</time></trkpt><trkpt lat="40.95228" lon="16.2302033"><ele>450.6666666666667</ele><time>2026-04-18T08:26:44.634Z</time></trkpt><trkpt lat="40.9523917" lon="16.2299717"><ele>450.33333333333337</ele><time>2026-04-18T08:26:45.635Z</time></trkpt><trkpt lat="40.9525083" lon="16.2297367"><ele>450.0</ele><time>2026-04-18T08:26:46.634Z</time></trkpt><trkpt lat="40.952625" lon="16.2294933"><ele>450.0</ele><time>2026-04-18T08:26:47.634Z</time></trkpt><trkpt lat="40.9527417" lon="16.2292467"><ele>450.0</ele><time>2026-04-18T08:26:48.634Z</time></trkpt><trkpt lat="40.95286" lon="16.2289933"><ele>450.0</ele><time>2026-04-18T08:26:49.634Z</time></trkpt><trkpt lat="40.9529767" lon="16.2287367"><ele>450.0</ele><time>2026-04-18T08:26:50.635Z</time></trkpt><trkpt lat="40.953085" lon="16.22848"><ele>450.0</ele><time>2026-04-18T08:26:51.635Z</time></trkpt><trkpt lat="40.9531867" lon="16.2282217"><ele>450.0</ele><time>2026-04-18T08:26:52.635Z</time></trkpt><trkpt lat="40.9532833" lon="16.2279583"><ele>451.0</ele><time>2026-04-18T08:26:53.635Z</time></trkpt><trkpt lat="40.95338" lon="16.2276917"><ele>452.0</ele><time>2026-04-18T08:26:54.634Z</time></trkpt><trkpt lat="40.9534767" lon="16.2274183"><ele>452.0</ele><time>2026-04-18T08:26:55.636Z</time></trkpt><trkpt lat="40.9535717" lon="16.2271383"><ele>452.0</ele><time>2026-04-18T08:26:56.635Z</time></trkpt><trkpt lat="40.9536667" lon="16.2268567"><ele>452.0</ele><time>2026-04-18T08:26:57.633Z</time></trkpt><trkpt lat="40.9537617" lon="16.2265733"><ele>452.0</ele><time>2026-04-18T08:26:58.635Z</time></trkpt><trkpt lat="40.9538583" lon="16.2262833"><ele>451.5</ele><time>2026-04-18T08:26:59.641Z</time></trkpt><trkpt lat="40.9539583" lon="16.2259933"><ele>451.0</ele><time>2026-04-18T08:27:00.634Z</time></trkpt><trkpt lat="40.954055" lon="16.2257033"><ele>451.0</ele><time>2026-04-18T08:27:01.633Z</time></trkpt><trkpt lat="40.9541517" lon="16.2254117"><ele>451.0</ele><time>2026-04-18T08:27:02.634Z</time></trkpt><trkpt lat="40.95425" lon="16.2251133"><ele>451.0</ele><time>2026-04-18T08:27:03.633Z</time></trkpt><trkpt lat="40.9543517" lon="16.224815"><ele>451.0</ele><time>2026-04-18T08:27:04.637Z</time></trkpt><trkpt lat="40.9545583" lon="16.2242117"><ele>451.5</ele><time>2026-04-18T08:27:06.633Z</time></trkpt><trkpt lat="40.95466" lon="16.2239067"><ele>452.0</ele><time>2026-04-18T08:27:07.633Z</time></trkpt><trkpt lat="40.9547633" lon="16.2236"><ele>452.0</ele><time>2026-04-18T08:27:08.634Z</time></trkpt><trkpt lat="40.954865" lon="16.2232933"><ele>452.0</ele><time>2026-04-18T08:27:09.634Z</time></trkpt><trkpt lat="40.95497" lon="16.2229817"><ele>451.5</ele><time>2026-04-18T08:27:10.633Z</time></trkpt><trkpt lat="40.9550717" lon="16.22267"><ele>451.0</ele><time>2026-04-18T08:27:11.633Z</time></trkpt><trkpt lat="40.9551717" lon="16.22236"><ele>451.0</ele><time>2026-04-18T08:27:12.633Z</time></trkpt><trkpt lat="40.9552733" lon="16.22205"><ele>451.0</ele><time>2026-04-18T08:27:13.634Z</time></trkpt><trkpt lat="40.9553733" lon="16.22174"><ele>451.5</ele><time>2026-04-18T08:27:14.635Z</time></trkpt><trkpt lat="40.9554767" lon="16.221435"><ele>452.0</ele><time>2026-04-18T08:27:15.633Z</time></trkpt><trkpt lat="40.9555783" lon="16.2211367"><ele>452.0</ele><time>2026-04-18T08:27:16.633Z</time></trkpt><trkpt lat="40.95568" lon="16.22084"><ele>452.0</ele><time>2026-04-18T08:27:17.634Z</time></trkpt><trkpt lat="40.9557817" lon="16.2205483"><ele>452.5</ele><time>2026-04-18T08:27:18.633Z</time></trkpt><trkpt lat="40.9558833" lon="16.22026"><ele>453.0</ele><time>2026-04-18T08:27:19.634Z</time></trkpt><trkpt lat="40.9559867" lon="16.219975"><ele>453.0</ele><time>2026-04-18T08:27:20.637Z</time></trkpt><trkpt lat="40.9560867" lon="16.2196883"><ele>453.0</ele><time>2026-04-18T08:27:21.635Z</time></trkpt><trkpt lat="40.9561817" lon="16.2194033"><ele>453.0</ele><time>2026-04-18T08:27:22.634Z</time></trkpt><trkpt lat="40.9562783" lon="16.2191217"><ele>453.0</ele><time>2026-04-18T08:27:23.637Z</time></trkpt><trkpt lat="40.9563717" lon="16.2188417"><ele>453.0</ele><time>2026-04-18T08:27:24.634Z</time></trkpt><trkpt lat="40.9564667" lon="16.2185633"><ele>453.0</ele><time>2026-04-18T08:27:25.634Z</time></trkpt><trkpt lat="40.9565583" lon="16.2182817"><ele>452.0</ele><time>2026-04-18T08:27:26.635Z</time></trkpt><trkpt lat="40.9566517" lon="16.2179983"><ele>451.0</ele><time>2026-04-18T08:27:27.636Z</time></trkpt><trkpt lat="40.9567467" lon="16.2177117"><ele>451.0</ele><time>2026-04-18T08:27:28.635Z</time></trkpt><trkpt lat="40.9568433" lon="16.2174267"><ele>451.0</ele><time>2026-04-18T08:27:29.636Z</time></trkpt><trkpt lat="40.9569383" lon="16.21714"><ele>450.5</ele><time>2026-04-18T08:27:30.635Z</time></trkpt><trkpt lat="40.9570317" lon="16.2168567"><ele>450.0</ele><time>2026-04-18T08:27:31.633Z</time></trkpt><trkpt lat="40.957125" lon="16.2165767"><ele>450.0</ele><time>2026-04-18T08:27:32.635Z</time></trkpt><trkpt lat="40.95722" lon="16.2163017"><ele>450.0</ele><time>2026-04-18T08:27:33.634Z</time></trkpt><trkpt lat="40.95731" lon="16.2160333"><ele>450.0</ele><time>2026-04-18T08:27:34.633Z</time></trkpt><trkpt lat="40.9573967" lon="16.2157883"><ele>450.0</ele><time>2026-04-18T08:27:35.633Z</time></trkpt><trkpt lat="40.9574783" lon="16.2155583"><ele>450.0</ele><time>2026-04-18T08:27:36.634Z</time></trkpt><trkpt lat="40.957555" lon="16.21534"><ele>449.66666666666663</ele><time>2026-04-18T08:27:37.634Z</time></trkpt><trkpt lat="40.9576217" lon="16.2151333"><ele>449.3333333333333</ele><time>2026-04-18T08:27:38.635Z</time></trkpt><trkpt lat="40.9576983" lon="16.214925"><ele>449.0</ele><time>2026-04-18T08:27:39.634Z</time></trkpt><trkpt lat="40.9577867" lon="16.214715"><ele>449.66666666666663</ele><time>2026-04-18T08:27:40.634Z</time></trkpt><trkpt lat="40.95789" lon="16.2145017"><ele>450.33333333333337</ele><time>2026-04-18T08:27:41.634Z</time></trkpt><trkpt lat="40.9580067" lon="16.214285"><ele>451.0</ele><time>2026-04-18T08:27:42.634Z</time></trkpt><trkpt lat="40.9581367" lon="16.21407"><ele>451.0</ele><time>2026-04-18T08:27:43.635Z</time></trkpt><trkpt lat="40.9582783" lon="16.21386"><ele>451.0</ele><time>2026-04-18T08:27:44.634Z</time></trkpt><trkpt lat="40.9584283" lon="16.21365"><ele>451.0</ele><time>2026-04-18T08:27:45.634Z</time></trkpt><trkpt lat="40.9585783" lon="16.2134383"><ele>451.0</ele><time>2026-04-18T08:27:46.633Z</time></trkpt><trkpt lat="40.9587333" lon="16.21322"><ele>451.0</ele><time>2026-04-18T08:27:47.634Z</time></trkpt><trkpt lat="40.9588917" lon="16.2129967"><ele>451.0</ele><time>2026-04-18T08:27:48.635Z</time></trkpt><trkpt lat="40.9590533" lon="16.2127733"><ele>451.0</ele><time>2026-04-18T08:27:49.636Z</time></trkpt><trkpt lat="40.9592167" lon="16.2125467"><ele>451.0</ele><time>2026-04-18T08:27:50.643Z</time></trkpt><trkpt lat="40.95938" lon="16.21232"><ele>451.0</ele><time>2026-04-18T08:27:51.634Z</time></trkpt><trkpt lat="40.9595433" lon="16.2120917"><ele>451.0</ele><time>2026-04-18T08:27:52.635Z</time></trkpt><trkpt lat="40.9597067" lon="16.2118667"><ele>451.0</ele><time>2026-04-18T08:27:53.634Z</time></trkpt><trkpt lat="40.95987" lon="16.2116417"><ele>449.5</ele><time>2026-04-18T08:27:54.635Z</time></trkpt><trkpt lat="40.960035" lon="16.2114167"><ele>448.0</ele><time>2026-04-18T08:27:55.635Z</time></trkpt><trkpt lat="40.9601967" lon="16.2111933"><ele>448.0</ele><time>2026-04-18T08:27:56.635Z</time></trkpt><trkpt lat="40.9603583" lon="16.2109683"><ele>448.0</ele><time>2026-04-18T08:27:57.634Z</time></trkpt><trkpt lat="40.9608383" lon="16.210295"><ele>447.0</ele><time>2026-04-18T08:28:00.635Z</time></trkpt><trkpt lat="40.9609967" lon="16.210075"><ele>446.0</ele><time>2026-04-18T08:28:01.634Z</time></trkpt><trkpt lat="40.9611533" lon="16.2098617"><ele>447.0</ele><time>2026-04-18T08:28:02.634Z</time></trkpt><trkpt lat="40.96131" lon="16.2096483"><ele>448.0</ele><time>2026-04-18T08:28:03.634Z</time></trkpt><trkpt lat="40.9614667" lon="16.2094333"><ele>448.0</ele><time>2026-04-18T08:28:04.634Z</time></trkpt><trkpt lat="40.9616233" lon="16.2092117"><ele>448.0</ele><time>2026-04-18T08:28:05.633Z</time></trkpt><trkpt lat="40.9617817" lon="16.208985"><ele>447.5</ele><time>2026-04-18T08:28:06.635Z</time></trkpt><trkpt lat="40.9619433" lon="16.2087583"><ele>447.0</ele><time>2026-04-18T08:28:07.642Z</time></trkpt><trkpt lat="40.9621033" lon="16.2085367"><ele>447.0</ele><time>2026-04-18T08:28:08.634Z</time></trkpt><trkpt lat="40.9622583" lon="16.2083233"><ele>447.0</ele><time>2026-04-18T08:28:09.633Z</time></trkpt><trkpt lat="40.9624083" lon="16.20812"><ele>447.0</ele><time>2026-04-18T08:28:10.634Z</time></trkpt><trkpt lat="40.9625483" lon="16.2079317"><ele>446.33333333333337</ele><time>2026-04-18T08:28:11.634Z</time></trkpt><trkpt lat="40.9626817" lon="16.2077467"><ele>445.6666666666667</ele><time>2026-04-18T08:28:12.637Z</time></trkpt><trkpt lat="40.9628083" lon="16.2075667"><ele>445.0</ele><time>2026-04-18T08:28:13.636Z</time></trkpt><trkpt lat="40.9629367" lon="16.20739"><ele>445.6666666666667</ele><time>2026-04-18T08:28:14.635Z</time></trkpt><trkpt lat="40.9630667" lon="16.2072117"><ele>446.33333333333337</ele><time>2026-04-18T08:28:15.635Z</time></trkpt><trkpt lat="40.963195" lon="16.2070333"><ele>447.0</ele><time>2026-04-18T08:28:16.633Z</time></trkpt><trkpt lat="40.9633183" lon="16.20686"><ele>445.66666666666663</ele><time>2026-04-18T08:28:17.635Z</time></trkpt><trkpt lat="40.9634367" lon="16.2066967"><ele>444.3333333333333</ele><time>2026-04-18T08:28:18.635Z</time></trkpt><trkpt lat="40.9635567" lon="16.2065333"><ele>443.0</ele><time>2026-04-18T08:28:19.635Z</time></trkpt><trkpt lat="40.96368" lon="16.2063667"><ele>442.66666666666663</ele><time>2026-04-18T08:28:20.635Z</time></trkpt><trkpt lat="40.963805" lon="16.206195"><ele>442.33333333333337</ele><time>2026-04-18T08:28:21.635Z</time></trkpt><trkpt lat="40.9639333" lon="16.20602"><ele>442.0</ele><time>2026-04-18T08:28:22.634Z</time></trkpt><trkpt lat="40.9640633" lon="16.2058383"><ele>442.33333333333337</ele><time>2026-04-18T08:28:23.642Z</time></trkpt><trkpt lat="40.964195" lon="16.2056483"><ele>442.66666666666663</ele><time>2026-04-18T08:28:24.635Z</time></trkpt><trkpt lat="40.9643317" lon="16.2054533"><ele>443.0</ele><time>2026-04-18T08:28:25.635Z</time></trkpt><trkpt lat="40.96447" lon="16.205255"><ele>441.66666666666663</ele><time>2026-04-18T08:28:26.635Z</time></trkpt><trkpt lat="40.96461" lon="16.205055"><ele>440.33333333333337</ele><time>2026-04-18T08:28:27.634Z</time></trkpt><trkpt lat="40.96475" lon="16.2048533"><ele>439.0</ele><time>2026-04-18T08:28:28.634Z</time></trkpt><trkpt lat="40.96489" lon="16.2046567"><ele>438.6666666666667</ele><time>2026-04-18T08:28:29.633Z</time></trkpt><trkpt lat="40.9650233" lon="16.204465"><ele>438.33333333333337</ele><time>2026-04-18T08:28:30.633Z</time></trkpt><trkpt lat="40.96515" lon="16.2042783"><ele>438.0</ele><time>2026-04-18T08:28:31.634Z</time></trkpt><trkpt lat="40.965275" lon="16.20409"><ele>436.66666666666663</ele><time>2026-04-18T08:28:32.634Z</time></trkpt><trkpt lat="40.9654" lon="16.2039017"><ele>435.3333333333333</ele><time>2026-04-18T08:28:33.633Z</time></trkpt><trkpt lat="40.9655267" lon="16.2037133"><ele>434.0</ele><time>2026-04-18T08:28:34.634Z</time></trkpt><trkpt lat="40.965655" lon="16.20352"><ele>434.0</ele><time>2026-04-18T08:28:35.633Z</time></trkpt><trkpt lat="40.965785" lon="16.2033233"><ele>434.0</ele><time>2026-04-18T08:28:36.634Z</time></trkpt><trkpt lat="40.9659133" lon="16.2031267"><ele>434.0</ele><time>2026-04-18T08:28:37.634Z</time></trkpt><trkpt lat="40.9660433" lon="16.2029283"><ele>432.0</ele><time>2026-04-18T08:28:38.634Z</time></trkpt><trkpt lat="40.9661683" lon="16.202735"><ele>430.0</ele><time>2026-04-18T08:28:39.634Z</time></trkpt><trkpt lat="40.9662867" lon="16.2025517"><ele>428.0</ele><time>2026-04-18T08:28:40.634Z</time></trkpt><trkpt lat="40.9664" lon="16.2023783"><ele>428.3333333333333</ele><time>2026-04-18T08:28:41.634Z</time></trkpt><trkpt lat="40.9665033" lon="16.2022083"><ele>428.66666666666663</ele><time>2026-04-18T08:28:42.635Z</time></trkpt><trkpt lat="40.9665983" lon="16.2020433"><ele>429.0</ele><time>2026-04-18T08:28:43.636Z</time></trkpt><trkpt lat="40.966685" lon="16.20188"><ele>427.75</ele><time>2026-04-18T08:28:44.635Z</time></trkpt><trkpt lat="40.9667633" lon="16.20172"><ele>426.5</ele><time>2026-04-18T08:28:45.634Z</time></trkpt><trkpt lat="40.9668333" lon="16.2015583"><ele>425.25</ele><time>2026-04-18T08:28:46.638Z</time></trkpt><trkpt lat="40.9668933" lon="16.2013983"><ele>424.0</ele><time>2026-04-18T08:28:47.636Z</time></trkpt><trkpt lat="40.9669483" lon="16.201245"><ele>424.0</ele><time>2026-04-18T08:28:48.636Z</time></trkpt><trkpt lat="40.9669967" lon="16.201095"><ele>424.0</ele><time>2026-04-18T08:28:49.635Z</time></trkpt><trkpt lat="40.9670433" lon="16.2009533"><ele>424.0</ele><time>2026-04-18T08:28:50.635Z</time></trkpt><trkpt lat="40.9670883" lon="16.2008217"><ele>424.0</ele><time>2026-04-18T08:28:51.635Z</time></trkpt><trkpt lat="40.96714" lon="16.2007067"><ele>424.00000000000006</ele><time>2026-04-18T08:28:52.635Z</time></trkpt><trkpt lat="40.9671983" lon="16.20061"><ele>424.0</ele><time>2026-04-18T08:28:53.635Z</time></trkpt><trkpt lat="40.9672583" lon="16.200535"><ele>424.0</ele><time>2026-04-18T08:28:54.635Z</time></trkpt><trkpt lat="40.9673133" lon="16.20048"><ele>424.0</ele><time>2026-04-18T08:28:55.635Z</time></trkpt><trkpt lat="40.9674133" lon="16.2004233"><ele>424.00000000000006</ele><time>2026-04-18T08:28:57.635Z</time></trkpt><trkpt lat="40.9674767" lon="16.20035"><ele>424.0</ele><time>2026-04-18T08:28:59.633Z</time></trkpt><trkpt lat="40.9675183" lon="16.200195"><ele>424.0</ele><time>2026-04-18T08:29:01.635Z</time></trkpt><trkpt lat="40.9675217" lon="16.2000717"><ele>424.0</ele><time>2026-04-18T08:29:02.636Z</time></trkpt><trkpt lat="40.9675283" lon="16.1999367"><ele>424.0</ele><time>2026-04-18T08:29:03.633Z</time></trkpt><trkpt lat="40.967535" lon="16.19978"><ele>424.0</ele><time>2026-04-18T08:29:04.633Z</time></trkpt><trkpt lat="40.9675333" lon="16.1995983"><ele>424.0</ele><time>2026-04-18T08:29:05.635Z</time></trkpt><trkpt lat="40.9675283" lon="16.1993933"><ele>424.0</ele><time>2026-04-18T08:29:06.636Z</time></trkpt><trkpt lat="40.9675383" lon="16.199185"><ele>424.0</ele><time>2026-04-18T08:29:07.633Z</time></trkpt><trkpt lat="40.9675683" lon="16.19899"><ele>423.6666666666667</ele><time>2026-04-18T08:29:08.633Z</time></trkpt><trkpt lat="40.9676083" lon="16.1987917"><ele>423.33333333333337</ele><time>2026-04-18T08:29:09.634Z</time></trkpt><trkpt lat="40.9676567" lon="16.198585"><ele>423.0</ele><time>2026-04-18T08:29:10.634Z</time></trkpt><trkpt lat="40.9677" lon="16.1983567"><ele>422.66666666666663</ele><time>2026-04-18T08:29:11.635Z</time></trkpt><trkpt lat="40.9677467" lon="16.1981233"><ele>422.3333333333333</ele><time>2026-04-18T08:29:12.634Z</time></trkpt><trkpt lat="40.967795" lon="16.1978833"><ele>422.0</ele><time>2026-04-18T08:29:13.637Z</time></trkpt><trkpt lat="40.967845" lon="16.1976417"><ele>422.0</ele><time>2026-04-18T08:29:14.644Z</time></trkpt><trkpt lat="40.9679" lon="16.1974017"><ele>422.0</ele><time>2026-04-18T08:29:15.635Z</time></trkpt><trkpt lat="40.9679567" lon="16.19716"><ele>422.0</ele><time>2026-04-18T08:29:16.636Z</time></trkpt><trkpt lat="40.96801" lon="16.1969183"><ele>422.0</ele><time>2026-04-18T08:29:17.637Z</time></trkpt><trkpt lat="40.9680617" lon="16.1966767"><ele>422.0</ele><time>2026-04-18T08:29:18.635Z</time></trkpt><trkpt lat="40.9681133" lon="16.196435"><ele>422.0</ele><time>2026-04-18T08:29:19.637Z</time></trkpt><trkpt lat="40.9681667" lon="16.1961917"><ele>421.66666666666663</ele><time>2026-04-18T08:29:20.637Z</time></trkpt><trkpt lat="40.9682217" lon="16.195945"><ele>421.33333333333337</ele><time>2026-04-18T08:29:21.634Z</time></trkpt><trkpt lat="40.968275" lon="16.1956983"><ele>421.0</ele><time>2026-04-18T08:29:22.635Z</time></trkpt><trkpt lat="40.96833" lon="16.1954483"><ele>421.33333333333337</ele><time>2026-04-18T08:29:23.635Z</time></trkpt><trkpt lat="40.9683917" lon="16.1951983"><ele>421.66666666666663</ele><time>2026-04-18T08:29:24.635Z</time></trkpt><trkpt lat="40.9684533" lon="16.1949433"><ele>422.0</ele><time>2026-04-18T08:29:25.637Z</time></trkpt><trkpt lat="40.9685167" lon="16.19469"><ele>422.66666666666663</ele><time>2026-04-18T08:29:26.636Z</time></trkpt><trkpt lat="40.968575" lon="16.1944383"><ele>423.33333333333337</ele><time>2026-04-18T08:29:27.635Z</time></trkpt><trkpt lat="40.968635" lon="16.1941883"><ele>424.0</ele><time>2026-04-18T08:29:28.636Z</time></trkpt><trkpt lat="40.96869" lon="16.19394"><ele>424.0</ele><time>2026-04-18T08:29:29.635Z</time></trkpt><trkpt lat="40.9687433" lon="16.1936917"><ele>424.0</ele><time>2026-04-18T08:29:30.635Z</time></trkpt><trkpt lat="40.968795" lon="16.1934417"><ele>424.0</ele><time>2026-04-18T08:29:31.636Z</time></trkpt><trkpt lat="40.9688433" lon="16.1931883"><ele>423.33333333333337</ele><time>2026-04-18T08:29:32.637Z</time></trkpt><trkpt lat="40.9688917" lon="16.1929417"><ele>422.66666666666663</ele><time>2026-04-18T08:29:33.634Z</time></trkpt><trkpt lat="40.96894" lon="16.1926983"><ele>422.0</ele><time>2026-04-18T08:29:34.636Z</time></trkpt><trkpt lat="40.96899" lon="16.1924667"><ele>422.0</ele><time>2026-04-18T08:29:35.636Z</time></trkpt><trkpt lat="40.9690383" lon="16.19224"><ele>422.0</ele><time>2026-04-18T08:29:36.635Z</time></trkpt><trkpt lat="40.969085" lon="16.1920083"><ele>422.0</ele><time>2026-04-18T08:29:37.636Z</time></trkpt><trkpt lat="40.9691283" lon="16.19177"><ele>422.0</ele><time>2026-04-18T08:29:38.636Z</time></trkpt><trkpt lat="40.9691683" lon="16.19154"><ele>422.0</ele><time>2026-04-18T08:29:39.635Z</time></trkpt><trkpt lat="40.9692033" lon="16.191325"><ele>422.0</ele><time>2026-04-18T08:29:40.636Z</time></trkpt><trkpt lat="40.9692317" lon="16.1911217"><ele>422.3333333333333</ele><time>2026-04-18T08:29:41.636Z</time></trkpt><trkpt lat="40.9692533" lon="16.1909267"><ele>422.66666666666663</ele><time>2026-04-18T08:29:42.637Z</time></trkpt><trkpt lat="40.969275" lon="16.19073"><ele>423.0</ele><time>2026-04-18T08:29:43.635Z</time></trkpt><trkpt lat="40.9692983" lon="16.1905233"><ele>423.0</ele><time>2026-04-18T08:29:44.641Z</time></trkpt><trkpt lat="40.969325" lon="16.190305"><ele>423.0</ele><time>2026-04-18T08:29:45.634Z</time></trkpt><trkpt lat="40.96935" lon="16.1900817"><ele>423.0</ele><time>2026-04-18T08:29:46.633Z</time></trkpt><trkpt lat="40.9693733" lon="16.1898617"><ele>423.0</ele><time>2026-04-18T08:29:47.634Z</time></trkpt><trkpt lat="40.9693933" lon="16.1896533"><ele>423.0</ele><time>2026-04-18T08:29:48.635Z</time></trkpt><trkpt lat="40.9694083" lon="16.189455"><ele>423.0</ele><time>2026-04-18T08:29:49.641Z</time></trkpt><trkpt lat="40.969415" lon="16.189275"><ele>423.0</ele><time>2026-04-18T08:29:50.635Z</time></trkpt><trkpt lat="40.9694133" lon="16.189115"><ele>422.8333333333333</ele><time>2026-04-18T08:29:51.635Z</time></trkpt><trkpt lat="40.9694083" lon="16.1889717"><ele>422.66666666666663</ele><time>2026-04-18T08:29:52.635Z</time></trkpt><trkpt lat="40.9694033" lon="16.1888567"><ele>422.5</ele><time>2026-04-18T08:29:53.636Z</time></trkpt><trkpt lat="40.9693983" lon="16.1887517"><ele>422.3333333333333</ele><time>2026-04-18T08:29:54.634Z</time></trkpt><trkpt lat="40.96939" lon="16.1886467"><ele>422.16666666666663</ele><time>2026-04-18T08:29:55.634Z</time></trkpt><trkpt lat="40.9693833" lon="16.188525"><ele>422.0</ele><time>2026-04-18T08:29:56.635Z</time></trkpt><trkpt lat="40.9693733" lon="16.1883817"><ele>422.0</ele><time>2026-04-18T08:29:57.633Z</time></trkpt><trkpt lat="40.9693617" lon="16.1882233"><ele>422.0</ele><time>2026-04-18T08:29:58.636Z</time></trkpt><trkpt lat="40.96935" lon="16.1880517"><ele>422.0</ele><time>2026-04-18T08:29:59.635Z</time></trkpt><trkpt lat="40.9693333" lon="16.1878617"><ele>422.0</ele><time>2026-04-18T08:30:00.634Z</time></trkpt><trkpt lat="40.9693133" lon="16.187655"><ele>421.0</ele><time>2026-04-18T08:30:01.635Z</time></trkpt><trkpt lat="40.969285" lon="16.187435"><ele>420.0</ele><time>2026-04-18T08:30:02.636Z</time></trkpt><trkpt lat="40.9692533" lon="16.1872017"><ele>419.0</ele><time>2026-04-18T08:30:03.635Z</time></trkpt><trkpt lat="40.9692133" lon="16.186945"><ele>418.3333333333333</ele><time>2026-04-18T08:30:04.636Z</time></trkpt><trkpt lat="40.96917" lon="16.1866767"><ele>417.66666666666663</ele><time>2026-04-18T08:30:05.635Z</time></trkpt><trkpt lat="40.9691333" lon="16.1864"><ele>417.0</ele><time>2026-04-18T08:30:06.636Z</time></trkpt><trkpt lat="40.9690983" lon="16.18613"><ele>416.0</ele><time>2026-04-18T08:30:07.637Z</time></trkpt><trkpt lat="40.9690617" lon="16.18585"><ele>415.0</ele><time>2026-04-18T08:30:08.64Z</time></trkpt><trkpt lat="40.9690267" lon="16.185565"><ele>414.0</ele><time>2026-04-18T08:30:09.635Z</time></trkpt><trkpt lat="40.96899" lon="16.1852783"><ele>414.0</ele><time>2026-04-18T08:30:10.634Z</time></trkpt><trkpt lat="40.96895" lon="16.1849867"><ele>414.0</ele><time>2026-04-18T08:30:11.634Z</time></trkpt><trkpt lat="40.9689083" lon="16.1846967"><ele>414.0</ele><time>2026-04-18T08:30:12.634Z</time></trkpt><trkpt lat="40.9688717" lon="16.18441"><ele>413.66666666666663</ele><time>2026-04-18T08:30:13.636Z</time></trkpt><trkpt lat="40.9688367" lon="16.184125"><ele>413.3333333333333</ele><time>2026-04-18T08:30:14.635Z</time></trkpt><trkpt lat="40.9688017" lon="16.183845"><ele>413.0</ele><time>2026-04-18T08:30:15.634Z</time></trkpt><trkpt lat="40.9687633" lon="16.183565"><ele>413.0</ele><time>2026-04-18T08:30:16.637Z</time></trkpt><trkpt lat="40.9687283" lon="16.1832883"><ele>413.0</ele><time>2026-04-18T08:30:17.633Z</time></trkpt><trkpt lat="40.9686933" lon="16.1830117"><ele>413.0</ele><time>2026-04-18T08:30:18.635Z</time></trkpt><trkpt lat="40.9686567" lon="16.182735"><ele>412.66666666666663</ele><time>2026-04-18T08:30:19.635Z</time></trkpt><trkpt lat="40.96862" lon="16.1824617"><ele>412.33333333333337</ele><time>2026-04-18T08:30:20.634Z</time></trkpt><trkpt lat="40.9685833" lon="16.18219"><ele>412.0</ele><time>2026-04-18T08:30:21.633Z</time></trkpt><trkpt lat="40.9685483" lon="16.181925"><ele>412.0</ele><time>2026-04-18T08:30:22.633Z</time></trkpt><trkpt lat="40.9685167" lon="16.1816783"><ele>412.0</ele><time>2026-04-18T08:30:23.634Z</time></trkpt><trkpt lat="40.9684883" lon="16.1814467"><ele>412.0</ele><time>2026-04-18T08:30:24.633Z</time></trkpt><trkpt lat="40.9684617" lon="16.1812133"><ele>412.0</ele><time>2026-04-18T08:30:25.634Z</time></trkpt><trkpt lat="40.9684367" lon="16.1809883"><ele>412.0</ele><time>2026-04-18T08:30:26.635Z</time></trkpt><trkpt lat="40.9684117" lon="16.1807717"><ele>412.0</ele><time>2026-04-18T08:30:27.634Z</time></trkpt><trkpt lat="40.9683883" lon="16.1805533"><ele>411.75</ele><time>2026-04-18T08:30:28.634Z</time></trkpt><trkpt lat="40.9683717" lon="16.1803433"><ele>411.5</ele><time>2026-04-18T08:30:29.635Z</time></trkpt><trkpt lat="40.96836" lon="16.1801517"><ele>411.25</ele><time>2026-04-18T08:30:30.634Z</time></trkpt><trkpt lat="40.9683567" lon="16.1799833"><ele>411.0</ele><time>2026-04-18T08:30:31.635Z</time></trkpt><trkpt lat="40.9683567" lon="16.1798367"><ele>411.0</ele><time>2026-04-18T08:30:32.636Z</time></trkpt><trkpt lat="40.96836" lon="16.1797117"><ele>411.0</ele><time>2026-04-18T08:30:33.635Z</time></trkpt><trkpt lat="40.9683683" lon="16.1796083"><ele>411.0</ele><time>2026-04-18T08:30:34.636Z</time></trkpt><trkpt lat="40.9684117" lon="16.1794833"><ele>411.0</ele><time>2026-04-18T08:30:36.636Z</time></trkpt><trkpt lat="40.96851" lon="16.1794133"><ele>411.0</ele><time>2026-04-18T08:30:38.636Z</time></trkpt><trkpt lat="40.9685933" lon="16.1793933"><ele>411.0</ele><time>2026-04-18T08:30:39.635Z</time></trkpt><trkpt lat="40.9686983" lon="16.1793583"><ele>411.0</ele><time>2026-04-18T08:30:40.635Z</time></trkpt><trkpt lat="40.968815" lon="16.17931"><ele>411.0</ele><time>2026-04-18T08:30:41.634Z</time></trkpt><trkpt lat="40.9689433" lon="16.1792483"><ele>411.0</ele><time>2026-04-18T08:30:42.634Z</time></trkpt><trkpt lat="40.9690867" lon="16.1791767"><ele>410.66666666666663</ele><time>2026-04-18T08:30:43.634Z</time></trkpt><trkpt lat="40.9692417" lon="16.1791"><ele>410.3333333333333</ele><time>2026-04-18T08:30:44.636Z</time></trkpt><trkpt lat="40.9694017" lon="16.1790167"><ele>410.0</ele><time>2026-04-18T08:30:45.633Z</time></trkpt><trkpt lat="40.9695767" lon="16.1789233"><ele>410.0</ele><time>2026-04-18T08:30:46.633Z</time></trkpt><trkpt lat="40.9697533" lon="16.1788283"><ele>410.0</ele><time>2026-04-18T08:30:47.634Z</time></trkpt><trkpt lat="40.9699317" lon="16.1787367"><ele>410.0</ele><time>2026-04-18T08:30:48.639Z</time></trkpt><trkpt lat="40.9701" lon="16.1786517"><ele>410.66666666666663</ele><time>2026-04-18T08:30:49.634Z</time></trkpt><trkpt lat="40.9702667" lon="16.178565"><ele>411.33333333333337</ele><time>2026-04-18T08:30:50.634Z</time></trkpt><trkpt lat="40.9704333" lon="16.1784783"><ele>412.0</ele><time>2026-04-18T08:30:51.636Z</time></trkpt><trkpt lat="40.97059" lon="16.1783967"><ele>412.0</ele><time>2026-04-18T08:30:52.633Z</time></trkpt><trkpt lat="40.9707483" lon="16.1783167"><ele>412.0</ele><time>2026-04-18T08:30:53.636Z</time></trkpt><trkpt lat="40.97091" lon="16.178235"><ele>412.0</ele><time>2026-04-18T08:30:54.634Z</time></trkpt><trkpt lat="40.9710733" lon="16.1781517"><ele>411.6666666666667</ele><time>2026-04-18T08:30:55.633Z</time></trkpt><trkpt lat="40.9712417" lon="16.1780633"><ele>411.33333333333337</ele><time>2026-04-18T08:30:56.634Z</time></trkpt><trkpt lat="40.9714117" lon="16.1779733"><ele>411.0</ele><time>2026-04-18T08:30:57.637Z</time></trkpt><trkpt lat="40.971585" lon="16.17788"><ele>412.0</ele><time>2026-04-18T08:30:58.636Z</time></trkpt><trkpt lat="40.97176" lon="16.1777867"><ele>413.0</ele><time>2026-04-18T08:30:59.634Z</time></trkpt><trkpt lat="40.9719333" lon="16.1776983"><ele>414.0</ele><time>2026-04-18T08:31:00.634Z</time></trkpt><trkpt lat="40.9721033" lon="16.1776067"><ele>414.0</ele><time>2026-04-18T08:31:01.635Z</time></trkpt><trkpt lat="40.9722833" lon="16.17751"><ele>414.0</ele><time>2026-04-18T08:31:02.636Z</time></trkpt><trkpt lat="40.97247" lon="16.1774183"><ele>414.0</ele><time>2026-04-18T08:31:03.635Z</time></trkpt><trkpt lat="40.972655" lon="16.177325"><ele>415.0</ele><time>2026-04-18T08:31:04.636Z</time></trkpt><trkpt lat="40.9728433" lon="16.1772283"><ele>416.0</ele><time>2026-04-18T08:31:05.637Z</time></trkpt><trkpt lat="40.97303" lon="16.17713"><ele>417.0</ele><time>2026-04-18T08:31:06.637Z</time></trkpt><trkpt lat="40.9732133" lon="16.17704"><ele>418.66666666666663</ele><time>2026-04-18T08:31:07.636Z</time></trkpt><trkpt lat="40.9733967" lon="16.1769583"><ele>420.3333333333333</ele><time>2026-04-18T08:31:08.635Z</time></trkpt><trkpt lat="40.9735817" lon="16.1768667"><ele>422.0</ele><time>2026-04-18T08:31:09.635Z</time></trkpt><trkpt lat="40.9737683" lon="16.17677"><ele>422.0</ele><time>2026-04-18T08:31:10.636Z</time></trkpt><trkpt lat="40.973955" lon="16.17667"><ele>422.0</ele><time>2026-04-18T08:31:11.634Z</time></trkpt><trkpt lat="40.9741433" lon="16.17657"><ele>422.0</ele><time>2026-04-18T08:31:12.635Z</time></trkpt><trkpt lat="40.97432" lon="16.1764733"><ele>423.0</ele><time>2026-04-18T08:31:13.633Z</time></trkpt><trkpt lat="40.974485" lon="16.1763833"><ele>424.0</ele><time>2026-04-18T08:31:14.635Z</time></trkpt><trkpt lat="40.974645" lon="16.1762983"><ele>425.0</ele><time>2026-04-18T08:31:15.633Z</time></trkpt><trkpt lat="40.97481" lon="16.1762183"><ele>425.0</ele><time>2026-04-18T08:31:16.634Z</time></trkpt><trkpt lat="40.9749783" lon="16.1761433"><ele>425.0</ele><time>2026-04-18T08:31:17.637Z</time></trkpt><trkpt lat="40.9751533" lon="16.1760783"><ele>425.0</ele><time>2026-04-18T08:31:18.633Z</time></trkpt><trkpt lat="40.97533" lon="16.176025"><ele>426.0</ele><time>2026-04-18T08:31:19.633Z</time></trkpt><trkpt lat="40.9755117" lon="16.1759717"><ele>427.0</ele><time>2026-04-18T08:31:20.64Z</time></trkpt><trkpt lat="40.9756917" lon="16.175915"><ele>428.0</ele><time>2026-04-18T08:31:21.635Z</time></trkpt><trkpt lat="40.9758733" lon="16.17586"><ele>429.3333333333333</ele><time>2026-04-18T08:31:22.634Z</time></trkpt><trkpt lat="40.9760567" lon="16.1758083"><ele>430.66666666666663</ele><time>2026-04-18T08:31:23.634Z</time></trkpt><trkpt lat="40.9762383" lon="16.175755"><ele>432.0</ele><time>2026-04-18T08:31:24.634Z</time></trkpt><trkpt lat="40.9764217" lon="16.1756983"><ele>431.66666666666663</ele><time>2026-04-18T08:31:25.633Z</time></trkpt><trkpt lat="40.976605" lon="16.17564"><ele>431.3333333333333</ele><time>2026-04-18T08:31:26.634Z</time></trkpt><trkpt lat="40.9767917" lon="16.175585"><ele>431.0</ele><time>2026-04-18T08:31:27.635Z</time></trkpt><trkpt lat="40.976975" lon="16.1755283"><ele>432.66666666666663</ele><time>2026-04-18T08:31:28.634Z</time></trkpt><trkpt lat="40.9771617" lon="16.175475"><ele>434.33333333333337</ele><time>2026-04-18T08:31:29.634Z</time></trkpt><trkpt lat="40.9773467" lon="16.17542"><ele>436.0</ele><time>2026-04-18T08:31:30.635Z</time></trkpt><trkpt lat="40.9775317" lon="16.1753633"><ele>437.33333333333337</ele><time>2026-04-18T08:31:31.636Z</time></trkpt><trkpt lat="40.977715" lon="16.1753083"><ele>438.66666666666663</ele><time>2026-04-18T08:31:32.635Z</time></trkpt><trkpt lat="40.9779017" lon="16.1752533"><ele>440.0</ele><time>2026-04-18T08:31:33.636Z</time></trkpt><trkpt lat="40.97809" lon="16.1751983"><ele>440.0</ele><time>2026-04-18T08:31:34.635Z</time></trkpt><trkpt lat="40.97828" lon="16.1751417"><ele>440.0</ele><time>2026-04-18T08:31:35.637Z</time></trkpt><trkpt lat="40.97847" lon="16.1750867"><ele>440.0</ele><time>2026-04-18T08:31:36.637Z</time></trkpt><trkpt lat="40.9786617" lon="16.17503"><ele>441.3333333333333</ele><time>2026-04-18T08:31:37.635Z</time></trkpt><trkpt lat="40.978855" lon="16.1749717"><ele>442.66666666666663</ele><time>2026-04-18T08:31:38.635Z</time></trkpt><trkpt lat="40.9790483" lon="16.1749117"><ele>444.0</ele><time>2026-04-18T08:31:39.635Z</time></trkpt><trkpt lat="40.97924" lon="16.1748533"><ele>445.33333333333337</ele><time>2026-04-18T08:31:40.636Z</time></trkpt><trkpt lat="40.9794367" lon="16.1748"><ele>446.6666666666667</ele><time>2026-04-18T08:31:41.635Z</time></trkpt><trkpt lat="40.9796333" lon="16.1747483"><ele>448.0</ele><time>2026-04-18T08:31:42.634Z</time></trkpt><trkpt lat="40.9798317" lon="16.1746967"><ele>449.33333333333337</ele><time>2026-04-18T08:31:43.633Z</time></trkpt><trkpt lat="40.9800267" lon="16.17464"><ele>450.66666666666663</ele><time>2026-04-18T08:31:44.634Z</time></trkpt><trkpt lat="40.9802217" lon="16.1745783"><ele>452.0</ele><time>2026-04-18T08:31:45.633Z</time></trkpt><trkpt lat="40.9804133" lon="16.1745183"><ele>452.0</ele><time>2026-04-18T08:31:46.633Z</time></trkpt><trkpt lat="40.980605" lon="16.1744633"><ele>452.0</ele><time>2026-04-18T08:31:47.633Z</time></trkpt><trkpt lat="40.9808" lon="16.1744067"><ele>452.0</ele><time>2026-04-18T08:31:48.633Z</time></trkpt><trkpt lat="40.980995" lon="16.1743517"><ele>454.3333333333333</ele><time>2026-04-18T08:31:49.633Z</time></trkpt><trkpt lat="40.9811917" lon="16.174295"><ele>456.66666666666663</ele><time>2026-04-18T08:31:50.634Z</time></trkpt><trkpt lat="40.9813883" lon="16.1742317"><ele>459.0</ele><time>2026-04-18T08:31:51.635Z</time></trkpt><trkpt lat="40.981585" lon="16.1741683"><ele>459.66666666666663</ele><time>2026-04-18T08:31:52.633Z</time></trkpt><trkpt lat="40.9817817" lon="16.1741067"><ele>460.3333333333333</ele><time>2026-04-18T08:31:53.633Z</time></trkpt><trkpt lat="40.98198" lon="16.1740517"><ele>461.0</ele><time>2026-04-18T08:31:54.633Z</time></trkpt><trkpt lat="40.98218" lon="16.173995"><ele>461.0</ele><time>2026-04-18T08:31:55.633Z</time></trkpt><trkpt lat="40.9823817" lon="16.1739417"><ele>461.0</ele><time>2026-04-18T08:31:56.634Z</time></trkpt><trkpt lat="40.9825733" lon="16.1738867"><ele>461.0</ele><time>2026-04-18T08:31:57.633Z</time></trkpt><trkpt lat="40.9827567" lon="16.1738317"><ele>462.66666666666663</ele><time>2026-04-18T08:31:58.633Z</time></trkpt><trkpt lat="40.9829383" lon="16.1737817"><ele>464.33333333333337</ele><time>2026-04-18T08:31:59.633Z</time></trkpt><trkpt lat="40.9831167" lon="16.1737317"><ele>466.0</ele><time>2026-04-18T08:32:00.636Z</time></trkpt><trkpt lat="40.983285" lon="16.1736767"><ele>467.6666666666667</ele><time>2026-04-18T08:32:01.636Z</time></trkpt><trkpt lat="40.98345" lon="16.1736183"><ele>469.33333333333337</ele><time>2026-04-18T08:32:02.635Z</time></trkpt><trkpt lat="40.9836204" lon="16.1735638"><ele>471.0</ele><time>2026-04-18T08:32:03.633Z</time></trkpt><trkpt lat="40.9837967" lon="16.1735135"><ele>471.0</ele><time>2026-04-18T08:32:04.633Z</time></trkpt><trkpt lat="40.9839701" lon="16.1734612"><ele>471.0</ele><time>2026-04-18T08:32:05.634Z</time></trkpt><trkpt lat="40.9841337" lon="16.1734098"><ele>471.0</ele><time>2026-04-18T08:32:06.633Z</time></trkpt><trkpt lat="40.9842799" lon="16.1733642"><ele>471.75</ele><time>2026-04-18T08:32:07.634Z</time></trkpt><trkpt lat="40.9844114" lon="16.1733186"><ele>472.5</ele><time>2026-04-18T08:32:08.634Z</time></trkpt><trkpt lat="40.98453" lon="16.173277"><ele>473.25</ele><time>2026-04-18T08:32:09.634Z</time></trkpt><trkpt lat="40.9846418" lon="16.1732424"><ele>474.0</ele><time>2026-04-18T08:32:10.638Z</time></trkpt><trkpt lat="40.9847524" lon="16.173223"><ele>474.0</ele><time>2026-04-18T08:32:11.634Z</time></trkpt><trkpt lat="40.9848584" lon="16.1732275"><ele>474.0</ele><time>2026-04-18T08:32:12.633Z</time></trkpt><trkpt lat="40.9849529" lon="16.1732665"><ele>474.0</ele><time>2026-04-18T08:32:13.633Z</time></trkpt><trkpt lat="40.9850452" lon="16.1733389"><ele>474.0</ele><time>2026-04-18T08:32:14.634Z</time></trkpt><trkpt lat="40.9851381" lon="16.173446"><ele>474.0</ele><time>2026-04-18T08:32:15.633Z</time></trkpt><trkpt lat="40.9852382" lon="16.1735731"><ele>476.0</ele><time>2026-04-18T08:32:16.636Z</time></trkpt><trkpt lat="40.9853478" lon="16.1737096"><ele>478.0</ele><time>2026-04-18T08:32:17.634Z</time></trkpt><trkpt lat="40.9854656" lon="16.1738447"><ele>480.0</ele><time>2026-04-18T08:32:18.633Z</time></trkpt><trkpt lat="40.9855978" lon="16.1739675"><ele>481.0</ele><time>2026-04-18T08:32:19.633Z</time></trkpt><trkpt lat="40.9857445" lon="16.174076"><ele>482.0</ele><time>2026-04-18T08:32:20.638Z</time></trkpt><trkpt lat="40.9858944" lon="16.1741758"><ele>483.0</ele><time>2026-04-18T08:32:21.633Z</time></trkpt><trkpt lat="40.9860478" lon="16.1742749"><ele>483.66666666666663</ele><time>2026-04-18T08:32:22.635Z</time></trkpt><trkpt lat="40.9862047" lon="16.1743787"><ele>484.3333333333333</ele><time>2026-04-18T08:32:23.633Z</time></trkpt><trkpt lat="40.9863612" lon="16.174484"><ele>485.0</ele><time>2026-04-18T08:32:24.633Z</time></trkpt><trkpt lat="40.9865094" lon="16.1745939"><ele>485.0</ele><time>2026-04-18T08:32:25.635Z</time></trkpt><trkpt lat="40.9866541" lon="16.1747219"><ele>485.0</ele><time>2026-04-18T08:32:26.634Z</time></trkpt><trkpt lat="40.9867998" lon="16.1748727"><ele>485.0</ele><time>2026-04-18T08:32:27.633Z</time></trkpt><trkpt lat="40.9869433" lon="16.1750358"><ele>488.3333333333333</ele><time>2026-04-18T08:32:28.634Z</time></trkpt><trkpt lat="40.9870786" lon="16.1751919"><ele>491.66666666666663</ele><time>2026-04-18T08:32:29.639Z</time></trkpt><trkpt lat="40.9872205" lon="16.1753252"><ele>495.0</ele><time>2026-04-18T08:32:30.634Z</time></trkpt><trkpt lat="40.9873726" lon="16.1754413"><ele>496.33333333333337</ele><time>2026-04-18T08:32:31.634Z</time></trkpt><trkpt lat="40.9875226" lon="16.1755444"><ele>497.6666666666667</ele><time>2026-04-18T08:32:32.635Z</time></trkpt><trkpt lat="40.9876658" lon="16.1756295"><ele>499.0</ele><time>2026-04-18T08:32:33.634Z</time></trkpt><trkpt lat="40.9877901" lon="16.1757022"><ele>499.0</ele><time>2026-04-18T08:32:34.633Z</time></trkpt><trkpt lat="40.9878763" lon="16.1757916"><ele>499.0</ele><time>2026-04-18T08:32:35.636Z</time></trkpt><trkpt lat="40.9879417" lon="16.1759027"><ele>499.0</ele><time>2026-04-18T08:32:36.635Z</time></trkpt><trkpt lat="40.9880077" lon="16.1760367"><ele>499.0</ele><time>2026-04-18T08:32:37.634Z</time></trkpt><trkpt lat="40.988075" lon="16.1761919"><ele>499.0</ele><time>2026-04-18T08:32:38.634Z</time></trkpt><trkpt lat="40.9881476" lon="16.1763672"><ele>499.0</ele><time>2026-04-18T08:32:39.714Z</time></trkpt><trkpt lat="40.9882248" lon="16.1765449"><ele>499.0</ele><time>2026-04-18T08:32:40.635Z</time></trkpt><trkpt lat="40.9883124" lon="16.1767352"><ele>506.0</ele><time>2026-04-18T08:32:41.633Z</time></trkpt><trkpt lat="40.9884102" lon="16.1769254"><ele>513.0</ele><time>2026-04-18T08:32:42.633Z</time></trkpt><trkpt lat="40.9885198" lon="16.1771164"><ele>520.0</ele><time>2026-04-18T08:32:43.633Z</time></trkpt><trkpt lat="40.9886327" lon="16.1773098"><ele>517.0</ele><time>2026-04-18T08:32:44.634Z</time></trkpt><trkpt lat="40.9887411" lon="16.1775019"><ele>514.0</ele><time>2026-04-18T08:32:45.634Z</time></trkpt><trkpt lat="40.9888423" lon="16.177691"><ele>511.0</ele><time>2026-04-18T08:32:46.633Z</time></trkpt><trkpt lat="40.9889324" lon="16.1778808"><ele>511.0</ele><time>2026-04-18T08:32:47.633Z</time></trkpt><trkpt lat="40.9890113" lon="16.1780707"><ele>511.0</ele><time>2026-04-18T08:32:48.633Z</time></trkpt><trkpt lat="40.989087" lon="16.1782595"><ele>511.0</ele><time>2026-04-18T08:32:49.633Z</time></trkpt><trkpt lat="40.9891603" lon="16.1784468"><ele>515.6666666666667</ele><time>2026-04-18T08:32:50.634Z</time></trkpt><trkpt lat="40.9892301" lon="16.1786363"><ele>520.3333333333334</ele><time>2026-04-18T08:32:51.633Z</time></trkpt><trkpt lat="40.9892949" lon="16.178832"><ele>525.0</ele><time>2026-04-18T08:32:52.633Z</time></trkpt><trkpt lat="40.9893578" lon="16.1790207"><ele>525.0</ele><time>2026-04-18T08:32:53.633Z</time></trkpt><trkpt lat="40.9894147" lon="16.1791885"><ele>525.0</ele><time>2026-04-18T08:32:54.635Z</time></trkpt><trkpt lat="40.9894677" lon="16.1793391"><ele>525.0</ele><time>2026-04-18T08:32:55.633Z</time></trkpt><trkpt lat="40.9895177" lon="16.1794772"><ele>525.0</ele><time>2026-04-18T08:32:56.633Z</time></trkpt><trkpt lat="40.9895632" lon="16.1796006"><ele>525.0</ele><time>2026-04-18T08:32:57.633Z</time></trkpt><trkpt lat="40.9896075" lon="16.1797106"><ele>525.0</ele><time>2026-04-18T08:32:58.636Z</time></trkpt><trkpt lat="40.9896574" lon="16.1798069"><ele>525.0</ele><time>2026-04-18T08:32:59.633Z</time></trkpt><trkpt lat="40.9897164" lon="16.1798874"><ele>525.0</ele><time>2026-04-18T08:33:00.634Z</time></trkpt><trkpt lat="40.9897879" lon="16.1799436"><ele>525.0</ele><time>2026-04-18T08:33:01.636Z</time></trkpt><trkpt lat="40.9898788" lon="16.1799677"><ele>525.0</ele><time>2026-04-18T08:33:02.635Z</time></trkpt><trkpt lat="40.9899876" lon="16.1799606"><ele>527.0</ele><time>2026-04-18T08:33:03.635Z</time></trkpt><trkpt lat="40.9900919" lon="16.1799116"><ele>529.0</ele><time>2026-04-18T08:33:04.634Z</time></trkpt><trkpt lat="40.9901888" lon="16.1798323"><ele>531.0</ele><time>2026-04-18T08:33:05.634Z</time></trkpt><trkpt lat="40.9902877" lon="16.1797465"><ele>533.0</ele><time>2026-04-18T08:33:06.634Z</time></trkpt><trkpt lat="40.9904034" lon="16.1796788"><ele>533.0</ele><time>2026-04-18T08:33:07.634Z</time></trkpt><trkpt lat="40.9905372" lon="16.1796318"><ele>533.0</ele><time>2026-04-18T08:33:08.633Z</time></trkpt><trkpt lat="40.9906933" lon="16.1795983"><ele>533.0</ele><time>2026-04-18T08:33:09.633Z</time></trkpt><trkpt lat="40.99085" lon="16.1795583"><ele>535.0</ele><time>2026-04-18T08:33:10.634Z</time></trkpt><trkpt lat="40.991" lon="16.179505"><ele>537.0</ele><time>2026-04-18T08:33:11.634Z</time></trkpt><trkpt lat="40.9911367" lon="16.179455"><ele>539.0</ele><time>2026-04-18T08:33:12.698Z</time></trkpt><trkpt lat="40.991275" lon="16.179435"><ele>541.0</ele><time>2026-04-18T08:33:13.633Z</time></trkpt><trkpt lat="40.9914283" lon="16.179445"><ele>541.0</ele><time>2026-04-18T08:33:14.634Z</time></trkpt><trkpt lat="40.9915817" lon="16.1794767"><ele>541.0</ele><time>2026-04-18T08:33:15.634Z</time></trkpt><trkpt lat="40.9917433" lon="16.179525"><ele>541.0</ele><time>2026-04-18T08:33:16.633Z</time></trkpt><trkpt lat="40.9919117" lon="16.1795583"><ele>542.0</ele><time>2026-04-18T08:33:17.633Z</time></trkpt><trkpt lat="40.9920917" lon="16.17957"><ele>543.0</ele><time>2026-04-18T08:33:18.634Z</time></trkpt><trkpt lat="40.9922683" lon="16.1795717"><ele>544.0</ele><time>2026-04-18T08:33:19.636Z</time></trkpt><trkpt lat="40.9924267" lon="16.1795683"><ele>545.75</ele><time>2026-04-18T08:33:20.633Z</time></trkpt><trkpt lat="40.9925583" lon="16.1795667"><ele>547.5</ele><time>2026-04-18T08:33:21.635Z</time></trkpt><trkpt lat="40.9926733" lon="16.1795467"><ele>549.25</ele><time>2026-04-18T08:33:22.634Z</time></trkpt><trkpt lat="40.99278" lon="16.1794867"><ele>551.0</ele><time>2026-04-18T08:33:23.635Z</time></trkpt><trkpt lat="40.9928817" lon="16.1793883"><ele>551.0</ele><time>2026-04-18T08:33:24.637Z</time></trkpt><trkpt lat="40.9929717" lon="16.1792717"><ele>551.0</ele><time>2026-04-18T08:33:25.633Z</time></trkpt><trkpt lat="40.9930633" lon="16.17917"><ele>551.0</ele><time>2026-04-18T08:33:26.634Z</time></trkpt><trkpt lat="40.99316" lon="16.1791067"><ele>551.0</ele><time>2026-04-18T08:33:27.633Z</time></trkpt><trkpt lat="40.99326" lon="16.1790883"><ele>552.8</ele><time>2026-04-18T08:33:28.636Z</time></trkpt><trkpt lat="40.9933583" lon="16.1791083"><ele>554.6</ele><time>2026-04-18T08:33:29.636Z</time></trkpt><trkpt lat="40.9934517" lon="16.1791633"><ele>556.4</ele><time>2026-04-18T08:33:30.633Z</time></trkpt><trkpt lat="40.99355" lon="16.1792417"><ele>558.2</ele><time>2026-04-18T08:33:31.634Z</time></trkpt><trkpt lat="40.99366" lon="16.179325"><ele>560.0</ele><time>2026-04-18T08:33:32.634Z</time></trkpt><trkpt lat="40.9937883" lon="16.1794033"><ele>560.0</ele><time>2026-04-18T08:33:33.634Z</time></trkpt><trkpt lat="40.9939217" lon="16.1794717"><ele>560.0</ele><time>2026-04-18T08:33:34.634Z</time></trkpt><trkpt lat="40.99405" lon="16.179525"><ele>560.0</ele><time>2026-04-18T08:33:35.634Z</time></trkpt><trkpt lat="40.9941667" lon="16.1795633"><ele>560.0</ele><time>2026-04-18T08:33:36.634Z</time></trkpt><trkpt lat="40.9942783" lon="16.17958"><ele>561.4</ele><time>2026-04-18T08:33:37.633Z</time></trkpt><trkpt lat="40.9943833" lon="16.1795667"><ele>562.8</ele><time>2026-04-18T08:33:38.634Z</time></trkpt><trkpt lat="40.9944817" lon="16.1795183"><ele>564.2</ele><time>2026-04-18T08:33:39.633Z</time></trkpt><trkpt lat="40.99457" lon="16.1794317"><ele>565.6</ele><time>2026-04-18T08:33:40.633Z</time></trkpt><trkpt lat="40.994655" lon="16.1793117"><ele>567.0</ele><time>2026-04-18T08:33:41.633Z</time></trkpt><trkpt lat="40.99473" lon="16.179165"><ele>567.75</ele><time>2026-04-18T08:33:42.635Z</time></trkpt><trkpt lat="40.99479" lon="16.1790067"><ele>568.5</ele><time>2026-04-18T08:33:43.633Z</time></trkpt><trkpt lat="40.99483" lon="16.1788383"><ele>569.25</ele><time>2026-04-18T08:33:44.633Z</time></trkpt><trkpt lat="40.994855" lon="16.17866"><ele>570.0</ele><time>2026-04-18T08:33:45.633Z</time></trkpt><trkpt lat="40.99488" lon="16.1784633"><ele>570.0</ele><time>2026-04-18T08:33:46.633Z</time></trkpt><trkpt lat="40.994905" lon="16.1782617"><ele>570.0</ele><time>2026-04-18T08:33:47.634Z</time></trkpt><trkpt lat="40.9949333" lon="16.1780717"><ele>570.0</ele><time>2026-04-18T08:33:48.634Z</time></trkpt><trkpt lat="40.9949717" lon="16.1779033"><ele>570.0</ele><time>2026-04-18T08:33:49.633Z</time></trkpt><trkpt lat="40.9950217" lon="16.1777533"><ele>572.75</ele><time>2026-04-18T08:33:50.634Z</time></trkpt><trkpt lat="40.99508" lon="16.1776167"><ele>575.5</ele><time>2026-04-18T08:33:51.633Z</time></trkpt><trkpt lat="40.9951567" lon="16.1774883"><ele>578.25</ele><time>2026-04-18T08:33:52.634Z</time></trkpt><trkpt lat="40.99525" lon="16.17736"><ele>581.0</ele><time>2026-04-18T08:33:53.634Z</time></trkpt><trkpt lat="40.9953417" lon="16.1772267"><ele>581.0</ele><time>2026-04-18T08:33:54.635Z</time></trkpt><trkpt lat="40.99543" lon="16.1770683"><ele>581.0</ele><time>2026-04-18T08:33:55.633Z</time></trkpt><trkpt lat="40.9955083" lon="16.176895"><ele>581.0</ele><time>2026-04-18T08:33:56.634Z</time></trkpt><trkpt lat="40.9955717" lon="16.1767267"><ele>581.0</ele><time>2026-04-18T08:33:57.636Z</time></trkpt><trkpt lat="40.9956267" lon="16.1765633"><ele>580.75</ele><time>2026-04-18T08:33:58.634Z</time></trkpt><trkpt lat="40.995665" lon="16.1764033"><ele>580.5</ele><time>2026-04-18T08:33:59.634Z</time></trkpt><trkpt lat="40.9956833" lon="16.1762383"><ele>580.25</ele><time>2026-04-18T08:34:00.633Z</time></trkpt><trkpt lat="40.995685" lon="16.17606"><ele>580.0</ele><time>2026-04-18T08:34:01.641Z</time></trkpt><trkpt lat="40.9956767" lon="16.175885"><ele>580.0</ele><time>2026-04-18T08:34:02.634Z</time></trkpt><trkpt lat="40.995675" lon="16.1757283"><ele>580.0</ele><time>2026-04-18T08:34:03.634Z</time></trkpt><trkpt lat="40.995685" lon="16.175585"><ele>580.0</ele><time>2026-04-18T08:34:04.633Z</time></trkpt><trkpt lat="40.9957183" lon="16.1754717"><ele>580.0</ele><time>2026-04-18T08:34:05.635Z</time></trkpt><trkpt lat="40.9957633" lon="16.17538"><ele>580.0</ele><time>2026-04-18T08:34:06.633Z</time></trkpt><trkpt lat="40.9958317" lon="16.1753"><ele>581.25</ele><time>2026-04-18T08:34:07.633Z</time></trkpt><trkpt lat="40.995925" lon="16.1752267"><ele>582.5</ele><time>2026-04-18T08:34:08.634Z</time></trkpt><trkpt lat="40.996035" lon="16.17516"><ele>583.75</ele><time>2026-04-18T08:34:09.635Z</time></trkpt><trkpt lat="40.9961683" lon="16.1751033"><ele>585.0</ele><time>2026-04-18T08:34:10.633Z</time></trkpt><trkpt lat="40.99631" lon="16.17505"><ele>585.0</ele><time>2026-04-18T08:34:11.633Z</time></trkpt><trkpt lat="40.996455" lon="16.1750017"><ele>585.0</ele><time>2026-04-18T08:34:12.634Z</time></trkpt><trkpt lat="40.99661" lon="16.17496"><ele>585.0</ele><time>2026-04-18T08:34:13.633Z</time></trkpt><trkpt lat="40.996765" lon="16.1749217"><ele>585.25</ele><time>2026-04-18T08:34:14.635Z</time></trkpt><trkpt lat="40.996915" lon="16.1748883"><ele>585.5</ele><time>2026-04-18T08:34:15.634Z</time></trkpt><trkpt lat="40.9970617" lon="16.1748633"><ele>585.75</ele><time>2026-04-18T08:34:16.633Z</time></trkpt><trkpt lat="40.99721" lon="16.1748517"><ele>586.0</ele><time>2026-04-18T08:34:17.636Z</time></trkpt><trkpt lat="40.997365" lon="16.1748533"><ele>586.3333333333334</ele><time>2026-04-18T08:34:18.633Z</time></trkpt><trkpt lat="40.99752" lon="16.1748667"><ele>586.6666666666666</ele><time>2026-04-18T08:34:19.634Z</time></trkpt><trkpt lat="40.9976717" lon="16.1749033"><ele>587.0</ele><time>2026-04-18T08:34:20.633Z</time></trkpt><trkpt lat="40.997825" lon="16.1749567"><ele>587.0</ele><time>2026-04-18T08:34:21.636Z</time></trkpt><trkpt lat="40.9979867" lon="16.1750133"><ele>587.0</ele><time>2026-04-18T08:34:22.635Z</time></trkpt><trkpt lat="40.998155" lon="16.1750717"><ele>587.0</ele><time>2026-04-18T08:34:23.634Z</time></trkpt><trkpt lat="40.9983183" lon="16.175135"><ele>587.0</ele><time>2026-04-18T08:34:24.633Z</time></trkpt><trkpt lat="40.9984667" lon="16.1751933"><ele>587.0</ele><time>2026-04-18T08:34:25.634Z</time></trkpt><trkpt lat="40.9986017" lon="16.175235"><ele>587.0</ele><time>2026-04-18T08:34:26.634Z</time></trkpt><trkpt lat="40.99873" lon="16.17525"><ele>587.0</ele><time>2026-04-18T08:34:27.633Z</time></trkpt><trkpt lat="40.9988483" lon="16.17524"><ele>587.0</ele><time>2026-04-18T08:34:28.634Z</time></trkpt><trkpt lat="40.9989583" lon="16.1752033"><ele>587.0</ele><time>2026-04-18T08:34:29.634Z</time></trkpt><trkpt lat="40.9990617" lon="16.1751317"><ele>587.0</ele><time>2026-04-18T08:34:30.633Z</time></trkpt><trkpt lat="40.9991617" lon="16.175025"><ele>587.0</ele><time>2026-04-18T08:34:31.635Z</time></trkpt><trkpt lat="40.9992583" lon="16.174885"><ele>588.6666666666666</ele><time>2026-04-18T08:34:32.635Z</time></trkpt><trkpt lat="40.9993533" lon="16.17472"><ele>590.3333333333334</ele><time>2026-04-18T08:34:33.634Z</time></trkpt><trkpt lat="40.9994517" lon="16.1745433"><ele>592.0</ele><time>2026-04-18T08:34:34.633Z</time></trkpt><trkpt lat="40.999545" lon="16.17437"><ele>592.0</ele><time>2026-04-18T08:34:35.635Z</time></trkpt><trkpt lat="40.9996267" lon="16.1742117"><ele>592.0</ele><time>2026-04-18T08:34:36.633Z</time></trkpt><trkpt lat="40.999695" lon="16.1740683"><ele>592.0</ele><time>2026-04-18T08:34:37.634Z</time></trkpt><trkpt lat="40.9997517" lon="16.17393"><ele>592.0</ele><time>2026-04-18T08:34:38.634Z</time></trkpt><trkpt lat="40.9998" lon="16.1737933"><ele>593.25</ele><time>2026-04-18T08:34:39.633Z</time></trkpt><trkpt lat="40.99983" lon="16.1736417"><ele>594.5</ele><time>2026-04-18T08:34:40.634Z</time></trkpt><trkpt lat="40.9998633" lon="16.1734933"><ele>595.75</ele><time>2026-04-18T08:34:41.635Z</time></trkpt><trkpt lat="40.999895" lon="16.1733367"><ele>597.0</ele><time>2026-04-18T08:34:42.634Z</time></trkpt><trkpt lat="40.9999283" lon="16.1731683"><ele>598.0</ele><time>2026-04-18T08:34:43.633Z</time></trkpt><trkpt lat="40.9999633" lon="16.172985"><ele>599.0</ele><time>2026-04-18T08:34:44.634Z</time></trkpt><trkpt lat="40.9999983" lon="16.1727917"><ele>600.0</ele><time>2026-04-18T08:34:45.635Z</time></trkpt><trkpt lat="41.000035" lon="16.1725833"><ele>600.0</ele><time>2026-04-18T08:34:46.635Z</time></trkpt><trkpt lat="41.0000733" lon="16.1723683"><ele>600.0</ele><time>2026-04-18T08:34:47.634Z</time></trkpt><trkpt lat="41.0001117" lon="16.1721583"><ele>600.0</ele><time>2026-04-18T08:34:48.633Z</time></trkpt><trkpt lat="41.000145" lon="16.1719667"><ele>600.75</ele><time>2026-04-18T08:34:49.634Z</time></trkpt><trkpt lat="41.0001733" lon="16.17179"><ele>601.5</ele><time>2026-04-18T08:34:50.634Z</time></trkpt><trkpt lat="41.00021" lon="16.17163"><ele>602.25</ele><time>2026-04-18T08:34:51.637Z</time></trkpt><trkpt lat="41.00026" lon="16.17148"><ele>603.0</ele><time>2026-04-18T08:34:52.634Z</time></trkpt><trkpt lat="41.0003267" lon="16.17135"><ele>603.75</ele><time>2026-04-18T08:34:53.636Z</time></trkpt><trkpt lat="41.0004067" lon="16.1712433"><ele>604.5</ele><time>2026-04-18T08:34:54.635Z</time></trkpt><trkpt lat="41.0005067" lon="16.1711567"><ele>605.25</ele><time>2026-04-18T08:34:55.635Z</time></trkpt><trkpt lat="41.000625" lon="16.1710917"><ele>606.0</ele><time>2026-04-18T08:34:56.637Z</time></trkpt><trkpt lat="41.0007533" lon="16.1710517"><ele>605.25</ele><time>2026-04-18T08:34:57.635Z</time></trkpt><trkpt lat="41.0008917" lon="16.1710333"><ele>604.5</ele><time>2026-04-18T08:34:58.633Z</time></trkpt><trkpt lat="41.0010417" lon="16.1710317"><ele>603.75</ele><time>2026-04-18T08:34:59.634Z</time></trkpt><trkpt lat="41.0012" lon="16.1710367"><ele>603.0</ele><time>2026-04-18T08:35:00.636Z</time></trkpt><trkpt lat="41.0013667" lon="16.171045"><ele>603.0</ele><time>2026-04-18T08:35:01.638Z</time></trkpt><trkpt lat="41.0015333" lon="16.1710533"><ele>603.0</ele><time>2026-04-18T08:35:02.634Z</time></trkpt><trkpt lat="41.001695" lon="16.1710567"><ele>603.0</ele><time>2026-04-18T08:35:03.633Z</time></trkpt><trkpt lat="41.00201" lon="16.1710733"><ele>602.3333333333334</ele><time>2026-04-18T08:35:05.634Z</time></trkpt><trkpt lat="41.0021733" lon="16.1710783"><ele>601.6666666666667</ele><time>2026-04-18T08:35:06.634Z</time></trkpt><trkpt lat="41.0023383" lon="16.1710817"><ele>601.0</ele><time>2026-04-18T08:35:07.637Z</time></trkpt><trkpt lat="41.0025017" lon="16.1710817"><ele>601.0</ele><time>2026-04-18T08:35:08.634Z</time></trkpt><trkpt lat="41.0026617" lon="16.1710817"><ele>601.0</ele><time>2026-04-18T08:35:09.635Z</time></trkpt><trkpt lat="41.0028167" lon="16.1710867"><ele>601.0</ele><time>2026-04-18T08:35:10.634Z</time></trkpt><trkpt lat="41.0030917" lon="16.1710967"><ele>601.0</ele><time>2026-04-18T08:35:12.635Z</time></trkpt><trkpt lat="41.0032117" lon="16.1711017"><ele>601.0</ele><time>2026-04-18T08:35:13.634Z</time></trkpt><trkpt lat="41.003325" lon="16.1711183"><ele>601.0</ele><time>2026-04-18T08:35:14.635Z</time></trkpt><trkpt lat="41.00343" lon="16.171155"><ele>601.0</ele><time>2026-04-18T08:35:15.633Z</time></trkpt><trkpt lat="41.0035267" lon="16.17121"><ele>601.0</ele><time>2026-04-18T08:35:16.633Z</time></trkpt><trkpt lat="41.0036217" lon="16.1712867"><ele>600.5</ele><time>2026-04-18T08:35:17.634Z</time></trkpt><trkpt lat="41.00372" lon="16.1713817"><ele>600.0</ele><time>2026-04-18T08:35:18.633Z</time></trkpt><trkpt lat="41.00383" lon="16.1714883"><ele>599.5</ele><time>2026-04-18T08:35:19.634Z</time></trkpt><trkpt lat="41.00395" lon="16.171605"><ele>599.0</ele><time>2026-04-18T08:35:20.635Z</time></trkpt><trkpt lat="41.0040767" lon="16.1717267"><ele>598.0</ele><time>2026-04-18T08:35:21.634Z</time></trkpt><trkpt lat="41.0042083" lon="16.171855"><ele>597.0</ele><time>2026-04-18T08:35:22.635Z</time></trkpt><trkpt lat="41.0043483" lon="16.1719833"><ele>596.0</ele><time>2026-04-18T08:35:23.635Z</time></trkpt><trkpt lat="41.0044967" lon="16.1721167"><ele>596.0</ele><time>2026-04-18T08:35:24.636Z</time></trkpt><trkpt lat="41.00465" lon="16.1722517"><ele>596.0</ele><time>2026-04-18T08:35:25.638Z</time></trkpt><trkpt lat="41.00481" lon="16.17239"><ele>596.0</ele><time>2026-04-18T08:35:26.634Z</time></trkpt><trkpt lat="41.0049683" lon="16.1725283"><ele>596.0</ele><time>2026-04-18T08:35:27.634Z</time></trkpt><trkpt lat="41.0051267" lon="16.1726667"><ele>596.0</ele><time>2026-04-18T08:35:28.633Z</time></trkpt><trkpt lat="41.005285" lon="16.1728017"><ele>596.0</ele><time>2026-04-18T08:35:29.634Z</time></trkpt><trkpt lat="41.00545" lon="16.1729367"><ele>598.5</ele><time>2026-04-18T08:35:30.634Z</time></trkpt><trkpt lat="41.0057933" lon="16.1732233"><ele>601.0</ele><time>2026-04-18T08:35:32.635Z</time></trkpt><trkpt lat="41.00597" lon="16.173375"><ele>601.3333333333334</ele><time>2026-04-18T08:35:33.635Z</time></trkpt><trkpt lat="41.0061467" lon="16.173525"><ele>601.6666666666666</ele><time>2026-04-18T08:35:34.636Z</time></trkpt><trkpt lat="41.006325" lon="16.1736733"><ele>602.0</ele><time>2026-04-18T08:35:35.634Z</time></trkpt><trkpt lat="41.0065017" lon="16.1738217"><ele>602.0</ele><time>2026-04-18T08:35:36.635Z</time></trkpt><trkpt lat="41.0066783" lon="16.1739667"><ele>602.0</ele><time>2026-04-18T08:35:37.633Z</time></trkpt><trkpt lat="41.0068517" lon="16.1741117"><ele>602.0</ele><time>2026-04-18T08:35:38.638Z</time></trkpt><trkpt lat="41.007025" lon="16.1742583"><ele>602.0</ele><time>2026-04-18T08:35:39.636Z</time></trkpt><trkpt lat="41.0071967" lon="16.1744033"><ele>602.0</ele><time>2026-04-18T08:35:40.634Z</time></trkpt><trkpt lat="41.00737" lon="16.1745483"><ele>602.0</ele><time>2026-04-18T08:35:41.636Z</time></trkpt><trkpt lat="41.0075433" lon="16.17469"><ele>602.0</ele><time>2026-04-18T08:35:42.633Z</time></trkpt><trkpt lat="41.0077133" lon="16.1748333"><ele>602.0</ele><time>2026-04-18T08:35:43.635Z</time></trkpt><trkpt lat="41.0078833" lon="16.1749783"><ele>602.0</ele><time>2026-04-18T08:35:44.634Z</time></trkpt><trkpt lat="41.0080567" lon="16.1751233"><ele>602.0</ele><time>2026-04-18T08:35:45.633Z</time></trkpt><trkpt lat="41.0082333" lon="16.1752733"><ele>602.0</ele><time>2026-04-18T08:35:46.634Z</time></trkpt><trkpt lat="41.00841" lon="16.1754217"><ele>602.0</ele><time>2026-04-18T08:35:47.634Z</time></trkpt><trkpt lat="41.0085883" lon="16.17557"><ele>603.0</ele><time>2026-04-18T08:35:48.634Z</time></trkpt><trkpt lat="41.00877" lon="16.175715"><ele>604.0</ele><time>2026-04-18T08:35:49.637Z</time></trkpt><trkpt lat="41.00895" lon="16.175865"><ele>605.0</ele><time>2026-04-18T08:35:50.636Z</time></trkpt><trkpt lat="41.0091283" lon="16.1760167"><ele>605.0</ele><time>2026-04-18T08:35:51.635Z</time></trkpt><trkpt lat="41.0093067" lon="16.17617"><ele>605.0</ele><time>2026-04-18T08:35:52.636Z</time></trkpt><trkpt lat="41.0094883" lon="16.17632"><ele>605.0</ele><time>2026-04-18T08:35:53.637Z</time></trkpt><trkpt lat="41.0096683" lon="16.1764717"><ele>606.0</ele><time>2026-04-18T08:35:54.635Z</time></trkpt><trkpt lat="41.009845" lon="16.1766217"><ele>607.0</ele><time>2026-04-18T08:35:55.634Z</time></trkpt><trkpt lat="41.01002" lon="16.1767717"><ele>608.0</ele><time>2026-04-18T08:35:56.634Z</time></trkpt><trkpt lat="41.010195" lon="16.17692"><ele>608.3333333333333</ele><time>2026-04-18T08:35:57.634Z</time></trkpt><trkpt lat="41.0103683" lon="16.1770667"><ele>608.6666666666666</ele><time>2026-04-18T08:35:58.637Z</time></trkpt><trkpt lat="41.010545" lon="16.1772133"><ele>609.0</ele><time>2026-04-18T08:35:59.634Z</time></trkpt><trkpt lat="41.0107217" lon="16.1773583"><ele>610.3333333333334</ele><time>2026-04-18T08:36:00.633Z</time></trkpt><trkpt lat="41.0108967" lon="16.1775033"><ele>611.6666666666667</ele><time>2026-04-18T08:36:01.633Z</time></trkpt><trkpt lat="41.0110717" lon="16.1776533"><ele>613.0</ele><time>2026-04-18T08:36:02.634Z</time></trkpt><trkpt lat="41.0112433" lon="16.1778017"><ele>613.0</ele><time>2026-04-18T08:36:03.633Z</time></trkpt><trkpt lat="41.011405" lon="16.1779333"><ele>613.0</ele><time>2026-04-18T08:36:04.636Z</time></trkpt><trkpt lat="41.0115583" lon="16.1780583"><ele>613.0</ele><time>2026-04-18T08:36:05.633Z</time></trkpt><trkpt lat="41.0117133" lon="16.1781767"><ele>614.5</ele><time>2026-04-18T08:36:06.633Z</time></trkpt><trkpt lat="41.011875" lon="16.17829"><ele>616.0</ele><time>2026-04-18T08:36:07.634Z</time></trkpt><trkpt lat="41.0122283" lon="16.1784817"><ele>616.0</ele><time>2026-04-18T08:36:09.635Z</time></trkpt><trkpt lat="41.0124183" lon="16.178565"><ele>616.0</ele><time>2026-04-18T08:36:10.635Z</time></trkpt><trkpt lat="41.0126117" lon="16.1786483"><ele>616.0</ele><time>2026-04-18T08:36:11.633Z</time></trkpt><trkpt lat="41.01279" lon="16.178725"><ele>616.3333333333334</ele><time>2026-04-18T08:36:12.634Z</time></trkpt><trkpt lat="41.0129683" lon="16.1788033"><ele>616.6666666666666</ele><time>2026-04-18T08:36:13.633Z</time></trkpt><trkpt lat="41.01315" lon="16.1788867"><ele>617.0</ele><time>2026-04-18T08:36:14.634Z</time></trkpt><trkpt lat="41.0135283" lon="16.17905"><ele>617.0</ele><time>2026-04-18T08:36:16.634Z</time></trkpt><trkpt lat="41.0137217" lon="16.1791333"><ele>617.0</ele><time>2026-04-18T08:36:17.635Z</time></trkpt><trkpt lat="41.013915" lon="16.1792167"><ele>617.0</ele><time>2026-04-18T08:36:18.635Z</time></trkpt><trkpt lat="41.0143067" lon="16.1793983"><ele>616.0</ele><time>2026-04-18T08:36:20.636Z</time></trkpt><trkpt lat="41.0145067" lon="16.1794883"><ele>615.0</ele><time>2026-04-18T08:36:21.635Z</time></trkpt><trkpt lat="41.0147067" lon="16.17958"><ele>614.0</ele><time>2026-04-18T08:36:22.635Z</time></trkpt><trkpt lat="41.014905" lon="16.1796733"><ele>613.0</ele><time>2026-04-18T08:36:23.636Z</time></trkpt><trkpt lat="41.015105" lon="16.17977"><ele>612.0</ele><time>2026-04-18T08:36:24.636Z</time></trkpt><trkpt lat="41.015305" lon="16.17986"><ele>611.0</ele><time>2026-04-18T08:36:25.634Z</time></trkpt><trkpt lat="41.0155033" lon="16.1799467"><ele>610.3333333333333</ele><time>2026-04-18T08:36:26.634Z</time></trkpt><trkpt lat="41.0157017" lon="16.18003"><ele>609.6666666666666</ele><time>2026-04-18T08:36:27.634Z</time></trkpt><trkpt lat="41.0158967" lon="16.1801167"><ele>609.0</ele><time>2026-04-18T08:36:28.634Z</time></trkpt><trkpt lat="41.0160917" lon="16.180205"><ele>608.0</ele><time>2026-04-18T08:36:29.634Z</time></trkpt><trkpt lat="41.0162867" lon="16.180295"><ele>607.0</ele><time>2026-04-18T08:36:30.634Z</time></trkpt><trkpt lat="41.01648" lon="16.1803833"><ele>606.0</ele><time>2026-04-18T08:36:31.638Z</time></trkpt><trkpt lat="41.0166683" lon="16.1804733"><ele>606.0</ele><time>2026-04-18T08:36:32.634Z</time></trkpt><trkpt lat="41.0168567" lon="16.18056"><ele>606.0</ele><time>2026-04-18T08:36:33.634Z</time></trkpt><trkpt lat="41.017045" lon="16.18064"><ele>606.0</ele><time>2026-04-18T08:36:34.633Z</time></trkpt><trkpt lat="41.0172217" lon="16.18072"><ele>605.6666666666666</ele><time>2026-04-18T08:36:35.634Z</time></trkpt><trkpt lat="41.01739" lon="16.1807983"><ele>605.3333333333333</ele><time>2026-04-18T08:36:36.634Z</time></trkpt><trkpt lat="41.0175517" lon="16.18088"><ele>605.0</ele><time>2026-04-18T08:36:37.633Z</time></trkpt><trkpt lat="41.0177083" lon="16.18097"><ele>605.0</ele><time>2026-04-18T08:36:38.635Z</time></trkpt><trkpt lat="41.0178617" lon="16.1810817"><ele>605.0</ele><time>2026-04-18T08:36:39.634Z</time></trkpt><trkpt lat="41.0180183" lon="16.1812183"><ele>605.0</ele><time>2026-04-18T08:36:40.634Z</time></trkpt><trkpt lat="41.0181733" lon="16.18137"><ele>603.3333333333333</ele><time>2026-04-18T08:36:41.633Z</time></trkpt><trkpt lat="41.0183283" lon="16.1815283"><ele>601.6666666666666</ele><time>2026-04-18T08:36:42.633Z</time></trkpt><trkpt lat="41.0184883" lon="16.1816917"><ele>600.0</ele><time>2026-04-18T08:36:43.634Z</time></trkpt><trkpt lat="41.0186483" lon="16.181855"><ele>600.0</ele><time>2026-04-18T08:36:44.635Z</time></trkpt><trkpt lat="41.0188117" lon="16.1820167"><ele>600.0</ele><time>2026-04-18T08:36:45.633Z</time></trkpt><trkpt lat="41.0189733" lon="16.18218"><ele>600.0</ele><time>2026-04-18T08:36:46.634Z</time></trkpt><trkpt lat="41.019135" lon="16.1823433"><ele>598.0</ele><time>2026-04-18T08:36:47.634Z</time></trkpt><trkpt lat="41.019295" lon="16.182505"><ele>596.0</ele><time>2026-04-18T08:36:48.634Z</time></trkpt><trkpt lat="41.0194533" lon="16.1826633"><ele>594.0</ele><time>2026-04-18T08:36:49.634Z</time></trkpt><trkpt lat="41.0196117" lon="16.1828217"><ele>594.0</ele><time>2026-04-18T08:36:50.635Z</time></trkpt><trkpt lat="41.0197683" lon="16.182975"><ele>594.0</ele><time>2026-04-18T08:36:51.637Z</time></trkpt><trkpt lat="41.019925" lon="16.1831267"><ele>594.0</ele><time>2026-04-18T08:36:52.636Z</time></trkpt><trkpt lat="41.0200833" lon="16.18328"><ele>592.3333333333334</ele><time>2026-04-18T08:36:53.636Z</time></trkpt><trkpt lat="41.0202383" lon="16.1834367"><ele>590.6666666666667</ele><time>2026-04-18T08:36:54.634Z</time></trkpt><trkpt lat="41.0203933" lon="16.183595"><ele>589.0</ele><time>2026-04-18T08:36:55.634Z</time></trkpt><trkpt lat="41.0205467" lon="16.1837583"><ele>589.0</ele><time>2026-04-18T08:36:56.636Z</time></trkpt><trkpt lat="41.020695" lon="16.1839333"><ele>589.0</ele><time>2026-04-18T08:36:57.634Z</time></trkpt><trkpt lat="41.0208417" lon="16.1841133"><ele>589.0</ele><time>2026-04-18T08:36:58.634Z</time></trkpt><trkpt lat="41.0209883" lon="16.1842967"><ele>586.6666666666667</ele><time>2026-04-18T08:36:59.634Z</time></trkpt><trkpt lat="41.02113" lon="16.1844817"><ele>584.3333333333334</ele><time>2026-04-18T08:37:00.634Z</time></trkpt><trkpt lat="41.021275" lon="16.1846633"><ele>582.0</ele><time>2026-04-18T08:37:01.636Z</time></trkpt><trkpt lat="41.0214233" lon="16.1848467"><ele>581.6666666666666</ele><time>2026-04-18T08:37:02.634Z</time></trkpt><trkpt lat="41.02157" lon="16.1850333"><ele>581.3333333333333</ele><time>2026-04-18T08:37:03.634Z</time></trkpt><trkpt lat="41.021715" lon="16.1852183"><ele>581.0</ele><time>2026-04-18T08:37:04.634Z</time></trkpt><trkpt lat="41.0218567" lon="16.1854"><ele>580.3333333333333</ele><time>2026-04-18T08:37:05.634Z</time></trkpt><trkpt lat="41.0219933" lon="16.185575"><ele>579.6666666666666</ele><time>2026-04-18T08:37:06.634Z</time></trkpt><trkpt lat="41.0221317" lon="16.1857467"><ele>579.0</ele><time>2026-04-18T08:37:07.633Z</time></trkpt><trkpt lat="41.02227" lon="16.1859183"><ele>578.3333333333334</ele><time>2026-04-18T08:37:08.635Z</time></trkpt><trkpt lat="41.0224017" lon="16.186085"><ele>577.6666666666667</ele><time>2026-04-18T08:37:09.633Z</time></trkpt><trkpt lat="41.0225283" lon="16.186245"><ele>577.0</ele><time>2026-04-18T08:37:10.634Z</time></trkpt><trkpt lat="41.0226517" lon="16.1864033"><ele>577.0</ele><time>2026-04-18T08:37:11.635Z</time></trkpt><trkpt lat="41.0227767" lon="16.1865583"><ele>577.0</ele><time>2026-04-18T08:37:12.634Z</time></trkpt><trkpt lat="41.022895" lon="16.186705"><ele>577.0</ele><time>2026-04-18T08:37:13.634Z</time></trkpt><trkpt lat="41.023005" lon="16.1868433"><ele>577.0</ele><time>2026-04-18T08:37:14.634Z</time></trkpt><trkpt lat="41.023105" lon="16.1869583"><ele>577.0</ele><time>2026-04-18T08:37:15.634Z</time></trkpt><trkpt lat="41.0232" lon="16.1870483"><ele>577.0</ele><time>2026-04-18T08:37:16.633Z</time></trkpt><trkpt lat="41.023305" lon="16.1871267"><ele>577.0</ele><time>2026-04-18T08:37:17.635Z</time></trkpt><trkpt lat="41.02343" lon="16.1871833"><ele>576.6666666666667</ele><time>2026-04-18T08:37:18.635Z</time></trkpt><trkpt lat="41.0235767" lon="16.1872117"><ele>576.3333333333334</ele><time>2026-04-18T08:37:19.636Z</time></trkpt><trkpt lat="41.02374" lon="16.187215"><ele>576.0</ele><time>2026-04-18T08:37:20.635Z</time></trkpt><trkpt lat="41.0239167" lon="16.1872067"><ele>576.0</ele><time>2026-04-18T08:37:21.634Z</time></trkpt><trkpt lat="41.0240983" lon="16.1871967"><ele>576.0</ele><time>2026-04-18T08:37:22.634Z</time></trkpt><trkpt lat="41.02427" lon="16.1871883"><ele>576.0</ele><time>2026-04-18T08:37:23.635Z</time></trkpt><trkpt lat="41.0244233" lon="16.1871867"><ele>575.6</ele><time>2026-04-18T08:37:24.634Z</time></trkpt><trkpt lat="41.0245517" lon="16.1871967"><ele>575.2</ele><time>2026-04-18T08:37:25.633Z</time></trkpt><trkpt lat="41.0246517" lon="16.1872233"><ele>574.8</ele><time>2026-04-18T08:37:26.635Z</time></trkpt><trkpt lat="41.0247317" lon="16.1872767"><ele>574.4</ele><time>2026-04-18T08:37:27.634Z</time></trkpt><trkpt lat="41.0248" lon="16.18736"><ele>574.0</ele><time>2026-04-18T08:37:28.634Z</time></trkpt><trkpt lat="41.0248533" lon="16.1874817"><ele>574.0</ele><time>2026-04-18T08:37:29.633Z</time></trkpt><trkpt lat="41.0248883" lon="16.1876333"><ele>574.0</ele><time>2026-04-18T08:37:30.634Z</time></trkpt><trkpt lat="41.0249117" lon="16.18781"><ele>574.0</ele><time>2026-04-18T08:37:31.636Z</time></trkpt><trkpt lat="41.0249367" lon="16.1880033"><ele>574.0</ele><time>2026-04-18T08:37:32.634Z</time></trkpt><trkpt lat="41.0249633" lon="16.1882067"><ele>574.0</ele><time>2026-04-18T08:37:33.634Z</time></trkpt><trkpt lat="41.0249917" lon="16.1884217"><ele>574.0</ele><time>2026-04-18T08:37:34.634Z</time></trkpt><trkpt lat="41.0250217" lon="16.1886467"><ele>574.0</ele><time>2026-04-18T08:37:35.633Z</time></trkpt><trkpt lat="41.0250533" lon="16.18888"><ele>574.6666666666667</ele><time>2026-04-18T08:37:36.634Z</time></trkpt><trkpt lat="41.0250883" lon="16.189125"><ele>575.3333333333334</ele><time>2026-04-18T08:37:37.635Z</time></trkpt><trkpt lat="41.0251217" lon="16.1893767"><ele>576.0</ele><time>2026-04-18T08:37:38.634Z</time></trkpt><trkpt lat="41.0251567" lon="16.1896367"><ele>576.3333333333334</ele><time>2026-04-18T08:37:39.634Z</time></trkpt><trkpt lat="41.0251933" lon="16.1899017"><ele>576.6666666666667</ele><time>2026-04-18T08:37:40.638Z</time></trkpt><trkpt lat="41.0252317" lon="16.1901717"><ele>577.0</ele><time>2026-04-18T08:37:41.634Z</time></trkpt><trkpt lat="41.0252733" lon="16.190445"><ele>577.3333333333334</ele><time>2026-04-18T08:37:42.634Z</time></trkpt><trkpt lat="41.0253183" lon="16.190715"><ele>577.6666666666666</ele><time>2026-04-18T08:37:43.634Z</time></trkpt><trkpt lat="41.0253633" lon="16.190985"><ele>578.0</ele><time>2026-04-18T08:37:44.634Z</time></trkpt><trkpt lat="41.0254033" lon="16.191255"><ele>579.0</ele><time>2026-04-18T08:37:45.634Z</time></trkpt><trkpt lat="41.02544" lon="16.1915117"><ele>580.0</ele><time>2026-04-18T08:37:46.635Z</time></trkpt><trkpt lat="41.025475" lon="16.1917433"><ele>581.0</ele><time>2026-04-18T08:37:47.633Z</time></trkpt><trkpt lat="41.0255083" lon="16.1919517"><ele>581.0</ele><time>2026-04-18T08:37:48.633Z</time></trkpt><trkpt lat="41.0255483" lon="16.1921433"><ele>581.0</ele><time>2026-04-18T08:37:49.633Z</time></trkpt><trkpt lat="41.025605" lon="16.1923267"><ele>581.0</ele><time>2026-04-18T08:37:50.635Z</time></trkpt><trkpt lat="41.02568" lon="16.1924983"><ele>581.0</ele><time>2026-04-18T08:37:51.634Z</time></trkpt><trkpt lat="41.0257717" lon="16.1926533"><ele>584.0</ele><time>2026-04-18T08:37:52.633Z</time></trkpt><trkpt lat="41.0258867" lon="16.19279"><ele>587.0</ele><time>2026-04-18T08:37:53.634Z</time></trkpt><trkpt lat="41.02602" lon="16.1929067"><ele>590.0</ele><time>2026-04-18T08:37:54.635Z</time></trkpt><trkpt lat="41.02617" lon="16.193"><ele>594.0</ele><time>2026-04-18T08:37:55.633Z</time></trkpt><trkpt lat="41.0266883" lon="16.1932283"><ele>594.0</ele><time>2026-04-18T08:37:58.633Z</time></trkpt><trkpt lat="41.02687" lon="16.19331"><ele>594.0</ele><time>2026-04-18T08:37:59.633Z</time></trkpt><trkpt lat="41.0270533" lon="16.193395"><ele>594.0</ele><time>2026-04-18T08:38:00.634Z</time></trkpt><trkpt lat="41.0272283" lon="16.1934767"><ele>594.0</ele><time>2026-04-18T08:38:01.635Z</time></trkpt><trkpt lat="41.0273967" lon="16.1935533"><ele>594.0</ele><time>2026-04-18T08:38:02.634Z</time></trkpt><trkpt lat="41.0275633" lon="16.1936317"><ele>594.0</ele><time>2026-04-18T08:38:03.634Z</time></trkpt><trkpt lat="41.027725" lon="16.1937083"><ele>594.6666666666666</ele><time>2026-04-18T08:38:04.635Z</time></trkpt><trkpt lat="41.0278817" lon="16.19378"><ele>595.3333333333333</ele><time>2026-04-18T08:38:05.634Z</time></trkpt><trkpt lat="41.0280383" lon="16.1938533"><ele>596.0</ele><time>2026-04-18T08:38:06.634Z</time></trkpt><trkpt lat="41.0281967" lon="16.1939233"><ele>594.6666666666666</ele><time>2026-04-18T08:38:07.633Z</time></trkpt><trkpt lat="41.0283533" lon="16.19399"><ele>593.3333333333334</ele><time>2026-04-18T08:38:08.634Z</time></trkpt><trkpt lat="41.0284983" lon="16.19406"><ele>592.0</ele><time>2026-04-18T08:38:09.633Z</time></trkpt><trkpt lat="41.028635" lon="16.1941333"><ele>591.75</ele><time>2026-04-18T08:38:10.634Z</time></trkpt><trkpt lat="41.028765" lon="16.19421"><ele>591.5</ele><time>2026-04-18T08:38:11.634Z</time></trkpt><trkpt lat="41.0288867" lon="16.194295"><ele>591.25</ele><time>2026-04-18T08:38:12.634Z</time></trkpt><trkpt lat="41.029" lon="16.1943917"><ele>591.0</ele><time>2026-04-18T08:38:13.633Z</time></trkpt><trkpt lat="41.0291083" lon="16.194505"><ele>588.5</ele><time>2026-04-18T08:38:14.634Z</time></trkpt><trkpt lat="41.0292167" lon="16.1946283"><ele>586.0</ele><time>2026-04-18T08:38:15.634Z</time></trkpt><trkpt lat="41.02952" lon="16.195065"><ele>586.0</ele><time>2026-04-18T08:38:18.634Z</time></trkpt><trkpt lat="41.0296183" lon="16.1952333"><ele>586.0</ele><time>2026-04-18T08:38:19.635Z</time></trkpt><trkpt lat="41.0297133" lon="16.19541"><ele>586.0</ele><time>2026-04-18T08:38:20.634Z</time></trkpt><trkpt lat="41.0298133" lon="16.1955917"><ele>585.3333333333334</ele><time>2026-04-18T08:38:21.633Z</time></trkpt><trkpt lat="41.029915" lon="16.1957767"><ele>584.6666666666666</ele><time>2026-04-18T08:38:22.633Z</time></trkpt><trkpt lat="41.0300167" lon="16.195965"><ele>584.0</ele><time>2026-04-18T08:38:23.633Z</time></trkpt><trkpt lat="41.03012" lon="16.1961483"><ele>581.6666666666666</ele><time>2026-04-18T08:38:24.634Z</time></trkpt><trkpt lat="41.0302217" lon="16.1963283"><ele>579.3333333333334</ele><time>2026-04-18T08:38:25.634Z</time></trkpt><trkpt lat="41.030315" lon="16.1965017"><ele>577.0</ele><time>2026-04-18T08:38:26.633Z</time></trkpt><trkpt lat="41.0304067" lon="16.1966683"><ele>576.3333333333334</ele><time>2026-04-18T08:38:27.633Z</time></trkpt><trkpt lat="41.0305033" lon="16.19684"><ele>575.6666666666666</ele><time>2026-04-18T08:38:28.634Z</time></trkpt><trkpt lat="41.030605" lon="16.1970167"><ele>575.0</ele><time>2026-04-18T08:38:29.634Z</time></trkpt><trkpt lat="41.030705" lon="16.1971967"><ele>574.0</ele><time>2026-04-18T08:38:30.634Z</time></trkpt><trkpt lat="41.0308067" lon="16.1973817"><ele>573.0</ele><time>2026-04-18T08:38:31.633Z</time></trkpt><trkpt lat="41.0309117" lon="16.1975733"><ele>572.0</ele><time>2026-04-18T08:38:32.635Z</time></trkpt><trkpt lat="41.0310183" lon="16.1977767"><ele>569.5</ele><time>2026-04-18T08:38:33.634Z</time></trkpt><trkpt lat="41.0312617" lon="16.1981933"><ele>567.0</ele><time>2026-04-18T08:38:35.634Z</time></trkpt><trkpt lat="41.031375" lon="16.1984017"><ele>567.0</ele><time>2026-04-18T08:38:36.634Z</time></trkpt><trkpt lat="41.0314883" lon="16.19861"><ele>567.0</ele><time>2026-04-18T08:38:37.634Z</time></trkpt><trkpt lat="41.0316033" lon="16.19881"><ele>567.0</ele><time>2026-04-18T08:38:38.634Z</time></trkpt><trkpt lat="41.0317167" lon="16.1990067"><ele>568.0</ele><time>2026-04-18T08:38:39.636Z</time></trkpt><trkpt lat="41.0318333" lon="16.1992"><ele>569.0</ele><time>2026-04-18T08:38:40.634Z</time></trkpt><trkpt lat="41.0319483" lon="16.199395"><ele>570.0</ele><time>2026-04-18T08:38:41.633Z</time></trkpt><trkpt lat="41.03206" lon="16.199595"><ele>570.0</ele><time>2026-04-18T08:38:42.635Z</time></trkpt><trkpt lat="41.0321717" lon="16.1997967"><ele>570.0</ele><time>2026-04-18T08:38:43.639Z</time></trkpt><trkpt lat="41.03228" lon="16.1999983"><ele>570.0</ele><time>2026-04-18T08:38:44.635Z</time></trkpt><trkpt lat="41.0323883" lon="16.2001933"><ele>569.6666666666666</ele><time>2026-04-18T08:38:45.635Z</time></trkpt><trkpt lat="41.0324983" lon="16.2003883"><ele>569.3333333333333</ele><time>2026-04-18T08:38:46.633Z</time></trkpt><trkpt lat="41.0326167" lon="16.2005833"><ele>569.0</ele><time>2026-04-18T08:38:47.633Z</time></trkpt><trkpt lat="41.0327367" lon="16.2007817"><ele>570.0</ele><time>2026-04-18T08:38:48.633Z</time></trkpt><trkpt lat="41.0328555" lon="16.2009861"><ele>571.0</ele><time>2026-04-18T08:38:49.633Z</time></trkpt><trkpt lat="41.0329737" lon="16.2011984"><ele>572.0</ele><time>2026-04-18T08:38:50.635Z</time></trkpt><trkpt lat="41.0330974" lon="16.2014177"><ele>572.3333333333333</ele><time>2026-04-18T08:38:51.634Z</time></trkpt><trkpt lat="41.0332209" lon="16.2016356"><ele>572.6666666666666</ele><time>2026-04-18T08:38:52.634Z</time></trkpt><trkpt lat="41.0333357" lon="16.2018355"><ele>573.0</ele><time>2026-04-18T08:38:53.633Z</time></trkpt><trkpt lat="41.0334424" lon="16.2020195"><ele>573.0</ele><time>2026-04-18T08:38:54.633Z</time></trkpt><trkpt lat="41.0335448" lon="16.2021949"><ele>573.0</ele><time>2026-04-18T08:38:55.637Z</time></trkpt><trkpt lat="41.033657" lon="16.2023681"><ele>573.0</ele><time>2026-04-18T08:38:56.636Z</time></trkpt><trkpt lat="41.0337883" lon="16.202536"><ele>574.3333333333334</ele><time>2026-04-18T08:38:57.635Z</time></trkpt><trkpt lat="41.0339341" lon="16.2027017"><ele>575.6666666666667</ele><time>2026-04-18T08:38:58.637Z</time></trkpt><trkpt lat="41.0340789" lon="16.202864"><ele>577.0</ele><time>2026-04-18T08:38:59.634Z</time></trkpt><trkpt lat="41.0342082" lon="16.2030095"><ele>577.25</ele><time>2026-04-18T08:39:00.633Z</time></trkpt><trkpt lat="41.0343195" lon="16.2031361"><ele>577.5</ele><time>2026-04-18T08:39:01.633Z</time></trkpt><trkpt lat="41.0344076" lon="16.2032561"><ele>577.75</ele><time>2026-04-18T08:39:02.635Z</time></trkpt><trkpt lat="41.0344737" lon="16.2033748"><ele>578.0</ele><time>2026-04-18T08:39:03.633Z</time></trkpt><trkpt lat="41.0345247" lon="16.2035046"><ele>578.5</ele><time>2026-04-18T08:39:04.634Z</time></trkpt><trkpt lat="41.0345652" lon="16.2036481"><ele>579.0</ele><time>2026-04-18T08:39:05.633Z</time></trkpt><trkpt lat="41.0346048" lon="16.2038122"><ele>579.5</ele><time>2026-04-18T08:39:06.634Z</time></trkpt><trkpt lat="41.034646" lon="16.2039968"><ele>580.0</ele><time>2026-04-18T08:39:07.633Z</time></trkpt><trkpt lat="41.0346879" lon="16.2041914"><ele>580.0</ele><time>2026-04-18T08:39:08.633Z</time></trkpt><trkpt lat="41.0347313" lon="16.2043821"><ele>580.0</ele><time>2026-04-18T08:39:09.635Z</time></trkpt><trkpt lat="41.0347739" lon="16.2045685"><ele>580.0</ele><time>2026-04-18T08:39:10.636Z</time></trkpt><trkpt lat="41.0348133" lon="16.2047504"><ele>580.0</ele><time>2026-04-18T08:39:11.634Z</time></trkpt><trkpt lat="41.0348556" lon="16.2049272"><ele>580.0</ele><time>2026-04-18T08:39:12.633Z</time></trkpt><trkpt lat="41.0349003" lon="16.2050997"><ele>580.0</ele><time>2026-04-18T08:39:13.634Z</time></trkpt><trkpt lat="41.0349427" lon="16.2052682"><ele>580.0</ele><time>2026-04-18T08:39:14.635Z</time></trkpt><trkpt lat="41.0349854" lon="16.205433"><ele>580.0</ele><time>2026-04-18T08:39:15.634Z</time></trkpt><trkpt lat="41.0350282" lon="16.2055917"><ele>577.5</ele><time>2026-04-18T08:39:16.634Z</time></trkpt><trkpt lat="41.0350779" lon="16.2057406"><ele>575.0</ele><time>2026-04-18T08:39:17.633Z</time></trkpt><trkpt lat="41.0351464" lon="16.2058869"><ele>572.5</ele><time>2026-04-18T08:39:18.634Z</time></trkpt><trkpt lat="41.0352346" lon="16.2060272"><ele>570.0</ele><time>2026-04-18T08:39:19.635Z</time></trkpt><trkpt lat="41.0353351" lon="16.2061625"><ele>570.0</ele><time>2026-04-18T08:39:20.634Z</time></trkpt><trkpt lat="41.0354382" lon="16.2063014"><ele>570.0</ele><time>2026-04-18T08:39:21.633Z</time></trkpt><trkpt lat="41.0355439" lon="16.2064453"><ele>570.0</ele><time>2026-04-18T08:39:22.633Z</time></trkpt><trkpt lat="41.0356512" lon="16.2065917"><ele>568.3333333333334</ele><time>2026-04-18T08:39:23.636Z</time></trkpt><trkpt lat="41.0357577" lon="16.206738"><ele>566.6666666666667</ele><time>2026-04-18T08:39:24.634Z</time></trkpt><trkpt lat="41.0358601" lon="16.2068816"><ele>565.0</ele><time>2026-04-18T08:39:25.634Z</time></trkpt><trkpt lat="41.0359632" lon="16.2070261"><ele>563.75</ele><time>2026-04-18T08:39:26.634Z</time></trkpt><trkpt lat="41.0360651" lon="16.2071741"><ele>562.5</ele><time>2026-04-18T08:39:27.633Z</time></trkpt><trkpt lat="41.0361597" lon="16.2073211"><ele>561.25</ele><time>2026-04-18T08:39:28.635Z</time></trkpt><trkpt lat="41.0362481" lon="16.2074731"><ele>560.0</ele><time>2026-04-18T08:39:29.634Z</time></trkpt><trkpt lat="41.0363299" lon="16.2076325"><ele>557.6666666666666</ele><time>2026-04-18T08:39:30.633Z</time></trkpt><trkpt lat="41.0364091" lon="16.2077984"><ele>555.3333333333334</ele><time>2026-04-18T08:39:31.633Z</time></trkpt><trkpt lat="41.0364895" lon="16.2079743"><ele>553.0</ele><time>2026-04-18T08:39:32.635Z</time></trkpt><trkpt lat="41.0365703" lon="16.2081614"><ele>551.6666666666667</ele><time>2026-04-18T08:39:33.633Z</time></trkpt><trkpt lat="41.0366506" lon="16.2083571"><ele>550.3333333333334</ele><time>2026-04-18T08:39:34.634Z</time></trkpt><trkpt lat="41.0367277" lon="16.208558"><ele>549.0</ele><time>2026-04-18T08:39:35.634Z</time></trkpt><trkpt lat="41.0368015" lon="16.2087577"><ele>549.0</ele><time>2026-04-18T08:39:36.633Z</time></trkpt><trkpt lat="41.0368743" lon="16.2089533"><ele>549.0</ele><time>2026-04-18T08:39:37.634Z</time></trkpt><trkpt lat="41.03695" lon="16.2091486"><ele>549.0</ele><time>2026-04-18T08:39:38.634Z</time></trkpt><trkpt lat="41.0370284" lon="16.2093476"><ele>548.0</ele><time>2026-04-18T08:39:39.633Z</time></trkpt><trkpt lat="41.0371073" lon="16.2095507"><ele>547.0</ele><time>2026-04-18T08:39:40.634Z</time></trkpt><trkpt lat="41.0371856" lon="16.2097502"><ele>546.0</ele><time>2026-04-18T08:39:41.633Z</time></trkpt><trkpt lat="41.0373353" lon="16.2101405"><ele>545.3333333333334</ele><time>2026-04-18T08:39:43.635Z</time></trkpt><trkpt lat="41.0374089" lon="16.2103327"><ele>544.6666666666667</ele><time>2026-04-18T08:39:44.634Z</time></trkpt><trkpt lat="41.0374804" lon="16.2105166"><ele>544.0</ele><time>2026-04-18T08:39:45.633Z</time></trkpt><trkpt lat="41.0375508" lon="16.2106961"><ele>543.0</ele><time>2026-04-18T08:39:46.633Z</time></trkpt><trkpt lat="41.0376205" lon="16.2108697"><ele>542.0</ele><time>2026-04-18T08:39:47.635Z</time></trkpt><trkpt lat="41.0376864" lon="16.2110349"><ele>541.0</ele><time>2026-04-18T08:39:48.633Z</time></trkpt><trkpt lat="41.0377497" lon="16.2111931"><ele>540.0</ele><time>2026-04-18T08:39:49.634Z</time></trkpt><trkpt lat="41.0378124" lon="16.211339"><ele>540.0</ele><time>2026-04-18T08:39:50.635Z</time></trkpt><trkpt lat="41.0378753" lon="16.2114798"><ele>540.0</ele><time>2026-04-18T08:39:51.634Z</time></trkpt><trkpt lat="41.0379386" lon="16.2116179"><ele>540.0</ele><time>2026-04-18T08:39:52.634Z</time></trkpt><trkpt lat="41.0380017" lon="16.2117526"><ele>540.0</ele><time>2026-04-18T08:39:53.635Z</time></trkpt><trkpt lat="41.0380619" lon="16.2118817"><ele>539.6</ele><time>2026-04-18T08:39:54.634Z</time></trkpt><trkpt lat="41.0381187" lon="16.2120036"><ele>539.2</ele><time>2026-04-18T08:39:55.634Z</time></trkpt><trkpt lat="41.0381751" lon="16.2121229"><ele>538.8</ele><time>2026-04-18T08:39:56.639Z</time></trkpt><trkpt lat="41.0382335" lon="16.2122492"><ele>538.4</ele><time>2026-04-18T08:39:57.634Z</time></trkpt><trkpt lat="41.0382976" lon="16.212382"><ele>538.0</ele><time>2026-04-18T08:39:58.634Z</time></trkpt><trkpt lat="41.0383629" lon="16.2125204"><ele>537.75</ele><time>2026-04-18T08:39:59.634Z</time></trkpt><trkpt lat="41.0384298" lon="16.2126662"><ele>537.5</ele><time>2026-04-18T08:40:00.633Z</time></trkpt><trkpt lat="41.0384984" lon="16.2128112"><ele>537.25</ele><time>2026-04-18T08:40:01.634Z</time></trkpt><trkpt lat="41.0385614" lon="16.2129474"><ele>537.0</ele><time>2026-04-18T08:40:02.635Z</time></trkpt><trkpt lat="41.0386224" lon="16.2130803"><ele>537.25</ele><time>2026-04-18T08:40:03.634Z</time></trkpt><trkpt lat="41.0386868" lon="16.2132194"><ele>537.5</ele><time>2026-04-18T08:40:04.634Z</time></trkpt><trkpt lat="41.0387535" lon="16.2133641"><ele>537.75</ele><time>2026-04-18T08:40:05.633Z</time></trkpt><trkpt lat="41.0388219" lon="16.2135123"><ele>538.0</ele><time>2026-04-18T08:40:06.634Z</time></trkpt><trkpt lat="41.0388916" lon="16.2136624"><ele>538.0</ele><time>2026-04-18T08:40:07.635Z</time></trkpt><trkpt lat="41.0389632" lon="16.2138183"><ele>538.0</ele><time>2026-04-18T08:40:08.634Z</time></trkpt><trkpt lat="41.0390395" lon="16.2139828"><ele>538.0</ele><time>2026-04-18T08:40:09.634Z</time></trkpt><trkpt lat="41.0391181" lon="16.2141517"><ele>538.0</ele><time>2026-04-18T08:40:10.633Z</time></trkpt><trkpt lat="41.0391968" lon="16.2143166"><ele>537.5</ele><time>2026-04-18T08:40:11.636Z</time></trkpt><trkpt lat="41.0392738" lon="16.2144734"><ele>537.0</ele><time>2026-04-18T08:40:12.635Z</time></trkpt><trkpt lat="41.0393521" lon="16.2146339"><ele>536.5</ele><time>2026-04-18T08:40:13.633Z</time></trkpt><trkpt lat="41.0394318" lon="16.2148001"><ele>536.0</ele><time>2026-04-18T08:40:14.634Z</time></trkpt><trkpt lat="41.0395108" lon="16.2149674"><ele>536.0</ele><time>2026-04-18T08:40:15.633Z</time></trkpt><trkpt lat="41.0395907" lon="16.2151392"><ele>536.0</ele><time>2026-04-18T08:40:16.634Z</time></trkpt><trkpt lat="41.0396718" lon="16.215316"><ele>536.0</ele><time>2026-04-18T08:40:17.633Z</time></trkpt><trkpt lat="41.0397505" lon="16.2154847"><ele>536.0</ele><time>2026-04-18T08:40:18.633Z</time></trkpt><trkpt lat="41.0398315" lon="16.2156514"><ele>536.0</ele><time>2026-04-18T08:40:19.634Z</time></trkpt><trkpt lat="41.039913" lon="16.215818"><ele>536.0</ele><time>2026-04-18T08:40:20.635Z</time></trkpt><trkpt lat="41.03999" lon="16.2159811"><ele>536.0</ele><time>2026-04-18T08:40:21.634Z</time></trkpt><trkpt lat="41.0400635" lon="16.2161433"><ele>535.75</ele><time>2026-04-18T08:40:22.635Z</time></trkpt><trkpt lat="41.0401392" lon="16.2163064"><ele>535.5</ele><time>2026-04-18T08:40:23.635Z</time></trkpt><trkpt lat="41.0402158" lon="16.2164743"><ele>535.25</ele><time>2026-04-18T08:40:24.634Z</time></trkpt><trkpt lat="41.0402935" lon="16.2166462"><ele>535.0</ele><time>2026-04-18T08:40:25.635Z</time></trkpt><trkpt lat="41.0403693" lon="16.2168144"><ele>536.5</ele><time>2026-04-18T08:40:26.636Z</time></trkpt><trkpt lat="41.0404409" lon="16.2169753"><ele>538.0</ele><time>2026-04-18T08:40:27.634Z</time></trkpt><trkpt lat="41.0405148" lon="16.2171299"><ele>539.5</ele><time>2026-04-18T08:40:28.635Z</time></trkpt><trkpt lat="41.0405891" lon="16.2172792"><ele>541.0</ele><time>2026-04-18T08:40:29.634Z</time></trkpt><trkpt lat="41.0406597" lon="16.2174175"><ele>541.0</ele><time>2026-04-18T08:40:30.633Z</time></trkpt><trkpt lat="41.0407161" lon="16.2175329"><ele>541.0</ele><time>2026-04-18T08:40:31.634Z</time></trkpt><trkpt lat="41.0407596" lon="16.2176241"><ele>541.0</ele><time>2026-04-18T08:40:32.635Z</time></trkpt><trkpt lat="41.0407998" lon="16.217703"><ele>541.0</ele><time>2026-04-18T08:40:33.633Z</time></trkpt><trkpt lat="41.0408647" lon="16.2178155"><ele>541.0</ele><time>2026-04-18T08:40:35.638Z</time></trkpt><trkpt lat="41.0409049" lon="16.2179316"><ele>540.4</ele><time>2026-04-18T08:40:38.635Z</time></trkpt><trkpt lat="41.0409755" lon="16.2180762"><ele>539.8</ele><time>2026-04-18T08:40:40.634Z</time></trkpt><trkpt lat="41.0410265" lon="16.2181654"><ele>539.1999999999999</ele><time>2026-04-18T08:40:41.633Z</time></trkpt><trkpt lat="41.0410876" lon="16.2182623"><ele>538.6</ele><time>2026-04-18T08:40:42.633Z</time></trkpt><trkpt lat="41.0411508" lon="16.2183614"><ele>538.0</ele><time>2026-04-18T08:40:43.634Z</time></trkpt><trkpt lat="41.0412114" lon="16.2184422"><ele>537.8</ele><time>2026-04-18T08:40:44.633Z</time></trkpt><trkpt lat="41.041259" lon="16.2185037"><ele>537.5999999999999</ele><time>2026-04-18T08:40:45.634Z</time></trkpt><trkpt lat="41.0412973" lon="16.2185996"><ele>537.4000000000001</ele><time>2026-04-18T08:40:47.634Z</time></trkpt><trkpt lat="41.0412704" lon="16.2186941"><ele>537.2</ele><time>2026-04-18T08:40:49.634Z</time></trkpt><trkpt lat="41.0411701" lon="16.2188217"><ele>537.0</ele><time>2026-04-18T08:40:51.634Z</time></trkpt><trkpt lat="41.0411069" lon="16.2189073"><ele>537.5</ele><time>2026-04-18T08:40:52.634Z</time></trkpt><trkpt lat="41.0410374" lon="16.219003"><ele>538.0</ele><time>2026-04-18T08:40:53.636Z</time></trkpt><trkpt lat="41.0409616" lon="16.2191111"><ele>538.5</ele><time>2026-04-18T08:40:54.634Z</time></trkpt><trkpt lat="41.0408807" lon="16.2192285"><ele>539.0</ele><time>2026-04-18T08:40:55.636Z</time></trkpt><trkpt lat="41.0407968" lon="16.2193521"><ele>539.25</ele><time>2026-04-18T08:40:56.635Z</time></trkpt><trkpt lat="41.0407101" lon="16.2194777"><ele>539.5</ele><time>2026-04-18T08:40:57.633Z</time></trkpt><trkpt lat="41.040623" lon="16.2196018"><ele>539.75</ele><time>2026-04-18T08:40:58.634Z</time></trkpt><trkpt lat="41.040537" lon="16.2197281"><ele>540.0</ele><time>2026-04-18T08:40:59.633Z</time></trkpt><trkpt lat="41.0404474" lon="16.219858"><ele>540.0</ele><time>2026-04-18T08:41:00.633Z</time></trkpt><trkpt lat="41.0403529" lon="16.2199916"><ele>540.0</ele><time>2026-04-18T08:41:01.636Z</time></trkpt><trkpt lat="41.0402504" lon="16.2201296"><ele>540.0</ele><time>2026-04-18T08:41:02.633Z</time></trkpt><trkpt lat="41.0401387" lon="16.2202687"><ele>540.0</ele><time>2026-04-18T08:41:03.633Z</time></trkpt><trkpt lat="41.0400172" lon="16.220406"><ele>540.0</ele><time>2026-04-18T08:41:04.633Z</time></trkpt><trkpt lat="41.0398917" lon="16.2205382"><ele>540.0</ele><time>2026-04-18T08:41:05.636Z</time></trkpt><trkpt lat="41.0397646" lon="16.2206633"><ele>540.0</ele><time>2026-04-18T08:41:06.634Z</time></trkpt><trkpt lat="41.0396343" lon="16.2207847"><ele>540.3333333333334</ele><time>2026-04-18T08:41:07.633Z</time></trkpt><trkpt lat="41.0395008" lon="16.220906"><ele>540.6666666666667</ele><time>2026-04-18T08:41:08.633Z</time></trkpt><trkpt lat="41.0393628" lon="16.2210279"><ele>541.0</ele><time>2026-04-18T08:41:09.633Z</time></trkpt><trkpt lat="41.0392226" lon="16.2211522"><ele>540.6666666666667</ele><time>2026-04-18T08:41:10.634Z</time></trkpt><trkpt lat="41.0390797" lon="16.2212791"><ele>540.3333333333334</ele><time>2026-04-18T08:41:11.633Z</time></trkpt><trkpt lat="41.0389334" lon="16.2214075"><ele>540.0</ele><time>2026-04-18T08:41:12.633Z</time></trkpt><trkpt lat="41.038786" lon="16.2215359"><ele>541.0</ele><time>2026-04-18T08:41:13.633Z</time></trkpt><trkpt lat="41.0386361" lon="16.2216661"><ele>542.0</ele><time>2026-04-18T08:41:14.633Z</time></trkpt><trkpt lat="41.0384858" lon="16.2217995"><ele>543.0</ele><time>2026-04-18T08:41:15.633Z</time></trkpt><trkpt lat="41.0383354" lon="16.2219358"><ele>543.0</ele><time>2026-04-18T08:41:16.634Z</time></trkpt><trkpt lat="41.0381837" lon="16.2220739"><ele>543.0</ele><time>2026-04-18T08:41:17.634Z</time></trkpt><trkpt lat="41.0380319" lon="16.2222136"><ele>543.0</ele><time>2026-04-18T08:41:18.633Z</time></trkpt><trkpt lat="41.0378789" lon="16.2223536"><ele>543.6666666666666</ele><time>2026-04-18T08:41:19.634Z</time></trkpt><trkpt lat="41.037724" lon="16.222494"><ele>544.3333333333333</ele><time>2026-04-18T08:41:20.637Z</time></trkpt><trkpt lat="41.037569" lon="16.2226341"><ele>545.0</ele><time>2026-04-18T08:41:21.633Z</time></trkpt><trkpt lat="41.0374124" lon="16.2227757"><ele>545.3333333333333</ele><time>2026-04-18T08:41:22.633Z</time></trkpt><trkpt lat="41.0372541" lon="16.222919"><ele>545.6666666666666</ele><time>2026-04-18T08:41:23.634Z</time></trkpt><trkpt lat="41.0370931" lon="16.2230611"><ele>546.0</ele><time>2026-04-18T08:41:24.633Z</time></trkpt><trkpt lat="41.0369282" lon="16.2232067"><ele>546.3333333333334</ele><time>2026-04-18T08:41:25.633Z</time></trkpt><trkpt lat="41.0367557" lon="16.2233628"><ele>546.6666666666667</ele><time>2026-04-18T08:41:26.634Z</time></trkpt><trkpt lat="41.0365747" lon="16.2235268"><ele>547.0</ele><time>2026-04-18T08:41:27.634Z</time></trkpt><trkpt lat="41.0363877" lon="16.2236938"><ele>548.0</ele><time>2026-04-18T08:41:28.634Z</time></trkpt><trkpt lat="41.0361958" lon="16.2238642"><ele>549.0</ele><time>2026-04-18T08:41:29.634Z</time></trkpt><trkpt lat="41.0360003" lon="16.2240379"><ele>551.0</ele><time>2026-04-18T08:41:30.636Z</time></trkpt><trkpt lat="41.0358034" lon="16.2242133"><ele>553.0</ele><time>2026-04-18T08:41:31.633Z</time></trkpt><trkpt lat="41.0356105" lon="16.2243816"><ele>553.0</ele><time>2026-04-18T08:41:32.635Z</time></trkpt><trkpt lat="41.0354303" lon="16.22454"><ele>553.0</ele><time>2026-04-18T08:41:33.634Z</time></trkpt><trkpt lat="41.035257" lon="16.2246946"><ele>553.0</ele><time>2026-04-18T08:41:34.634Z</time></trkpt><trkpt lat="41.0350845" lon="16.2248514"><ele>555.0</ele><time>2026-04-18T08:41:35.634Z</time></trkpt><trkpt lat="41.03491" lon="16.2250108"><ele>557.0</ele><time>2026-04-18T08:41:36.633Z</time></trkpt><trkpt lat="41.0347325" lon="16.2251683"><ele>559.0</ele><time>2026-04-18T08:41:37.634Z</time></trkpt><trkpt lat="41.0345633" lon="16.2253183"><ele>559.0</ele><time>2026-04-18T08:41:38.633Z</time></trkpt><trkpt lat="41.0344017" lon="16.2254667"><ele>559.0</ele><time>2026-04-18T08:41:39.634Z</time></trkpt><trkpt lat="41.0342433" lon="16.2256167"><ele>559.0</ele><time>2026-04-18T08:41:40.634Z</time></trkpt><trkpt lat="41.0340833" lon="16.2257567"><ele>561.3333333333334</ele><time>2026-04-18T08:41:41.634Z</time></trkpt><trkpt lat="41.03393" lon="16.22589"><ele>563.6666666666666</ele><time>2026-04-18T08:41:42.634Z</time></trkpt><trkpt lat="41.03379" lon="16.2260167"><ele>566.0</ele><time>2026-04-18T08:41:43.637Z</time></trkpt><trkpt lat="41.0336583" lon="16.2261383"><ele>566.0</ele><time>2026-04-18T08:41:44.633Z</time></trkpt><trkpt lat="41.0334617" lon="16.22631"><ele>566.0</ele><time>2026-04-18T08:41:46.634Z</time></trkpt><trkpt lat="41.0334033" lon="16.2263583"><ele>566.0</ele><time>2026-04-18T08:41:47.634Z</time></trkpt><trkpt lat="41.03335" lon="16.2264067"><ele>566.0</ele><time>2026-04-18T08:41:48.633Z</time></trkpt><trkpt lat="41.0332917" lon="16.22646"><ele>566.0</ele><time>2026-04-18T08:41:49.634Z</time></trkpt><trkpt lat="41.0332283" lon="16.2265183"><ele>567.0</ele><time>2026-04-18T08:41:50.635Z</time></trkpt><trkpt lat="41.03316" lon="16.226585"><ele>568.0</ele><time>2026-04-18T08:41:51.634Z</time></trkpt><trkpt lat="41.0330833" lon="16.2266533"><ele>569.0</ele><time>2026-04-18T08:41:52.633Z</time></trkpt><trkpt lat="41.0329967" lon="16.22673"><ele>570.0</ele><time>2026-04-18T08:41:53.635Z</time></trkpt><trkpt lat="41.032905" lon="16.2268117"><ele>571.0</ele><time>2026-04-18T08:41:54.633Z</time></trkpt><trkpt lat="41.0328" lon="16.226905"><ele>571.0</ele><time>2026-04-18T08:41:55.634Z</time></trkpt><trkpt lat="41.0326967" lon="16.2270017"><ele>571.0</ele><time>2026-04-18T08:41:56.634Z</time></trkpt><trkpt lat="41.0326" lon="16.22709"><ele>571.0</ele><time>2026-04-18T08:41:57.633Z</time></trkpt><trkpt lat="41.0325083" lon="16.2271717"><ele>571.0</ele><time>2026-04-18T08:41:58.634Z</time></trkpt><trkpt lat="41.0324217" lon="16.2272467"><ele>572.2</ele><time>2026-04-18T08:41:59.634Z</time></trkpt><trkpt lat="41.0323417" lon="16.2273167"><ele>573.4000000000001</ele><time>2026-04-18T08:42:00.633Z</time></trkpt><trkpt lat="41.0322667" lon="16.2273867"><ele>574.6</ele><time>2026-04-18T08:42:01.634Z</time></trkpt><trkpt lat="41.0321917" lon="16.2274583"><ele>575.8000000000001</ele><time>2026-04-18T08:42:02.634Z</time></trkpt><trkpt lat="41.0321067" lon="16.227535"><ele>577.0</ele><time>2026-04-18T08:42:03.634Z</time></trkpt><trkpt lat="41.032015" lon="16.227615"><ele>577.0</ele><time>2026-04-18T08:42:04.638Z</time></trkpt><trkpt lat="41.0319183" lon="16.2277"><ele>577.0</ele><time>2026-04-18T08:42:05.633Z</time></trkpt><trkpt lat="41.0318167" lon="16.2277933"><ele>577.0</ele><time>2026-04-18T08:42:06.635Z</time></trkpt><trkpt lat="41.031715" lon="16.227885"><ele>577.0</ele><time>2026-04-18T08:42:07.634Z</time></trkpt><trkpt lat="41.031625" lon="16.22797"><ele>578.2</ele><time>2026-04-18T08:42:08.634Z</time></trkpt><trkpt lat="41.03154" lon="16.228045"><ele>579.4000000000001</ele><time>2026-04-18T08:42:09.634Z</time></trkpt><trkpt lat="41.0314567" lon="16.228115"><ele>580.5999999999999</ele><time>2026-04-18T08:42:10.633Z</time></trkpt><trkpt lat="41.03138" lon="16.2281817"><ele>581.8</ele><time>2026-04-18T08:42:11.634Z</time></trkpt><trkpt lat="41.03131" lon="16.2282467"><ele>583.0</ele><time>2026-04-18T08:42:12.633Z</time></trkpt><trkpt lat="41.0312417" lon="16.22831"><ele>583.8333333333334</ele><time>2026-04-18T08:42:13.634Z</time></trkpt><trkpt lat="41.031175" lon="16.228375"><ele>584.6666666666667</ele><time>2026-04-18T08:42:14.634Z</time></trkpt><trkpt lat="41.0311067" lon="16.2284383"><ele>585.5</ele><time>2026-04-18T08:42:15.634Z</time></trkpt><trkpt lat="41.031035" lon="16.2285033"><ele>586.3333333333334</ele><time>2026-04-18T08:42:16.636Z</time></trkpt><trkpt lat="41.0309583" lon="16.2285717"><ele>587.1666666666666</ele><time>2026-04-18T08:42:17.633Z</time></trkpt><trkpt lat="41.0308767" lon="16.2286483"><ele>588.0</ele><time>2026-04-18T08:42:18.633Z</time></trkpt><trkpt lat="41.030785" lon="16.2287317"><ele>588.5</ele><time>2026-04-18T08:42:19.633Z</time></trkpt><trkpt lat="41.0306983" lon="16.2288233"><ele>589.0</ele><time>2026-04-18T08:42:20.635Z</time></trkpt><trkpt lat="41.03062" lon="16.228925"><ele>589.5</ele><time>2026-04-18T08:42:21.633Z</time></trkpt><trkpt lat="41.03055" lon="16.229045"><ele>590.0</ele><time>2026-04-18T08:42:22.636Z</time></trkpt><trkpt lat="41.0304783" lon="16.22918"><ele>590.25</ele><time>2026-04-18T08:42:23.633Z</time></trkpt><trkpt lat="41.0303967" lon="16.2293267"><ele>590.5</ele><time>2026-04-18T08:42:24.634Z</time></trkpt><trkpt lat="41.0303067" lon="16.2294833"><ele>590.75</ele><time>2026-04-18T08:42:25.633Z</time></trkpt><trkpt lat="41.0302133" lon="16.2296467"><ele>591.0</ele><time>2026-04-18T08:42:26.633Z</time></trkpt><trkpt lat="41.0301167" lon="16.2298133"><ele>591.0</ele><time>2026-04-18T08:42:27.633Z</time></trkpt><trkpt lat="41.0300233" lon="16.2299783"><ele>591.0</ele><time>2026-04-18T08:42:28.634Z</time></trkpt><trkpt lat="41.0299267" lon="16.2301433"><ele>591.0</ele><time>2026-04-18T08:42:29.633Z</time></trkpt><trkpt lat="41.0298283" lon="16.2303083"><ele>590.75</ele><time>2026-04-18T08:42:30.633Z</time></trkpt><trkpt lat="41.0297333" lon="16.2304733"><ele>590.5</ele><time>2026-04-18T08:42:31.635Z</time></trkpt><trkpt lat="41.029645" lon="16.2306283"><ele>590.25</ele><time>2026-04-18T08:42:32.635Z</time></trkpt><trkpt lat="41.029565" lon="16.2307717"><ele>590.0</ele><time>2026-04-18T08:42:33.633Z</time></trkpt><trkpt lat="41.0294917" lon="16.2309033"><ele>590.0</ele><time>2026-04-18T08:42:34.635Z</time></trkpt><trkpt lat="41.0293433" lon="16.23117"><ele>590.0</ele><time>2026-04-18T08:42:36.633Z</time></trkpt><trkpt lat="41.0292583" lon="16.231315"><ele>590.0</ele><time>2026-04-18T08:42:37.633Z</time></trkpt><trkpt lat="41.0291683" lon="16.23147"><ele>590.0</ele><time>2026-04-18T08:42:38.634Z</time></trkpt><trkpt lat="41.0290783" lon="16.23163"><ele>590.0</ele><time>2026-04-18T08:42:39.633Z</time></trkpt><trkpt lat="41.028985" lon="16.2317933"><ele>590.0</ele><time>2026-04-18T08:42:40.633Z</time></trkpt><trkpt lat="41.02889" lon="16.2319617"><ele>590.0</ele><time>2026-04-18T08:42:41.633Z</time></trkpt><trkpt lat="41.0287917" lon="16.2321333"><ele>590.0</ele><time>2026-04-18T08:42:42.633Z</time></trkpt><trkpt lat="41.02869" lon="16.2323117"><ele>590.0</ele><time>2026-04-18T08:42:43.634Z</time></trkpt><trkpt lat="41.02859" lon="16.2324917"><ele>589.6666666666666</ele><time>2026-04-18T08:42:44.634Z</time></trkpt><trkpt lat="41.028485" lon="16.2326767"><ele>589.3333333333334</ele><time>2026-04-18T08:42:45.633Z</time></trkpt><trkpt lat="41.0283767" lon="16.2328617"><ele>589.0</ele><time>2026-04-18T08:42:46.633Z</time></trkpt><trkpt lat="41.0282733" lon="16.2330417"><ele>588.75</ele><time>2026-04-18T08:42:47.635Z</time></trkpt><trkpt lat="41.028175" lon="16.2332133"><ele>588.5</ele><time>2026-04-18T08:42:48.635Z</time></trkpt><trkpt lat="41.0280883" lon="16.233365"><ele>588.25</ele><time>2026-04-18T08:42:49.633Z</time></trkpt><trkpt lat="41.0280083" lon="16.2334983"><ele>588.0</ele><time>2026-04-18T08:42:50.633Z</time></trkpt><trkpt lat="41.0279317" lon="16.23363"><ele>588.0</ele><time>2026-04-18T08:42:51.639Z</time></trkpt><trkpt lat="41.0278567" lon="16.2337667"><ele>588.0</ele><time>2026-04-18T08:42:52.633Z</time></trkpt><trkpt lat="41.0277817" lon="16.23391"><ele>588.0</ele><time>2026-04-18T08:42:53.633Z</time></trkpt><trkpt lat="41.027705" lon="16.23405"><ele>588.0</ele><time>2026-04-18T08:42:54.633Z</time></trkpt><trkpt lat="41.0276233" lon="16.234185"><ele>587.75</ele><time>2026-04-18T08:42:55.633Z</time></trkpt><trkpt lat="41.027545" lon="16.234315"><ele>587.5</ele><time>2026-04-18T08:42:56.634Z</time></trkpt><trkpt lat="41.0274717" lon="16.2344383"><ele>587.25</ele><time>2026-04-18T08:42:57.633Z</time></trkpt><trkpt lat="41.0274033" lon="16.23456"><ele>587.0</ele><time>2026-04-18T08:42:58.633Z</time></trkpt><trkpt lat="41.02733" lon="16.2346883"><ele>587.25</ele><time>2026-04-18T08:42:59.634Z</time></trkpt><trkpt lat="41.0272483" lon="16.2348233"><ele>587.5</ele><time>2026-04-18T08:43:00.635Z</time></trkpt><trkpt lat="41.0271617" lon="16.2349683"><ele>587.75</ele><time>2026-04-18T08:43:01.633Z</time></trkpt><trkpt lat="41.0270767" lon="16.2351133"><ele>588.0</ele><time>2026-04-18T08:43:02.64Z</time></trkpt><trkpt lat="41.026995" lon="16.2352583"><ele>588.0</ele><time>2026-04-18T08:43:03.633Z</time></trkpt><trkpt lat="41.0269167" lon="16.2353967"><ele>588.0</ele><time>2026-04-18T08:43:04.634Z</time></trkpt><trkpt lat="41.0268467" lon="16.2355183"><ele>588.0</ele><time>2026-04-18T08:43:05.633Z</time></trkpt><trkpt lat="41.0267883" lon="16.2356233"><ele>588.0</ele><time>2026-04-18T08:43:06.633Z</time></trkpt><trkpt lat="41.0267433" lon="16.235715"><ele>588.0</ele><time>2026-04-18T08:43:07.634Z</time></trkpt><trkpt lat="41.026705" lon="16.23579"><ele>588.0</ele><time>2026-04-18T08:43:08.634Z</time></trkpt><trkpt lat="41.0266667" lon="16.2358567"><ele>588.0</ele><time>2026-04-18T08:43:09.633Z</time></trkpt><trkpt lat="41.0266017" lon="16.2359667"><ele>588.0</ele><time>2026-04-18T08:43:11.633Z</time></trkpt><trkpt lat="41.0265417" lon="16.2360467"><ele>588.0</ele><time>2026-04-18T08:43:13.634Z</time></trkpt><trkpt lat="41.0264733" lon="16.236195"><ele>588.0</ele><time>2026-04-18T08:43:15.633Z</time></trkpt><trkpt lat="41.0264183" lon="16.2362917"><ele>588.0</ele><time>2026-04-18T08:43:16.633Z</time></trkpt><trkpt lat="41.0263533" lon="16.23639"><ele>588.0</ele><time>2026-04-18T08:43:17.635Z</time></trkpt><trkpt lat="41.026285" lon="16.2364833"><ele>588.0</ele><time>2026-04-18T08:43:18.633Z</time></trkpt><trkpt lat="41.0262167" lon="16.2365567"><ele>588.0</ele><time>2026-04-18T08:43:19.634Z</time></trkpt><trkpt lat="41.0261383" lon="16.23661"><ele>588.0</ele><time>2026-04-18T08:43:20.634Z</time></trkpt><trkpt lat="41.0260433" lon="16.2366567"><ele>587.75</ele><time>2026-04-18T08:43:21.633Z</time></trkpt><trkpt lat="41.0259333" lon="16.2367083"><ele>587.5</ele><time>2026-04-18T08:43:22.634Z</time></trkpt><trkpt lat="41.0258133" lon="16.2367633"><ele>587.25</ele><time>2026-04-18T08:43:23.633Z</time></trkpt><trkpt lat="41.02569" lon="16.2368217"><ele>587.0</ele><time>2026-04-18T08:43:24.634Z</time></trkpt><trkpt lat="41.025565" lon="16.23688"><ele>588.0</ele><time>2026-04-18T08:43:25.633Z</time></trkpt><trkpt lat="41.0254483" lon="16.2369317"><ele>589.0</ele><time>2026-04-18T08:43:26.635Z</time></trkpt><trkpt lat="41.025345" lon="16.2369817"><ele>590.0</ele><time>2026-04-18T08:43:27.633Z</time></trkpt><trkpt lat="41.0252433" lon="16.2370433"><ele>591.0</ele><time>2026-04-18T08:43:28.633Z</time></trkpt><trkpt lat="41.02515" lon="16.2371233"><ele>591.0</ele><time>2026-04-18T08:43:29.633Z</time></trkpt><trkpt lat="41.02507" lon="16.237225"><ele>591.0</ele><time>2026-04-18T08:43:30.634Z</time></trkpt><trkpt lat="41.0249967" lon="16.2373433"><ele>591.0</ele><time>2026-04-18T08:43:31.634Z</time></trkpt><trkpt lat="41.0249217" lon="16.23747"><ele>591.0</ele><time>2026-04-18T08:43:32.634Z</time></trkpt><trkpt lat="41.024845" lon="16.2376033"><ele>591.25</ele><time>2026-04-18T08:43:33.634Z</time></trkpt><trkpt lat="41.0247633" lon="16.23774"><ele>591.5</ele><time>2026-04-18T08:43:34.633Z</time></trkpt><trkpt lat="41.0246783" lon="16.23788"><ele>591.75</ele><time>2026-04-18T08:43:35.636Z</time></trkpt><trkpt lat="41.0245883" lon="16.2380267"><ele>592.0</ele><time>2026-04-18T08:43:36.633Z</time></trkpt><trkpt lat="41.0244967" lon="16.2381817"><ele>592.3333333333334</ele><time>2026-04-18T08:43:37.633Z</time></trkpt><trkpt lat="41.0244017" lon="16.238345"><ele>592.6666666666666</ele><time>2026-04-18T08:43:38.633Z</time></trkpt><trkpt lat="41.0243033" lon="16.2385117"><ele>593.0</ele><time>2026-04-18T08:43:39.633Z</time></trkpt><trkpt lat="41.0242033" lon="16.23868"><ele>594.0</ele><time>2026-04-18T08:43:40.633Z</time></trkpt><trkpt lat="41.024105" lon="16.2388467"><ele>595.0</ele><time>2026-04-18T08:43:41.636Z</time></trkpt><trkpt lat="41.02401" lon="16.2390083"><ele>596.0</ele><time>2026-04-18T08:43:42.634Z</time></trkpt><trkpt lat="41.023915" lon="16.2391683"><ele>596.0</ele><time>2026-04-18T08:43:43.633Z</time></trkpt><trkpt lat="41.0238183" lon="16.2393317"><ele>596.0</ele><time>2026-04-18T08:43:44.634Z</time></trkpt><trkpt lat="41.0237167" lon="16.2394983"><ele>596.0</ele><time>2026-04-18T08:43:45.633Z</time></trkpt><trkpt lat="41.0236167" lon="16.239665"><ele>596.3333333333333</ele><time>2026-04-18T08:43:46.633Z</time></trkpt><trkpt lat="41.023515" lon="16.2398367"><ele>596.6666666666666</ele><time>2026-04-18T08:43:47.633Z</time></trkpt><trkpt lat="41.02341" lon="16.24001"><ele>597.0</ele><time>2026-04-18T08:43:48.633Z</time></trkpt><trkpt lat="41.023305" lon="16.2401833"><ele>597.6666666666666</ele><time>2026-04-18T08:43:49.633Z</time></trkpt><trkpt lat="41.0232" lon="16.2403583"><ele>598.3333333333333</ele><time>2026-04-18T08:43:50.634Z</time></trkpt><trkpt lat="41.0230933" lon="16.24053"><ele>599.0</ele><time>2026-04-18T08:43:51.634Z</time></trkpt><trkpt lat="41.0229867" lon="16.2407067"><ele>599.0</ele><time>2026-04-18T08:43:52.633Z</time></trkpt><trkpt lat="41.02288" lon="16.240885"><ele>599.0</ele><time>2026-04-18T08:43:53.634Z</time></trkpt><trkpt lat="41.0227733" lon="16.2410617"><ele>599.0</ele><time>2026-04-18T08:43:54.633Z</time></trkpt><trkpt lat="41.0226717" lon="16.2412283"><ele>599.0</ele><time>2026-04-18T08:43:55.633Z</time></trkpt><trkpt lat="41.0225783" lon="16.241385"><ele>599.0</ele><time>2026-04-18T08:43:56.634Z</time></trkpt><trkpt lat="41.0224867" lon="16.2415367"><ele>599.0</ele><time>2026-04-18T08:43:57.633Z</time></trkpt><trkpt lat="41.0223983" lon="16.241685"><ele>599.0</ele><time>2026-04-18T08:43:58.633Z</time></trkpt><trkpt lat="41.0223167" lon="16.24182"><ele>599.6</ele><time>2026-04-18T08:43:59.635Z</time></trkpt><trkpt lat="41.0222417" lon="16.24195"><ele>600.2</ele><time>2026-04-18T08:44:00.634Z</time></trkpt><trkpt lat="41.02217" lon="16.2420717"><ele>600.8000000000001</ele><time>2026-04-18T08:44:01.634Z</time></trkpt><trkpt lat="41.022105" lon="16.2421733"><ele>601.4</ele><time>2026-04-18T08:44:02.633Z</time></trkpt><trkpt lat="41.0220433" lon="16.2422433"><ele>602.0</ele><time>2026-04-18T08:44:03.633Z</time></trkpt><trkpt lat="41.021975" lon="16.2422933"><ele>602.0</ele><time>2026-04-18T08:44:04.633Z</time></trkpt><trkpt lat="41.0218967" lon="16.2423283"><ele>602.0</ele><time>2026-04-18T08:44:05.634Z</time></trkpt><trkpt lat="41.0217983" lon="16.2423533"><ele>602.0</ele><time>2026-04-18T08:44:06.633Z</time></trkpt><trkpt lat="41.0216833" lon="16.24237"><ele>602.0</ele><time>2026-04-18T08:44:07.633Z</time></trkpt><trkpt lat="41.0215567" lon="16.2423933"><ele>602.0</ele><time>2026-04-18T08:44:08.634Z</time></trkpt><trkpt lat="41.021425" lon="16.2424267"><ele>602.0</ele><time>2026-04-18T08:44:09.636Z</time></trkpt><trkpt lat="41.021285" lon="16.2424633"><ele>602.0</ele><time>2026-04-18T08:44:10.633Z</time></trkpt><trkpt lat="41.0211367" lon="16.2424983"><ele>602.0</ele><time>2026-04-18T08:44:11.634Z</time></trkpt><trkpt lat="41.0209817" lon="16.2425333"><ele>602.0</ele><time>2026-04-18T08:44:12.633Z</time></trkpt><trkpt lat="41.0208233" lon="16.2425733"><ele>602.0</ele><time>2026-04-18T08:44:13.633Z</time></trkpt><trkpt lat="41.020665" lon="16.2426117"><ele>602.0</ele><time>2026-04-18T08:44:14.635Z</time></trkpt><trkpt lat="41.020505" lon="16.2426467"><ele>604.0</ele><time>2026-04-18T08:44:15.633Z</time></trkpt><trkpt lat="41.0203483" lon="16.2426817"><ele>606.0</ele><time>2026-04-18T08:44:16.633Z</time></trkpt><trkpt lat="41.0201917" lon="16.242715"><ele>608.0</ele><time>2026-04-18T08:44:17.633Z</time></trkpt><trkpt lat="41.0200367" lon="16.24275"><ele>608.6666666666666</ele><time>2026-04-18T08:44:18.635Z</time></trkpt><trkpt lat="41.0198817" lon="16.2427867"><ele>609.3333333333334</ele><time>2026-04-18T08:44:19.635Z</time></trkpt><trkpt lat="41.0197283" lon="16.2428217"><ele>610.0</ele><time>2026-04-18T08:44:20.634Z</time></trkpt><trkpt lat="41.0195717" lon="16.2428567"><ele>610.0</ele><time>2026-04-18T08:44:21.633Z</time></trkpt><trkpt lat="41.0194183" lon="16.2428967"><ele>610.0</ele><time>2026-04-18T08:44:22.633Z</time></trkpt><trkpt lat="41.0192717" lon="16.2429317"><ele>610.0</ele><time>2026-04-18T08:44:23.633Z</time></trkpt><trkpt lat="41.0191367" lon="16.24295"><ele>610.0</ele><time>2026-04-18T08:44:24.633Z</time></trkpt><trkpt lat="41.019005" lon="16.2429483"><ele>609.25</ele><time>2026-04-18T08:44:25.633Z</time></trkpt><trkpt lat="41.0188683" lon="16.242925"><ele>608.5</ele><time>2026-04-18T08:44:26.635Z</time></trkpt><trkpt lat="41.0187267" lon="16.24289"><ele>607.75</ele><time>2026-04-18T08:44:27.633Z</time></trkpt><trkpt lat="41.0185767" lon="16.2428483"><ele>607.0</ele><time>2026-04-18T08:44:28.643Z</time></trkpt><trkpt lat="41.0184183" lon="16.2428033"><ele>607.0</ele><time>2026-04-18T08:44:29.634Z</time></trkpt><trkpt lat="41.018255" lon="16.2427567"><ele>607.0</ele><time>2026-04-18T08:44:30.635Z</time></trkpt><trkpt lat="41.018085" lon="16.2427117"><ele>607.0</ele><time>2026-04-18T08:44:31.633Z</time></trkpt><trkpt lat="41.01792" lon="16.24267"><ele>607.0</ele><time>2026-04-18T08:44:32.635Z</time></trkpt><trkpt lat="41.0177617" lon="16.2426283"><ele>607.0</ele><time>2026-04-18T08:44:33.633Z</time></trkpt><trkpt lat="41.0176067" lon="16.2425883"><ele>607.0</ele><time>2026-04-18T08:44:34.633Z</time></trkpt><trkpt lat="41.0174467" lon="16.2425467"><ele>607.5</ele><time>2026-04-18T08:44:35.633Z</time></trkpt><trkpt lat="41.0171083" lon="16.24246"><ele>608.0</ele><time>2026-04-18T08:44:37.634Z</time></trkpt><trkpt lat="41.0169283" lon="16.2424117"><ele>608.0</ele><time>2026-04-18T08:44:38.635Z</time></trkpt><trkpt lat="41.01675" lon="16.2423617"><ele>608.0</ele><time>2026-04-18T08:44:39.633Z</time></trkpt><trkpt lat="41.0165733" lon="16.2423167"><ele>608.0</ele><time>2026-04-18T08:44:40.633Z</time></trkpt><trkpt lat="41.0163983" lon="16.2422717"><ele>608.3333333333333</ele><time>2026-04-18T08:44:41.633Z</time></trkpt><trkpt lat="41.0162233" lon="16.242225"><ele>608.6666666666666</ele><time>2026-04-18T08:44:42.633Z</time></trkpt><trkpt lat="41.0160567" lon="16.2421817"><ele>609.0</ele><time>2026-04-18T08:44:43.635Z</time></trkpt><trkpt lat="41.0159" lon="16.2421433"><ele>608.8</ele><time>2026-04-18T08:44:44.634Z</time></trkpt><trkpt lat="41.0157683" lon="16.2421083"><ele>608.5999999999999</ele><time>2026-04-18T08:44:45.633Z</time></trkpt><trkpt lat="41.0156717" lon="16.2420833"><ele>608.4</ele><time>2026-04-18T08:44:46.634Z</time></trkpt><trkpt lat="41.0155967" lon="16.2420633"><ele>608.1999999999999</ele><time>2026-04-18T08:44:47.633Z</time></trkpt><trkpt lat="41.0154833" lon="16.24202"><ele>608.0</ele><time>2026-04-18T08:44:49.635Z</time></trkpt><trkpt lat="41.0153767" lon="16.24201"><ele>608.0</ele><time>2026-04-18T08:44:51.633Z</time></trkpt><trkpt lat="41.01525" lon="16.2420233"><ele>608.0</ele><time>2026-04-18T08:44:53.635Z</time></trkpt><trkpt lat="41.01516" lon="16.2420317"><ele>608.0</ele><time>2026-04-18T08:44:54.634Z</time></trkpt><trkpt lat="41.015055" lon="16.2420383"><ele>608.0</ele><time>2026-04-18T08:44:55.633Z</time></trkpt><trkpt lat="41.0149417" lon="16.2420417"><ele>608.0</ele><time>2026-04-18T08:44:56.635Z</time></trkpt><trkpt lat="41.0148167" lon="16.242045"><ele>608.25</ele><time>2026-04-18T08:44:57.633Z</time></trkpt><trkpt lat="41.0146833" lon="16.24205"><ele>608.5</ele><time>2026-04-18T08:44:58.633Z</time></trkpt><trkpt lat="41.01454" lon="16.2420567"><ele>608.75</ele><time>2026-04-18T08:44:59.634Z</time></trkpt><trkpt lat="41.0143883" lon="16.2420617"><ele>609.0</ele><time>2026-04-18T08:45:00.634Z</time></trkpt><trkpt lat="41.0142333" lon="16.2420683"><ele>609.25</ele><time>2026-04-18T08:45:01.634Z</time></trkpt><trkpt lat="41.0140783" lon="16.2420767"><ele>609.5</ele><time>2026-04-18T08:45:02.633Z</time></trkpt><trkpt lat="41.01393" lon="16.2420833"><ele>609.75</ele><time>2026-04-18T08:45:03.633Z</time></trkpt><trkpt lat="41.0137867" lon="16.24209"><ele>610.0</ele><time>2026-04-18T08:45:04.635Z</time></trkpt><trkpt lat="41.0136483" lon="16.242095"><ele>610.0</ele><time>2026-04-18T08:45:05.633Z</time></trkpt><trkpt lat="41.013515" lon="16.2421"><ele>610.0</ele><time>2026-04-18T08:45:06.634Z</time></trkpt><trkpt lat="41.013395" lon="16.2421117"><ele>610.0</ele><time>2026-04-18T08:45:07.634Z</time></trkpt><trkpt lat="41.013295" lon="16.24214"><ele>610.0</ele><time>2026-04-18T08:45:08.634Z</time></trkpt><trkpt lat="41.0132133" lon="16.2421933"><ele>610.0</ele><time>2026-04-18T08:45:09.633Z</time></trkpt><trkpt lat="41.0131417" lon="16.24227"><ele>610.4</ele><time>2026-04-18T08:45:10.634Z</time></trkpt><trkpt lat="41.0130733" lon="16.2423667"><ele>610.8</ele><time>2026-04-18T08:45:11.633Z</time></trkpt><trkpt lat="41.0130067" lon="16.242475"><ele>611.2</ele><time>2026-04-18T08:45:12.634Z</time></trkpt><trkpt lat="41.0129333" lon="16.2425883"><ele>611.6</ele><time>2026-04-18T08:45:13.634Z</time></trkpt><trkpt lat="41.012855" lon="16.2427083"><ele>612.0</ele><time>2026-04-18T08:45:14.633Z</time></trkpt><trkpt lat="41.01277" lon="16.2428367"><ele>612.0</ele><time>2026-04-18T08:45:15.633Z</time></trkpt><trkpt lat="41.01268" lon="16.2429783"><ele>612.0</ele><time>2026-04-18T08:45:16.633Z</time></trkpt><trkpt lat="41.012585" lon="16.243125"><ele>612.0</ele><time>2026-04-18T08:45:17.633Z</time></trkpt><trkpt lat="41.012485" lon="16.2432783"><ele>612.0</ele><time>2026-04-18T08:45:18.636Z</time></trkpt><trkpt lat="41.0123833" lon="16.2434333"><ele>612.3333333333334</ele><time>2026-04-18T08:45:19.633Z</time></trkpt><trkpt lat="41.0122767" lon="16.2435983"><ele>612.6666666666667</ele><time>2026-04-18T08:45:20.633Z</time></trkpt><trkpt lat="41.012165" lon="16.2437683"><ele>613.0</ele><time>2026-04-18T08:45:21.633Z</time></trkpt><trkpt lat="41.0120533" lon="16.243945"><ele>613.6666666666667</ele><time>2026-04-18T08:45:22.633Z</time></trkpt><trkpt lat="41.0119467" lon="16.2441183"><ele>614.3333333333334</ele><time>2026-04-18T08:45:23.634Z</time></trkpt><trkpt lat="41.0118467" lon="16.2442733"><ele>615.0</ele><time>2026-04-18T08:45:24.633Z</time></trkpt><trkpt lat="41.0117617" lon="16.2444067"><ele>615.0</ele><time>2026-04-18T08:45:25.633Z</time></trkpt><trkpt lat="41.0116933" lon="16.244515"><ele>615.0</ele><time>2026-04-18T08:45:26.634Z</time></trkpt><trkpt lat="41.0116267" lon="16.2445967"><ele>615.0</ele><time>2026-04-18T08:45:27.633Z</time></trkpt><trkpt lat="41.0115533" lon="16.2446533"><ele>615.0</ele><time>2026-04-18T08:45:28.636Z</time></trkpt><trkpt lat="41.0114767" lon="16.2446783"><ele>615.0</ele><time>2026-04-18T08:45:29.634Z</time></trkpt><trkpt lat="41.0113883" lon="16.2446783"><ele>614.5</ele><time>2026-04-18T08:45:30.633Z</time></trkpt><trkpt lat="41.0112867" lon="16.2446667"><ele>614.0</ele><time>2026-04-18T08:45:31.633Z</time></trkpt><trkpt lat="41.0111767" lon="16.24465"><ele>613.5</ele><time>2026-04-18T08:45:32.634Z</time></trkpt><trkpt lat="41.01106" lon="16.2446267"><ele>613.0</ele><time>2026-04-18T08:45:33.637Z</time></trkpt><trkpt lat="41.0109317" lon="16.2446033"><ele>613.6666666666667</ele><time>2026-04-18T08:45:34.634Z</time></trkpt><trkpt lat="41.01079" lon="16.2445783"><ele>614.3333333333334</ele><time>2026-04-18T08:45:35.633Z</time></trkpt><trkpt lat="41.0106367" lon="16.24455"><ele>615.0</ele><time>2026-04-18T08:45:36.634Z</time></trkpt><trkpt lat="41.0104767" lon="16.2445217"><ele>615.0</ele><time>2026-04-18T08:45:37.634Z</time></trkpt><trkpt lat="41.0103067" lon="16.2444933"><ele>615.0</ele><time>2026-04-18T08:45:38.634Z</time></trkpt><trkpt lat="41.010135" lon="16.244465"><ele>615.0</ele><time>2026-04-18T08:45:39.633Z</time></trkpt><trkpt lat="41.009965" lon="16.244435"><ele>615.3333333333334</ele><time>2026-04-18T08:45:40.633Z</time></trkpt><trkpt lat="41.0098033" lon="16.2444067"><ele>615.6666666666667</ele><time>2026-04-18T08:45:41.633Z</time></trkpt><trkpt lat="41.0096517" lon="16.2443817"><ele>616.0</ele><time>2026-04-18T08:45:42.634Z</time></trkpt><trkpt lat="41.0095033" lon="16.244355"><ele>616.0</ele><time>2026-04-18T08:45:43.634Z</time></trkpt><trkpt lat="41.0093633" lon="16.2443333"><ele>616.0</ele><time>2026-04-18T08:45:44.635Z</time></trkpt><trkpt lat="41.0092283" lon="16.24431"><ele>616.0</ele><time>2026-04-18T08:45:45.635Z</time></trkpt><trkpt lat="41.0091" lon="16.2442883"><ele>616.0</ele><time>2026-04-18T08:45:46.636Z</time></trkpt><trkpt lat="41.00898" lon="16.2442667"><ele>616.0</ele><time>2026-04-18T08:45:47.635Z</time></trkpt><trkpt lat="41.00887" lon="16.2442467"><ele>616.0</ele><time>2026-04-18T08:45:48.634Z</time></trkpt><trkpt lat="41.0087667" lon="16.2442283"><ele>616.0</ele><time>2026-04-18T08:45:49.633Z</time></trkpt><trkpt lat="41.008665" lon="16.24421"><ele>616.0</ele><time>2026-04-18T08:45:50.633Z</time></trkpt><trkpt lat="41.008575" lon="16.2441933"><ele>616.0</ele><time>2026-04-18T08:45:51.634Z</time></trkpt><trkpt lat="41.0084983" lon="16.24418"><ele>616.0</ele><time>2026-04-18T08:45:52.635Z</time></trkpt><trkpt lat="41.0084283" lon="16.24417"><ele>616.0</ele><time>2026-04-18T08:45:53.633Z</time></trkpt><trkpt lat="41.0083267" lon="16.244175"><ele>616.0</ele><time>2026-04-18T08:45:55.634Z</time></trkpt><trkpt lat="41.0082417" lon="16.24422"><ele>616.0</ele><time>2026-04-18T08:45:57.634Z</time></trkpt><trkpt lat="41.0081733" lon="16.2442917"><ele>616.0</ele><time>2026-04-18T08:45:59.633Z</time></trkpt><trkpt lat="41.0081217" lon="16.2443867"><ele>616.0</ele><time>2026-04-18T08:46:01.634Z</time></trkpt><trkpt lat="41.0080867" lon="16.244515"><ele>616.0</ele><time>2026-04-18T08:46:03.633Z</time></trkpt><trkpt lat="41.0080733" lon="16.2445983"><ele>616.0</ele><time>2026-04-18T08:46:04.634Z</time></trkpt><trkpt lat="41.0080467" lon="16.2447517"><ele>616.0</ele><time>2026-04-18T08:46:06.633Z</time></trkpt><trkpt lat="41.0080183" lon="16.2448833"><ele>616.0</ele><time>2026-04-18T08:46:08.636Z</time></trkpt><trkpt lat="41.008" lon="16.2449917"><ele>616.0</ele><time>2026-04-18T08:46:10.633Z</time></trkpt><trkpt lat="41.007975" lon="16.2451033"><ele>616.3333333333334</ele><time>2026-04-18T08:46:12.634Z</time></trkpt><trkpt lat="41.007925" lon="16.2452633"><ele>616.6666666666667</ele><time>2026-04-18T08:46:14.643Z</time></trkpt><trkpt lat="41.0079067" lon="16.2453583"><ele>617.0</ele><time>2026-04-18T08:46:15.633Z</time></trkpt><trkpt lat="41.0078867" lon="16.2454583"><ele>617.3333333333334</ele><time>2026-04-18T08:46:16.635Z</time></trkpt><trkpt lat="41.0078667" lon="16.2455633"><ele>617.6666666666666</ele><time>2026-04-18T08:46:17.637Z</time></trkpt><trkpt lat="41.0078483" lon="16.2456717"><ele>618.0</ele><time>2026-04-18T08:46:18.633Z</time></trkpt><trkpt lat="41.0078267" lon="16.245785"><ele>618.6666666666666</ele><time>2026-04-18T08:46:19.633Z</time></trkpt><trkpt lat="41.0077983" lon="16.2459"><ele>619.3333333333334</ele><time>2026-04-18T08:46:20.633Z</time></trkpt><trkpt lat="41.00777" lon="16.2460183"><ele>620.0</ele><time>2026-04-18T08:46:21.633Z</time></trkpt><trkpt lat="41.007745" lon="16.2461317"><ele>620.6666666666667</ele><time>2026-04-18T08:46:22.635Z</time></trkpt><trkpt lat="41.0077267" lon="16.2462317"><ele>621.3333333333334</ele><time>2026-04-18T08:46:23.633Z</time></trkpt><trkpt lat="41.0077117" lon="16.2463217"><ele>622.0</ele><time>2026-04-18T08:46:24.633Z</time></trkpt><trkpt lat="41.0077" lon="16.2464083"><ele>622.5</ele><time>2026-04-18T08:46:25.633Z</time></trkpt><trkpt lat="41.0076883" lon="16.2464917"><ele>623.0</ele><time>2026-04-18T08:46:26.635Z</time></trkpt><trkpt lat="41.007675" lon="16.2465767"><ele>623.5</ele><time>2026-04-18T08:46:27.634Z</time></trkpt><trkpt lat="41.0076367" lon="16.2467133"><ele>624.0</ele><time>2026-04-18T08:46:29.633Z</time></trkpt><trkpt lat="41.0076033" lon="16.2468733"><ele>624.5</ele><time>2026-04-18T08:46:31.633Z</time></trkpt><trkpt lat="41.007585" lon="16.2469667"><ele>625.0</ele><time>2026-04-18T08:46:32.634Z</time></trkpt><trkpt lat="41.0075633" lon="16.2470667"><ele>625.0000000000001</ele><time>2026-04-18T08:46:33.633Z</time></trkpt><trkpt lat="41.0075417" lon="16.2471667"><ele>625.0</ele><time>2026-04-18T08:46:34.633Z</time></trkpt><trkpt lat="41.0075233" lon="16.2472633"><ele>625.0</ele><time>2026-04-18T08:46:35.633Z</time></trkpt><trkpt lat="41.0075067" lon="16.24735"><ele>625.0</ele><time>2026-04-18T08:46:36.633Z</time></trkpt><trkpt lat="41.0074867" lon="16.24744"><ele>625.0</ele><time>2026-04-18T08:46:37.634Z</time></trkpt><trkpt lat="41.0074667" lon="16.2475283"><ele>625.0000000000001</ele><time>2026-04-18T08:46:38.634Z</time></trkpt><trkpt lat="41.0074467" lon="16.2476233"><ele>625.0</ele><time>2026-04-18T08:46:39.633Z</time></trkpt><trkpt lat="41.0074283" lon="16.2477233"><ele>625.8333333333334</ele><time>2026-04-18T08:46:40.635Z</time></trkpt><trkpt lat="41.0074067" lon="16.2478267"><ele>626.6666666666667</ele><time>2026-04-18T08:46:41.634Z</time></trkpt><trkpt lat="41.007385" lon="16.2479283"><ele>627.5</ele><time>2026-04-18T08:46:42.633Z</time></trkpt><trkpt lat="41.0073633" lon="16.2480283"><ele>628.3333333333334</ele><time>2026-04-18T08:46:43.634Z</time></trkpt><trkpt lat="41.0073383" lon="16.2481233"><ele>629.1666666666666</ele><time>2026-04-18T08:46:44.634Z</time></trkpt><trkpt lat="41.00732" lon="16.248215"><ele>630.0</ele><time>2026-04-18T08:46:45.636Z</time></trkpt><trkpt lat="41.0073067" lon="16.24831"><ele>630.2857142857143</ele><time>2026-04-18T08:46:46.632Z</time></trkpt><trkpt lat="41.0072917" lon="16.2484"><ele>630.5714285714286</ele><time>2026-04-18T08:46:47.633Z</time></trkpt><trkpt lat="41.007275" lon="16.2484867"><ele>630.8571428571429</ele><time>2026-04-18T08:46:48.633Z</time></trkpt><trkpt lat="41.0072567" lon="16.2485767"><ele>631.1428571428571</ele><time>2026-04-18T08:46:49.634Z</time></trkpt><trkpt lat="41.0072467" lon="16.248665"><ele>631.4285714285714</ele><time>2026-04-18T08:46:50.633Z</time></trkpt><trkpt lat="41.007235" lon="16.2487517"><ele>631.7142857142858</ele><time>2026-04-18T08:46:51.633Z</time></trkpt><trkpt lat="41.00722" lon="16.24884"><ele>632.0</ele><time>2026-04-18T08:46:52.634Z</time></trkpt><trkpt lat="41.0072067" lon="16.2489283"><ele>632.2</ele><time>2026-04-18T08:46:53.634Z</time></trkpt><trkpt lat="41.0071917" lon="16.2490183"><ele>632.4000000000001</ele><time>2026-04-18T08:46:54.633Z</time></trkpt><trkpt lat="41.0071717" lon="16.2491017"><ele>632.5999999999999</ele><time>2026-04-18T08:46:55.633Z</time></trkpt><trkpt lat="41.0071383" lon="16.24925"><ele>632.8</ele><time>2026-04-18T08:46:57.638Z</time></trkpt><trkpt lat="41.007095" lon="16.2494017"><ele>633.0</ele><time>2026-04-18T08:46:59.637Z</time></trkpt><trkpt lat="41.00704" lon="16.2495533"><ele>633.0</ele><time>2026-04-18T08:47:01.634Z</time></trkpt><trkpt lat="41.0070167" lon="16.2496333"><ele>633.0</ele><time>2026-04-18T08:47:02.635Z</time></trkpt><trkpt lat="41.0069933" lon="16.2497183"><ele>633.0</ele><time>2026-04-18T08:47:03.634Z</time></trkpt><trkpt lat="41.0069733" lon="16.2498"><ele>633.0</ele><time>2026-04-18T08:47:04.64Z</time></trkpt><trkpt lat="41.00693" lon="16.249965"><ele>633.0</ele><time>2026-04-18T08:47:06.633Z</time></trkpt><trkpt lat="41.006905" lon="16.2500517"><ele>633.0</ele><time>2026-04-18T08:47:07.634Z</time></trkpt><trkpt lat="41.0068783" lon="16.2501367"><ele>633.0</ele><time>2026-04-18T08:47:08.634Z</time></trkpt><trkpt lat="41.00685" lon="16.250225"><ele>633.0</ele><time>2026-04-18T08:47:09.633Z</time></trkpt><trkpt lat="41.0068217" lon="16.2503133"><ele>633.0</ele><time>2026-04-18T08:47:10.634Z</time></trkpt><trkpt lat="41.00679" lon="16.250405"><ele>633.0</ele><time>2026-04-18T08:47:11.633Z</time></trkpt><trkpt lat="41.0067567" lon="16.2504967"><ele>633.0</ele><time>2026-04-18T08:47:12.634Z</time></trkpt><trkpt lat="41.0067217" lon="16.2505817"><ele>633.0</ele><time>2026-04-18T08:47:13.633Z</time></trkpt><trkpt lat="41.0066833" lon="16.2506667"><ele>633.0</ele><time>2026-04-18T08:47:14.634Z</time></trkpt><trkpt lat="41.0066433" lon="16.2507583"><ele>633.5</ele><time>2026-04-18T08:47:15.633Z</time></trkpt><trkpt lat="41.0066033" lon="16.2508533"><ele>634.0</ele><time>2026-04-18T08:47:16.636Z</time></trkpt><trkpt lat="41.0065683" lon="16.2509417"><ele>634.5</ele><time>2026-04-18T08:47:17.635Z</time></trkpt><trkpt lat="41.0065333" lon="16.251015"><ele>635.0</ele><time>2026-04-18T08:47:18.633Z</time></trkpt><trkpt lat="41.0064483" lon="16.25108"><ele>635.5</ele><time>2026-04-18T08:47:20.635Z</time></trkpt><trkpt lat="41.0063283" lon="16.2510417"><ele>636.0</ele><time>2026-04-18T08:47:22.635Z</time></trkpt><trkpt lat="41.0062667" lon="16.2509833"><ele>636.0</ele><time>2026-04-18T08:47:23.635Z</time></trkpt><trkpt lat="41.0062" lon="16.2509317"><ele>636.0</ele><time>2026-04-18T08:47:24.635Z</time></trkpt><trkpt lat="41.0061367" lon="16.2508833"><ele>636.0</ele><time>2026-04-18T08:47:25.634Z</time></trkpt><trkpt lat="41.0060767" lon="16.2508517"><ele>636.0</ele><time>2026-04-18T08:47:26.633Z</time></trkpt><trkpt lat="41.0059667" lon="16.2508367"><ele>636.0</ele><time>2026-04-18T08:47:28.634Z</time></trkpt><trkpt lat="41.0058483" lon="16.25091"><ele>635.6</ele><time>2026-04-18T08:47:30.635Z</time></trkpt><trkpt lat="41.005785" lon="16.2509817"><ele>635.2</ele><time>2026-04-18T08:47:31.633Z</time></trkpt><trkpt lat="41.0057133" lon="16.251065"><ele>634.8</ele><time>2026-04-18T08:47:32.633Z</time></trkpt><trkpt lat="41.0056483" lon="16.2511483"><ele>634.4</ele><time>2026-04-18T08:47:33.633Z</time></trkpt><trkpt lat="41.005585" lon="16.251235"><ele>634.0</ele><time>2026-04-18T08:47:34.633Z</time></trkpt><trkpt lat="41.0055183" lon="16.2513183"><ele>634.0</ele><time>2026-04-18T08:47:35.633Z</time></trkpt><trkpt lat="41.005445" lon="16.25141"><ele>634.0</ele><time>2026-04-18T08:47:36.633Z</time></trkpt><trkpt lat="41.0053733" lon="16.2515117"><ele>634.0</ele><time>2026-04-18T08:47:37.633Z</time></trkpt><trkpt lat="41.005305" lon="16.2516067"><ele>634.0</ele><time>2026-04-18T08:47:38.633Z</time></trkpt><trkpt lat="41.0052383" lon="16.251685"><ele>634.0</ele><time>2026-04-18T08:47:39.635Z</time></trkpt><trkpt lat="41.00517" lon="16.2517483"><ele>634.3333333333334</ele><time>2026-04-18T08:47:40.633Z</time></trkpt><trkpt lat="41.0051083" lon="16.2518117"><ele>634.6666666666667</ele><time>2026-04-18T08:47:41.633Z</time></trkpt><trkpt lat="41.005035" lon="16.2519317"><ele>635.0</ele><time>2026-04-18T08:47:43.633Z</time></trkpt><trkpt lat="41.0050017" lon="16.2520067"><ele>635.3333333333334</ele><time>2026-04-18T08:47:44.633Z</time></trkpt><trkpt lat="41.0049783" lon="16.2520933"><ele>635.6666666666666</ele><time>2026-04-18T08:47:45.634Z</time></trkpt><trkpt lat="41.00496" lon="16.2521917"><ele>636.0</ele><time>2026-04-18T08:47:46.632Z</time></trkpt><trkpt lat="41.00494" lon="16.252305"><ele>636.1666666666666</ele><time>2026-04-18T08:47:47.634Z</time></trkpt><trkpt lat="41.0049217" lon="16.2524183"><ele>636.3333333333334</ele><time>2026-04-18T08:47:48.633Z</time></trkpt><trkpt lat="41.0049017" lon="16.2525233"><ele>636.5</ele><time>2026-04-18T08:47:49.634Z</time></trkpt><trkpt lat="41.0048817" lon="16.2526167"><ele>636.6666666666667</ele><time>2026-04-18T08:47:50.633Z</time></trkpt><trkpt lat="41.00486" lon="16.2527083"><ele>636.8333333333334</ele><time>2026-04-18T08:47:51.633Z</time></trkpt><trkpt lat="41.00484" lon="16.25281"><ele>637.0</ele><time>2026-04-18T08:47:52.633Z</time></trkpt><trkpt lat="41.0048217" lon="16.252915"><ele>637.0</ele><time>2026-04-18T08:47:53.636Z</time></trkpt><trkpt lat="41.004805" lon="16.2530067"><ele>637.0</ele><time>2026-04-18T08:47:54.633Z</time></trkpt><trkpt lat="41.0047867" lon="16.2530983"><ele>637.0</ele><time>2026-04-18T08:47:55.633Z</time></trkpt><trkpt lat="41.00477" lon="16.2531883"><ele>637.0</ele><time>2026-04-18T08:47:56.633Z</time></trkpt><trkpt lat="41.00475" lon="16.253275"><ele>637.0</ele><time>2026-04-18T08:47:57.632Z</time></trkpt><trkpt lat="41.004725" lon="16.253365"><ele>637.0</ele><time>2026-04-18T08:47:58.633Z</time></trkpt><trkpt lat="41.0047033" lon="16.2534583"><ele>637.0</ele><time>2026-04-18T08:47:59.635Z</time></trkpt><trkpt lat="41.0046917" lon="16.2535617"><ele>637.0</ele><time>2026-04-18T08:48:00.633Z</time></trkpt><trkpt lat="41.0046767" lon="16.2536633"><ele>637.0</ele><time>2026-04-18T08:48:01.633Z</time></trkpt><trkpt lat="41.0046633" lon="16.2537567"><ele>637.0</ele><time>2026-04-18T08:48:02.634Z</time></trkpt><trkpt lat="41.0046467" lon="16.2538467"><ele>637.0</ele><time>2026-04-18T08:48:03.633Z</time></trkpt><trkpt lat="41.0046317" lon="16.2539283"><ele>637.0</ele><time>2026-04-18T08:48:04.635Z</time></trkpt><trkpt lat="41.004615" lon="16.2540117"><ele>637.0</ele><time>2026-04-18T08:48:05.634Z</time></trkpt><trkpt lat="41.0045933" lon="16.2540967"><ele>637.0</ele><time>2026-04-18T08:48:06.634Z</time></trkpt><trkpt lat="41.004555" lon="16.2541817"><ele>637.0</ele><time>2026-04-18T08:48:07.633Z</time></trkpt><trkpt lat="41.0045117" lon="16.254265"><ele>637.0</ele><time>2026-04-18T08:48:08.637Z</time></trkpt><trkpt lat="41.004465" lon="16.254355"><ele>637.0</ele><time>2026-04-18T08:48:09.633Z</time></trkpt><trkpt lat="41.0044183" lon="16.2544533"><ele>637.0</ele><time>2026-04-18T08:48:10.633Z</time></trkpt><trkpt lat="41.004375" lon="16.2545633"><ele>637.0</ele><time>2026-04-18T08:48:11.633Z</time></trkpt><trkpt lat="41.0043417" lon="16.254685"><ele>637.0</ele><time>2026-04-18T08:48:12.633Z</time></trkpt><trkpt lat="41.0043183" lon="16.254805"><ele>637.0</ele><time>2026-04-18T08:48:13.633Z</time></trkpt><trkpt lat="41.0042833" lon="16.2549183"><ele>637.0</ele><time>2026-04-18T08:48:14.633Z</time></trkpt><trkpt lat="41.00425" lon="16.2550367"><ele>637.0</ele><time>2026-04-18T08:48:15.632Z</time></trkpt><trkpt lat="41.0042167" lon="16.255155"><ele>637.0</ele><time>2026-04-18T08:48:16.634Z</time></trkpt><trkpt lat="41.004195" lon="16.2552667"><ele>637.0</ele><time>2026-04-18T08:48:17.633Z</time></trkpt><trkpt lat="41.004175" lon="16.255375"><ele>636.7142857142857</ele><time>2026-04-18T08:48:18.633Z</time></trkpt><trkpt lat="41.0041567" lon="16.2554767"><ele>636.4285714285714</ele><time>2026-04-18T08:48:19.634Z</time></trkpt><trkpt lat="41.00413" lon="16.255575"><ele>636.1428571428571</ele><time>2026-04-18T08:48:20.635Z</time></trkpt><trkpt lat="41.00411" lon="16.25566"><ele>635.8571428571429</ele><time>2026-04-18T08:48:21.633Z</time></trkpt><trkpt lat="41.0040917" lon="16.255745"><ele>635.5714285714286</ele><time>2026-04-18T08:48:22.633Z</time></trkpt><trkpt lat="41.00408" lon="16.2558383"><ele>635.2857142857142</ele><time>2026-04-18T08:48:23.638Z</time></trkpt><trkpt lat="41.0040783" lon="16.25594"><ele>635.0</ele><time>2026-04-18T08:48:24.634Z</time></trkpt><trkpt lat="41.0040767" lon="16.2560583"><ele>634.8</ele><time>2026-04-18T08:48:25.633Z</time></trkpt><trkpt lat="41.004065" lon="16.2561833"><ele>634.6</ele><time>2026-04-18T08:48:26.634Z</time></trkpt><trkpt lat="41.0040533" lon="16.2563067"><ele>634.4</ele><time>2026-04-18T08:48:27.633Z</time></trkpt><trkpt lat="41.00404" lon="16.2564367"><ele>634.2</ele><time>2026-04-18T08:48:28.634Z</time></trkpt><trkpt lat="41.0040267" lon="16.2565683"><ele>634.0</ele><time>2026-04-18T08:48:29.634Z</time></trkpt><trkpt lat="41.0040117" lon="16.2567083"><ele>634.6</ele><time>2026-04-18T08:48:30.633Z</time></trkpt><trkpt lat="41.0040017" lon="16.25685"><ele>635.2</ele><time>2026-04-18T08:48:31.634Z</time></trkpt><trkpt lat="41.0039967" lon="16.2569933"><ele>635.8000000000001</ele><time>2026-04-18T08:48:32.635Z</time></trkpt><trkpt lat="41.003995" lon="16.257135"><ele>636.4</ele><time>2026-04-18T08:48:33.637Z</time></trkpt><trkpt lat="41.003995" lon="16.2572767"><ele>637.0</ele><time>2026-04-18T08:48:34.634Z</time></trkpt><trkpt lat="41.0040033" lon="16.2574183"><ele>637.8</ele><time>2026-04-18T08:48:35.634Z</time></trkpt><trkpt lat="41.0040167" lon="16.2575617"><ele>638.6</ele><time>2026-04-18T08:48:36.633Z</time></trkpt><trkpt lat="41.00403" lon="16.257695"><ele>639.4</ele><time>2026-04-18T08:48:37.635Z</time></trkpt><trkpt lat="41.00404" lon="16.25781"><ele>640.1999999999999</ele><time>2026-04-18T08:48:38.635Z</time></trkpt><trkpt lat="41.004045" lon="16.257915"><ele>641.0</ele><time>2026-04-18T08:48:39.633Z</time></trkpt><trkpt lat="41.0040483" lon="16.2580233"><ele>641.8</ele><time>2026-04-18T08:48:40.634Z</time></trkpt><trkpt lat="41.00405" lon="16.2581383"><ele>642.5999999999999</ele><time>2026-04-18T08:48:41.636Z</time></trkpt><trkpt lat="41.0040483" lon="16.2582567"><ele>643.4</ele><time>2026-04-18T08:48:42.637Z</time></trkpt><trkpt lat="41.0040467" lon="16.2583833"><ele>644.2</ele><time>2026-04-18T08:48:43.635Z</time></trkpt><trkpt lat="41.0040433" lon="16.258515"><ele>645.0</ele><time>2026-04-18T08:48:44.635Z</time></trkpt><trkpt lat="41.0040417" lon="16.2586483"><ele>645.0</ele><time>2026-04-18T08:48:45.635Z</time></trkpt><trkpt lat="41.0040383" lon="16.25878"><ele>645.0</ele><time>2026-04-18T08:48:46.634Z</time></trkpt><trkpt lat="41.004035" lon="16.2589133"><ele>645.0</ele><time>2026-04-18T08:48:47.635Z</time></trkpt><trkpt lat="41.0040333" lon="16.2590433"><ele>645.0</ele><time>2026-04-18T08:48:48.635Z</time></trkpt><trkpt lat="41.0040317" lon="16.2591733"><ele>645.0</ele><time>2026-04-18T08:48:49.636Z</time></trkpt><trkpt lat="41.0040283" lon="16.259295"><ele>645.8571428571429</ele><time>2026-04-18T08:48:50.635Z</time></trkpt><trkpt lat="41.0040183" lon="16.2593967"><ele>646.7142857142857</ele><time>2026-04-18T08:48:51.635Z</time></trkpt><trkpt lat="41.0040017" lon="16.2594833"><ele>647.5714285714286</ele><time>2026-04-18T08:48:52.635Z</time></trkpt><trkpt lat="41.003975" lon="16.2595667"><ele>648.4285714285714</ele><time>2026-04-18T08:48:53.635Z</time></trkpt><trkpt lat="41.00394" lon="16.2596533"><ele>649.2857142857142</ele><time>2026-04-18T08:48:54.634Z</time></trkpt><trkpt lat="41.0039033" lon="16.2597467"><ele>650.1428571428571</ele><time>2026-04-18T08:48:55.635Z</time></trkpt><trkpt lat="41.0038717" lon="16.2598433"><ele>651.0</ele><time>2026-04-18T08:48:56.634Z</time></trkpt><trkpt lat="41.0038483" lon="16.25995"><ele>652.0</ele><time>2026-04-18T08:48:57.635Z</time></trkpt><trkpt lat="41.0038367" lon="16.2600667"><ele>653.0</ele><time>2026-04-18T08:48:58.634Z</time></trkpt><trkpt lat="41.0038333" lon="16.26019"><ele>654.0</ele><time>2026-04-18T08:48:59.634Z</time></trkpt><trkpt lat="41.0038333" lon="16.26032"><ele>655.0</ele><time>2026-04-18T08:49:00.634Z</time></trkpt><trkpt lat="41.0038383" lon="16.2604517"><ele>656.0</ele><time>2026-04-18T08:49:01.634Z</time></trkpt><trkpt lat="41.0038567" lon="16.260575"><ele>656.8</ele><time>2026-04-18T08:49:02.634Z</time></trkpt><trkpt lat="41.00388" lon="16.2606967"><ele>657.5999999999999</ele><time>2026-04-18T08:49:03.634Z</time></trkpt><trkpt lat="41.0039067" lon="16.26082"><ele>658.4</ele><time>2026-04-18T08:49:04.634Z</time></trkpt><trkpt lat="41.003935" lon="16.2609483"><ele>659.2</ele><time>2026-04-18T08:49:05.634Z</time></trkpt><trkpt lat="41.0039633" lon="16.2610767"><ele>660.0</ele><time>2026-04-18T08:49:06.634Z</time></trkpt><trkpt lat="41.0039917" lon="16.2611933"><ele>660.0</ele><time>2026-04-18T08:49:07.634Z</time></trkpt><trkpt lat="41.0040217" lon="16.2613067"><ele>660.0</ele><time>2026-04-18T08:49:08.635Z</time></trkpt><trkpt lat="41.004055" lon="16.2614167"><ele>660.0</ele><time>2026-04-18T08:49:09.634Z</time></trkpt><trkpt lat="41.0040933" lon="16.2615217"><ele>660.0</ele><time>2026-04-18T08:49:10.634Z</time></trkpt><trkpt lat="41.0041367" lon="16.2616183"><ele>660.0</ele><time>2026-04-18T08:49:11.634Z</time></trkpt><trkpt lat="41.0041817" lon="16.261715"><ele>660.0</ele><time>2026-04-18T08:49:12.634Z</time></trkpt><trkpt lat="41.0042233" lon="16.26181"><ele>660.6666666666666</ele><time>2026-04-18T08:49:13.634Z</time></trkpt><trkpt lat="41.0042617" lon="16.2619067"><ele>661.3333333333334</ele><time>2026-04-18T08:49:14.634Z</time></trkpt><trkpt lat="41.0042967" lon="16.262005"><ele>662.0</ele><time>2026-04-18T08:49:15.635Z</time></trkpt><trkpt lat="41.0043267" lon="16.2621"><ele>662.6666666666667</ele><time>2026-04-18T08:49:16.634Z</time></trkpt><trkpt lat="41.004355" lon="16.2622033"><ele>663.3333333333334</ele><time>2026-04-18T08:49:17.634Z</time></trkpt><trkpt lat="41.0043817" lon="16.262305"><ele>664.0</ele><time>2026-04-18T08:49:18.635Z</time></trkpt><trkpt lat="41.00441" lon="16.2624067"><ele>664.3333333333334</ele><time>2026-04-18T08:49:19.635Z</time></trkpt><trkpt lat="41.00444" lon="16.26251"><ele>664.6666666666667</ele><time>2026-04-18T08:49:20.636Z</time></trkpt><trkpt lat="41.0044717" lon="16.2626133"><ele>665.0</ele><time>2026-04-18T08:49:21.635Z</time></trkpt><trkpt lat="41.0045017" lon="16.2627033"><ele>665.3333333333334</ele><time>2026-04-18T08:49:22.635Z</time></trkpt><trkpt lat="41.0045367" lon="16.26278"><ele>665.6666666666666</ele><time>2026-04-18T08:49:23.635Z</time></trkpt><trkpt lat="41.0045833" lon="16.26285"><ele>666.0</ele><time>2026-04-18T08:49:24.634Z</time></trkpt><trkpt lat="41.0046383" lon="16.262915"><ele>666.0</ele><time>2026-04-18T08:49:25.634Z</time></trkpt><trkpt lat="41.0047" lon="16.2629817"><ele>666.0</ele><time>2026-04-18T08:49:26.635Z</time></trkpt><trkpt lat="41.0047583" lon="16.26304"><ele>666.0</ele><time>2026-04-18T08:49:27.635Z</time></trkpt><trkpt lat="41.00486" lon="16.2631283"><ele>666.0</ele><time>2026-04-18T08:49:29.635Z</time></trkpt><trkpt lat="41.0049467" lon="16.2632217"><ele>666.0</ele><time>2026-04-18T08:49:31.634Z</time></trkpt><trkpt lat="41.0050283" lon="16.26331"><ele>666.0</ele><time>2026-04-18T08:49:33.635Z</time></trkpt><trkpt lat="41.0051067" lon="16.2634383"><ele>666.0</ele><time>2026-04-18T08:49:35.634Z</time></trkpt><trkpt lat="41.0051367" lon="16.2635933"><ele>666.0</ele><time>2026-04-18T08:49:37.637Z</time></trkpt><trkpt lat="41.0051417" lon="16.2636767"><ele>666.0</ele><time>2026-04-18T08:49:38.634Z</time></trkpt><trkpt lat="41.00515" lon="16.263765"><ele>666.0</ele><time>2026-04-18T08:49:39.633Z</time></trkpt><trkpt lat="41.0051683" lon="16.26386"><ele>665.8</ele><time>2026-04-18T08:49:40.634Z</time></trkpt><trkpt lat="41.00519" lon="16.263955"><ele>665.5999999999999</ele><time>2026-04-18T08:49:41.634Z</time></trkpt><trkpt lat="41.0052" lon="16.2640417"><ele>665.4</ele><time>2026-04-18T08:49:42.633Z</time></trkpt><trkpt lat="41.0051883" lon="16.264195"><ele>665.2</ele><time>2026-04-18T08:49:44.636Z</time></trkpt><trkpt lat="41.0051483" lon="16.2643533"><ele>665.0</ele><time>2026-04-18T08:49:46.634Z</time></trkpt><trkpt lat="41.0051283" lon="16.2644383"><ele>665.0</ele><time>2026-04-18T08:49:47.634Z</time></trkpt><trkpt lat="41.0051133" lon="16.2645317"><ele>665.0</ele><time>2026-04-18T08:49:48.633Z</time></trkpt><trkpt lat="41.0051067" lon="16.2646283"><ele>665.0</ele><time>2026-04-18T08:49:49.634Z</time></trkpt><trkpt lat="41.00511" lon="16.2647317"><ele>665.0</ele><time>2026-04-18T08:49:50.635Z</time></trkpt><trkpt lat="41.0051217" lon="16.26483"><ele>665.0</ele><time>2026-04-18T08:49:51.635Z</time></trkpt><trkpt lat="41.0051333" lon="16.2649167"><ele>665.0</ele><time>2026-04-18T08:49:52.634Z</time></trkpt><trkpt lat="41.0051533" lon="16.2650633"><ele>665.6</ele><time>2026-04-18T08:49:54.634Z</time></trkpt><trkpt lat="41.0051683" lon="16.2652133"><ele>666.2</ele><time>2026-04-18T08:49:56.635Z</time></trkpt><trkpt lat="41.0051833" lon="16.2653583"><ele>666.8</ele><time>2026-04-18T08:49:58.634Z</time></trkpt><trkpt lat="41.0051917" lon="16.2655017"><ele>667.4</ele><time>2026-04-18T08:50:00.636Z</time></trkpt><trkpt lat="41.0052017" lon="16.2656367"><ele>668.0</ele><time>2026-04-18T08:50:02.634Z</time></trkpt><trkpt lat="41.00522" lon="16.2657683"><ele>668.4</ele><time>2026-04-18T08:50:04.634Z</time></trkpt><trkpt lat="41.0052367" lon="16.2658783"><ele>668.8</ele><time>2026-04-18T08:50:06.635Z</time></trkpt><trkpt lat="41.0052533" lon="16.2660283"><ele>669.2</ele><time>2026-04-18T08:55:13.635Z</time></trkpt><trkpt lat="41.0052667" lon="16.2661367"><ele>669.6</ele><time>2026-04-18T08:55:15.633Z</time></trkpt><trkpt lat="41.0052583" lon="16.26626"><ele>670.0</ele><time>2026-04-18T08:55:17.634Z</time></trkpt><trkpt lat="41.00524" lon="16.26639"><ele>670.0</ele><time>2026-04-18T08:55:19.634Z</time></trkpt><trkpt lat="41.0052183" lon="16.2664783"><ele>670.0</ele><time>2026-04-18T08:55:21.633Z</time></trkpt><trkpt lat="41.0051983" lon="16.2665617"><ele>670.0</ele><time>2026-04-18T08:55:24.634Z</time></trkpt><trkpt lat="41.0051867" lon="16.266475"><ele>670.0</ele><time>2026-04-18T08:55:41.637Z</time></trkpt><trkpt lat="41.005225" lon="16.2663633"><ele>670.0</ele><time>2026-04-18T08:55:44.634Z</time></trkpt><trkpt lat="41.0052467" lon="16.266255"><ele>670.0</ele><time>2026-04-18T08:55:46.635Z</time></trkpt><trkpt lat="41.0052483" lon="16.2661583"><ele>670.0</ele><time>2026-04-18T08:55:48.634Z</time></trkpt><trkpt lat="41.0052517" lon="16.2660183"><ele>670.0</ele><time>2026-04-18T08:55:50.634Z</time></trkpt><trkpt lat="41.005235" lon="16.26583"><ele>670.0</ele><time>2026-04-18T08:55:52.634Z</time></trkpt><trkpt lat="41.005215" lon="16.26573"><ele>670.0</ele><time>2026-04-18T08:55:53.635Z</time></trkpt><trkpt lat="41.0051983" lon="16.26564"><ele>670.0</ele><time>2026-04-18T08:55:54.633Z</time></trkpt><trkpt lat="41.0051833" lon="16.265505"><ele>669.6</ele><time>2026-04-18T08:55:56.634Z</time></trkpt><trkpt lat="41.0051733" lon="16.2654"><ele>669.2</ele><time>2026-04-18T08:55:58.633Z</time></trkpt><trkpt lat="41.0051683" lon="16.2652517"><ele>668.8</ele><time>2026-04-18T08:56:00.633Z</time></trkpt><trkpt lat="41.0051617" lon="16.2651567"><ele>668.4</ele><time>2026-04-18T08:56:01.637Z</time></trkpt><trkpt lat="41.0051533" lon="16.2650683"><ele>668.0</ele><time>2026-04-18T08:56:02.636Z</time></trkpt><trkpt lat="41.0051317" lon="16.2649083"><ele>667.5</ele><time>2026-04-18T08:56:04.634Z</time></trkpt><trkpt lat="41.0051217" lon="16.2647783"><ele>667.0</ele><time>2026-04-18T08:56:06.634Z</time></trkpt><trkpt lat="41.005115" lon="16.2646717"><ele>666.5</ele><time>2026-04-18T08:56:08.635Z</time></trkpt><trkpt lat="41.00512" lon="16.264575"><ele>666.0</ele><time>2026-04-18T08:56:10.633Z</time></trkpt><trkpt lat="41.00513" lon="16.26449"><ele>665.5</ele><time>2026-04-18T08:56:12.634Z</time></trkpt><trkpt lat="41.0051467" lon="16.2643783"><ele>665.0</ele><time>2026-04-18T08:56:14.634Z</time></trkpt><trkpt lat="41.0051733" lon="16.264245"><ele>665.0</ele><time>2026-04-18T08:56:16.634Z</time></trkpt><trkpt lat="41.0051967" lon="16.26412"><ele>665.0</ele><time>2026-04-18T08:56:18.633Z</time></trkpt><trkpt lat="41.0052017" lon="16.2639667"><ele>665.0</ele><time>2026-04-18T08:56:20.634Z</time></trkpt><trkpt lat="41.00519" lon="16.263875"><ele>665.0</ele><time>2026-04-18T08:56:21.634Z</time></trkpt><trkpt lat="41.0051717" lon="16.2637833"><ele>665.0</ele><time>2026-04-18T08:56:22.633Z</time></trkpt><trkpt lat="41.0051417" lon="16.263645"><ele>665.1666666666666</ele><time>2026-04-18T08:56:24.633Z</time></trkpt><trkpt lat="41.0051283" lon="16.2635317"><ele>665.3333333333333</ele><time>2026-04-18T08:56:26.635Z</time></trkpt><trkpt lat="41.0051583" lon="16.2634367"><ele>665.5</ele><time>2026-04-18T08:56:29.633Z</time></trkpt><trkpt lat="41.0052267" lon="16.26343"><ele>665.6666666666666</ele><time>2026-04-18T08:56:32.633Z</time></trkpt><trkpt lat="41.00533" lon="16.2633917"><ele>665.8333333333334</ele><time>2026-04-18T08:58:34.635Z</time></trkpt><trkpt lat="41.0053917" lon="16.263365"><ele>666.0</ele><time>2026-04-18T08:58:37.636Z</time></trkpt><trkpt lat="41.00533" lon="16.2633283"><ele>666.0</ele><time>2026-04-18T08:58:42.633Z</time></trkpt><trkpt lat="41.0052733" lon="16.263395"><ele>666.0</ele><time>2026-04-18T08:58:44.633Z</time></trkpt><trkpt lat="41.0051967" lon="16.2634333"><ele>666.0</ele><time>2026-04-18T08:58:46.633Z</time></trkpt><trkpt lat="41.0051267" lon="16.2634183"><ele>666.0</ele><time>2026-04-18T08:58:48.633Z</time></trkpt><trkpt lat="41.005055" lon="16.2633367"><ele>666.0</ele><time>2026-04-18T08:58:50.634Z</time></trkpt><trkpt lat="41.0049733" lon="16.2632367"><ele>666.0</ele><time>2026-04-18T08:58:52.634Z</time></trkpt><trkpt lat="41.00489" lon="16.2631483"><ele>666.0</ele><time>2026-04-18T08:58:54.633Z</time></trkpt><trkpt lat="41.0048083" lon="16.2630717"><ele>666.0</ele><time>2026-04-18T08:58:56.634Z</time></trkpt><trkpt lat="41.0047433" lon="16.263015"><ele>666.0</ele><time>2026-04-18T08:58:58.632Z</time></trkpt><trkpt lat="41.0046783" lon="16.262955"><ele>666.0</ele><time>2026-04-18T08:59:00.634Z</time></trkpt><trkpt lat="41.0046033" lon="16.26288"><ele>666.0</ele><time>2026-04-18T08:59:02.634Z</time></trkpt><trkpt lat="41.004545" lon="16.2627983"><ele>666.0</ele><time>2026-04-18T08:59:04.633Z</time></trkpt><trkpt lat="41.0044917" lon="16.2627017"><ele>666.0</ele><time>2026-04-18T08:59:06.633Z</time></trkpt><trkpt lat="41.0044583" lon="16.2626017"><ele>666.0</ele><time>2026-04-18T08:59:08.635Z</time></trkpt><trkpt lat="41.0044217" lon="16.262465"><ele>666.0</ele><time>2026-04-18T08:59:10.633Z</time></trkpt><trkpt lat="41.0043733" lon="16.262305"><ele>666.0</ele><time>2026-04-18T08:59:12.633Z</time></trkpt><trkpt lat="41.0043517" lon="16.262225"><ele>666.0</ele><time>2026-04-18T08:59:13.635Z</time></trkpt><trkpt lat="41.0043083" lon="16.262075"><ele>665.5</ele><time>2026-04-18T08:59:15.633Z</time></trkpt><trkpt lat="41.0042717" lon="16.2619467"><ele>665.0</ele><time>2026-04-18T08:59:17.635Z</time></trkpt><trkpt lat="41.0042166" lon="16.2618068"><ele>664.5</ele><time>2026-04-18T08:59:19.634Z</time></trkpt><trkpt lat="41.00416" lon="16.2616621"><ele>664.0</ele><time>2026-04-18T08:59:21.634Z</time></trkpt><trkpt lat="41.0041025" lon="16.2615301"><ele>663.0</ele><time>2026-04-18T08:59:23.634Z</time></trkpt><trkpt lat="41.0040536" lon="16.2614075"><ele>662.0</ele><time>2026-04-18T08:59:25.633Z</time></trkpt><trkpt lat="41.0040086" lon="16.2612696"><ele>661.0</ele><time>2026-04-18T08:59:27.635Z</time></trkpt><trkpt lat="41.0039819" lon="16.2611319"><ele>660.0</ele><time>2026-04-18T08:59:29.634Z</time></trkpt><trkpt lat="41.0039469" lon="16.2609727"><ele>660.0000000000001</ele><time>2026-04-18T08:59:31.634Z</time></trkpt><trkpt lat="41.0039256" lon="16.2608926"><ele>660.0</ele><time>2026-04-18T08:59:32.634Z</time></trkpt><trkpt lat="41.0039063" lon="16.26081"><ele>660.0</ele><time>2026-04-18T08:59:33.633Z</time></trkpt><trkpt lat="41.0038901" lon="16.2607253"><ele>660.0</ele><time>2026-04-18T08:59:34.633Z</time></trkpt><trkpt lat="41.0038733" lon="16.260634"><ele>660.0</ele><time>2026-04-18T08:59:35.633Z</time></trkpt><trkpt lat="41.0038577" lon="16.2605368"><ele>660.0000000000001</ele><time>2026-04-18T08:59:36.634Z</time></trkpt><trkpt lat="41.0038436" lon="16.2604381"><ele>660.0</ele><time>2026-04-18T08:59:37.634Z</time></trkpt><trkpt lat="41.0038362" lon="16.2603418"><ele>659.4285714285714</ele><time>2026-04-18T08:59:38.634Z</time></trkpt><trkpt lat="41.0038345" lon="16.2602528"><ele>658.8571428571429</ele><time>2026-04-18T08:59:39.634Z</time></trkpt><trkpt lat="41.0038334" lon="16.260167"><ele>658.2857142857142</ele><time>2026-04-18T08:59:40.633Z</time></trkpt><trkpt lat="41.0038356" lon="16.2600803"><ele>657.7142857142858</ele><time>2026-04-18T08:59:41.636Z</time></trkpt><trkpt lat="41.0038376" lon="16.2599926"><ele>657.1428571428571</ele><time>2026-04-18T08:59:42.634Z</time></trkpt><trkpt lat="41.0038479" lon="16.2599079"><ele>656.5714285714286</ele><time>2026-04-18T08:59:43.634Z</time></trkpt><trkpt lat="41.003866" lon="16.2598171"><ele>656.0</ele><time>2026-04-18T08:59:44.634Z</time></trkpt><trkpt lat="41.0038934" lon="16.2597224"><ele>655.1666666666666</ele><time>2026-04-18T08:59:45.634Z</time></trkpt><trkpt lat="41.0039286" lon="16.2596254"><ele>654.3333333333333</ele><time>2026-04-18T08:59:46.635Z</time></trkpt><trkpt lat="41.003964" lon="16.25953"><ele>653.5</ele><time>2026-04-18T08:59:47.635Z</time></trkpt><trkpt lat="41.0039931" lon="16.2594408"><ele>652.6666666666666</ele><time>2026-04-18T08:59:48.634Z</time></trkpt><trkpt lat="41.0040089" lon="16.2593584"><ele>651.8333333333334</ele><time>2026-04-18T08:59:49.634Z</time></trkpt><trkpt lat="41.0040186" lon="16.2591977"><ele>651.0</ele><time>2026-04-18T08:59:51.633Z</time></trkpt><trkpt lat="41.0040203" lon="16.2591056"><ele>651.0</ele><time>2026-04-18T08:59:52.634Z</time></trkpt><trkpt lat="41.0040229" lon="16.259012"><ele>651.0</ele><time>2026-04-18T08:59:53.634Z</time></trkpt><trkpt lat="41.004025" lon="16.2589156"><ele>651.0</ele><time>2026-04-18T08:59:54.635Z</time></trkpt><trkpt lat="41.0040251" lon="16.2588216"><ele>651.0</ele><time>2026-04-18T08:59:55.633Z</time></trkpt><trkpt lat="41.004026" lon="16.2587297"><ele>651.0</ele><time>2026-04-18T08:59:56.635Z</time></trkpt><trkpt lat="41.0040277" lon="16.2586422"><ele>651.0</ele><time>2026-04-18T08:59:57.633Z</time></trkpt><trkpt lat="41.0040311" lon="16.2585532"><ele>651.0</ele><time>2026-04-18T08:59:58.634Z</time></trkpt><trkpt lat="41.0040343" lon="16.2584636"><ele>650.0</ele><time>2026-04-18T08:59:59.634Z</time></trkpt><trkpt lat="41.0040375" lon="16.2583735"><ele>649.0</ele><time>2026-04-18T09:00:00.634Z</time></trkpt><trkpt lat="41.0040436" lon="16.2582847"><ele>648.0</ele><time>2026-04-18T09:00:01.634Z</time></trkpt><trkpt lat="41.0040552" lon="16.2581223"><ele>647.0</ele><time>2026-04-18T09:00:03.634Z</time></trkpt><trkpt lat="41.0040543" lon="16.2580328"><ele>646.0</ele><time>2026-04-18T09:00:04.634Z</time></trkpt><trkpt lat="41.0040519" lon="16.2579336"><ele>645.0</ele><time>2026-04-18T09:00:05.634Z</time></trkpt><trkpt lat="41.0040474" lon="16.2578288"><ele>644.3333333333334</ele><time>2026-04-18T09:00:06.634Z</time></trkpt><trkpt lat="41.0040421" lon="16.2577237"><ele>643.6666666666666</ele><time>2026-04-18T09:00:07.634Z</time></trkpt><trkpt lat="41.0040338" lon="16.2576233"><ele>643.0</ele><time>2026-04-18T09:00:08.634Z</time></trkpt><trkpt lat="41.004022" lon="16.2575197"><ele>642.3333333333333</ele><time>2026-04-18T09:00:09.634Z</time></trkpt><trkpt lat="41.0040074" lon="16.2574088"><ele>641.6666666666666</ele><time>2026-04-18T09:00:10.634Z</time></trkpt><trkpt lat="41.0039987" lon="16.2572919"><ele>641.0</ele><time>2026-04-18T09:00:11.635Z</time></trkpt><trkpt lat="41.003992" lon="16.2571786"><ele>640.1999999999999</ele><time>2026-04-18T09:00:12.634Z</time></trkpt><trkpt lat="41.00399" lon="16.2570648"><ele>639.4</ele><time>2026-04-18T09:00:13.634Z</time></trkpt><trkpt lat="41.0039916" lon="16.2569396"><ele>638.6</ele><time>2026-04-18T09:00:14.634Z</time></trkpt><trkpt lat="41.0039969" lon="16.2567934"><ele>637.8</ele><time>2026-04-18T09:00:15.634Z</time></trkpt><trkpt lat="41.0040068" lon="16.2566386"><ele>637.0</ele><time>2026-04-18T09:00:16.634Z</time></trkpt><trkpt lat="41.0040202" lon="16.2564836"><ele>636.4</ele><time>2026-04-18T09:00:17.634Z</time></trkpt><trkpt lat="41.0040353" lon="16.2563251"><ele>635.8000000000001</ele><time>2026-04-18T09:00:18.634Z</time></trkpt><trkpt lat="41.0040521" lon="16.2561722"><ele>635.2</ele><time>2026-04-18T09:00:19.635Z</time></trkpt><trkpt lat="41.0040646" lon="16.2560343"><ele>634.6</ele><time>2026-04-18T09:00:20.635Z</time></trkpt><trkpt lat="41.0040695" lon="16.2559152"><ele>634.0</ele><time>2026-04-18T09:00:21.635Z</time></trkpt><trkpt lat="41.0040751" lon="16.2558084"><ele>634.0</ele><time>2026-04-18T09:00:22.635Z</time></trkpt><trkpt lat="41.0040858" lon="16.2557119"><ele>634.0</ele><time>2026-04-18T09:00:23.634Z</time></trkpt><trkpt lat="41.0041018" lon="16.2556222"><ele>634.0</ele><time>2026-04-18T09:00:24.635Z</time></trkpt><trkpt lat="41.0041203" lon="16.2555334"><ele>634.0</ele><time>2026-04-18T09:00:25.633Z</time></trkpt><trkpt lat="41.0041378" lon="16.2554456"><ele>634.0</ele><time>2026-04-18T09:00:26.636Z</time></trkpt><trkpt lat="41.0041574" lon="16.2553618"><ele>634.0</ele><time>2026-04-18T09:00:27.633Z</time></trkpt><trkpt lat="41.0041965" lon="16.2552104"><ele>634.3333333333334</ele><time>2026-04-18T09:00:29.634Z</time></trkpt><trkpt lat="41.0042192" lon="16.2551295"><ele>634.6666666666667</ele><time>2026-04-18T09:00:30.633Z</time></trkpt><trkpt lat="41.0042427" lon="16.2550362"><ele>635.0</ele><time>2026-04-18T09:00:31.634Z</time></trkpt><trkpt lat="41.0042693" lon="16.2549266"><ele>635.3333333333334</ele><time>2026-04-18T09:00:32.634Z</time></trkpt><trkpt lat="41.0043052" lon="16.2548135"><ele>635.6666666666666</ele><time>2026-04-18T09:00:33.633Z</time></trkpt><trkpt lat="41.0043474" lon="16.2547012"><ele>636.0</ele><time>2026-04-18T09:00:34.633Z</time></trkpt><trkpt lat="41.0043859" lon="16.2545863"><ele>636.0</ele><time>2026-04-18T09:00:35.633Z</time></trkpt><trkpt lat="41.0044186" lon="16.2544706"><ele>636.0</ele><time>2026-04-18T09:00:36.633Z</time></trkpt><trkpt lat="41.0044565" lon="16.2543551"><ele>636.0</ele><time>2026-04-18T09:00:37.636Z</time></trkpt><trkpt lat="41.0044963" lon="16.254252"><ele>636.0</ele><time>2026-04-18T09:00:38.635Z</time></trkpt><trkpt lat="41.0045911" lon="16.2540749"><ele>636.0</ele><time>2026-04-18T09:00:40.635Z</time></trkpt><trkpt lat="41.0046322" lon="16.2539931"><ele>636.1428571428571</ele><time>2026-04-18T09:00:41.633Z</time></trkpt><trkpt lat="41.0046555" lon="16.2539143"><ele>636.2857142857143</ele><time>2026-04-18T09:00:42.633Z</time></trkpt><trkpt lat="41.0046694" lon="16.253826"><ele>636.4285714285714</ele><time>2026-04-18T09:00:43.633Z</time></trkpt><trkpt lat="41.0046814" lon="16.2537247"><ele>636.5714285714286</ele><time>2026-04-18T09:00:44.635Z</time></trkpt><trkpt lat="41.0046946" lon="16.25362"><ele>636.7142857142858</ele><time>2026-04-18T09:00:45.636Z</time></trkpt><trkpt lat="41.0047047" lon="16.2535186"><ele>636.8571428571429</ele><time>2026-04-18T09:00:46.633Z</time></trkpt><trkpt lat="41.0047205" lon="16.2534142"><ele>637.0</ele><time>2026-04-18T09:00:47.635Z</time></trkpt><trkpt lat="41.0047439" lon="16.2533064"><ele>637.0</ele><time>2026-04-18T09:00:48.634Z</time></trkpt><trkpt lat="41.0047662" lon="16.2531961"><ele>637.0</ele><time>2026-04-18T09:00:49.636Z</time></trkpt><trkpt lat="41.0047839" lon="16.253089"><ele>637.0</ele><time>2026-04-18T09:00:50.635Z</time></trkpt><trkpt lat="41.0048019" lon="16.2529774"><ele>637.0</ele><time>2026-04-18T09:00:51.634Z</time></trkpt><trkpt lat="41.0048244" lon="16.2528586"><ele>637.0</ele><time>2026-04-18T09:00:52.635Z</time></trkpt><trkpt lat="41.0048508" lon="16.2527402"><ele>637.0</ele><time>2026-04-18T09:00:53.636Z</time></trkpt><trkpt lat="41.0048748" lon="16.2526288"><ele>637.0</ele><time>2026-04-18T09:00:54.634Z</time></trkpt><trkpt lat="41.0048965" lon="16.2525282"><ele>637.0</ele><time>2026-04-18T09:00:55.634Z</time></trkpt><trkpt lat="41.0049167" lon="16.252434"><ele>637.0</ele><time>2026-04-18T09:00:56.635Z</time></trkpt><trkpt lat="41.0049367" lon="16.252336"><ele>637.0</ele><time>2026-04-18T09:00:57.634Z</time></trkpt><trkpt lat="41.0049604" lon="16.2522276"><ele>637.0</ele><time>2026-04-18T09:00:58.634Z</time></trkpt><trkpt lat="41.004984" lon="16.2521151"><ele>637.0</ele><time>2026-04-18T09:00:59.634Z</time></trkpt><trkpt lat="41.0050104" lon="16.2520018"><ele>637.1666666666667</ele><time>2026-04-18T09:01:00.633Z</time></trkpt><trkpt lat="41.0050413" lon="16.2518936"><ele>637.3333333333334</ele><time>2026-04-18T09:01:01.634Z</time></trkpt><trkpt lat="41.0050719" lon="16.2518038"><ele>637.5</ele><time>2026-04-18T09:01:02.635Z</time></trkpt><trkpt lat="41.005154" lon="16.2516836"><ele>637.6666666666666</ele><time>2026-04-18T09:01:04.636Z</time></trkpt><trkpt lat="41.0052134" lon="16.2516266"><ele>637.8333333333333</ele><time>2026-04-18T09:01:05.634Z</time></trkpt><trkpt lat="41.0052847" lon="16.2515567"><ele>638.0</ele><time>2026-04-18T09:01:06.634Z</time></trkpt><trkpt lat="41.005359" lon="16.2514813"><ele>637.0</ele><time>2026-04-18T09:01:07.633Z</time></trkpt><trkpt lat="41.0054473" lon="16.2513844"><ele>636.0</ele><time>2026-04-18T09:01:08.634Z</time></trkpt><trkpt lat="41.0055386" lon="16.2512801"><ele>635.0</ele><time>2026-04-18T09:01:09.633Z</time></trkpt><trkpt lat="41.0056264" lon="16.2511782"><ele>634.0</ele><time>2026-04-18T09:01:10.634Z</time></trkpt><trkpt lat="41.0057037" lon="16.2510851"><ele>634.0</ele><time>2026-04-18T09:01:11.634Z</time></trkpt><trkpt lat="41.0057752" lon="16.2509949"><ele>634.0</ele><time>2026-04-18T09:01:12.633Z</time></trkpt><trkpt lat="41.0058464" lon="16.2509121"><ele>634.0</ele><time>2026-04-18T09:01:13.633Z</time></trkpt><trkpt lat="41.0059166" lon="16.2508463"><ele>634.0</ele><time>2026-04-18T09:01:14.636Z</time></trkpt><trkpt lat="41.0059876" lon="16.2507992"><ele>634.0</ele><time>2026-04-18T09:01:15.633Z</time></trkpt><trkpt lat="41.0060551" lon="16.250776"><ele>634.0</ele><time>2026-04-18T09:01:16.633Z</time></trkpt><trkpt lat="41.0061779" lon="16.2508075"><ele>634.3333333333334</ele><time>2026-04-18T09:01:18.634Z</time></trkpt><trkpt lat="41.0062314" lon="16.2508528"><ele>634.6666666666667</ele><time>2026-04-18T09:01:19.635Z</time></trkpt><trkpt lat="41.0062829" lon="16.250904"><ele>635.0</ele><time>2026-04-18T09:01:20.637Z</time></trkpt><trkpt lat="41.0063387" lon="16.2509563"><ele>635.3333333333334</ele><time>2026-04-18T09:01:21.636Z</time></trkpt><trkpt lat="41.0063983" lon="16.2510045"><ele>635.6666666666666</ele><time>2026-04-18T09:01:22.634Z</time></trkpt><trkpt lat="41.006511" lon="16.2510363"><ele>636.0</ele><time>2026-04-18T09:01:24.635Z</time></trkpt><trkpt lat="41.0065993" lon="16.2509433"><ele>636.0</ele><time>2026-04-18T09:01:26.635Z</time></trkpt><trkpt lat="41.0066321" lon="16.2508551"><ele>636.0</ele><time>2026-04-18T09:01:27.634Z</time></trkpt><trkpt lat="41.0066669" lon="16.2507509"><ele>636.0</ele><time>2026-04-18T09:01:28.636Z</time></trkpt><trkpt lat="41.006708" lon="16.2506461"><ele>636.0</ele><time>2026-04-18T09:01:29.636Z</time></trkpt><trkpt lat="41.0067485" lon="16.2505414"><ele>636.0</ele><time>2026-04-18T09:01:30.635Z</time></trkpt><trkpt lat="41.0067871" lon="16.2504439"><ele>636.0</ele><time>2026-04-18T09:01:31.635Z</time></trkpt><trkpt lat="41.0068221" lon="16.2503485"><ele>635.5</ele><time>2026-04-18T09:01:32.636Z</time></trkpt><trkpt lat="41.0068512" lon="16.2502494"><ele>635.0</ele><time>2026-04-18T09:01:33.634Z</time></trkpt><trkpt lat="41.0068786" lon="16.2501546"><ele>634.5</ele><time>2026-04-18T09:01:34.635Z</time></trkpt><trkpt lat="41.0069066" lon="16.2500586"><ele>634.0</ele><time>2026-04-18T09:01:35.633Z</time></trkpt><trkpt lat="41.0069307" lon="16.2499558"><ele>633.5</ele><time>2026-04-18T09:01:36.633Z</time></trkpt><trkpt lat="41.0069537" lon="16.2498461"><ele>633.0</ele><time>2026-04-18T09:01:37.633Z</time></trkpt><trkpt lat="41.0069794" lon="16.2497326"><ele>633.0</ele><time>2026-04-18T09:01:38.635Z</time></trkpt><trkpt lat="41.0070076" lon="16.249613"><ele>633.0</ele><time>2026-04-18T09:01:39.633Z</time></trkpt><trkpt lat="41.0070428" lon="16.2494894"><ele>633.0</ele><time>2026-04-18T09:01:40.635Z</time></trkpt><trkpt lat="41.0070821" lon="16.2493598"><ele>633.0</ele><time>2026-04-18T09:01:41.634Z</time></trkpt><trkpt lat="41.0071183" lon="16.2492254"><ele>633.0</ele><time>2026-04-18T09:01:42.634Z</time></trkpt><trkpt lat="41.0071477" lon="16.249097"><ele>633.0</ele><time>2026-04-18T09:01:43.634Z</time></trkpt><trkpt lat="41.0071796" lon="16.2489835"><ele>633.0</ele><time>2026-04-18T09:01:44.635Z</time></trkpt><trkpt lat="41.0072101" lon="16.2488728"><ele>633.0</ele><time>2026-04-18T09:01:45.633Z</time></trkpt><trkpt lat="41.0072296" lon="16.2487725"><ele>633.0</ele><time>2026-04-18T09:01:46.633Z</time></trkpt><trkpt lat="41.0072393" lon="16.2486818"><ele>633.0</ele><time>2026-04-18T09:01:47.633Z</time></trkpt><trkpt lat="41.0072496" lon="16.248589"><ele>633.0</ele><time>2026-04-18T09:01:48.634Z</time></trkpt><trkpt lat="41.0072604" lon="16.2484963"><ele>632.8333333333334</ele><time>2026-04-18T09:01:49.634Z</time></trkpt><trkpt lat="41.007275" lon="16.2484076"><ele>632.6666666666666</ele><time>2026-04-18T09:01:50.634Z</time></trkpt><trkpt lat="41.0072933" lon="16.2483162"><ele>632.5</ele><time>2026-04-18T09:01:51.633Z</time></trkpt><trkpt lat="41.0073093" lon="16.2482308"><ele>632.3333333333333</ele><time>2026-04-18T09:01:52.633Z</time></trkpt><trkpt lat="41.0073423" lon="16.2480695"><ele>632.1666666666666</ele><time>2026-04-18T09:01:54.633Z</time></trkpt><trkpt lat="41.0073607" lon="16.2479879"><ele>632.0</ele><time>2026-04-18T09:01:55.636Z</time></trkpt><trkpt lat="41.0073794" lon="16.2479049"><ele>631.7142857142858</ele><time>2026-04-18T09:01:56.635Z</time></trkpt><trkpt lat="41.0074007" lon="16.2478178"><ele>631.4285714285714</ele><time>2026-04-18T09:01:57.634Z</time></trkpt><trkpt lat="41.0074209" lon="16.2477321"><ele>631.1428571428571</ele><time>2026-04-18T09:01:58.636Z</time></trkpt><trkpt lat="41.0074383" lon="16.2476507"><ele>630.8571428571429</ele><time>2026-04-18T09:01:59.634Z</time></trkpt><trkpt lat="41.0074579" lon="16.2475704"><ele>630.5714285714286</ele><time>2026-04-18T09:02:00.634Z</time></trkpt><trkpt lat="41.0074732" lon="16.2474863"><ele>630.2857142857143</ele><time>2026-04-18T09:02:01.634Z</time></trkpt><trkpt lat="41.0074921" lon="16.2473987"><ele>630.0</ele><time>2026-04-18T09:02:02.635Z</time></trkpt><trkpt lat="41.0075092" lon="16.247308"><ele>629.1666666666666</ele><time>2026-04-18T09:02:03.634Z</time></trkpt><trkpt lat="41.0075234" lon="16.2472227"><ele>628.3333333333334</ele><time>2026-04-18T09:02:04.633Z</time></trkpt><trkpt lat="41.0075416" lon="16.2471407"><ele>627.5</ele><time>2026-04-18T09:02:05.634Z</time></trkpt><trkpt lat="41.007576" lon="16.2469771"><ele>626.6666666666667</ele><time>2026-04-18T09:02:07.633Z</time></trkpt><trkpt lat="41.0075949" lon="16.246884"><ele>625.8333333333334</ele><time>2026-04-18T09:02:08.635Z</time></trkpt><trkpt lat="41.007607" lon="16.2467859"><ele>625.0</ele><time>2026-04-18T09:02:09.634Z</time></trkpt><trkpt lat="41.0076262" lon="16.2466818"><ele>625.0000000000001</ele><time>2026-04-18T09:02:10.634Z</time></trkpt><trkpt lat="41.0076462" lon="16.2465791"><ele>625.0</ele><time>2026-04-18T09:02:11.633Z</time></trkpt><trkpt lat="41.007665" lon="16.2464835"><ele>625.0</ele><time>2026-04-18T09:02:12.634Z</time></trkpt><trkpt lat="41.0076846" lon="16.2463916"><ele>625.0</ele><time>2026-04-18T09:02:13.633Z</time></trkpt><trkpt lat="41.0077058" lon="16.2462998"><ele>625.0</ele><time>2026-04-18T09:02:14.634Z</time></trkpt><trkpt lat="41.0077273" lon="16.24621"><ele>625.0000000000001</ele><time>2026-04-18T09:02:15.634Z</time></trkpt><trkpt lat="41.0077476" lon="16.2461288"><ele>625.0</ele><time>2026-04-18T09:02:16.636Z</time></trkpt><trkpt lat="41.0077782" lon="16.2459805"><ele>624.5</ele><time>2026-04-18T09:02:18.634Z</time></trkpt><trkpt lat="41.0078048" lon="16.245843"><ele>624.0</ele><time>2026-04-18T09:02:20.635Z</time></trkpt><trkpt lat="41.007845" lon="16.2456837"><ele>623.5</ele><time>2026-04-18T09:02:22.633Z</time></trkpt><trkpt lat="41.0078653" lon="16.2455938"><ele>623.0</ele><time>2026-04-18T09:02:23.634Z</time></trkpt><trkpt lat="41.0078842" lon="16.2455042"><ele>622.5</ele><time>2026-04-18T09:02:24.633Z</time></trkpt><trkpt lat="41.0079013" lon="16.2454184"><ele>622.0</ele><time>2026-04-18T09:02:25.635Z</time></trkpt><trkpt lat="41.0079318" lon="16.2452627"><ele>621.0</ele><time>2026-04-18T09:02:27.634Z</time></trkpt><trkpt lat="41.0079715" lon="16.2451062"><ele>620.0</ele><time>2026-04-18T09:02:29.635Z</time></trkpt><trkpt lat="41.0080037" lon="16.2449529"><ele>619.0</ele><time>2026-04-18T09:02:31.634Z</time></trkpt><trkpt lat="41.0080253" lon="16.2448183"><ele>618.0</ele><time>2026-04-18T09:02:33.635Z</time></trkpt><trkpt lat="41.0080464" lon="16.2446855"><ele>617.6666666666666</ele><time>2026-04-18T09:02:35.634Z</time></trkpt><trkpt lat="41.0080797" lon="16.2445374"><ele>617.3333333333334</ele><time>2026-04-18T09:02:37.635Z</time></trkpt><trkpt lat="41.0081037" lon="16.2444494"><ele>617.0</ele><time>2026-04-18T09:02:38.635Z</time></trkpt><trkpt lat="41.0081363" lon="16.2443603"><ele>616.6666666666667</ele><time>2026-04-18T09:02:39.633Z</time></trkpt><trkpt lat="41.0081775" lon="16.2442822"><ele>616.3333333333334</ele><time>2026-04-18T09:02:40.634Z</time></trkpt><trkpt lat="41.0082283" lon="16.24422"><ele>616.0</ele><time>2026-04-18T09:02:41.643Z</time></trkpt><trkpt lat="41.0082817" lon="16.244175"><ele>616.0</ele><time>2026-04-18T09:02:42.634Z</time></trkpt><trkpt lat="41.0083383" lon="16.244135"><ele>616.0</ele><time>2026-04-18T09:02:43.636Z</time></trkpt><trkpt lat="41.0084467" lon="16.244135"><ele>616.0</ele><time>2026-04-18T09:02:45.634Z</time></trkpt><trkpt lat="41.0085733" lon="16.2441617"><ele>616.0</ele><time>2026-04-18T09:02:47.633Z</time></trkpt><trkpt lat="41.0086567" lon="16.2441783"><ele>616.0</ele><time>2026-04-18T09:02:48.634Z</time></trkpt><trkpt lat="41.0087517" lon="16.2441967"><ele>616.0</ele><time>2026-04-18T09:02:49.634Z</time></trkpt><trkpt lat="41.0088667" lon="16.2442217"><ele>616.0</ele><time>2026-04-18T09:02:50.634Z</time></trkpt><trkpt lat="41.0089933" lon="16.2442433"><ele>616.0</ele><time>2026-04-18T09:02:51.635Z</time></trkpt><trkpt lat="41.0092733" lon="16.24429"><ele>616.0</ele><time>2026-04-18T09:02:53.634Z</time></trkpt><trkpt lat="41.00943" lon="16.2443167"><ele>616.0</ele><time>2026-04-18T09:02:54.633Z</time></trkpt><trkpt lat="41.0095983" lon="16.2443517"><ele>616.0</ele><time>2026-04-18T09:02:55.633Z</time></trkpt><trkpt lat="41.0097667" lon="16.24438"><ele>616.0</ele><time>2026-04-18T09:02:56.634Z</time></trkpt><trkpt lat="41.0099317" lon="16.2444083"><ele>616.0</ele><time>2026-04-18T09:02:57.634Z</time></trkpt><trkpt lat="41.0100933" lon="16.2444367"><ele>616.0</ele><time>2026-04-18T09:02:58.634Z</time></trkpt><trkpt lat="41.010255" lon="16.2444617"><ele>615.6666666666667</ele><time>2026-04-18T09:02:59.635Z</time></trkpt><trkpt lat="41.0104133" lon="16.24449"><ele>615.3333333333334</ele><time>2026-04-18T09:03:00.633Z</time></trkpt><trkpt lat="41.0105717" lon="16.244515"><ele>615.0</ele><time>2026-04-18T09:03:01.635Z</time></trkpt><trkpt lat="41.0107283" lon="16.2445383"><ele>614.5</ele><time>2026-04-18T09:03:02.635Z</time></trkpt><trkpt lat="41.0108783" lon="16.2445683"><ele>614.0</ele><time>2026-04-18T09:03:03.634Z</time></trkpt><trkpt lat="41.0110233" lon="16.2445967"><ele>613.5</ele><time>2026-04-18T09:03:04.634Z</time></trkpt><trkpt lat="41.0111583" lon="16.2446167"><ele>613.0</ele><time>2026-04-18T09:03:05.634Z</time></trkpt><trkpt lat="41.01129" lon="16.2446367"><ele>613.0</ele><time>2026-04-18T09:03:06.633Z</time></trkpt><trkpt lat="41.0114167" lon="16.244645"><ele>613.0</ele><time>2026-04-18T09:03:07.634Z</time></trkpt><trkpt lat="41.011515" lon="16.2446433"><ele>613.0</ele><time>2026-04-18T09:03:08.634Z</time></trkpt><trkpt lat="41.0115883" lon="16.244625"><ele>613.0</ele><time>2026-04-18T09:03:09.634Z</time></trkpt><trkpt lat="41.0116533" lon="16.244585"><ele>613.0</ele><time>2026-04-18T09:03:10.634Z</time></trkpt><trkpt lat="41.01171" lon="16.24452"><ele>613.0</ele><time>2026-04-18T09:03:11.634Z</time></trkpt><trkpt lat="41.011765" lon="16.24443"><ele>613.0</ele><time>2026-04-18T09:03:12.634Z</time></trkpt><trkpt lat="41.011825" lon="16.2443283"><ele>613.0</ele><time>2026-04-18T09:03:13.634Z</time></trkpt><trkpt lat="41.011975" lon="16.2440933"><ele>613.0</ele><time>2026-04-18T09:03:15.633Z</time></trkpt><trkpt lat="41.012065" lon="16.243955"><ele>613.0</ele><time>2026-04-18T09:03:16.633Z</time></trkpt><trkpt lat="41.012165" lon="16.2438"><ele>613.0</ele><time>2026-04-18T09:03:17.634Z</time></trkpt><trkpt lat="41.01227" lon="16.243635"><ele>613.0</ele><time>2026-04-18T09:03:18.633Z</time></trkpt><trkpt lat="41.0123783" lon="16.24346"><ele>612.6666666666667</ele><time>2026-04-18T09:03:19.634Z</time></trkpt><trkpt lat="41.0124933" lon="16.2432783"><ele>612.3333333333334</ele><time>2026-04-18T09:03:20.635Z</time></trkpt><trkpt lat="41.0126117" lon="16.24309"><ele>612.0</ele><time>2026-04-18T09:03:21.634Z</time></trkpt><trkpt lat="41.0127267" lon="16.2429083"><ele>612.0</ele><time>2026-04-18T09:03:22.633Z</time></trkpt><trkpt lat="41.0128333" lon="16.2427433"><ele>612.0</ele><time>2026-04-18T09:03:23.634Z</time></trkpt><trkpt lat="41.0129233" lon="16.2426017"><ele>612.0</ele><time>2026-04-18T09:03:24.635Z</time></trkpt><trkpt lat="41.0130017" lon="16.2424783"><ele>612.0</ele><time>2026-04-18T09:03:25.636Z</time></trkpt><trkpt lat="41.0130767" lon="16.2423667"><ele>612.2</ele><time>2026-04-18T09:03:26.635Z</time></trkpt><trkpt lat="41.013145" lon="16.2422667"><ele>612.4000000000001</ele><time>2026-04-18T09:03:27.634Z</time></trkpt><trkpt lat="41.0132217" lon="16.2421783"><ele>612.5999999999999</ele><time>2026-04-18T09:03:28.635Z</time></trkpt><trkpt lat="41.0133133" lon="16.24211"><ele>612.8</ele><time>2026-04-18T09:03:29.635Z</time></trkpt><trkpt lat="41.0134217" lon="16.2420683"><ele>613.0</ele><time>2026-04-18T09:03:30.634Z</time></trkpt><trkpt lat="41.0135467" lon="16.2420517"><ele>612.25</ele><time>2026-04-18T09:03:31.635Z</time></trkpt><trkpt lat="41.01368" lon="16.2420483"><ele>611.5</ele><time>2026-04-18T09:03:32.635Z</time></trkpt><trkpt lat="41.01382" lon="16.242045"><ele>610.75</ele><time>2026-04-18T09:03:33.633Z</time></trkpt><trkpt lat="41.0139733" lon="16.2420433"><ele>610.0</ele><time>2026-04-18T09:03:34.635Z</time></trkpt><trkpt lat="41.0141417" lon="16.2420383"><ele>609.6666666666667</ele><time>2026-04-18T09:03:35.634Z</time></trkpt><trkpt lat="41.014325" lon="16.24203"><ele>609.3333333333334</ele><time>2026-04-18T09:03:36.634Z</time></trkpt><trkpt lat="41.0145183" lon="16.2420233"><ele>609.0</ele><time>2026-04-18T09:03:37.635Z</time></trkpt><trkpt lat="41.0147083" lon="16.242015"><ele>609.0</ele><time>2026-04-18T09:03:38.636Z</time></trkpt><trkpt lat="41.0148933" lon="16.24201"><ele>609.0</ele><time>2026-04-18T09:03:39.634Z</time></trkpt><trkpt lat="41.015045" lon="16.2420083"><ele>609.0</ele><time>2026-04-18T09:03:40.634Z</time></trkpt><trkpt lat="41.0151933" lon="16.2420033"><ele>608.8</ele><time>2026-04-18T09:03:41.634Z</time></trkpt><trkpt lat="41.01533" lon="16.241995"><ele>608.5999999999999</ele><time>2026-04-18T09:03:42.634Z</time></trkpt><trkpt lat="41.0154383" lon="16.241995"><ele>608.4</ele><time>2026-04-18T09:03:43.633Z</time></trkpt><trkpt lat="41.0155167" lon="16.2420067"><ele>608.1999999999999</ele><time>2026-04-18T09:03:44.635Z</time></trkpt><trkpt lat="41.0156267" lon="16.24205"><ele>608.0</ele><time>2026-04-18T09:03:46.633Z</time></trkpt><trkpt lat="41.0157233" lon="16.24209"><ele>608.25</ele><time>2026-04-18T09:03:48.633Z</time></trkpt><trkpt lat="41.015865" lon="16.2421283"><ele>608.5</ele><time>2026-04-18T09:03:50.634Z</time></trkpt><trkpt lat="41.0159633" lon="16.242145"><ele>608.75</ele><time>2026-04-18T09:03:51.634Z</time></trkpt><trkpt lat="41.0160783" lon="16.2421767"><ele>609.0</ele><time>2026-04-18T09:03:52.634Z</time></trkpt><trkpt lat="41.0162017" lon="16.2422083"><ele>609.0</ele><time>2026-04-18T09:03:53.636Z</time></trkpt><trkpt lat="41.0163367" lon="16.242245"><ele>609.0</ele><time>2026-04-18T09:03:54.634Z</time></trkpt><trkpt lat="41.016485" lon="16.2422817"><ele>609.0</ele><time>2026-04-18T09:03:55.635Z</time></trkpt><trkpt lat="41.01664" lon="16.2423167"><ele>609.0</ele><time>2026-04-18T09:03:56.634Z</time></trkpt><trkpt lat="41.0168" lon="16.242355"><ele>608.6666666666666</ele><time>2026-04-18T09:03:57.633Z</time></trkpt><trkpt lat="41.0169633" lon="16.2423967"><ele>608.3333333333333</ele><time>2026-04-18T09:03:58.634Z</time></trkpt><trkpt lat="41.0171267" lon="16.2424367"><ele>608.0</ele><time>2026-04-18T09:03:59.634Z</time></trkpt><trkpt lat="41.0172867" lon="16.24248"><ele>608.0</ele><time>2026-04-18T09:04:00.634Z</time></trkpt><trkpt lat="41.0174467" lon="16.2425233"><ele>608.0</ele><time>2026-04-18T09:04:01.635Z</time></trkpt><trkpt lat="41.017605" lon="16.2425633"><ele>608.0</ele><time>2026-04-18T09:04:02.634Z</time></trkpt><trkpt lat="41.0177633" lon="16.2426017"><ele>607.6666666666666</ele><time>2026-04-18T09:04:03.634Z</time></trkpt><trkpt lat="41.01792" lon="16.2426433"><ele>607.3333333333334</ele><time>2026-04-18T09:04:04.634Z</time></trkpt><trkpt lat="41.018075" lon="16.2426817"><ele>607.0</ele><time>2026-04-18T09:04:05.635Z</time></trkpt><trkpt lat="41.01823" lon="16.2427233"><ele>607.0</ele><time>2026-04-18T09:04:06.634Z</time></trkpt><trkpt lat="41.018385" lon="16.2427667"><ele>607.0</ele><time>2026-04-18T09:04:07.634Z</time></trkpt><trkpt lat="41.0185417" lon="16.2428083"><ele>607.0</ele><time>2026-04-18T09:04:08.635Z</time></trkpt><trkpt lat="41.0186883" lon="16.24285"><ele>607.0</ele><time>2026-04-18T09:04:09.635Z</time></trkpt><trkpt lat="41.01882" lon="16.242885"><ele>607.0</ele><time>2026-04-18T09:04:10.633Z</time></trkpt><trkpt lat="41.0189433" lon="16.2429167"><ele>607.0</ele><time>2026-04-18T09:04:11.633Z</time></trkpt><trkpt lat="41.01906" lon="16.24293"><ele>607.0</ele><time>2026-04-18T09:04:12.633Z</time></trkpt><trkpt lat="41.0191817" lon="16.242925"><ele>607.75</ele><time>2026-04-18T09:04:13.633Z</time></trkpt><trkpt lat="41.019315" lon="16.2429017"><ele>608.5</ele><time>2026-04-18T09:04:14.634Z</time></trkpt><trkpt lat="41.0194583" lon="16.2428717"><ele>609.25</ele><time>2026-04-18T09:04:15.633Z</time></trkpt><trkpt lat="41.0196083" lon="16.24284"><ele>610.0</ele><time>2026-04-18T09:04:16.633Z</time></trkpt><trkpt lat="41.0197583" lon="16.242805"><ele>610.0</ele><time>2026-04-18T09:04:17.634Z</time></trkpt><trkpt lat="41.0199017" lon="16.2427683"><ele>610.0</ele><time>2026-04-18T09:04:18.634Z</time></trkpt><trkpt lat="41.020045" lon="16.24273"><ele>610.0</ele><time>2026-04-18T09:04:19.635Z</time></trkpt><trkpt lat="41.020195" lon="16.2426983"><ele>610.0</ele><time>2026-04-18T09:04:20.634Z</time></trkpt><trkpt lat="41.0203433" lon="16.242665"><ele>609.3333333333334</ele><time>2026-04-18T09:04:21.633Z</time></trkpt><trkpt lat="41.02049" lon="16.2426333"><ele>608.6666666666666</ele><time>2026-04-18T09:04:22.633Z</time></trkpt><trkpt lat="41.02064" lon="16.2426017"><ele>608.0</ele><time>2026-04-18T09:04:23.634Z</time></trkpt><trkpt lat="41.0207917" lon="16.2425667"><ele>606.0</ele><time>2026-04-18T09:04:24.633Z</time></trkpt><trkpt lat="41.0209433" lon="16.24253"><ele>604.0</ele><time>2026-04-18T09:04:25.634Z</time></trkpt><trkpt lat="41.021095" lon="16.2424917"><ele>602.0</ele><time>2026-04-18T09:04:26.634Z</time></trkpt><trkpt lat="41.02125" lon="16.242455"><ele>602.0</ele><time>2026-04-18T09:04:27.633Z</time></trkpt><trkpt lat="41.021405" lon="16.24242"><ele>602.0</ele><time>2026-04-18T09:04:28.634Z</time></trkpt><trkpt lat="41.0215617" lon="16.2423833"><ele>602.0</ele><time>2026-04-18T09:04:29.633Z</time></trkpt><trkpt lat="41.02171" lon="16.24235"><ele>602.0</ele><time>2026-04-18T09:04:30.633Z</time></trkpt><trkpt lat="41.02183" lon="16.242325"><ele>602.0</ele><time>2026-04-18T09:04:31.634Z</time></trkpt><trkpt lat="41.0219217" lon="16.2423017"><ele>602.0</ele><time>2026-04-18T09:04:32.635Z</time></trkpt><trkpt lat="41.021995" lon="16.2422667"><ele>602.0</ele><time>2026-04-18T09:04:33.634Z</time></trkpt><trkpt lat="41.0220633" lon="16.242215"><ele>602.0</ele><time>2026-04-18T09:04:34.633Z</time></trkpt><trkpt lat="41.02213" lon="16.242145"><ele>602.0</ele><time>2026-04-18T09:04:35.634Z</time></trkpt><trkpt lat="41.0221983" lon="16.242045"><ele>602.0</ele><time>2026-04-18T09:04:36.634Z</time></trkpt><trkpt lat="41.02227" lon="16.2419217"><ele>602.0</ele><time>2026-04-18T09:04:37.633Z</time></trkpt><trkpt lat="41.0223533" lon="16.2417867"><ele>602.0</ele><time>2026-04-18T09:04:38.635Z</time></trkpt><trkpt lat="41.0224467" lon="16.2416333"><ele>601.0</ele><time>2026-04-18T09:04:39.634Z</time></trkpt><trkpt lat="41.0225467" lon="16.2414667"><ele>600.0</ele><time>2026-04-18T09:04:40.633Z</time></trkpt><trkpt lat="41.0226533" lon="16.2412933"><ele>599.0</ele><time>2026-04-18T09:04:41.633Z</time></trkpt><trkpt lat="41.0227617" lon="16.241105"><ele>599.0</ele><time>2026-04-18T09:04:42.633Z</time></trkpt><trkpt lat="41.0228733" lon="16.2409133"><ele>599.0</ele><time>2026-04-18T09:04:43.634Z</time></trkpt><trkpt lat="41.0229783" lon="16.2407317"><ele>599.0</ele><time>2026-04-18T09:04:44.636Z</time></trkpt><trkpt lat="41.0230783" lon="16.2405633"><ele>599.3333333333333</ele><time>2026-04-18T09:04:45.633Z</time></trkpt><trkpt lat="41.0231767" lon="16.2404017"><ele>599.6666666666666</ele><time>2026-04-18T09:04:46.633Z</time></trkpt><trkpt lat="41.023275" lon="16.240235"><ele>600.0</ele><time>2026-04-18T09:04:47.634Z</time></trkpt><trkpt lat="41.0233783" lon="16.2400617"><ele>599.0</ele><time>2026-04-18T09:04:48.634Z</time></trkpt><trkpt lat="41.0234833" lon="16.239885"><ele>598.0</ele><time>2026-04-18T09:04:49.634Z</time></trkpt><trkpt lat="41.02359" lon="16.2397083"><ele>597.0</ele><time>2026-04-18T09:04:50.634Z</time></trkpt><trkpt lat="41.023695" lon="16.23953"><ele>596.6666666666666</ele><time>2026-04-18T09:04:51.634Z</time></trkpt><trkpt lat="41.0237967" lon="16.239355"><ele>596.3333333333333</ele><time>2026-04-18T09:04:52.634Z</time></trkpt><trkpt lat="41.0238967" lon="16.2391883"><ele>596.0</ele><time>2026-04-18T09:04:53.634Z</time></trkpt><trkpt lat="41.0239983" lon="16.2390283"><ele>596.0</ele><time>2026-04-18T09:04:54.634Z</time></trkpt><trkpt lat="41.0240983" lon="16.238865"><ele>596.0</ele><time>2026-04-18T09:04:55.634Z</time></trkpt><trkpt lat="41.0241967" lon="16.238695"><ele>596.0</ele><time>2026-04-18T09:04:56.634Z</time></trkpt><trkpt lat="41.0242983" lon="16.2385217"><ele>595.0</ele><time>2026-04-18T09:04:57.634Z</time></trkpt><trkpt lat="41.0244017" lon="16.2383483"><ele>594.0</ele><time>2026-04-18T09:04:58.634Z</time></trkpt><trkpt lat="41.024505" lon="16.2381733"><ele>593.0</ele><time>2026-04-18T09:04:59.634Z</time></trkpt><trkpt lat="41.0246067" lon="16.238"><ele>592.75</ele><time>2026-04-18T09:05:00.633Z</time></trkpt><trkpt lat="41.0247067" lon="16.2378383"><ele>592.5</ele><time>2026-04-18T09:05:01.633Z</time></trkpt><trkpt lat="41.0247967" lon="16.2376833"><ele>592.25</ele><time>2026-04-18T09:05:02.634Z</time></trkpt><trkpt lat="41.02488" lon="16.2375417"><ele>592.0</ele><time>2026-04-18T09:05:03.633Z</time></trkpt><trkpt lat="41.0249583" lon="16.237405"><ele>591.8000000000001</ele><time>2026-04-18T09:05:04.634Z</time></trkpt><trkpt lat="41.0250333" lon="16.2372783"><ele>591.6</ele><time>2026-04-18T09:05:05.635Z</time></trkpt><trkpt lat="41.0251067" lon="16.2371667"><ele>591.4000000000001</ele><time>2026-04-18T09:05:06.634Z</time></trkpt><trkpt lat="41.0251817" lon="16.2370733"><ele>591.2</ele><time>2026-04-18T09:05:07.633Z</time></trkpt><trkpt lat="41.0252583" lon="16.2369983"><ele>591.0</ele><time>2026-04-18T09:05:08.635Z</time></trkpt><trkpt lat="41.02535" lon="16.23695"><ele>591.0</ele><time>2026-04-18T09:05:09.633Z</time></trkpt><trkpt lat="41.025455" lon="16.236905"><ele>591.0</ele><time>2026-04-18T09:05:10.633Z</time></trkpt><trkpt lat="41.0255733" lon="16.23685"><ele>591.0</ele><time>2026-04-18T09:05:11.633Z</time></trkpt><trkpt lat="41.0257033" lon="16.23679"><ele>591.0</ele><time>2026-04-18T09:05:12.634Z</time></trkpt><trkpt lat="41.0258367" lon="16.2367283"><ele>590.4</ele><time>2026-04-18T09:05:13.633Z</time></trkpt><trkpt lat="41.02596" lon="16.2366683"><ele>589.8</ele><time>2026-04-18T09:05:14.633Z</time></trkpt><trkpt lat="41.026075" lon="16.2366133"><ele>589.1999999999999</ele><time>2026-04-18T09:05:15.633Z</time></trkpt><trkpt lat="41.0261733" lon="16.23656"><ele>588.6</ele><time>2026-04-18T09:05:16.633Z</time></trkpt><trkpt lat="41.0262517" lon="16.2365067"><ele>588.0</ele><time>2026-04-18T09:05:17.635Z</time></trkpt><trkpt lat="41.026315" lon="16.2364417"><ele>588.0</ele><time>2026-04-18T09:05:18.634Z</time></trkpt><trkpt lat="41.0263767" lon="16.2363583"><ele>588.0</ele><time>2026-04-18T09:05:19.634Z</time></trkpt><trkpt lat="41.02644" lon="16.2362583"><ele>588.0</ele><time>2026-04-18T09:05:20.634Z</time></trkpt><trkpt lat="41.0265017" lon="16.2361517"><ele>588.0</ele><time>2026-04-18T09:05:21.634Z</time></trkpt><trkpt lat="41.02656" lon="16.23606"><ele>588.0</ele><time>2026-04-18T09:05:22.633Z</time></trkpt><trkpt lat="41.0266133" lon="16.2359817"><ele>588.0</ele><time>2026-04-18T09:05:23.635Z</time></trkpt><trkpt lat="41.0266583" lon="16.2359033"><ele>588.0</ele><time>2026-04-18T09:05:24.634Z</time></trkpt><trkpt lat="41.026695" lon="16.2358333"><ele>588.0</ele><time>2026-04-18T09:05:25.633Z</time></trkpt><trkpt lat="41.0267333" lon="16.235765"><ele>588.0</ele><time>2026-04-18T09:05:26.633Z</time></trkpt><trkpt lat="41.0267733" lon="16.23569"><ele>588.0</ele><time>2026-04-18T09:05:27.639Z</time></trkpt><trkpt lat="41.026815" lon="16.235605"><ele>588.0</ele><time>2026-04-18T09:05:28.634Z</time></trkpt><trkpt lat="41.02686" lon="16.2355117"><ele>588.0</ele><time>2026-04-18T09:05:29.635Z</time></trkpt><trkpt lat="41.02691" lon="16.2354167"><ele>588.0</ele><time>2026-04-18T09:05:30.633Z</time></trkpt><trkpt lat="41.0269683" lon="16.23532"><ele>588.0</ele><time>2026-04-18T09:05:31.634Z</time></trkpt><trkpt lat="41.0270317" lon="16.2352083"><ele>588.0</ele><time>2026-04-18T09:05:32.635Z</time></trkpt><trkpt lat="41.0270967" lon="16.23509"><ele>588.0</ele><time>2026-04-18T09:05:33.634Z</time></trkpt><trkpt lat="41.02717" lon="16.2349633"><ele>588.0</ele><time>2026-04-18T09:05:34.634Z</time></trkpt><trkpt lat="41.027245" lon="16.2348383"><ele>587.8</ele><time>2026-04-18T09:05:35.634Z</time></trkpt><trkpt lat="41.02732" lon="16.2347117"><ele>587.5999999999999</ele><time>2026-04-18T09:05:36.634Z</time></trkpt><trkpt lat="41.02739" lon="16.2345917"><ele>587.4000000000001</ele><time>2026-04-18T09:05:37.635Z</time></trkpt><trkpt lat="41.0274533" lon="16.2344883"><ele>587.2</ele><time>2026-04-18T09:05:38.634Z</time></trkpt><trkpt lat="41.0275083" lon="16.2343817"><ele>587.0</ele><time>2026-04-18T09:05:39.634Z</time></trkpt><trkpt lat="41.0276283" lon="16.2341617"><ele>587.0</ele><time>2026-04-18T09:05:41.634Z</time></trkpt><trkpt lat="41.0276933" lon="16.234055"><ele>587.0</ele><time>2026-04-18T09:05:42.633Z</time></trkpt><trkpt lat="41.02776" lon="16.233945"><ele>587.0</ele><time>2026-04-18T09:05:43.634Z</time></trkpt><trkpt lat="41.0278233" lon="16.233835"><ele>587.0</ele><time>2026-04-18T09:05:44.634Z</time></trkpt><trkpt lat="41.0278833" lon="16.2337283"><ele>587.0</ele><time>2026-04-18T09:05:45.633Z</time></trkpt><trkpt lat="41.0279483" lon="16.2336133"><ele>587.3333333333333</ele><time>2026-04-18T09:05:46.633Z</time></trkpt><trkpt lat="41.0280833" lon="16.2333783"><ele>587.6666666666666</ele><time>2026-04-18T09:05:48.635Z</time></trkpt><trkpt lat="41.0281633" lon="16.2332433"><ele>588.0</ele><time>2026-04-18T09:05:49.636Z</time></trkpt><trkpt lat="41.0282517" lon="16.23309"><ele>588.3333333333334</ele><time>2026-04-18T09:05:50.635Z</time></trkpt><trkpt lat="41.0283417" lon="16.2329283"><ele>588.6666666666667</ele><time>2026-04-18T09:05:51.635Z</time></trkpt><trkpt lat="41.0284383" lon="16.2327567"><ele>589.0</ele><time>2026-04-18T09:05:52.635Z</time></trkpt><trkpt lat="41.02854" lon="16.2325733"><ele>589.0</ele><time>2026-04-18T09:05:53.636Z</time></trkpt><trkpt lat="41.02865" lon="16.232385"><ele>589.0</ele><time>2026-04-18T09:05:54.636Z</time></trkpt><trkpt lat="41.028765" lon="16.23219"><ele>589.0</ele><time>2026-04-18T09:05:55.634Z</time></trkpt><trkpt lat="41.0288783" lon="16.231995"><ele>589.3333333333334</ele><time>2026-04-18T09:05:56.636Z</time></trkpt><trkpt lat="41.028985" lon="16.2318067"><ele>589.6666666666666</ele><time>2026-04-18T09:05:57.633Z</time></trkpt><trkpt lat="41.0290917" lon="16.2316183"><ele>590.0</ele><time>2026-04-18T09:05:58.633Z</time></trkpt><trkpt lat="41.0291933" lon="16.2314333"><ele>590.0</ele><time>2026-04-18T09:05:59.634Z</time></trkpt><trkpt lat="41.0292883" lon="16.2312633"><ele>590.0</ele><time>2026-04-18T09:06:00.635Z</time></trkpt><trkpt lat="41.02937" lon="16.2311167"><ele>590.0</ele><time>2026-04-18T09:06:01.635Z</time></trkpt><trkpt lat="41.0294383" lon="16.2309917"><ele>590.0</ele><time>2026-04-18T09:06:02.635Z</time></trkpt><trkpt lat="41.0295017" lon="16.2308833"><ele>590.0</ele><time>2026-04-18T09:06:03.633Z</time></trkpt><trkpt lat="41.0295667" lon="16.2307867"><ele>590.0</ele><time>2026-04-18T09:06:04.633Z</time></trkpt><trkpt lat="41.0296383" lon="16.2306683"><ele>590.0</ele><time>2026-04-18T09:06:05.634Z</time></trkpt><trkpt lat="41.0297217" lon="16.230525"><ele>590.0</ele><time>2026-04-18T09:06:06.633Z</time></trkpt><trkpt lat="41.0298117" lon="16.23036"><ele>590.0</ele><time>2026-04-18T09:06:07.633Z</time></trkpt><trkpt lat="41.0299133" lon="16.230175"><ele>590.0</ele><time>2026-04-18T09:06:08.634Z</time></trkpt><trkpt lat="41.0300183" lon="16.2299867"><ele>590.0</ele><time>2026-04-18T09:06:09.633Z</time></trkpt><trkpt lat="41.0301267" lon="16.2298"><ele>590.25</ele><time>2026-04-18T09:06:10.634Z</time></trkpt><trkpt lat="41.0302267" lon="16.22962"><ele>590.5</ele><time>2026-04-18T09:06:11.634Z</time></trkpt><trkpt lat="41.0303167" lon="16.2294617"><ele>590.75</ele><time>2026-04-18T09:06:12.634Z</time></trkpt><trkpt lat="41.0303917" lon="16.2293333"><ele>591.0</ele><time>2026-04-18T09:06:13.633Z</time></trkpt><trkpt lat="41.030455" lon="16.22922"><ele>591.0</ele><time>2026-04-18T09:06:14.634Z</time></trkpt><trkpt lat="41.03052" lon="16.229105"><ele>591.0</ele><time>2026-04-18T09:06:15.633Z</time></trkpt><trkpt lat="41.0305817" lon="16.2289833"><ele>591.0</ele><time>2026-04-18T09:06:16.634Z</time></trkpt><trkpt lat="41.030645" lon="16.2288717"><ele>591.0</ele><time>2026-04-18T09:06:17.634Z</time></trkpt><trkpt lat="41.0307233" lon="16.22877"><ele>591.0</ele><time>2026-04-18T09:06:18.634Z</time></trkpt><trkpt lat="41.03082" lon="16.2286717"><ele>590.4</ele><time>2026-04-18T09:06:19.633Z</time></trkpt><trkpt lat="41.0309233" lon="16.2285817"><ele>589.8</ele><time>2026-04-18T09:06:20.634Z</time></trkpt><trkpt lat="41.0310133" lon="16.2285017"><ele>589.1999999999999</ele><time>2026-04-18T09:06:21.635Z</time></trkpt><trkpt lat="41.0310917" lon="16.2284317"><ele>588.6</ele><time>2026-04-18T09:06:22.633Z</time></trkpt><trkpt lat="41.0311683" lon="16.228365"><ele>588.0</ele><time>2026-04-18T09:06:23.633Z</time></trkpt><trkpt lat="41.0312417" lon="16.2282983"><ele>588.0</ele><time>2026-04-18T09:06:24.633Z</time></trkpt><trkpt lat="41.031315" lon="16.228235"><ele>588.0</ele><time>2026-04-18T09:06:25.634Z</time></trkpt><trkpt lat="41.031385" lon="16.2281717"><ele>588.0</ele><time>2026-04-18T09:06:26.634Z</time></trkpt><trkpt lat="41.0314533" lon="16.2281017"><ele>588.0</ele><time>2026-04-18T09:06:27.633Z</time></trkpt><trkpt lat="41.0315367" lon="16.22803"><ele>588.0</ele><time>2026-04-18T09:06:28.634Z</time></trkpt><trkpt lat="41.0316267" lon="16.2279517"><ele>585.25</ele><time>2026-04-18T09:06:29.633Z</time></trkpt><trkpt lat="41.0317217" lon="16.2278567"><ele>582.5</ele><time>2026-04-18T09:06:30.633Z</time></trkpt><trkpt lat="41.0318267" lon="16.2277567"><ele>579.75</ele><time>2026-04-18T09:06:31.634Z</time></trkpt><trkpt lat="41.0319383" lon="16.2276617"><ele>577.0</ele><time>2026-04-18T09:06:32.634Z</time></trkpt><trkpt lat="41.032055" lon="16.227565"><ele>577.0</ele><time>2026-04-18T09:06:33.633Z</time></trkpt><trkpt lat="41.0321717" lon="16.2274683"><ele>577.0</ele><time>2026-04-18T09:06:34.633Z</time></trkpt><trkpt lat="41.03228" lon="16.2273733"><ele>577.0</ele><time>2026-04-18T09:06:35.634Z</time></trkpt><trkpt lat="41.0323867" lon="16.2272867"><ele>577.0</ele><time>2026-04-18T09:06:36.633Z</time></trkpt><trkpt lat="41.0324917" lon="16.2271917"><ele>575.5</ele><time>2026-04-18T09:06:37.633Z</time></trkpt><trkpt lat="41.0326" lon="16.2270933"><ele>574.0</ele><time>2026-04-18T09:06:38.634Z</time></trkpt><trkpt lat="41.0327083" lon="16.2269933"><ele>572.5</ele><time>2026-04-18T09:06:39.633Z</time></trkpt><trkpt lat="41.0328117" lon="16.2268917"><ele>571.0</ele><time>2026-04-18T09:06:40.634Z</time></trkpt><trkpt lat="41.03291" lon="16.2268"><ele>571.0</ele><time>2026-04-18T09:06:41.633Z</time></trkpt><trkpt lat="41.0330133" lon="16.2267083"><ele>571.0</ele><time>2026-04-18T09:06:42.633Z</time></trkpt><trkpt lat="41.033115" lon="16.22662"><ele>571.0</ele><time>2026-04-18T09:06:43.633Z</time></trkpt><trkpt lat="41.0332117" lon="16.226535"><ele>571.0</ele><time>2026-04-18T09:06:44.634Z</time></trkpt><trkpt lat="41.0332967" lon="16.2264567"><ele>570.0</ele><time>2026-04-18T09:06:45.634Z</time></trkpt><trkpt lat="41.0333733" lon="16.2263833"><ele>569.0</ele><time>2026-04-18T09:06:46.635Z</time></trkpt><trkpt lat="41.0334383" lon="16.2263233"><ele>568.0</ele><time>2026-04-18T09:06:47.633Z</time></trkpt><trkpt lat="41.0334917" lon="16.2262767"><ele>567.0</ele><time>2026-04-18T09:06:48.634Z</time></trkpt><trkpt lat="41.0335483" lon="16.22623"><ele>566.0</ele><time>2026-04-18T09:06:49.634Z</time></trkpt><trkpt lat="41.033785" lon="16.226015"><ele>566.0</ele><time>2026-04-18T09:06:52.634Z</time></trkpt><trkpt lat="41.03389" lon="16.2259233"><ele>566.0</ele><time>2026-04-18T09:06:53.633Z</time></trkpt><trkpt lat="41.034005" lon="16.225825"><ele>566.0</ele><time>2026-04-18T09:06:54.634Z</time></trkpt><trkpt lat="41.0341283" lon="16.22572"><ele>566.0</ele><time>2026-04-18T09:06:55.634Z</time></trkpt><trkpt lat="41.0342633" lon="16.2256017"><ele>563.6666666666666</ele><time>2026-04-18T09:06:56.634Z</time></trkpt><trkpt lat="41.034405" lon="16.2254717"><ele>561.3333333333334</ele><time>2026-04-18T09:06:57.633Z</time></trkpt><trkpt lat="41.0345517" lon="16.2253367"><ele>559.0</ele><time>2026-04-18T09:06:58.634Z</time></trkpt><trkpt lat="41.0347067" lon="16.225195"><ele>559.0</ele><time>2026-04-18T09:06:59.634Z</time></trkpt><trkpt lat="41.03487" lon="16.2250467"><ele>559.0</ele><time>2026-04-18T09:07:00.635Z</time></trkpt><trkpt lat="41.0350433" lon="16.22489"><ele>559.0</ele><time>2026-04-18T09:07:01.635Z</time></trkpt><trkpt lat="41.0352167" lon="16.22473"><ele>557.0</ele><time>2026-04-18T09:07:02.636Z</time></trkpt><trkpt lat="41.0353833" lon="16.2245767"><ele>555.0</ele><time>2026-04-18T09:07:03.633Z</time></trkpt><trkpt lat="41.0355433" lon="16.22443"><ele>553.0</ele><time>2026-04-18T09:07:04.634Z</time></trkpt><trkpt lat="41.0357" lon="16.22429"><ele>552.3333333333334</ele><time>2026-04-18T09:07:05.636Z</time></trkpt><trkpt lat="41.035855" lon="16.2241517"><ele>551.6666666666666</ele><time>2026-04-18T09:07:06.635Z</time></trkpt><trkpt lat="41.0360117" lon="16.224015"><ele>551.0</ele><time>2026-04-18T09:07:07.634Z</time></trkpt><trkpt lat="41.0361667" lon="16.2238783"><ele>550.3333333333333</ele><time>2026-04-18T09:07:08.634Z</time></trkpt><trkpt lat="41.0363167" lon="16.2237417"><ele>549.6666666666666</ele><time>2026-04-18T09:07:09.633Z</time></trkpt><trkpt lat="41.0364617" lon="16.22361"><ele>549.0</ele><time>2026-04-18T09:07:10.633Z</time></trkpt><trkpt lat="41.0366" lon="16.223485"><ele>548.3333333333334</ele><time>2026-04-18T09:07:11.634Z</time></trkpt><trkpt lat="41.0367367" lon="16.2233617"><ele>547.6666666666667</ele><time>2026-04-18T09:07:12.634Z</time></trkpt><trkpt lat="41.0368733" lon="16.2232383"><ele>547.0</ele><time>2026-04-18T09:07:13.634Z</time></trkpt><trkpt lat="41.03701" lon="16.2231167"><ele>546.6666666666667</ele><time>2026-04-18T09:07:14.634Z</time></trkpt><trkpt lat="41.0371467" lon="16.222995"><ele>546.3333333333334</ele><time>2026-04-18T09:07:15.633Z</time></trkpt><trkpt lat="41.0372883" lon="16.22287"><ele>546.0</ele><time>2026-04-18T09:07:16.634Z</time></trkpt><trkpt lat="41.0374283" lon="16.2227433"><ele>545.6666666666666</ele><time>2026-04-18T09:07:17.633Z</time></trkpt><trkpt lat="41.0375717" lon="16.2226117"><ele>545.3333333333333</ele><time>2026-04-18T09:07:18.634Z</time></trkpt><trkpt lat="41.0377167" lon="16.2224833"><ele>545.0</ele><time>2026-04-18T09:07:19.634Z</time></trkpt><trkpt lat="41.0378567" lon="16.22236"><ele>544.3333333333333</ele><time>2026-04-18T09:07:20.633Z</time></trkpt><trkpt lat="41.037995" lon="16.222235"><ele>543.6666666666666</ele><time>2026-04-18T09:07:21.634Z</time></trkpt><trkpt lat="41.038135" lon="16.2221067"><ele>543.0</ele><time>2026-04-18T09:07:22.633Z</time></trkpt><trkpt lat="41.0382783" lon="16.22198"><ele>543.0</ele><time>2026-04-18T09:07:23.633Z</time></trkpt><trkpt lat="41.038425" lon="16.2218483"><ele>543.0</ele><time>2026-04-18T09:07:24.634Z</time></trkpt><trkpt lat="41.038575" lon="16.2217083"><ele>543.0</ele><time>2026-04-18T09:07:25.635Z</time></trkpt><trkpt lat="41.0387267" lon="16.22157"><ele>542.3333333333334</ele><time>2026-04-18T09:07:26.634Z</time></trkpt><trkpt lat="41.0388783" lon="16.2214367"><ele>541.6666666666667</ele><time>2026-04-18T09:07:27.633Z</time></trkpt><trkpt lat="41.0390283" lon="16.2213067"><ele>541.0</ele><time>2026-04-18T09:07:28.633Z</time></trkpt><trkpt lat="41.03918" lon="16.221175"><ele>541.0</ele><time>2026-04-18T09:07:29.633Z</time></trkpt><trkpt lat="41.0393233" lon="16.2210467"><ele>541.0</ele><time>2026-04-18T09:07:30.634Z</time></trkpt><trkpt lat="41.03946" lon="16.220925"><ele>541.0</ele><time>2026-04-18T09:07:31.633Z</time></trkpt><trkpt lat="41.0395867" lon="16.22081"><ele>541.0</ele><time>2026-04-18T09:07:32.634Z</time></trkpt><trkpt lat="41.0397083" lon="16.2207"><ele>541.0</ele><time>2026-04-18T09:07:33.634Z</time></trkpt><trkpt lat="41.0398333" lon="16.2205833"><ele>541.0</ele><time>2026-04-18T09:07:34.635Z</time></trkpt><trkpt lat="41.0399583" lon="16.22046"><ele>540.6666666666667</ele><time>2026-04-18T09:07:35.633Z</time></trkpt><trkpt lat="41.0400817" lon="16.220325"><ele>540.3333333333334</ele><time>2026-04-18T09:07:36.633Z</time></trkpt><trkpt lat="41.040205" lon="16.2201833"><ele>540.0</ele><time>2026-04-18T09:07:37.634Z</time></trkpt><trkpt lat="41.0403283" lon="16.2200267"><ele>540.0</ele><time>2026-04-18T09:07:38.635Z</time></trkpt><trkpt lat="41.0404433" lon="16.219865"><ele>540.0</ele><time>2026-04-18T09:07:39.634Z</time></trkpt><trkpt lat="41.0405517" lon="16.21971"><ele>540.0</ele><time>2026-04-18T09:07:40.633Z</time></trkpt><trkpt lat="41.0406517" lon="16.2195683"><ele>540.0</ele><time>2026-04-18T09:07:41.634Z</time></trkpt><trkpt lat="41.0407517" lon="16.2194267"><ele>540.0</ele><time>2026-04-18T09:07:42.633Z</time></trkpt><trkpt lat="41.0408517" lon="16.219285"><ele>540.0</ele><time>2026-04-18T09:07:43.634Z</time></trkpt><trkpt lat="41.0409467" lon="16.2191433"><ele>540.0</ele><time>2026-04-18T09:07:44.634Z</time></trkpt><trkpt lat="41.0410317" lon="16.2190117"><ele>539.0</ele><time>2026-04-18T09:07:45.634Z</time></trkpt><trkpt lat="41.041105" lon="16.2188983"><ele>537.0</ele><time>2026-04-18T09:07:46.634Z</time></trkpt><trkpt lat="41.041165" lon="16.2188083"><ele>537.0</ele><time>2026-04-18T09:07:47.634Z</time></trkpt><trkpt lat="41.0412183" lon="16.2187267"><ele>537.0</ele><time>2026-04-18T09:07:48.634Z</time></trkpt><trkpt lat="41.0412933" lon="16.218635"><ele>537.0</ele><time>2026-04-18T09:07:50.634Z</time></trkpt></trkseg></trk></gpx>